<?xml version="1.0" encoding="UTF-8" standalone="no" ?>
<gpx xmlns="http://www.topografix.com/GPX/1/1" xmlns:xsi="http://www.w3.org/2001/XMLSchema-instance" xsi:schemaLocation="http://www.topografix.com/GPX/1/1 http://www.topografix.com/GPX/1/1/gpx.xsd" version="1.1" creator="VisuGPX - https://www.visugpx.com">
  <metadata>
    <name>Tercé (86)</name>
    <desc><![CDATA[Randonnée en boucle de 12 Km au départ de Tercé]]></desc>
  </metadata>
  <trk>
    <name><![CDATA[Tercé (86)_1]]></name>
    <extensions>
      <line xmlns="http://www.topografix.com/GPX/gpx_style/0/2">
        <color>0000FF</color>
        <width>4</width>
      </line>
    </extensions>
    <trkseg>
      <trkpt lat="46.51719" lon="0.56747">
        <ele>126.88157132925</ele>
        <time>2021-03-18T07:40:42Z</time>
      </trkpt>
      <trkpt lat="46.51717" lon="0.5675">
        <ele>126.81157786343</ele>
        <time>2021-03-18T07:40:43Z</time>
      </trkpt>
      <trkpt lat="46.51707" lon="0.56742">
        <ele>126.71875249733</ele>
        <time>2021-03-18T07:40:44Z</time>
      </trkpt>
      <trkpt lat="46.51704" lon="0.56739">
        <ele>126.85081330149</ele>
        <time>2021-03-18T07:40:45Z</time>
      </trkpt>
      <trkpt lat="46.51702" lon="0.56739">
        <ele>127.01556976324</ele>
        <time>2021-03-18T07:40:46Z</time>
      </trkpt>
      <trkpt lat="46.51701" lon="0.56741">
        <ele>127.05358812428</ele>
        <time>2021-03-18T07:40:47Z</time>
      </trkpt>
      <trkpt lat="46.51699" lon="0.56742">
        <ele>126.99940589539</ele>
        <time>2021-03-18T07:40:48Z</time>
      </trkpt>
      <trkpt lat="46.51697" lon="0.56745">
        <ele>126.98123489547</ele>
        <time>2021-03-18T07:40:50Z</time>
      </trkpt>
      <trkpt lat="46.51695" lon="0.56745">
        <ele>126.9544437211</ele>
        <time>2021-03-18T07:40:55Z</time>
      </trkpt>
      <trkpt lat="46.51695" lon="0.56743">
        <ele>126.83709911723</ele>
        <time>2021-03-18T07:40:59Z</time>
      </trkpt>
      <trkpt lat="46.51696" lon="0.56745">
        <ele>126.87828458007</ele>
        <time>2021-03-18T07:41:24Z</time>
      </trkpt>
      <trkpt lat="46.51695" lon="0.56747">
        <ele>127.01549429074</ele>
        <time>2021-03-18T07:41:28Z</time>
      </trkpt>
      <trkpt lat="46.51694" lon="0.56746">
        <ele>126.57075798325</ele>
        <time>2021-03-18T07:41:35Z</time>
      </trkpt>
      <trkpt lat="46.51695" lon="0.56747">
        <ele>126.71210918948</ele>
        <time>2021-03-18T07:41:57Z</time>
      </trkpt>
      <trkpt lat="46.51694" lon="0.56749">
        <ele>126.75983239897</ele>
        <time>2021-03-18T07:42:19Z</time>
      </trkpt>
      <trkpt lat="46.51693" lon="0.56746">
        <ele>126.91224725079</ele>
        <time>2021-03-18T07:42:28Z</time>
      </trkpt>
      <trkpt lat="46.51692" lon="0.56746">
        <ele>126.97657353804</ele>
        <time>2021-03-18T07:42:32Z</time>
      </trkpt>
      <trkpt lat="46.5169" lon="0.56747">
        <ele>126.74286393542</ele>
        <time>2021-03-18T07:43:05Z</time>
      </trkpt>
      <trkpt lat="46.5169" lon="0.5675">
        <ele>126.81094490644</ele>
        <time>2021-03-18T07:43:29Z</time>
      </trkpt>
      <trkpt lat="46.51691" lon="0.56752">
        <ele>127.05198210571</ele>
        <time>2021-03-18T07:43:40Z</time>
      </trkpt>
      <trkpt lat="46.51689" lon="0.56753">
        <ele>126.99417284317</ele>
        <time>2021-03-18T07:43:53Z</time>
      </trkpt>
      <trkpt lat="46.51688" lon="0.56751">
        <ele>126.87488593161</ele>
        <time>2021-03-18T07:44:04Z</time>
      </trkpt>
      <trkpt lat="46.5169" lon="0.56748">
        <ele>126.98139347602</ele>
        <time>2021-03-18T07:44:10Z</time>
      </trkpt>
      <trkpt lat="46.51691" lon="0.5675">
        <ele>126.80223763455</ele>
        <time>2021-03-18T07:44:29Z</time>
      </trkpt>
      <trkpt lat="46.51692" lon="0.56752">
        <ele>127.2909010509</ele>
        <time>2021-03-18T07:44:39Z</time>
      </trkpt>
      <trkpt lat="46.5169" lon="0.56751">
        <ele>127.23954735231</ele>
        <time>2021-03-18T07:44:50Z</time>
      </trkpt>
      <trkpt lat="46.51689" lon="0.56752">
        <ele>126.81215330772</ele>
        <time>2021-03-18T07:45:07Z</time>
      </trkpt>
      <trkpt lat="46.51691" lon="0.56752">
        <ele>126.87055158801</ele>
        <time>2021-03-18T07:45:33Z</time>
      </trkpt>
      <trkpt lat="46.51692" lon="0.56754">
        <ele>127.10494864546</ele>
        <time>2021-03-18T07:45:48Z</time>
      </trkpt>
      <trkpt lat="46.51691" lon="0.56751">
        <ele>126.86839415319</ele>
        <time>2021-03-18T07:45:55Z</time>
      </trkpt>
      <trkpt lat="46.51693" lon="0.56753">
        <ele>126.94611221831</ele>
        <time>2021-03-18T07:46:10Z</time>
      </trkpt>
      <trkpt lat="46.51691" lon="0.56755">
        <ele>126.97736750823</ele>
        <time>2021-03-18T07:46:15Z</time>
      </trkpt>
      <trkpt lat="46.51692" lon="0.56753">
        <ele>126.82433569338</ele>
        <time>2021-03-18T07:46:45Z</time>
      </trkpt>
      <trkpt lat="46.51692" lon="0.56756">
        <ele>127.1332308799</ele>
        <time>2021-03-18T07:46:51Z</time>
      </trkpt>
      <trkpt lat="46.51692" lon="0.56758">
        <ele>127.18381692283</ele>
        <time>2021-03-18T07:46:59Z</time>
      </trkpt>
      <trkpt lat="46.51694" lon="0.56759">
        <ele>127.18381911609</ele>
        <time>2021-03-18T07:47:26Z</time>
      </trkpt>
      <trkpt lat="46.51692" lon="0.5676">
        <ele>126.95129971113</ele>
        <time>2021-03-18T07:48:05Z</time>
      </trkpt>
      <trkpt lat="46.51693" lon="0.56757">
        <ele>126.37775103468</ele>
        <time>2021-03-18T07:48:12Z</time>
      </trkpt>
      <trkpt lat="46.51694" lon="0.56755">
        <ele>126.74124719389</ele>
        <time>2021-03-18T07:48:21Z</time>
      </trkpt>
      <trkpt lat="46.51695" lon="0.56753">
        <ele>126.85625004023</ele>
        <time>2021-03-18T07:48:30Z</time>
      </trkpt>
      <trkpt lat="46.51694" lon="0.56755">
        <ele>126.88721248787</ele>
        <time>2021-03-18T07:48:38Z</time>
      </trkpt>
      <trkpt lat="46.51693" lon="0.56753">
        <ele>126.6397165861</ele>
        <time>2021-03-18T07:49:07Z</time>
      </trkpt>
      <trkpt lat="46.51695" lon="0.56752">
        <ele>126.61872678716</ele>
        <time>2021-03-18T07:49:24Z</time>
      </trkpt>
      <trkpt lat="46.51695" lon="0.56754">
        <ele>126.65995602123</ele>
        <time>2021-03-18T07:49:47Z</time>
      </trkpt>
      <trkpt lat="46.51694" lon="0.56757">
        <ele>126.84291131422</ele>
        <time>2021-03-18T07:49:53Z</time>
      </trkpt>
      <trkpt lat="46.51692" lon="0.56758">
        <ele>126.79130378831</ele>
        <time>2021-03-18T07:50:06Z</time>
      </trkpt>
      <trkpt lat="46.51692" lon="0.56761">
        <ele>127.3485328285</ele>
        <time>2021-03-18T07:50:25Z</time>
      </trkpt>
      <trkpt lat="46.51691" lon="0.56759">
        <ele>127.01034496259</ele>
        <time>2021-03-18T07:50:44Z</time>
      </trkpt>
      <trkpt lat="46.51691" lon="0.56755">
        <ele>126.75134435389</ele>
        <time>2021-03-18T07:50:48Z</time>
      </trkpt>
      <trkpt lat="46.51694" lon="0.56757">
        <ele>126.89867351949</ele>
        <time>2021-03-18T07:51:08Z</time>
      </trkpt>
      <trkpt lat="46.51692" lon="0.56755">
        <ele>126.71242016926</ele>
        <time>2021-03-18T07:51:15Z</time>
      </trkpt>
      <trkpt lat="46.51694" lon="0.56756">
        <ele>126.86485312041</ele>
        <time>2021-03-18T07:52:22Z</time>
      </trkpt>
      <trkpt lat="46.51694" lon="0.56753">
        <ele>126.63295071851</ele>
        <time>2021-03-18T07:52:33Z</time>
      </trkpt>
      <trkpt lat="46.51694" lon="0.56756">
        <ele>126.64804174472</ele>
        <time>2021-03-18T07:52:52Z</time>
      </trkpt>
      <trkpt lat="46.51694" lon="0.56759">
        <ele>126.40136307385</ele>
        <time>2021-03-18T07:52:57Z</time>
      </trkpt>
      <trkpt lat="46.51693" lon="0.56762">
        <ele>126.44376959093</ele>
        <time>2021-03-18T07:53:00Z</time>
      </trkpt>
      <trkpt lat="46.51692" lon="0.56765">
        <ele>126.53946608771</ele>
        <time>2021-03-18T07:53:05Z</time>
      </trkpt>
      <trkpt lat="46.51691" lon="0.56767">
        <ele>126.67621659394</ele>
        <time>2021-03-18T07:53:10Z</time>
      </trkpt>
      <trkpt lat="46.5169" lon="0.56765">
        <ele>126.86383574549</ele>
        <time>2021-03-18T07:53:19Z</time>
      </trkpt>
      <trkpt lat="46.5169" lon="0.56762">
        <ele>126.82346610259</ele>
        <time>2021-03-18T07:53:25Z</time>
      </trkpt>
      <trkpt lat="46.51692" lon="0.5676">
        <ele>126.72085756436</ele>
        <time>2021-03-18T07:53:33Z</time>
      </trkpt>
      <trkpt lat="46.51691" lon="0.56757">
        <ele>126.8611148363</ele>
        <time>2021-03-18T07:53:42Z</time>
      </trkpt>
      <trkpt lat="46.51689" lon="0.56757">
        <ele>126.71847767476</ele>
        <time>2021-03-18T07:53:49Z</time>
      </trkpt>
      <trkpt lat="46.51687" lon="0.56758">
        <ele>126.50186875835</ele>
        <time>2021-03-18T07:53:52Z</time>
      </trkpt>
      <trkpt lat="46.51684" lon="0.56758">
        <ele>126.65229582135</ele>
        <time>2021-03-18T07:53:54Z</time>
      </trkpt>
      <trkpt lat="46.51682" lon="0.56756">
        <ele>126.51853566058</ele>
        <time>2021-03-18T07:53:57Z</time>
      </trkpt>
      <trkpt lat="46.5168" lon="0.56755">
        <ele>126.50145125948</ele>
        <time>2021-03-18T07:53:59Z</time>
      </trkpt>
      <trkpt lat="46.51678" lon="0.56754">
        <ele>126.80506106373</ele>
        <time>2021-03-18T07:54:01Z</time>
      </trkpt>
      <trkpt lat="46.51676" lon="0.56753">
        <ele>126.56467579957</ele>
        <time>2021-03-18T07:54:03Z</time>
      </trkpt>
      <trkpt lat="46.51674" lon="0.5675">
        <ele>126.55937836505</ele>
        <time>2021-03-18T07:54:05Z</time>
      </trkpt>
      <trkpt lat="46.51672" lon="0.56749">
        <ele>126.57834300958</ele>
        <time>2021-03-18T07:54:07Z</time>
      </trkpt>
      <trkpt lat="46.51671" lon="0.56747">
        <ele>126.61246748269</ele>
        <time>2021-03-18T07:54:09Z</time>
      </trkpt>
      <trkpt lat="46.51668" lon="0.56745">
        <ele>126.72432661708</ele>
        <time>2021-03-18T07:54:11Z</time>
      </trkpt>
      <trkpt lat="46.51666" lon="0.56744">
        <ele>126.66210726742</ele>
        <time>2021-03-18T07:54:13Z</time>
      </trkpt>
      <trkpt lat="46.51664" lon="0.56743">
        <ele>126.4536907291</ele>
        <time>2021-03-18T07:54:15Z</time>
      </trkpt>
      <trkpt lat="46.51662" lon="0.56742">
        <ele>126.67648812383</ele>
        <time>2021-03-18T07:54:17Z</time>
      </trkpt>
      <trkpt lat="46.5166" lon="0.5674">
        <ele>126.6426244257</ele>
        <time>2021-03-18T07:54:19Z</time>
      </trkpt>
      <trkpt lat="46.51658" lon="0.56739">
        <ele>126.83078843635</ele>
        <time>2021-03-18T07:54:21Z</time>
      </trkpt>
      <trkpt lat="46.51656" lon="0.56737">
        <ele>126.63200337347</ele>
        <time>2021-03-18T07:54:23Z</time>
      </trkpt>
      <trkpt lat="46.51654" lon="0.56736">
        <ele>126.4896888556</ele>
        <time>2021-03-18T07:54:25Z</time>
      </trkpt>
      <trkpt lat="46.51652" lon="0.56734">
        <ele>127.16669038963</ele>
        <time>2021-03-18T07:54:27Z</time>
      </trkpt>
      <trkpt lat="46.5165" lon="0.56731">
        <ele>126.21672755387</ele>
        <time>2021-03-18T07:54:29Z</time>
      </trkpt>
      <trkpt lat="46.51647" lon="0.56729">
        <ele>126.57806537393</ele>
        <time>2021-03-18T07:54:31Z</time>
      </trkpt>
      <trkpt lat="46.51645" lon="0.56726">
        <ele>126.44520118646</ele>
        <time>2021-03-18T07:54:33Z</time>
      </trkpt>
      <trkpt lat="46.51643" lon="0.56723">
        <ele>126.20619703084</ele>
        <time>2021-03-18T07:54:35Z</time>
      </trkpt>
      <trkpt lat="46.51641" lon="0.56721">
        <ele>126.69732611161</ele>
        <time>2021-03-18T07:54:36Z</time>
      </trkpt>
      <trkpt lat="46.51639" lon="0.56718">
        <ele>126.62767906673</ele>
        <time>2021-03-18T07:54:38Z</time>
      </trkpt>
      <trkpt lat="46.51637" lon="0.56716">
        <ele>126.5527310567</ele>
        <time>2021-03-18T07:54:40Z</time>
      </trkpt>
      <trkpt lat="46.51634" lon="0.56715">
        <ele>126.75206197333</ele>
        <time>2021-03-18T07:54:42Z</time>
      </trkpt>
      <trkpt lat="46.51631" lon="0.56714">
        <ele>126.62197198812</ele>
        <time>2021-03-18T07:54:44Z</time>
      </trkpt>
      <trkpt lat="46.51629" lon="0.56711">
        <ele>126.57944855932</ele>
        <time>2021-03-18T07:54:46Z</time>
      </trkpt>
      <trkpt lat="46.51627" lon="0.56709">
        <ele>126.18767286837</ele>
        <time>2021-03-18T07:54:48Z</time>
      </trkpt>
      <trkpt lat="46.51625" lon="0.56709">
        <ele>125.73862087168</ele>
        <time>2021-03-18T07:54:49Z</time>
      </trkpt>
      <trkpt lat="46.51621" lon="0.56706">
        <ele>126.89881750382</ele>
        <time>2021-03-18T07:54:51Z</time>
      </trkpt>
      <trkpt lat="46.5162" lon="0.56704">
        <ele>125.6195420837</ele>
        <time>2021-03-18T07:54:53Z</time>
      </trkpt>
      <trkpt lat="46.51618" lon="0.56703">
        <ele>125.87798387278</ele>
        <time>2021-03-18T07:54:54Z</time>
      </trkpt>
      <trkpt lat="46.51615" lon="0.567">
        <ele>125.85640198458</ele>
        <time>2021-03-18T07:54:57Z</time>
      </trkpt>
      <trkpt lat="46.51612" lon="0.56699">
        <ele>125.55128995609</ele>
        <time>2021-03-18T07:54:58Z</time>
      </trkpt>
      <trkpt lat="46.5161" lon="0.56699">
        <ele>125.59205735661</ele>
        <time>2021-03-18T07:55:00Z</time>
      </trkpt>
      <trkpt lat="46.51606" lon="0.56699">
        <ele>125.56380006764</ele>
        <time>2021-03-18T07:55:02Z</time>
      </trkpt>
      <trkpt lat="46.51604" lon="0.567">
        <ele>125.46320578735</ele>
        <time>2021-03-18T07:55:03Z</time>
      </trkpt>
      <trkpt lat="46.516" lon="0.567">
        <ele>125.45369246695</ele>
        <time>2021-03-18T07:55:05Z</time>
      </trkpt>
      <trkpt lat="46.51599" lon="0.567">
        <ele>125.38901575189</ele>
        <time>2021-03-18T07:55:07Z</time>
      </trkpt>
      <trkpt lat="46.51596" lon="0.567">
        <ele>125.19417729788</ele>
        <time>2021-03-18T07:55:09Z</time>
      </trkpt>
      <trkpt lat="46.51594" lon="0.567">
        <ele>125.41493633855</ele>
        <time>2021-03-18T07:55:11Z</time>
      </trkpt>
      <trkpt lat="46.51592" lon="0.56699">
        <ele>124.650034138</ele>
        <time>2021-03-18T07:55:13Z</time>
      </trkpt>
      <trkpt lat="46.5159" lon="0.56699">
        <ele>124.80033576116</ele>
        <time>2021-03-18T07:55:15Z</time>
      </trkpt>
      <trkpt lat="46.51588" lon="0.56698">
        <ele>124.70472419634</ele>
        <time>2021-03-18T07:55:17Z</time>
      </trkpt>
      <trkpt lat="46.51585" lon="0.56696">
        <ele>124.66847624537</ele>
        <time>2021-03-18T07:55:19Z</time>
      </trkpt>
      <trkpt lat="46.51583" lon="0.56695">
        <ele>124.60407622065</ele>
        <time>2021-03-18T07:55:21Z</time>
      </trkpt>
      <trkpt lat="46.51581" lon="0.56694">
        <ele>124.97203232069</ele>
        <time>2021-03-18T07:55:23Z</time>
      </trkpt>
      <trkpt lat="46.51579" lon="0.56693">
        <ele>124.46669259388</ele>
        <time>2021-03-18T07:55:25Z</time>
      </trkpt>
      <trkpt lat="46.51577" lon="0.56691">
        <ele>124.49496755376</ele>
        <time>2021-03-18T07:55:27Z</time>
      </trkpt>
      <trkpt lat="46.51575" lon="0.5669">
        <ele>124.18947960064</ele>
        <time>2021-03-18T07:55:29Z</time>
      </trkpt>
      <trkpt lat="46.51573" lon="0.56689">
        <ele>124.24873384275</ele>
        <time>2021-03-18T07:55:30Z</time>
      </trkpt>
      <trkpt lat="46.51571" lon="0.56688">
        <ele>124.37243847176</ele>
        <time>2021-03-18T07:55:32Z</time>
      </trkpt>
      <trkpt lat="46.51569" lon="0.56688">
        <ele>124.13281133678</ele>
        <time>2021-03-18T07:55:34Z</time>
      </trkpt>
      <trkpt lat="46.51566" lon="0.56686">
        <ele>123.85595868062</ele>
        <time>2021-03-18T07:55:37Z</time>
      </trkpt>
      <trkpt lat="46.51563" lon="0.56685">
        <ele>124.05045168567</ele>
        <time>2021-03-18T07:55:39Z</time>
      </trkpt>
      <trkpt lat="46.51561" lon="0.56684">
        <ele>123.62736645248</ele>
        <time>2021-03-18T07:55:40Z</time>
      </trkpt>
      <trkpt lat="46.51559" lon="0.56683">
        <ele>123.87893526256</ele>
        <time>2021-03-18T07:55:42Z</time>
      </trkpt>
      <trkpt lat="46.51557" lon="0.56683">
        <ele>123.90186451282</ele>
        <time>2021-03-18T07:55:44Z</time>
      </trkpt>
      <trkpt lat="46.51554" lon="0.56684">
        <ele>123.6755415583</ele>
        <time>2021-03-18T07:55:46Z</time>
      </trkpt>
      <trkpt lat="46.51551" lon="0.56683">
        <ele>123.58866035659</ele>
        <time>2021-03-18T07:55:48Z</time>
      </trkpt>
      <trkpt lat="46.51549" lon="0.56683">
        <ele>123.52811324224</ele>
        <time>2021-03-18T07:55:50Z</time>
      </trkpt>
      <trkpt lat="46.51546" lon="0.56682">
        <ele>123.63498471677</ele>
        <time>2021-03-18T07:55:52Z</time>
      </trkpt>
      <trkpt lat="46.51545" lon="0.56681">
        <ele>122.83565818612</ele>
        <time>2021-03-18T07:55:54Z</time>
      </trkpt>
      <trkpt lat="46.51542" lon="0.56678">
        <ele>123.22656003758</ele>
        <time>2021-03-18T07:55:56Z</time>
      </trkpt>
      <trkpt lat="46.51541" lon="0.56677">
        <ele>123.25545393955</ele>
        <time>2021-03-18T07:55:58Z</time>
      </trkpt>
      <trkpt lat="46.51537" lon="0.56675">
        <ele>123.49733097944</ele>
        <time>2021-03-18T07:56:00Z</time>
      </trkpt>
      <trkpt lat="46.51535" lon="0.56674">
        <ele>123.04925769847</ele>
        <time>2021-03-18T07:56:02Z</time>
      </trkpt>
      <trkpt lat="46.51533" lon="0.56672">
        <ele>122.4457501201</ele>
        <time>2021-03-18T07:56:04Z</time>
      </trkpt>
      <trkpt lat="46.5153" lon="0.5667">
        <ele>122.6992731588</ele>
        <time>2021-03-18T07:56:06Z</time>
      </trkpt>
      <trkpt lat="46.51528" lon="0.56668">
        <ele>122.70981390774</ele>
        <time>2021-03-18T07:56:08Z</time>
      </trkpt>
      <trkpt lat="46.51525" lon="0.56667">
        <ele>122.43021034542</ele>
        <time>2021-03-18T07:56:10Z</time>
      </trkpt>
      <trkpt lat="46.51523" lon="0.56666">
        <ele>122.30457451101</ele>
        <time>2021-03-18T07:56:12Z</time>
      </trkpt>
      <trkpt lat="46.51521" lon="0.56666">
        <ele>122.53720443044</ele>
        <time>2021-03-18T07:56:14Z</time>
      </trkpt>
      <trkpt lat="46.5152" lon="0.56664">
        <ele>122.23360049352</ele>
        <time>2021-03-18T07:56:16Z</time>
      </trkpt>
      <trkpt lat="46.51518" lon="0.56664">
        <ele>121.98350202013</ele>
        <time>2021-03-18T07:56:18Z</time>
      </trkpt>
      <trkpt lat="46.51515" lon="0.56663">
        <ele>122.34743703064</ele>
        <time>2021-03-18T07:56:20Z</time>
      </trkpt>
      <trkpt lat="46.51512" lon="0.56661">
        <ele>121.74046023004</ele>
        <time>2021-03-18T07:56:22Z</time>
      </trkpt>
      <trkpt lat="46.5151" lon="0.56659">
        <ele>121.53532935306</ele>
        <time>2021-03-18T07:56:24Z</time>
      </trkpt>
      <trkpt lat="46.51508" lon="0.56659">
        <ele>121.18260508776</ele>
        <time>2021-03-18T07:56:26Z</time>
      </trkpt>
      <trkpt lat="46.51506" lon="0.56657">
        <ele>121.7147478452</ele>
        <time>2021-03-18T07:56:28Z</time>
      </trkpt>
      <trkpt lat="46.51504" lon="0.56655">
        <ele>121.66083492991</ele>
        <time>2021-03-18T07:56:30Z</time>
      </trkpt>
      <trkpt lat="46.51502" lon="0.56653">
        <ele>121.23795509897</ele>
        <time>2021-03-18T07:56:32Z</time>
      </trkpt>
      <trkpt lat="46.515" lon="0.56652">
        <ele>121.29115799535</ele>
        <time>2021-03-18T07:56:34Z</time>
      </trkpt>
      <trkpt lat="46.51497" lon="0.56649">
        <ele>121.29649693333</ele>
        <time>2021-03-18T07:56:36Z</time>
      </trkpt>
      <trkpt lat="46.51494" lon="0.56648">
        <ele>121.5871259002</ele>
        <time>2021-03-18T07:56:38Z</time>
      </trkpt>
      <trkpt lat="46.51491" lon="0.56647">
        <ele>121.41460389644</ele>
        <time>2021-03-18T07:56:40Z</time>
      </trkpt>
      <trkpt lat="46.51489" lon="0.56646">
        <ele>120.52935228311</ele>
        <time>2021-03-18T07:56:42Z</time>
      </trkpt>
      <trkpt lat="46.51487" lon="0.56644">
        <ele>120.1376851704</ele>
        <time>2021-03-18T07:56:44Z</time>
      </trkpt>
      <trkpt lat="46.51484" lon="0.56642">
        <ele>120.3301044507</ele>
        <time>2021-03-18T07:56:46Z</time>
      </trkpt>
      <trkpt lat="46.51481" lon="0.5664">
        <ele>120.392838981</ele>
        <time>2021-03-18T07:56:48Z</time>
      </trkpt>
      <trkpt lat="46.51479" lon="0.56638">
        <ele>120.28991079517</ele>
        <time>2021-03-18T07:56:50Z</time>
      </trkpt>
      <trkpt lat="46.51477" lon="0.56636">
        <ele>119.62325909082</ele>
        <time>2021-03-18T07:56:52Z</time>
      </trkpt>
      <trkpt lat="46.51474" lon="0.56633">
        <ele>120.15011594072</ele>
        <time>2021-03-18T07:56:54Z</time>
      </trkpt>
      <trkpt lat="46.51472" lon="0.56631">
        <ele>119.22757423483</ele>
        <time>2021-03-18T07:56:56Z</time>
      </trkpt>
      <trkpt lat="46.5147" lon="0.5663">
        <ele>119.13906676602</ele>
        <time>2021-03-18T07:56:58Z</time>
      </trkpt>
      <trkpt lat="46.51468" lon="0.56629">
        <ele>119.76537532918</ele>
        <time>2021-03-18T07:56:59Z</time>
      </trkpt>
      <trkpt lat="46.51467" lon="0.56626">
        <ele>119.35473145172</ele>
        <time>2021-03-18T07:57:01Z</time>
      </trkpt>
      <trkpt lat="46.51464" lon="0.56625">
        <ele>119.22093487531</ele>
        <time>2021-03-18T07:57:03Z</time>
      </trkpt>
      <trkpt lat="46.51461" lon="0.56623">
        <ele>119.19023329858</ele>
        <time>2021-03-18T07:57:05Z</time>
      </trkpt>
      <trkpt lat="46.51459" lon="0.56622">
        <ele>118.85802935995</ele>
        <time>2021-03-18T07:57:07Z</time>
      </trkpt>
      <trkpt lat="46.51457" lon="0.56621">
        <ele>118.59565919172</ele>
        <time>2021-03-18T07:57:09Z</time>
      </trkpt>
      <trkpt lat="46.51454" lon="0.56619">
        <ele>118.47227615863</ele>
        <time>2021-03-18T07:57:11Z</time>
      </trkpt>
      <trkpt lat="46.51452" lon="0.56618">
        <ele>118.15573006775</ele>
        <time>2021-03-18T07:57:13Z</time>
      </trkpt>
      <trkpt lat="46.5145" lon="0.56615">
        <ele>118.04814495146</ele>
        <time>2021-03-18T07:57:15Z</time>
      </trkpt>
      <trkpt lat="46.51448" lon="0.56613">
        <ele>118.12649183441</ele>
        <time>2021-03-18T07:57:17Z</time>
      </trkpt>
      <trkpt lat="46.51445" lon="0.56611">
        <ele>117.98647825327</ele>
        <time>2021-03-18T07:57:19Z</time>
      </trkpt>
      <trkpt lat="46.51443" lon="0.56609">
        <ele>117.28279305249</ele>
        <time>2021-03-18T07:57:21Z</time>
      </trkpt>
      <trkpt lat="46.51442" lon="0.56607">
        <ele>117.63179865107</ele>
        <time>2021-03-18T07:57:22Z</time>
      </trkpt>
      <trkpt lat="46.5144" lon="0.56604">
        <ele>117.51632332988</ele>
        <time>2021-03-18T07:57:24Z</time>
      </trkpt>
      <trkpt lat="46.51437" lon="0.56602">
        <ele>117.36344952416</ele>
        <time>2021-03-18T07:57:26Z</time>
      </trkpt>
      <trkpt lat="46.51435" lon="0.56601">
        <ele>117.21118895523</ele>
        <time>2021-03-18T07:57:28Z</time>
      </trkpt>
      <trkpt lat="46.51433" lon="0.56599">
        <ele>116.87950871047</ele>
        <time>2021-03-18T07:57:29Z</time>
      </trkpt>
      <trkpt lat="46.51431" lon="0.56598">
        <ele>116.94153717533</ele>
        <time>2021-03-18T07:57:31Z</time>
      </trkpt>
      <trkpt lat="46.51428" lon="0.56596">
        <ele>116.9956060918</ele>
        <time>2021-03-18T07:57:33Z</time>
      </trkpt>
      <trkpt lat="46.51426" lon="0.56594">
        <ele>117.02069287188</ele>
        <time>2021-03-18T07:57:35Z</time>
      </trkpt>
      <trkpt lat="46.51424" lon="0.56593">
        <ele>116.63338715583</ele>
        <time>2021-03-18T07:57:37Z</time>
      </trkpt>
      <trkpt lat="46.51422" lon="0.56592">
        <ele>116.15310361516</ele>
        <time>2021-03-18T07:57:39Z</time>
      </trkpt>
      <trkpt lat="46.51419" lon="0.5659">
        <ele>116.38245501649</ele>
        <time>2021-03-18T07:57:41Z</time>
      </trkpt>
      <trkpt lat="46.51418" lon="0.56589">
        <ele>116.37979149539</ele>
        <time>2021-03-18T07:57:42Z</time>
      </trkpt>
      <trkpt lat="46.51416" lon="0.56589">
        <ele>116.75253085885</ele>
        <time>2021-03-18T07:57:43Z</time>
      </trkpt>
      <trkpt lat="46.51412" lon="0.56588">
        <ele>116.38847636059</ele>
        <time>2021-03-18T07:57:45Z</time>
      </trkpt>
      <trkpt lat="46.5141" lon="0.56587">
        <ele>115.74237339757</ele>
        <time>2021-03-18T07:57:47Z</time>
      </trkpt>
      <trkpt lat="46.51408" lon="0.56585">
        <ele>115.99949675426</ele>
        <time>2021-03-18T07:57:49Z</time>
      </trkpt>
      <trkpt lat="46.51405" lon="0.56584">
        <ele>115.80163538363</ele>
        <time>2021-03-18T07:57:51Z</time>
      </trkpt>
      <trkpt lat="46.51402" lon="0.56582">
        <ele>115.861934416</ele>
        <time>2021-03-18T07:57:53Z</time>
      </trkpt>
      <trkpt lat="46.51399" lon="0.56581">
        <ele>115.80104460754</ele>
        <time>2021-03-18T07:57:55Z</time>
      </trkpt>
      <trkpt lat="46.51396" lon="0.56581">
        <ele>115.66762296855</ele>
        <time>2021-03-18T07:57:57Z</time>
      </trkpt>
      <trkpt lat="46.51394" lon="0.5658">
        <ele>115.56797882263</ele>
        <time>2021-03-18T07:57:59Z</time>
      </trkpt>
      <trkpt lat="46.51392" lon="0.56579">
        <ele>115.31450670958</ele>
        <time>2021-03-18T07:58:01Z</time>
      </trkpt>
      <trkpt lat="46.51389" lon="0.5658">
        <ele>115.40003314894</ele>
        <time>2021-03-18T07:58:03Z</time>
      </trkpt>
      <trkpt lat="46.51386" lon="0.56579">
        <ele>115.52057982236</ele>
        <time>2021-03-18T07:58:05Z</time>
      </trkpt>
      <trkpt lat="46.51384" lon="0.56579">
        <ele>115.3484704243</ele>
        <time>2021-03-18T07:58:07Z</time>
      </trkpt>
      <trkpt lat="46.51381" lon="0.56578">
        <ele>115.60847445298</ele>
        <time>2021-03-18T07:58:09Z</time>
      </trkpt>
      <trkpt lat="46.51379" lon="0.56576">
        <ele>115.26995098498</ele>
        <time>2021-03-18T07:58:11Z</time>
      </trkpt>
      <trkpt lat="46.51376" lon="0.56574">
        <ele>114.94511588849</ele>
        <time>2021-03-18T07:58:13Z</time>
      </trkpt>
      <trkpt lat="46.51374" lon="0.56572">
        <ele>115.00021589175</ele>
        <time>2021-03-18T07:58:15Z</time>
      </trkpt>
      <trkpt lat="46.51372" lon="0.56571">
        <ele>114.72963586729</ele>
        <time>2021-03-18T07:58:17Z</time>
      </trkpt>
      <trkpt lat="46.51369" lon="0.56569">
        <ele>114.7376484694</ele>
        <time>2021-03-18T07:58:19Z</time>
      </trkpt>
      <trkpt lat="46.51367" lon="0.56567">
        <ele>114.95606672112</ele>
        <time>2021-03-18T07:58:21Z</time>
      </trkpt>
      <trkpt lat="46.51364" lon="0.56565">
        <ele>114.79451887682</ele>
        <time>2021-03-18T07:58:23Z</time>
      </trkpt>
      <trkpt lat="46.51362" lon="0.56564">
        <ele>114.52031707671</ele>
        <time>2021-03-18T07:58:25Z</time>
      </trkpt>
      <trkpt lat="46.51359" lon="0.56561">
        <ele>114.37771584373</ele>
        <time>2021-03-18T07:58:27Z</time>
      </trkpt>
      <trkpt lat="46.51357" lon="0.5656">
        <ele>114.32974620908</ele>
        <time>2021-03-18T07:58:28Z</time>
      </trkpt>
      <trkpt lat="46.51355" lon="0.56559">
        <ele>114.59197215922</ele>
        <time>2021-03-18T07:58:30Z</time>
      </trkpt>
      <trkpt lat="46.51353" lon="0.56559">
        <ele>113.91924477182</ele>
        <time>2021-03-18T07:58:32Z</time>
      </trkpt>
      <trkpt lat="46.5135" lon="0.56556">
        <ele>113.55078217294</ele>
        <time>2021-03-18T07:58:34Z</time>
      </trkpt>
      <trkpt lat="46.51347" lon="0.56554">
        <ele>113.96342770942</ele>
        <time>2021-03-18T07:58:36Z</time>
      </trkpt>
      <trkpt lat="46.51345" lon="0.56553">
        <ele>113.60219896771</ele>
        <time>2021-03-18T07:58:38Z</time>
      </trkpt>
      <trkpt lat="46.51342" lon="0.56551">
        <ele>113.38900460675</ele>
        <time>2021-03-18T07:58:40Z</time>
      </trkpt>
      <trkpt lat="46.5134" lon="0.56549">
        <ele>113.14547443669</ele>
        <time>2021-03-18T07:58:42Z</time>
      </trkpt>
      <trkpt lat="46.51337" lon="0.56547">
        <ele>112.77349012997</ele>
        <time>2021-03-18T07:58:44Z</time>
      </trkpt>
      <trkpt lat="46.51335" lon="0.56545">
        <ele>112.74455810711</ele>
        <time>2021-03-18T07:58:46Z</time>
      </trkpt>
      <trkpt lat="46.51332" lon="0.56543">
        <ele>112.19196870923</ele>
        <time>2021-03-18T07:58:48Z</time>
      </trkpt>
      <trkpt lat="46.5133" lon="0.56541">
        <ele>111.90136366896</ele>
        <time>2021-03-18T07:58:50Z</time>
      </trkpt>
      <trkpt lat="46.51327" lon="0.56539">
        <ele>111.58502526302</ele>
        <time>2021-03-18T07:58:52Z</time>
      </trkpt>
      <trkpt lat="46.51325" lon="0.56538">
        <ele>111.65015549492</ele>
        <time>2021-03-18T07:58:54Z</time>
      </trkpt>
      <trkpt lat="46.51322" lon="0.56537">
        <ele>111.28299251013</ele>
        <time>2021-03-18T07:58:56Z</time>
      </trkpt>
      <trkpt lat="46.51319" lon="0.56534">
        <ele>111.63448417559</ele>
        <time>2021-03-18T07:58:58Z</time>
      </trkpt>
      <trkpt lat="46.51317" lon="0.56533">
        <ele>111.16304784454</ele>
        <time>2021-03-18T07:59:00Z</time>
      </trkpt>
      <trkpt lat="46.51314" lon="0.56532">
        <ele>111.29463226814</ele>
        <time>2021-03-18T07:59:02Z</time>
      </trkpt>
      <trkpt lat="46.51311" lon="0.56531">
        <ele>111.84011687897</ele>
        <time>2021-03-18T07:59:04Z</time>
      </trkpt>
      <trkpt lat="46.51308" lon="0.5653">
        <ele>110.91606686823</ele>
        <time>2021-03-18T07:59:06Z</time>
      </trkpt>
      <trkpt lat="46.51306" lon="0.56528">
        <ele>110.9799023848</ele>
        <time>2021-03-18T07:59:08Z</time>
      </trkpt>
      <trkpt lat="46.51303" lon="0.56528">
        <ele>110.88633043226</ele>
        <time>2021-03-18T07:59:10Z</time>
      </trkpt>
      <trkpt lat="46.51301" lon="0.56526">
        <ele>110.68624066282</ele>
        <time>2021-03-18T07:59:12Z</time>
      </trkpt>
      <trkpt lat="46.51298" lon="0.56525">
        <ele>110.51904056501</ele>
        <time>2021-03-18T07:59:14Z</time>
      </trkpt>
      <trkpt lat="46.51296" lon="0.56524">
        <ele>110.0459418511</ele>
        <time>2021-03-18T07:59:16Z</time>
      </trkpt>
      <trkpt lat="46.51293" lon="0.56524">
        <ele>109.96384313889</ele>
        <time>2021-03-18T07:59:18Z</time>
      </trkpt>
      <trkpt lat="46.5129" lon="0.56523">
        <ele>110.32558597531</ele>
        <time>2021-03-18T07:59:20Z</time>
      </trkpt>
      <trkpt lat="46.51288" lon="0.56522">
        <ele>110.12722255103</ele>
        <time>2021-03-18T07:59:22Z</time>
      </trkpt>
      <trkpt lat="46.51285" lon="0.56521">
        <ele>109.52157000452</ele>
        <time>2021-03-18T07:59:24Z</time>
      </trkpt>
      <trkpt lat="46.51282" lon="0.5652">
        <ele>109.622681804</ele>
        <time>2021-03-18T07:59:26Z</time>
      </trkpt>
      <trkpt lat="46.51279" lon="0.56519">
        <ele>109.68662144616</ele>
        <time>2021-03-18T07:59:28Z</time>
      </trkpt>
      <trkpt lat="46.51277" lon="0.56518">
        <ele>109.53479303326</ele>
        <time>2021-03-18T07:59:30Z</time>
      </trkpt>
      <trkpt lat="46.51274" lon="0.56517">
        <ele>109.20169388968</ele>
        <time>2021-03-18T07:59:32Z</time>
      </trkpt>
      <trkpt lat="46.51272" lon="0.56517">
        <ele>109.73209740501</ele>
        <time>2021-03-18T07:59:34Z</time>
      </trkpt>
      <trkpt lat="46.51269" lon="0.56516">
        <ele>109.51065253559</ele>
        <time>2021-03-18T07:59:36Z</time>
      </trkpt>
      <trkpt lat="46.51267" lon="0.56515">
        <ele>109.41110302601</ele>
        <time>2021-03-18T07:59:38Z</time>
      </trkpt>
      <trkpt lat="46.51264" lon="0.56514">
        <ele>109.53119577002</ele>
        <time>2021-03-18T07:59:40Z</time>
      </trkpt>
      <trkpt lat="46.51262" lon="0.56514">
        <ele>109.65517811105</ele>
        <time>2021-03-18T07:59:41Z</time>
      </trkpt>
      <trkpt lat="46.5126" lon="0.56514">
        <ele>108.95589348394</ele>
        <time>2021-03-18T07:59:43Z</time>
      </trkpt>
      <trkpt lat="46.51258" lon="0.56513">
        <ele>108.86916622613</ele>
        <time>2021-03-18T07:59:45Z</time>
      </trkpt>
      <trkpt lat="46.51255" lon="0.56512">
        <ele>109.03235839773</ele>
        <time>2021-03-18T07:59:47Z</time>
      </trkpt>
      <trkpt lat="46.51252" lon="0.56512">
        <ele>108.95744938124</ele>
        <time>2021-03-18T07:59:49Z</time>
      </trkpt>
      <trkpt lat="46.5125" lon="0.56512">
        <ele>108.9742845064</ele>
        <time>2021-03-18T07:59:51Z</time>
      </trkpt>
      <trkpt lat="46.51247" lon="0.56511">
        <ele>108.68788706139</ele>
        <time>2021-03-18T07:59:53Z</time>
      </trkpt>
      <trkpt lat="46.51245" lon="0.5651">
        <ele>109.20364348218</ele>
        <time>2021-03-18T07:59:55Z</time>
      </trkpt>
      <trkpt lat="46.51242" lon="0.56509">
        <ele>108.83240601327</ele>
        <time>2021-03-18T07:59:57Z</time>
      </trkpt>
      <trkpt lat="46.5124" lon="0.56508">
        <ele>109.01901138574</ele>
        <time>2021-03-18T07:59:59Z</time>
      </trkpt>
      <trkpt lat="46.51238" lon="0.56508">
        <ele>108.87877278309</ele>
        <time>2021-03-18T08:00:01Z</time>
      </trkpt>
      <trkpt lat="46.51235" lon="0.56507">
        <ele>109.09531033412</ele>
        <time>2021-03-18T08:00:03Z</time>
      </trkpt>
      <trkpt lat="46.51232" lon="0.56507">
        <ele>109.17530329898</ele>
        <time>2021-03-18T08:00:05Z</time>
      </trkpt>
      <trkpt lat="46.5123" lon="0.56506">
        <ele>109.37829334475</ele>
        <time>2021-03-18T08:00:07Z</time>
      </trkpt>
      <trkpt lat="46.51227" lon="0.56505">
        <ele>108.86242716108</ele>
        <time>2021-03-18T08:00:09Z</time>
      </trkpt>
      <trkpt lat="46.51224" lon="0.56504">
        <ele>109.34854170308</ele>
        <time>2021-03-18T08:00:11Z</time>
      </trkpt>
      <trkpt lat="46.51222" lon="0.56503">
        <ele>109.0814029919</ele>
        <time>2021-03-18T08:00:13Z</time>
      </trkpt>
      <trkpt lat="46.51219" lon="0.56503">
        <ele>109.18254046142</ele>
        <time>2021-03-18T08:00:15Z</time>
      </trkpt>
      <trkpt lat="46.51216" lon="0.56503">
        <ele>109.62771502975</ele>
        <time>2021-03-18T08:00:17Z</time>
      </trkpt>
      <trkpt lat="46.51214" lon="0.56502">
        <ele>108.9759354461</ele>
        <time>2021-03-18T08:00:19Z</time>
      </trkpt>
      <trkpt lat="46.51211" lon="0.56501">
        <ele>109.28603405133</ele>
        <time>2021-03-18T08:00:21Z</time>
      </trkpt>
      <trkpt lat="46.51209" lon="0.565">
        <ele>109.42705225479</ele>
        <time>2021-03-18T08:00:23Z</time>
      </trkpt>
      <trkpt lat="46.51206" lon="0.56499">
        <ele>109.20401306357</ele>
        <time>2021-03-18T08:00:25Z</time>
      </trkpt>
      <trkpt lat="46.51203" lon="0.56498">
        <ele>108.98561542574</ele>
        <time>2021-03-18T08:00:27Z</time>
      </trkpt>
      <trkpt lat="46.512" lon="0.56497">
        <ele>108.83291227091</ele>
        <time>2021-03-18T08:00:30Z</time>
      </trkpt>
      <trkpt lat="46.51198" lon="0.56496">
        <ele>108.96635045297</ele>
        <time>2021-03-18T08:00:32Z</time>
      </trkpt>
      <trkpt lat="46.51195" lon="0.56496">
        <ele>109.03197596595</ele>
        <time>2021-03-18T08:00:34Z</time>
      </trkpt>
      <trkpt lat="46.51193" lon="0.56495">
        <ele>109.23556446005</ele>
        <time>2021-03-18T08:00:36Z</time>
      </trkpt>
      <trkpt lat="46.5119" lon="0.56494">
        <ele>108.96598380152</ele>
        <time>2021-03-18T08:00:38Z</time>
      </trkpt>
      <trkpt lat="46.51187" lon="0.56493">
        <ele>109.13032438979</ele>
        <time>2021-03-18T08:00:40Z</time>
      </trkpt>
      <trkpt lat="46.51184" lon="0.56491">
        <ele>108.81032040995</ele>
        <time>2021-03-18T08:00:42Z</time>
      </trkpt>
      <trkpt lat="46.51181" lon="0.5649">
        <ele>109.06302523892</ele>
        <time>2021-03-18T08:00:46Z</time>
      </trkpt>
      <trkpt lat="46.51179" lon="0.56489">
        <ele>108.79235503729</ele>
        <time>2021-03-18T08:00:48Z</time>
      </trkpt>
      <trkpt lat="46.51177" lon="0.56487">
        <ele>108.75357383862</ele>
        <time>2021-03-18T08:00:50Z</time>
      </trkpt>
      <trkpt lat="46.51174" lon="0.56486">
        <ele>109.0640510479</ele>
        <time>2021-03-18T08:00:52Z</time>
      </trkpt>
      <trkpt lat="46.51172" lon="0.56484">
        <ele>109.12174825929</ele>
        <time>2021-03-18T08:00:54Z</time>
      </trkpt>
      <trkpt lat="46.5117" lon="0.56482">
        <ele>108.72731214575</ele>
        <time>2021-03-18T08:00:56Z</time>
      </trkpt>
      <trkpt lat="46.51168" lon="0.56481">
        <ele>108.93992423732</ele>
        <time>2021-03-18T08:00:57Z</time>
      </trkpt>
      <trkpt lat="46.51165" lon="0.56479">
        <ele>109.01354046166</ele>
        <time>2021-03-18T08:00:59Z</time>
      </trkpt>
      <trkpt lat="46.51163" lon="0.56477">
        <ele>108.09349032305</ele>
        <time>2021-03-18T08:01:01Z</time>
      </trkpt>
      <trkpt lat="46.51161" lon="0.56475">
        <ele>108.3458431419</ele>
        <time>2021-03-18T08:01:03Z</time>
      </trkpt>
      <trkpt lat="46.51159" lon="0.56474">
        <ele>108.52836265508</ele>
        <time>2021-03-18T08:01:05Z</time>
      </trkpt>
      <trkpt lat="46.51157" lon="0.56471">
        <ele>108.37668481283</ele>
        <time>2021-03-18T08:01:07Z</time>
      </trkpt>
      <trkpt lat="46.51155" lon="0.56469">
        <ele>108.46484662872</ele>
        <time>2021-03-18T08:01:09Z</time>
      </trkpt>
      <trkpt lat="46.51153" lon="0.56468">
        <ele>108.36751163658</ele>
        <time>2021-03-18T08:01:11Z</time>
      </trkpt>
      <trkpt lat="46.5115" lon="0.56465">
        <ele>108.8378986055</ele>
        <time>2021-03-18T08:01:13Z</time>
      </trkpt>
      <trkpt lat="46.51148" lon="0.56463">
        <ele>108.55719414447</ele>
        <time>2021-03-18T08:01:15Z</time>
      </trkpt>
      <trkpt lat="46.51146" lon="0.56461">
        <ele>108.2817773344</ele>
        <time>2021-03-18T08:01:17Z</time>
      </trkpt>
      <trkpt lat="46.51144" lon="0.56458">
        <ele>108.15807662718</ele>
        <time>2021-03-18T08:01:19Z</time>
      </trkpt>
      <trkpt lat="46.51142" lon="0.56455">
        <ele>108.67160103843</ele>
        <time>2021-03-18T08:01:21Z</time>
      </trkpt>
      <trkpt lat="46.51139" lon="0.56453">
        <ele>108.56334953755</ele>
        <time>2021-03-18T08:01:23Z</time>
      </trkpt>
      <trkpt lat="46.51138" lon="0.5645">
        <ele>108.38232698385</ele>
        <time>2021-03-18T08:01:25Z</time>
      </trkpt>
      <trkpt lat="46.51136" lon="0.56447">
        <ele>108.29637931567</ele>
        <time>2021-03-18T08:01:27Z</time>
      </trkpt>
      <trkpt lat="46.51134" lon="0.56446">
        <ele>108.82037287857</ele>
        <time>2021-03-18T08:01:29Z</time>
      </trkpt>
      <trkpt lat="46.51134" lon="0.56444">
        <ele>108.75396955013</ele>
        <time>2021-03-18T08:01:30Z</time>
      </trkpt>
      <trkpt lat="46.51131" lon="0.56441">
        <ele>108.7374472348</ele>
        <time>2021-03-18T08:01:32Z</time>
      </trkpt>
      <trkpt lat="46.51129" lon="0.56439">
        <ele>108.4389535049</ele>
        <time>2021-03-18T08:01:34Z</time>
      </trkpt>
      <trkpt lat="46.51128" lon="0.56436">
        <ele>108.52640843298</ele>
        <time>2021-03-18T08:01:36Z</time>
      </trkpt>
      <trkpt lat="46.51126" lon="0.56433">
        <ele>108.36554632895</ele>
        <time>2021-03-18T08:01:38Z</time>
      </trkpt>
      <trkpt lat="46.51124" lon="0.5643">
        <ele>108.28062420525</ele>
        <time>2021-03-18T08:01:40Z</time>
      </trkpt>
      <trkpt lat="46.51123" lon="0.56427">
        <ele>108.67756440211</ele>
        <time>2021-03-18T08:01:42Z</time>
      </trkpt>
      <trkpt lat="46.51121" lon="0.56425">
        <ele>108.30663431063</ele>
        <time>2021-03-18T08:01:44Z</time>
      </trkpt>
      <trkpt lat="46.5112" lon="0.56424">
        <ele>108.23912861384</ele>
        <time>2021-03-18T08:01:45Z</time>
      </trkpt>
      <trkpt lat="46.51118" lon="0.56421">
        <ele>108.52761275414</ele>
        <time>2021-03-18T08:01:47Z</time>
      </trkpt>
      <trkpt lat="46.51116" lon="0.56419">
        <ele>108.28715357929</ele>
        <time>2021-03-18T08:01:49Z</time>
      </trkpt>
      <trkpt lat="46.51115" lon="0.56415">
        <ele>108.53888268862</ele>
        <time>2021-03-18T08:01:51Z</time>
      </trkpt>
      <trkpt lat="46.51113" lon="0.56412">
        <ele>108.33833553456</ele>
        <time>2021-03-18T08:01:53Z</time>
      </trkpt>
      <trkpt lat="46.51111" lon="0.56409">
        <ele>108.63286796864</ele>
        <time>2021-03-18T08:01:55Z</time>
      </trkpt>
      <trkpt lat="46.51109" lon="0.56406">
        <ele>108.75287115015</ele>
        <time>2021-03-18T08:01:57Z</time>
      </trkpt>
      <trkpt lat="46.51107" lon="0.56403">
        <ele>108.59289885405</ele>
        <time>2021-03-18T08:01:59Z</time>
      </trkpt>
      <trkpt lat="46.51106" lon="0.564">
        <ele>108.01891671214</ele>
        <time>2021-03-18T08:02:01Z</time>
      </trkpt>
      <trkpt lat="46.51104" lon="0.56397">
        <ele>108.3441930525</ele>
        <time>2021-03-18T08:02:03Z</time>
      </trkpt>
      <trkpt lat="46.51102" lon="0.56394">
        <ele>108.43712486979</ele>
        <time>2021-03-18T08:02:05Z</time>
      </trkpt>
      <trkpt lat="46.511" lon="0.5639">
        <ele>107.97948821168</ele>
        <time>2021-03-18T08:02:07Z</time>
      </trkpt>
      <trkpt lat="46.51099" lon="0.56388">
        <ele>108.02841665503</ele>
        <time>2021-03-18T08:02:09Z</time>
      </trkpt>
      <trkpt lat="46.51097" lon="0.56384">
        <ele>108.10503175575</ele>
        <time>2021-03-18T08:02:11Z</time>
      </trkpt>
      <trkpt lat="46.51095" lon="0.56381">
        <ele>107.9993242668</ele>
        <time>2021-03-18T08:02:13Z</time>
      </trkpt>
      <trkpt lat="46.51093" lon="0.56378">
        <ele>108.17390492093</ele>
        <time>2021-03-18T08:02:15Z</time>
      </trkpt>
      <trkpt lat="46.51092" lon="0.56375">
        <ele>107.88749334868</ele>
        <time>2021-03-18T08:02:17Z</time>
      </trkpt>
      <trkpt lat="46.5109" lon="0.56372">
        <ele>108.03147366177</ele>
        <time>2021-03-18T08:02:19Z</time>
      </trkpt>
      <trkpt lat="46.51088" lon="0.56369">
        <ele>107.99912861455</ele>
        <time>2021-03-18T08:02:21Z</time>
      </trkpt>
      <trkpt lat="46.51086" lon="0.56367">
        <ele>107.81175194122</ele>
        <time>2021-03-18T08:02:23Z</time>
      </trkpt>
      <trkpt lat="46.51085" lon="0.56364">
        <ele>107.66518978868</ele>
        <time>2021-03-18T08:02:25Z</time>
      </trkpt>
      <trkpt lat="46.51083" lon="0.56361">
        <ele>108.36492660083</ele>
        <time>2021-03-18T08:02:27Z</time>
      </trkpt>
      <trkpt lat="46.51081" lon="0.56358">
        <ele>107.56017921492</ele>
        <time>2021-03-18T08:02:29Z</time>
      </trkpt>
      <trkpt lat="46.51079" lon="0.56355">
        <ele>107.81512650102</ele>
        <time>2021-03-18T08:02:31Z</time>
      </trkpt>
      <trkpt lat="46.51077" lon="0.56352">
        <ele>107.79589588102</ele>
        <time>2021-03-18T08:02:33Z</time>
      </trkpt>
      <trkpt lat="46.51075" lon="0.5635">
        <ele>107.61140326969</ele>
        <time>2021-03-18T08:02:35Z</time>
      </trkpt>
      <trkpt lat="46.51073" lon="0.56348">
        <ele>107.71808331925</ele>
        <time>2021-03-18T08:02:37Z</time>
      </trkpt>
      <trkpt lat="46.51071" lon="0.56346">
        <ele>107.67439360172</ele>
        <time>2021-03-18T08:02:39Z</time>
      </trkpt>
      <trkpt lat="46.5107" lon="0.56343">
        <ele>107.86795798317</ele>
        <time>2021-03-18T08:02:41Z</time>
      </trkpt>
      <trkpt lat="46.51068" lon="0.5634">
        <ele>108.11081585847</ele>
        <time>2021-03-18T08:02:43Z</time>
      </trkpt>
      <trkpt lat="46.51066" lon="0.56337">
        <ele>107.99643104523</ele>
        <time>2021-03-18T08:02:45Z</time>
      </trkpt>
      <trkpt lat="46.51063" lon="0.56334">
        <ele>107.9065078171</ele>
        <time>2021-03-18T08:02:47Z</time>
      </trkpt>
      <trkpt lat="46.51062" lon="0.56331">
        <ele>108.19058776274</ele>
        <time>2021-03-18T08:02:49Z</time>
      </trkpt>
      <trkpt lat="46.51059" lon="0.56328">
        <ele>107.95114091691</ele>
        <time>2021-03-18T08:02:51Z</time>
      </trkpt>
      <trkpt lat="46.51057" lon="0.56326">
        <ele>107.97483642213</ele>
        <time>2021-03-18T08:02:53Z</time>
      </trkpt>
      <trkpt lat="46.51056" lon="0.56322">
        <ele>107.76537147164</ele>
        <time>2021-03-18T08:02:55Z</time>
      </trkpt>
      <trkpt lat="46.51053" lon="0.5632">
        <ele>108.00101948529</ele>
        <time>2021-03-18T08:02:57Z</time>
      </trkpt>
      <trkpt lat="46.51052" lon="0.56318">
        <ele>108.22311103437</ele>
        <time>2021-03-18T08:02:58Z</time>
      </trkpt>
      <trkpt lat="46.5105" lon="0.56315">
        <ele>108.59015058819</ele>
        <time>2021-03-18T08:03:00Z</time>
      </trkpt>
      <trkpt lat="46.51048" lon="0.56314">
        <ele>108.30379411951</ele>
        <time>2021-03-18T08:03:02Z</time>
      </trkpt>
      <trkpt lat="46.51046" lon="0.56311">
        <ele>108.09730955679</ele>
        <time>2021-03-18T08:03:04Z</time>
      </trkpt>
      <trkpt lat="46.51044" lon="0.56309">
        <ele>108.67833299004</ele>
        <time>2021-03-18T08:03:06Z</time>
      </trkpt>
      <trkpt lat="46.51042" lon="0.56306">
        <ele>108.32661140244</ele>
        <time>2021-03-18T08:03:08Z</time>
      </trkpt>
      <trkpt lat="46.5104" lon="0.56304">
        <ele>108.18456174061</ele>
        <time>2021-03-18T08:03:10Z</time>
      </trkpt>
      <trkpt lat="46.51038" lon="0.56302">
        <ele>108.37053812202</ele>
        <time>2021-03-18T08:03:12Z</time>
      </trkpt>
      <trkpt lat="46.51036" lon="0.56299">
        <ele>108.4837668892</ele>
        <time>2021-03-18T08:03:14Z</time>
      </trkpt>
      <trkpt lat="46.51034" lon="0.56296">
        <ele>108.72532838676</ele>
        <time>2021-03-18T08:03:16Z</time>
      </trkpt>
      <trkpt lat="46.51032" lon="0.56293">
        <ele>108.58312045876</ele>
        <time>2021-03-18T08:03:18Z</time>
      </trkpt>
      <trkpt lat="46.51029" lon="0.5629">
        <ele>108.29223659448</ele>
        <time>2021-03-18T08:03:21Z</time>
      </trkpt>
      <trkpt lat="46.51027" lon="0.56288">
        <ele>107.83447112888</ele>
        <time>2021-03-18T08:03:23Z</time>
      </trkpt>
      <trkpt lat="46.51024" lon="0.56285">
        <ele>108.08520337194</ele>
        <time>2021-03-18T08:03:25Z</time>
      </trkpt>
      <trkpt lat="46.51022" lon="0.56283">
        <ele>107.69654921908</ele>
        <time>2021-03-18T08:03:27Z</time>
      </trkpt>
      <trkpt lat="46.5102" lon="0.56281">
        <ele>107.80497880466</ele>
        <time>2021-03-18T08:03:29Z</time>
      </trkpt>
      <trkpt lat="46.51018" lon="0.56279">
        <ele>107.56322011445</ele>
        <time>2021-03-18T08:03:31Z</time>
      </trkpt>
      <trkpt lat="46.51015" lon="0.56276">
        <ele>107.78150337562</ele>
        <time>2021-03-18T08:03:33Z</time>
      </trkpt>
      <trkpt lat="46.51013" lon="0.56275">
        <ele>107.5195224816</ele>
        <time>2021-03-18T08:03:35Z</time>
      </trkpt>
      <trkpt lat="46.51011" lon="0.56272">
        <ele>107.48220247962</ele>
        <time>2021-03-18T08:03:37Z</time>
      </trkpt>
      <trkpt lat="46.51008" lon="0.56271">
        <ele>108.12482515629</ele>
        <time>2021-03-18T08:03:39Z</time>
      </trkpt>
      <trkpt lat="46.51006" lon="0.56269">
        <ele>107.90136771463</ele>
        <time>2021-03-18T08:03:41Z</time>
      </trkpt>
      <trkpt lat="46.51003" lon="0.56267">
        <ele>107.75904416014</ele>
        <time>2021-03-18T08:03:43Z</time>
      </trkpt>
      <trkpt lat="46.51001" lon="0.56265">
        <ele>108.09328300226</ele>
        <time>2021-03-18T08:03:45Z</time>
      </trkpt>
      <trkpt lat="46.51" lon="0.56263">
        <ele>107.70844565425</ele>
        <time>2021-03-18T08:03:47Z</time>
      </trkpt>
      <trkpt lat="46.50997" lon="0.5626">
        <ele>107.96988225821</ele>
        <time>2021-03-18T08:03:49Z</time>
      </trkpt>
      <trkpt lat="46.50995" lon="0.56259">
        <ele>108.17068413459</ele>
        <time>2021-03-18T08:03:51Z</time>
      </trkpt>
      <trkpt lat="46.50992" lon="0.56256">
        <ele>108.22915879264</ele>
        <time>2021-03-18T08:03:54Z</time>
      </trkpt>
      <trkpt lat="46.5099" lon="0.56254">
        <ele>108.52170268446</ele>
        <time>2021-03-18T08:03:56Z</time>
      </trkpt>
      <trkpt lat="46.50988" lon="0.56252">
        <ele>108.89802604727</ele>
        <time>2021-03-18T08:03:58Z</time>
      </trkpt>
      <trkpt lat="46.50986" lon="0.56252">
        <ele>109.03374396358</ele>
        <time>2021-03-18T08:04:01Z</time>
      </trkpt>
      <trkpt lat="46.50984" lon="0.56251">
        <ele>108.83044524398</ele>
        <time>2021-03-18T08:04:04Z</time>
      </trkpt>
      <trkpt lat="46.50982" lon="0.56251">
        <ele>108.65529937856</ele>
        <time>2021-03-18T08:04:08Z</time>
      </trkpt>
      <trkpt lat="46.50979" lon="0.56251">
        <ele>108.58829855174</ele>
        <time>2021-03-18T08:04:10Z</time>
      </trkpt>
      <trkpt lat="46.50977" lon="0.5625">
        <ele>108.71961800661</ele>
        <time>2021-03-18T08:04:13Z</time>
      </trkpt>
      <trkpt lat="46.50975" lon="0.56251">
        <ele>109.00478183944</ele>
        <time>2021-03-18T08:04:15Z</time>
      </trkpt>
      <trkpt lat="46.50972" lon="0.56251">
        <ele>109.12799980398</ele>
        <time>2021-03-18T08:04:17Z</time>
      </trkpt>
      <trkpt lat="46.50969" lon="0.56252">
        <ele>108.62907902803</ele>
        <time>2021-03-18T08:04:19Z</time>
      </trkpt>
      <trkpt lat="46.50966" lon="0.56252">
        <ele>108.81398479734</ele>
        <time>2021-03-18T08:04:21Z</time>
      </trkpt>
      <trkpt lat="46.50964" lon="0.56251">
        <ele>108.8473046124</ele>
        <time>2021-03-18T08:04:23Z</time>
      </trkpt>
      <trkpt lat="46.50961" lon="0.56251">
        <ele>109.04797470197</ele>
        <time>2021-03-18T08:04:25Z</time>
      </trkpt>
      <trkpt lat="46.50959" lon="0.5625">
        <ele>109.62591839768</ele>
        <time>2021-03-18T08:04:27Z</time>
      </trkpt>
      <trkpt lat="46.50957" lon="0.5625">
        <ele>109.89307853207</ele>
        <time>2021-03-18T08:04:29Z</time>
      </trkpt>
      <trkpt lat="46.50954" lon="0.5625">
        <ele>109.82868022285</ele>
        <time>2021-03-18T08:04:31Z</time>
      </trkpt>
      <trkpt lat="46.50952" lon="0.5625">
        <ele>110.59628999606</ele>
        <time>2021-03-18T08:04:33Z</time>
      </trkpt>
      <trkpt lat="46.50949" lon="0.5625">
        <ele>110.34664904047</ele>
        <time>2021-03-18T08:04:35Z</time>
      </trkpt>
      <trkpt lat="46.50946" lon="0.5625">
        <ele>110.43434357084</ele>
        <time>2021-03-18T08:04:37Z</time>
      </trkpt>
      <trkpt lat="46.50944" lon="0.5625">
        <ele>110.77185386792</ele>
        <time>2021-03-18T08:04:39Z</time>
      </trkpt>
      <trkpt lat="46.50941" lon="0.56251">
        <ele>110.75026393309</ele>
        <time>2021-03-18T08:04:41Z</time>
      </trkpt>
      <trkpt lat="46.50938" lon="0.56251">
        <ele>111.03242459893</ele>
        <time>2021-03-18T08:04:43Z</time>
      </trkpt>
      <trkpt lat="46.50936" lon="0.56252">
        <ele>111.45913124364</ele>
        <time>2021-03-18T08:04:45Z</time>
      </trkpt>
      <trkpt lat="46.50933" lon="0.56252">
        <ele>111.80540256388</ele>
        <time>2021-03-18T08:04:47Z</time>
      </trkpt>
      <trkpt lat="46.50931" lon="0.56252">
        <ele>112.21118187159</ele>
        <time>2021-03-18T08:04:49Z</time>
      </trkpt>
      <trkpt lat="46.50929" lon="0.56252">
        <ele>111.77635671012</ele>
        <time>2021-03-18T08:04:51Z</time>
      </trkpt>
      <trkpt lat="46.50927" lon="0.56252">
        <ele>111.72269349173</ele>
        <time>2021-03-18T08:04:52Z</time>
      </trkpt>
      <trkpt lat="46.50925" lon="0.56252">
        <ele>112.15387041494</ele>
        <time>2021-03-18T08:04:54Z</time>
      </trkpt>
      <trkpt lat="46.50922" lon="0.56252">
        <ele>112.23783003818</ele>
        <time>2021-03-18T08:04:56Z</time>
      </trkpt>
      <trkpt lat="46.5092" lon="0.56253">
        <ele>112.68699147832</ele>
        <time>2021-03-18T08:04:58Z</time>
      </trkpt>
      <trkpt lat="46.50918" lon="0.56253">
        <ele>112.58821379486</ele>
        <time>2021-03-18T08:05:00Z</time>
      </trkpt>
      <trkpt lat="46.50916" lon="0.56254">
        <ele>112.9522182513</ele>
        <time>2021-03-18T08:05:02Z</time>
      </trkpt>
      <trkpt lat="46.50913" lon="0.56254">
        <ele>112.47870431561</ele>
        <time>2021-03-18T08:05:04Z</time>
      </trkpt>
      <trkpt lat="46.50911" lon="0.56255">
        <ele>113.16156678088</ele>
        <time>2021-03-18T08:05:06Z</time>
      </trkpt>
      <trkpt lat="46.50908" lon="0.56255">
        <ele>113.13582078274</ele>
        <time>2021-03-18T08:05:08Z</time>
      </trkpt>
      <trkpt lat="46.50906" lon="0.56255">
        <ele>113.28924574796</ele>
        <time>2021-03-18T08:05:10Z</time>
      </trkpt>
      <trkpt lat="46.50903" lon="0.56255">
        <ele>113.37335816771</ele>
        <time>2021-03-18T08:05:12Z</time>
      </trkpt>
      <trkpt lat="46.50901" lon="0.56256">
        <ele>113.21260681469</ele>
        <time>2021-03-18T08:05:14Z</time>
      </trkpt>
      <trkpt lat="46.50898" lon="0.56257">
        <ele>113.84852061607</ele>
        <time>2021-03-18T08:05:16Z</time>
      </trkpt>
      <trkpt lat="46.50895" lon="0.56258">
        <ele>113.91758070886</ele>
        <time>2021-03-18T08:05:18Z</time>
      </trkpt>
      <trkpt lat="46.50893" lon="0.56258">
        <ele>113.74151902553</ele>
        <time>2021-03-18T08:05:20Z</time>
      </trkpt>
      <trkpt lat="46.50891" lon="0.56258">
        <ele>113.54352887068</ele>
        <time>2021-03-18T08:05:22Z</time>
      </trkpt>
      <trkpt lat="46.50888" lon="0.56259">
        <ele>113.92534428835</ele>
        <time>2021-03-18T08:05:24Z</time>
      </trkpt>
      <trkpt lat="46.50886" lon="0.5626">
        <ele>113.85307860933</ele>
        <time>2021-03-18T08:05:26Z</time>
      </trkpt>
      <trkpt lat="46.50883" lon="0.56261">
        <ele>114.05962323025</ele>
        <time>2021-03-18T08:05:28Z</time>
      </trkpt>
      <trkpt lat="46.50881" lon="0.56262">
        <ele>114.08333451208</ele>
        <time>2021-03-18T08:05:30Z</time>
      </trkpt>
      <trkpt lat="46.50878" lon="0.56263">
        <ele>114.21012846008</ele>
        <time>2021-03-18T08:05:32Z</time>
      </trkpt>
      <trkpt lat="46.50876" lon="0.56265">
        <ele>114.40713958628</ele>
        <time>2021-03-18T08:05:34Z</time>
      </trkpt>
      <trkpt lat="46.50873" lon="0.56266">
        <ele>114.75473548938</ele>
        <time>2021-03-18T08:05:36Z</time>
      </trkpt>
      <trkpt lat="46.5087" lon="0.56267">
        <ele>114.92489289679</ele>
        <time>2021-03-18T08:05:38Z</time>
      </trkpt>
      <trkpt lat="46.50869" lon="0.56268">
        <ele>114.98355206475</ele>
        <time>2021-03-18T08:05:40Z</time>
      </trkpt>
      <trkpt lat="46.50866" lon="0.56269">
        <ele>115.09392787423</ele>
        <time>2021-03-18T08:05:42Z</time>
      </trkpt>
      <trkpt lat="46.50864" lon="0.5627">
        <ele>115.82523083128</ele>
        <time>2021-03-18T08:05:44Z</time>
      </trkpt>
      <trkpt lat="46.5086" lon="0.56271">
        <ele>115.57645073347</ele>
        <time>2021-03-18T08:05:46Z</time>
      </trkpt>
      <trkpt lat="46.50858" lon="0.56271">
        <ele>115.77779746428</ele>
        <time>2021-03-18T08:05:48Z</time>
      </trkpt>
      <trkpt lat="46.50856" lon="0.56273">
        <ele>116.15177683625</ele>
        <time>2021-03-18T08:05:50Z</time>
      </trkpt>
      <trkpt lat="46.50853" lon="0.56273">
        <ele>116.1934967963</ele>
        <time>2021-03-18T08:05:52Z</time>
      </trkpt>
      <trkpt lat="46.50851" lon="0.56275">
        <ele>116.43819000851</ele>
        <time>2021-03-18T08:05:54Z</time>
      </trkpt>
      <trkpt lat="46.5085" lon="0.56276">
        <ele>116.43512730021</ele>
        <time>2021-03-18T08:05:56Z</time>
      </trkpt>
      <trkpt lat="46.50847" lon="0.56277">
        <ele>116.27915378567</ele>
        <time>2021-03-18T08:05:58Z</time>
      </trkpt>
      <trkpt lat="46.50844" lon="0.56277">
        <ele>116.62102979049</ele>
        <time>2021-03-18T08:06:00Z</time>
      </trkpt>
      <trkpt lat="46.50842" lon="0.56278">
        <ele>116.89899062179</ele>
        <time>2021-03-18T08:06:02Z</time>
      </trkpt>
      <trkpt lat="46.50839" lon="0.56279">
        <ele>117.11233786307</ele>
        <time>2021-03-18T08:06:04Z</time>
      </trkpt>
      <trkpt lat="46.50836" lon="0.56281">
        <ele>117.46370149404</ele>
        <time>2021-03-18T08:06:06Z</time>
      </trkpt>
      <trkpt lat="46.50834" lon="0.56282">
        <ele>117.41185934562</ele>
        <time>2021-03-18T08:06:08Z</time>
      </trkpt>
      <trkpt lat="46.50831" lon="0.56283">
        <ele>117.75338237453</ele>
        <time>2021-03-18T08:06:10Z</time>
      </trkpt>
      <trkpt lat="46.50829" lon="0.56283">
        <ele>117.68713997491</ele>
        <time>2021-03-18T08:06:12Z</time>
      </trkpt>
      <trkpt lat="46.50827" lon="0.56285">
        <ele>118.04299418442</ele>
        <time>2021-03-18T08:06:14Z</time>
      </trkpt>
      <trkpt lat="46.50825" lon="0.56286">
        <ele>117.96440172382</ele>
        <time>2021-03-18T08:06:16Z</time>
      </trkpt>
      <trkpt lat="46.50822" lon="0.56287">
        <ele>118.690581684</ele>
        <time>2021-03-18T08:06:18Z</time>
      </trkpt>
      <trkpt lat="46.50819" lon="0.56288">
        <ele>118.31803585496</ele>
        <time>2021-03-18T08:06:20Z</time>
      </trkpt>
      <trkpt lat="46.50816" lon="0.56288">
        <ele>118.31223185733</ele>
        <time>2021-03-18T08:06:22Z</time>
      </trkpt>
      <trkpt lat="46.50813" lon="0.56287">
        <ele>118.3814706374</ele>
        <time>2021-03-18T08:06:25Z</time>
      </trkpt>
      <trkpt lat="46.5081" lon="0.56289">
        <ele>118.6014265921</ele>
        <time>2021-03-18T08:06:27Z</time>
      </trkpt>
      <trkpt lat="46.50807" lon="0.5629">
        <ele>118.77281095833</ele>
        <time>2021-03-18T08:06:29Z</time>
      </trkpt>
      <trkpt lat="46.50804" lon="0.5629">
        <ele>118.73702637013</ele>
        <time>2021-03-18T08:06:31Z</time>
      </trkpt>
      <trkpt lat="46.50802" lon="0.56291">
        <ele>118.61860776879</ele>
        <time>2021-03-18T08:06:33Z</time>
      </trkpt>
      <trkpt lat="46.508" lon="0.56292">
        <ele>118.70284894388</ele>
        <time>2021-03-18T08:06:35Z</time>
      </trkpt>
      <trkpt lat="46.50797" lon="0.56292">
        <ele>118.76936125662</ele>
        <time>2021-03-18T08:06:37Z</time>
      </trkpt>
      <trkpt lat="46.50794" lon="0.56293">
        <ele>118.63129821699</ele>
        <time>2021-03-18T08:06:39Z</time>
      </trkpt>
      <trkpt lat="46.50792" lon="0.56293">
        <ele>118.65853477269</ele>
        <time>2021-03-18T08:06:41Z</time>
      </trkpt>
      <trkpt lat="46.50789" lon="0.56294">
        <ele>118.93864580989</ele>
        <time>2021-03-18T08:06:43Z</time>
      </trkpt>
      <trkpt lat="46.50786" lon="0.56296">
        <ele>118.9629737651</ele>
        <time>2021-03-18T08:06:45Z</time>
      </trkpt>
      <trkpt lat="46.50783" lon="0.56296">
        <ele>118.83159697801</ele>
        <time>2021-03-18T08:06:47Z</time>
      </trkpt>
      <trkpt lat="46.50781" lon="0.56297">
        <ele>118.90594790876</ele>
        <time>2021-03-18T08:06:49Z</time>
      </trkpt>
      <trkpt lat="46.50778" lon="0.56298">
        <ele>118.61309297755</ele>
        <time>2021-03-18T08:06:51Z</time>
      </trkpt>
      <trkpt lat="46.50775" lon="0.563">
        <ele>118.77157917339</ele>
        <time>2021-03-18T08:06:53Z</time>
      </trkpt>
      <trkpt lat="46.50773" lon="0.56302">
        <ele>119.11096317787</ele>
        <time>2021-03-18T08:06:55Z</time>
      </trkpt>
      <trkpt lat="46.50771" lon="0.56304">
        <ele>119.37437889166</ele>
        <time>2021-03-18T08:06:57Z</time>
      </trkpt>
      <trkpt lat="46.50769" lon="0.56305">
        <ele>119.16095621139</ele>
        <time>2021-03-18T08:06:59Z</time>
      </trkpt>
      <trkpt lat="46.50766" lon="0.56305">
        <ele>118.86095013656</ele>
        <time>2021-03-18T08:07:01Z</time>
      </trkpt>
      <trkpt lat="46.50763" lon="0.56306">
        <ele>119.39997353125</ele>
        <time>2021-03-18T08:07:03Z</time>
      </trkpt>
      <trkpt lat="46.50761" lon="0.56306">
        <ele>118.7349515371</ele>
        <time>2021-03-18T08:07:05Z</time>
      </trkpt>
      <trkpt lat="46.50759" lon="0.56307">
        <ele>119.34214652237</ele>
        <time>2021-03-18T08:07:07Z</time>
      </trkpt>
      <trkpt lat="46.50756" lon="0.56307">
        <ele>119.53712538909</ele>
        <time>2021-03-18T08:07:10Z</time>
      </trkpt>
      <trkpt lat="46.50754" lon="0.56307">
        <ele>119.71318397485</ele>
        <time>2021-03-18T08:07:11Z</time>
      </trkpt>
      <trkpt lat="46.50752" lon="0.56307">
        <ele>119.47367419675</ele>
        <time>2021-03-18T08:07:13Z</time>
      </trkpt>
      <trkpt lat="46.5075" lon="0.56308">
        <ele>119.78018411621</ele>
        <time>2021-03-18T08:07:15Z</time>
      </trkpt>
      <trkpt lat="46.50748" lon="0.56308">
        <ele>119.7714448506</ele>
        <time>2021-03-18T08:07:17Z</time>
      </trkpt>
      <trkpt lat="46.50745" lon="0.56308">
        <ele>119.49322357774</ele>
        <time>2021-03-18T08:07:19Z</time>
      </trkpt>
      <trkpt lat="46.50743" lon="0.56309">
        <ele>119.86518794578</ele>
        <time>2021-03-18T08:07:21Z</time>
      </trkpt>
      <trkpt lat="46.5074" lon="0.56309">
        <ele>119.78951181937</ele>
        <time>2021-03-18T08:07:23Z</time>
      </trkpt>
      <trkpt lat="46.50738" lon="0.5631">
        <ele>119.90388004389</ele>
        <time>2021-03-18T08:07:26Z</time>
      </trkpt>
      <trkpt lat="46.50736" lon="0.5631">
        <ele>119.74520643335</ele>
        <time>2021-03-18T08:07:27Z</time>
      </trkpt>
      <trkpt lat="46.50734" lon="0.5631">
        <ele>119.72786500677</ele>
        <time>2021-03-18T08:07:28Z</time>
      </trkpt>
      <trkpt lat="46.50732" lon="0.5631">
        <ele>119.76622000523</ele>
        <time>2021-03-18T08:07:29Z</time>
      </trkpt>
      <trkpt lat="46.50728" lon="0.56311">
        <ele>119.62941543758</ele>
        <time>2021-03-18T08:07:31Z</time>
      </trkpt>
      <trkpt lat="46.50727" lon="0.56311">
        <ele>119.83435521647</ele>
        <time>2021-03-18T08:07:33Z</time>
      </trkpt>
      <trkpt lat="46.50724" lon="0.56311">
        <ele>119.54657631088</ele>
        <time>2021-03-18T08:07:35Z</time>
      </trkpt>
      <trkpt lat="46.50721" lon="0.56313">
        <ele>119.88686846755</ele>
        <time>2021-03-18T08:07:37Z</time>
      </trkpt>
      <trkpt lat="46.50718" lon="0.56315">
        <ele>119.74487168342</ele>
        <time>2021-03-18T08:07:39Z</time>
      </trkpt>
      <trkpt lat="46.50714" lon="0.56316">
        <ele>119.96786104888</ele>
        <time>2021-03-18T08:07:41Z</time>
      </trkpt>
      <trkpt lat="46.50713" lon="0.56317">
        <ele>120.21089063678</ele>
        <time>2021-03-18T08:07:42Z</time>
      </trkpt>
      <trkpt lat="46.50709" lon="0.56317">
        <ele>120.05201830622</ele>
        <time>2021-03-18T08:07:44Z</time>
      </trkpt>
      <trkpt lat="46.50707" lon="0.56318">
        <ele>119.83963251114</ele>
        <time>2021-03-18T08:07:46Z</time>
      </trkpt>
      <trkpt lat="46.50704" lon="0.56319">
        <ele>120.14543330297</ele>
        <time>2021-03-18T08:07:48Z</time>
      </trkpt>
      <trkpt lat="46.50701" lon="0.56319">
        <ele>120.27331146039</ele>
        <time>2021-03-18T08:07:50Z</time>
      </trkpt>
      <trkpt lat="46.50699" lon="0.56321">
        <ele>120.18868521415</ele>
        <time>2021-03-18T08:07:52Z</time>
      </trkpt>
      <trkpt lat="46.50697" lon="0.56321">
        <ele>120.43780659884</ele>
        <time>2021-03-18T08:07:53Z</time>
      </trkpt>
      <trkpt lat="46.50694" lon="0.56322">
        <ele>120.30497357529</ele>
        <time>2021-03-18T08:07:55Z</time>
      </trkpt>
      <trkpt lat="46.50692" lon="0.56323">
        <ele>120.29072057363</ele>
        <time>2021-03-18T08:07:57Z</time>
      </trkpt>
      <trkpt lat="46.50689" lon="0.56325">
        <ele>120.48362406157</ele>
        <time>2021-03-18T08:07:59Z</time>
      </trkpt>
      <trkpt lat="46.50687" lon="0.56326">
        <ele>120.44041400589</ele>
        <time>2021-03-18T08:08:01Z</time>
      </trkpt>
      <trkpt lat="46.50685" lon="0.56326">
        <ele>120.75802251417</ele>
        <time>2021-03-18T08:08:02Z</time>
      </trkpt>
      <trkpt lat="46.50683" lon="0.56326">
        <ele>120.87235792167</ele>
        <time>2021-03-18T08:08:04Z</time>
      </trkpt>
      <trkpt lat="46.5068" lon="0.56327">
        <ele>121.13935267273</ele>
        <time>2021-03-18T08:08:06Z</time>
      </trkpt>
      <trkpt lat="46.50677" lon="0.56328">
        <ele>121.2483245628</ele>
        <time>2021-03-18T08:08:08Z</time>
      </trkpt>
      <trkpt lat="46.50675" lon="0.56328">
        <ele>121.31560068298</ele>
        <time>2021-03-18T08:08:10Z</time>
      </trkpt>
      <trkpt lat="46.50672" lon="0.5633">
        <ele>121.27416384127</ele>
        <time>2021-03-18T08:08:12Z</time>
      </trkpt>
      <trkpt lat="46.50669" lon="0.56331">
        <ele>121.32970936131</ele>
        <time>2021-03-18T08:08:14Z</time>
      </trkpt>
      <trkpt lat="46.50667" lon="0.56331">
        <ele>121.46479483042</ele>
        <time>2021-03-18T08:08:16Z</time>
      </trkpt>
      <trkpt lat="46.50665" lon="0.56332">
        <ele>121.28312402684</ele>
        <time>2021-03-18T08:08:18Z</time>
      </trkpt>
      <trkpt lat="46.50663" lon="0.56333">
        <ele>121.37325256877</ele>
        <time>2021-03-18T08:08:20Z</time>
      </trkpt>
      <trkpt lat="46.50659" lon="0.56334">
        <ele>121.91478363704</ele>
        <time>2021-03-18T08:08:22Z</time>
      </trkpt>
      <trkpt lat="46.50657" lon="0.56335">
        <ele>121.98352954537</ele>
        <time>2021-03-18T08:08:24Z</time>
      </trkpt>
      <trkpt lat="46.50654" lon="0.56335">
        <ele>121.95917053614</ele>
        <time>2021-03-18T08:08:26Z</time>
      </trkpt>
      <trkpt lat="46.50652" lon="0.56336">
        <ele>121.89451217651</ele>
        <time>2021-03-18T08:08:28Z</time>
      </trkpt>
      <trkpt lat="46.5065" lon="0.56336">
        <ele>121.9190661544</ele>
        <time>2021-03-18T08:08:30Z</time>
      </trkpt>
      <trkpt lat="46.50647" lon="0.56337">
        <ele>122.49879407417</ele>
        <time>2021-03-18T08:08:32Z</time>
      </trkpt>
      <trkpt lat="46.50645" lon="0.56338">
        <ele>121.54373495094</ele>
        <time>2021-03-18T08:08:34Z</time>
      </trkpt>
      <trkpt lat="46.50643" lon="0.56339">
        <ele>121.49837857019</ele>
        <time>2021-03-18T08:08:35Z</time>
      </trkpt>
      <trkpt lat="46.5064" lon="0.56339">
        <ele>121.58797657397</ele>
        <time>2021-03-18T08:08:37Z</time>
      </trkpt>
      <trkpt lat="46.50638" lon="0.5634">
        <ele>121.53372569475</ele>
        <time>2021-03-18T08:08:39Z</time>
      </trkpt>
      <trkpt lat="46.50635" lon="0.56341">
        <ele>121.83542905282</ele>
        <time>2021-03-18T08:08:41Z</time>
      </trkpt>
      <trkpt lat="46.50632" lon="0.56341">
        <ele>122.07297072094</ele>
        <time>2021-03-18T08:08:44Z</time>
      </trkpt>
      <trkpt lat="46.50629" lon="0.56342">
        <ele>122.36080763768</ele>
        <time>2021-03-18T08:08:46Z</time>
      </trkpt>
      <trkpt lat="46.50626" lon="0.56343">
        <ele>121.85275703017</ele>
        <time>2021-03-18T08:08:48Z</time>
      </trkpt>
      <trkpt lat="46.50623" lon="0.56344">
        <ele>122.54785573855</ele>
        <time>2021-03-18T08:08:50Z</time>
      </trkpt>
      <trkpt lat="46.50621" lon="0.56345">
        <ele>122.05107848812</ele>
        <time>2021-03-18T08:08:52Z</time>
      </trkpt>
      <trkpt lat="46.50618" lon="0.56345">
        <ele>122.09414209984</ele>
        <time>2021-03-18T08:08:54Z</time>
      </trkpt>
      <trkpt lat="46.50615" lon="0.56345">
        <ele>122.56557395402</ele>
        <time>2021-03-18T08:08:56Z</time>
      </trkpt>
      <trkpt lat="46.50613" lon="0.56347">
        <ele>122.85854283813</ele>
        <time>2021-03-18T08:08:58Z</time>
      </trkpt>
      <trkpt lat="46.5061" lon="0.56346">
        <ele>123.07935218606</ele>
        <time>2021-03-18T08:09:00Z</time>
      </trkpt>
      <trkpt lat="46.50607" lon="0.56347">
        <ele>122.66616810299</ele>
        <time>2021-03-18T08:09:02Z</time>
      </trkpt>
      <trkpt lat="46.50604" lon="0.56346">
        <ele>122.77067470923</ele>
        <time>2021-03-18T08:09:04Z</time>
      </trkpt>
      <trkpt lat="46.50602" lon="0.56345">
        <ele>122.80548663158</ele>
        <time>2021-03-18T08:09:06Z</time>
      </trkpt>
      <trkpt lat="46.506" lon="0.56344">
        <ele>122.56771291699</ele>
        <time>2021-03-18T08:09:08Z</time>
      </trkpt>
      <trkpt lat="46.50597" lon="0.56343">
        <ele>122.72181014623</ele>
        <time>2021-03-18T08:09:10Z</time>
      </trkpt>
      <trkpt lat="46.50595" lon="0.56341">
        <ele>122.67021350004</ele>
        <time>2021-03-18T08:09:12Z</time>
      </trkpt>
      <trkpt lat="46.50592" lon="0.5634">
        <ele>122.68722496554</ele>
        <time>2021-03-18T08:09:14Z</time>
      </trkpt>
      <trkpt lat="46.5059" lon="0.56338">
        <ele>123.12644181866</ele>
        <time>2021-03-18T08:09:17Z</time>
      </trkpt>
      <trkpt lat="46.50588" lon="0.56336">
        <ele>122.94919485133</ele>
        <time>2021-03-18T08:09:19Z</time>
      </trkpt>
      <trkpt lat="46.50585" lon="0.56335">
        <ele>122.63221410476</ele>
        <time>2021-03-18T08:09:21Z</time>
      </trkpt>
      <trkpt lat="46.50583" lon="0.56334">
        <ele>122.9493025234</ele>
        <time>2021-03-18T08:09:24Z</time>
      </trkpt>
      <trkpt lat="46.50581" lon="0.56333">
        <ele>122.92056899797</ele>
        <time>2021-03-18T08:09:26Z</time>
      </trkpt>
      <trkpt lat="46.50579" lon="0.56332">
        <ele>122.41544674709</ele>
        <time>2021-03-18T08:09:28Z</time>
      </trkpt>
      <trkpt lat="46.50576" lon="0.56332">
        <ele>123.2080117166</ele>
        <time>2021-03-18T08:09:30Z</time>
      </trkpt>
      <trkpt lat="46.50574" lon="0.56331">
        <ele>122.70552550629</ele>
        <time>2021-03-18T08:09:32Z</time>
      </trkpt>
      <trkpt lat="46.50572" lon="0.5633">
        <ele>123.19315460697</ele>
        <time>2021-03-18T08:09:34Z</time>
      </trkpt>
      <trkpt lat="46.50569" lon="0.5633">
        <ele>123.35992010683</ele>
        <time>2021-03-18T08:09:36Z</time>
      </trkpt>
      <trkpt lat="46.50565" lon="0.56331">
        <ele>123.10025838017</ele>
        <time>2021-03-18T08:09:38Z</time>
      </trkpt>
      <trkpt lat="46.50563" lon="0.56331">
        <ele>123.34440486599</ele>
        <time>2021-03-18T08:09:40Z</time>
      </trkpt>
      <trkpt lat="46.5056" lon="0.56331">
        <ele>123.42169147544</ele>
        <time>2021-03-18T08:09:42Z</time>
      </trkpt>
      <trkpt lat="46.50557" lon="0.56331">
        <ele>123.60713734385</ele>
        <time>2021-03-18T08:09:44Z</time>
      </trkpt>
      <trkpt lat="46.50555" lon="0.5633">
        <ele>123.39074126072</ele>
        <time>2021-03-18T08:09:46Z</time>
      </trkpt>
      <trkpt lat="46.50552" lon="0.5633">
        <ele>123.7423387114</ele>
        <time>2021-03-18T08:09:48Z</time>
      </trkpt>
      <trkpt lat="46.5055" lon="0.56331">
        <ele>123.94114680775</ele>
        <time>2021-03-18T08:09:50Z</time>
      </trkpt>
      <trkpt lat="46.50547" lon="0.5633">
        <ele>123.84324990306</ele>
        <time>2021-03-18T08:09:52Z</time>
      </trkpt>
      <trkpt lat="46.50545" lon="0.5633">
        <ele>123.78113914467</ele>
        <time>2021-03-18T08:09:54Z</time>
      </trkpt>
      <trkpt lat="46.50542" lon="0.5633">
        <ele>123.07388745714</ele>
        <time>2021-03-18T08:09:56Z</time>
      </trkpt>
      <trkpt lat="46.50539" lon="0.56329">
        <ele>123.60533178411</ele>
        <time>2021-03-18T08:09:58Z</time>
      </trkpt>
      <trkpt lat="46.50537" lon="0.56329">
        <ele>123.66534685157</ele>
        <time>2021-03-18T08:10:00Z</time>
      </trkpt>
      <trkpt lat="46.50534" lon="0.56328">
        <ele>123.64070522692</ele>
        <time>2021-03-18T08:10:02Z</time>
      </trkpt>
      <trkpt lat="46.50532" lon="0.56328">
        <ele>123.21278055385</ele>
        <time>2021-03-18T08:10:04Z</time>
      </trkpt>
      <trkpt lat="46.5053" lon="0.56327">
        <ele>123.83889187686</ele>
        <time>2021-03-18T08:10:06Z</time>
      </trkpt>
      <trkpt lat="46.50527" lon="0.56326">
        <ele>123.93510590307</ele>
        <time>2021-03-18T08:10:08Z</time>
      </trkpt>
      <trkpt lat="46.50524" lon="0.56326">
        <ele>123.16351111047</ele>
        <time>2021-03-18T08:10:10Z</time>
      </trkpt>
      <trkpt lat="46.50521" lon="0.56326">
        <ele>123.83888564073</ele>
        <time>2021-03-18T08:10:12Z</time>
      </trkpt>
      <trkpt lat="46.50519" lon="0.56326">
        <ele>123.6436532326</ele>
        <time>2021-03-18T08:10:14Z</time>
      </trkpt>
      <trkpt lat="46.50517" lon="0.56327">
        <ele>123.7750340607</ele>
        <time>2021-03-18T08:10:15Z</time>
      </trkpt>
      <trkpt lat="46.50514" lon="0.56326">
        <ele>123.66875434015</ele>
        <time>2021-03-18T08:10:17Z</time>
      </trkpt>
      <trkpt lat="46.50512" lon="0.56327">
        <ele>123.67549179494</ele>
        <time>2021-03-18T08:10:18Z</time>
      </trkpt>
      <trkpt lat="46.50511" lon="0.56326">
        <ele>123.98966605216</ele>
        <time>2021-03-18T08:10:20Z</time>
      </trkpt>
      <trkpt lat="46.50508" lon="0.56325">
        <ele>123.80448512454</ele>
        <time>2021-03-18T08:10:22Z</time>
      </trkpt>
      <trkpt lat="46.50505" lon="0.56324">
        <ele>123.45448732283</ele>
        <time>2021-03-18T08:10:24Z</time>
      </trkpt>
      <trkpt lat="46.50502" lon="0.56323">
        <ele>123.71803808771</ele>
        <time>2021-03-18T08:10:26Z</time>
      </trkpt>
      <trkpt lat="46.50499" lon="0.56324">
        <ele>124.07348105777</ele>
        <time>2021-03-18T08:10:28Z</time>
      </trkpt>
      <trkpt lat="46.50497" lon="0.56324">
        <ele>124.12603648286</ele>
        <time>2021-03-18T08:10:30Z</time>
      </trkpt>
      <trkpt lat="46.50494" lon="0.56324">
        <ele>123.87534566037</ele>
        <time>2021-03-18T08:10:32Z</time>
      </trkpt>
      <trkpt lat="46.50492" lon="0.56324">
        <ele>123.97429354582</ele>
        <time>2021-03-18T08:10:34Z</time>
      </trkpt>
      <trkpt lat="46.50489" lon="0.56323">
        <ele>124.32571456954</ele>
        <time>2021-03-18T08:10:36Z</time>
      </trkpt>
      <trkpt lat="46.50487" lon="0.56324">
        <ele>124.20129511133</ele>
        <time>2021-03-18T08:10:38Z</time>
      </trkpt>
      <trkpt lat="46.50484" lon="0.56324">
        <ele>124.37059466355</ele>
        <time>2021-03-18T08:10:40Z</time>
      </trkpt>
      <trkpt lat="46.50481" lon="0.56324">
        <ele>124.33012712374</ele>
        <time>2021-03-18T08:10:42Z</time>
      </trkpt>
      <trkpt lat="46.50478" lon="0.56324">
        <ele>124.10490712244</ele>
        <time>2021-03-18T08:10:44Z</time>
      </trkpt>
      <trkpt lat="46.50475" lon="0.56325">
        <ele>124.37341539189</ele>
        <time>2021-03-18T08:10:46Z</time>
      </trkpt>
      <trkpt lat="46.50473" lon="0.56327">
        <ele>124.29001300223</ele>
        <time>2021-03-18T08:10:48Z</time>
      </trkpt>
      <trkpt lat="46.50471" lon="0.56328">
        <ele>124.53654369712</ele>
        <time>2021-03-18T08:10:50Z</time>
      </trkpt>
      <trkpt lat="46.50468" lon="0.5633">
        <ele>124.31113418378</ele>
        <time>2021-03-18T08:10:52Z</time>
      </trkpt>
      <trkpt lat="46.50466" lon="0.56331">
        <ele>124.33925207611</ele>
        <time>2021-03-18T08:10:54Z</time>
      </trkpt>
      <trkpt lat="46.50463" lon="0.56334">
        <ele>124.39376421459</ele>
        <time>2021-03-18T08:10:56Z</time>
      </trkpt>
      <trkpt lat="46.50461" lon="0.56337">
        <ele>124.64264283329</ele>
        <time>2021-03-18T08:10:58Z</time>
      </trkpt>
      <trkpt lat="46.50459" lon="0.56339">
        <ele>124.55455382168</ele>
        <time>2021-03-18T08:11:00Z</time>
      </trkpt>
      <trkpt lat="46.50457" lon="0.56341">
        <ele>124.40850115288</ele>
        <time>2021-03-18T08:11:01Z</time>
      </trkpt>
      <trkpt lat="46.50455" lon="0.56343">
        <ele>124.57064117212</ele>
        <time>2021-03-18T08:11:03Z</time>
      </trkpt>
      <trkpt lat="46.50453" lon="0.56346">
        <ele>124.53319884278</ele>
        <time>2021-03-18T08:11:05Z</time>
      </trkpt>
      <trkpt lat="46.50451" lon="0.56348">
        <ele>124.72372322995</ele>
        <time>2021-03-18T08:11:07Z</time>
      </trkpt>
      <trkpt lat="46.50448" lon="0.56348">
        <ele>124.46912704315</ele>
        <time>2021-03-18T08:11:09Z</time>
      </trkpt>
      <trkpt lat="46.50445" lon="0.56349">
        <ele>124.64968222938</ele>
        <time>2021-03-18T08:11:11Z</time>
      </trkpt>
      <trkpt lat="46.50442" lon="0.56349">
        <ele>124.47462690435</ele>
        <time>2021-03-18T08:11:13Z</time>
      </trkpt>
      <trkpt lat="46.50439" lon="0.5635">
        <ele>124.70489725005</ele>
        <time>2021-03-18T08:11:15Z</time>
      </trkpt>
      <trkpt lat="46.50437" lon="0.5635">
        <ele>124.66851021536</ele>
        <time>2021-03-18T08:11:17Z</time>
      </trkpt>
      <trkpt lat="46.50434" lon="0.5635">
        <ele>124.57919159438</ele>
        <time>2021-03-18T08:11:20Z</time>
      </trkpt>
      <trkpt lat="46.50431" lon="0.56349">
        <ele>124.50137928966</ele>
        <time>2021-03-18T08:11:22Z</time>
      </trkpt>
      <trkpt lat="46.50429" lon="0.56349">
        <ele>124.56122316327</ele>
        <time>2021-03-18T08:11:24Z</time>
      </trkpt>
      <trkpt lat="46.50426" lon="0.56348">
        <ele>124.54102538433</ele>
        <time>2021-03-18T08:11:26Z</time>
      </trkpt>
      <trkpt lat="46.50424" lon="0.56347">
        <ele>124.61592994444</ele>
        <time>2021-03-18T08:11:28Z</time>
      </trkpt>
      <trkpt lat="46.50421" lon="0.56346">
        <ele>124.68960896414</ele>
        <time>2021-03-18T08:11:30Z</time>
      </trkpt>
      <trkpt lat="46.50419" lon="0.56345">
        <ele>125.15755031351</ele>
        <time>2021-03-18T08:11:32Z</time>
      </trkpt>
      <trkpt lat="46.50416" lon="0.56344">
        <ele>125.40242428984</ele>
        <time>2021-03-18T08:11:34Z</time>
      </trkpt>
      <trkpt lat="46.50413" lon="0.56343">
        <ele>125.4419405926</ele>
        <time>2021-03-18T08:11:36Z</time>
      </trkpt>
      <trkpt lat="46.5041" lon="0.56342">
        <ele>125.08137065358</ele>
        <time>2021-03-18T08:11:38Z</time>
      </trkpt>
      <trkpt lat="46.50408" lon="0.56341">
        <ele>125.01254660357</ele>
        <time>2021-03-18T08:11:40Z</time>
      </trkpt>
      <trkpt lat="46.50405" lon="0.5634">
        <ele>125.37241111416</ele>
        <time>2021-03-18T08:11:42Z</time>
      </trkpt>
      <trkpt lat="46.50403" lon="0.5634">
        <ele>125.19162187073</ele>
        <time>2021-03-18T08:11:43Z</time>
      </trkpt>
      <trkpt lat="46.50401" lon="0.56339">
        <ele>125.52788255922</ele>
        <time>2021-03-18T08:11:45Z</time>
      </trkpt>
      <trkpt lat="46.50398" lon="0.56337">
        <ele>125.53693866543</ele>
        <time>2021-03-18T08:11:47Z</time>
      </trkpt>
      <trkpt lat="46.50396" lon="0.56336">
        <ele>125.81761769857</ele>
        <time>2021-03-18T08:11:49Z</time>
      </trkpt>
      <trkpt lat="46.50393" lon="0.56336">
        <ele>125.35710173752</ele>
        <time>2021-03-18T08:11:51Z</time>
      </trkpt>
      <trkpt lat="46.50391" lon="0.56334">
        <ele>125.18677094765</ele>
        <time>2021-03-18T08:11:53Z</time>
      </trkpt>
      <trkpt lat="46.50388" lon="0.56333">
        <ele>125.90065990854</ele>
        <time>2021-03-18T08:11:55Z</time>
      </trkpt>
      <trkpt lat="46.50386" lon="0.56331">
        <ele>125.57650508825</ele>
        <time>2021-03-18T08:11:57Z</time>
      </trkpt>
      <trkpt lat="46.50383" lon="0.56329">
        <ele>125.68142336234</ele>
        <time>2021-03-18T08:11:59Z</time>
      </trkpt>
      <trkpt lat="46.50381" lon="0.56328">
        <ele>125.63534692302</ele>
        <time>2021-03-18T08:12:01Z</time>
      </trkpt>
      <trkpt lat="46.50378" lon="0.56327">
        <ele>125.95677808113</ele>
        <time>2021-03-18T08:12:03Z</time>
      </trkpt>
      <trkpt lat="46.50375" lon="0.56326">
        <ele>125.63328718115</ele>
        <time>2021-03-18T08:12:05Z</time>
      </trkpt>
      <trkpt lat="46.50373" lon="0.56324">
        <ele>125.71934754122</ele>
        <time>2021-03-18T08:12:07Z</time>
      </trkpt>
      <trkpt lat="46.5037" lon="0.56323">
        <ele>125.92050241306</ele>
        <time>2021-03-18T08:12:09Z</time>
      </trkpt>
      <trkpt lat="46.50367" lon="0.56321">
        <ele>126.15722791944</ele>
        <time>2021-03-18T08:12:11Z</time>
      </trkpt>
      <trkpt lat="46.50365" lon="0.5632">
        <ele>125.80092310254</ele>
        <time>2021-03-18T08:12:13Z</time>
      </trkpt>
      <trkpt lat="46.50362" lon="0.56319">
        <ele>125.71167840529</ele>
        <time>2021-03-18T08:12:15Z</time>
      </trkpt>
      <trkpt lat="46.5036" lon="0.56318">
        <ele>126.05714492034</ele>
        <time>2021-03-18T08:12:17Z</time>
      </trkpt>
      <trkpt lat="46.50357" lon="0.56316">
        <ele>125.7133657774</ele>
        <time>2021-03-18T08:12:19Z</time>
      </trkpt>
      <trkpt lat="46.50355" lon="0.56315">
        <ele>125.71038292907</ele>
        <time>2021-03-18T08:12:21Z</time>
      </trkpt>
      <trkpt lat="46.50352" lon="0.56314">
        <ele>125.51844151784</ele>
        <time>2021-03-18T08:12:23Z</time>
      </trkpt>
      <trkpt lat="46.5035" lon="0.56312">
        <ele>125.6711497521</ele>
        <time>2021-03-18T08:12:25Z</time>
      </trkpt>
      <trkpt lat="46.50348" lon="0.56311">
        <ele>125.97610853333</ele>
        <time>2021-03-18T08:12:27Z</time>
      </trkpt>
      <trkpt lat="46.50345" lon="0.56309">
        <ele>125.48916553613</ele>
        <time>2021-03-18T08:12:29Z</time>
      </trkpt>
      <trkpt lat="46.50342" lon="0.56308">
        <ele>125.61949749384</ele>
        <time>2021-03-18T08:12:31Z</time>
      </trkpt>
      <trkpt lat="46.5034" lon="0.56306">
        <ele>125.27868616302</ele>
        <time>2021-03-18T08:12:34Z</time>
      </trkpt>
      <trkpt lat="46.50337" lon="0.56305">
        <ele>126.13877349626</ele>
        <time>2021-03-18T08:12:36Z</time>
      </trkpt>
      <trkpt lat="46.50334" lon="0.56304">
        <ele>125.6644583093</ele>
        <time>2021-03-18T08:12:38Z</time>
      </trkpt>
      <trkpt lat="46.50331" lon="0.56303">
        <ele>125.82715065684</ele>
        <time>2021-03-18T08:12:40Z</time>
      </trkpt>
      <trkpt lat="46.50328" lon="0.56301">
        <ele>126.05204381421</ele>
        <time>2021-03-18T08:12:42Z</time>
      </trkpt>
      <trkpt lat="46.50326" lon="0.56299">
        <ele>126.09011329152</ele>
        <time>2021-03-18T08:12:44Z</time>
      </trkpt>
      <trkpt lat="46.50323" lon="0.56298">
        <ele>126.09242287092</ele>
        <time>2021-03-18T08:12:46Z</time>
      </trkpt>
      <trkpt lat="46.50321" lon="0.56297">
        <ele>125.75577488542</ele>
        <time>2021-03-18T08:12:48Z</time>
      </trkpt>
      <trkpt lat="46.50318" lon="0.56295">
        <ele>125.79013500921</ele>
        <time>2021-03-18T08:12:50Z</time>
      </trkpt>
      <trkpt lat="46.50315" lon="0.56293">
        <ele>125.86198641825</ele>
        <time>2021-03-18T08:12:52Z</time>
      </trkpt>
      <trkpt lat="46.50313" lon="0.56292">
        <ele>126.2923495518</ele>
        <time>2021-03-18T08:12:54Z</time>
      </trkpt>
      <trkpt lat="46.5031" lon="0.5629">
        <ele>126.12042487506</ele>
        <time>2021-03-18T08:12:56Z</time>
      </trkpt>
      <trkpt lat="46.50307" lon="0.56289">
        <ele>126.41391425114</ele>
        <time>2021-03-18T08:12:58Z</time>
      </trkpt>
      <trkpt lat="46.50305" lon="0.56288">
        <ele>125.72151366342</ele>
        <time>2021-03-18T08:13:00Z</time>
      </trkpt>
      <trkpt lat="46.50303" lon="0.56286">
        <ele>125.89377969503</ele>
        <time>2021-03-18T08:13:02Z</time>
      </trkpt>
      <trkpt lat="46.503" lon="0.56285">
        <ele>126.20225043781</ele>
        <time>2021-03-18T08:13:04Z</time>
      </trkpt>
      <trkpt lat="46.50297" lon="0.56283">
        <ele>126.42381877266</ele>
        <time>2021-03-18T08:13:06Z</time>
      </trkpt>
      <trkpt lat="46.50295" lon="0.56282">
        <ele>125.80786229577</ele>
        <time>2021-03-18T08:13:08Z</time>
      </trkpt>
      <trkpt lat="46.50293" lon="0.5628">
        <ele>125.61123449448</ele>
        <time>2021-03-18T08:13:10Z</time>
      </trkpt>
      <trkpt lat="46.5029" lon="0.56279">
        <ele>125.44984987658</ele>
        <time>2021-03-18T08:13:12Z</time>
      </trkpt>
      <trkpt lat="46.50288" lon="0.56278">
        <ele>126.01238199696</ele>
        <time>2021-03-18T08:13:13Z</time>
      </trkpt>
      <trkpt lat="46.50286" lon="0.56277">
        <ele>124.89201249462</ele>
        <time>2021-03-18T08:13:15Z</time>
      </trkpt>
      <trkpt lat="46.50284" lon="0.56276">
        <ele>125.41555701289</ele>
        <time>2021-03-18T08:13:17Z</time>
      </trkpt>
      <trkpt lat="46.50281" lon="0.56275">
        <ele>125.69712692872</ele>
        <time>2021-03-18T08:13:19Z</time>
      </trkpt>
      <trkpt lat="46.50278" lon="0.56273">
        <ele>125.92199707311</ele>
        <time>2021-03-18T08:13:21Z</time>
      </trkpt>
      <trkpt lat="46.50276" lon="0.56272">
        <ele>125.82375028171</ele>
        <time>2021-03-18T08:13:23Z</time>
      </trkpt>
      <trkpt lat="46.50275" lon="0.56271">
        <ele>125.67145111691</ele>
        <time>2021-03-18T08:13:24Z</time>
      </trkpt>
      <trkpt lat="46.50272" lon="0.5627">
        <ele>125.58138097636</ele>
        <time>2021-03-18T08:13:26Z</time>
      </trkpt>
      <trkpt lat="46.5027" lon="0.56269">
        <ele>125.50234707538</ele>
        <time>2021-03-18T08:13:28Z</time>
      </trkpt>
      <trkpt lat="46.50267" lon="0.56267">
        <ele>125.80328743719</ele>
        <time>2021-03-18T08:13:30Z</time>
      </trkpt>
      <trkpt lat="46.50265" lon="0.56266">
        <ele>125.68106765207</ele>
        <time>2021-03-18T08:13:32Z</time>
      </trkpt>
      <trkpt lat="46.50263" lon="0.56265">
        <ele>125.58670937456</ele>
        <time>2021-03-18T08:13:34Z</time>
      </trkpt>
      <trkpt lat="46.5026" lon="0.56263">
        <ele>125.52766271122</ele>
        <time>2021-03-18T08:13:36Z</time>
      </trkpt>
      <trkpt lat="46.50258" lon="0.56262">
        <ele>125.26706083026</ele>
        <time>2021-03-18T08:13:38Z</time>
      </trkpt>
      <trkpt lat="46.50255" lon="0.56261">
        <ele>125.03933457844</ele>
        <time>2021-03-18T08:13:40Z</time>
      </trkpt>
      <trkpt lat="46.50253" lon="0.5626">
        <ele>125.43473902345</ele>
        <time>2021-03-18T08:13:42Z</time>
      </trkpt>
      <trkpt lat="46.50251" lon="0.56258">
        <ele>125.14334353711</ele>
        <time>2021-03-18T08:13:44Z</time>
      </trkpt>
      <trkpt lat="46.50248" lon="0.56257">
        <ele>124.8786215568</ele>
        <time>2021-03-18T08:13:46Z</time>
      </trkpt>
      <trkpt lat="46.50247" lon="0.56255">
        <ele>125.36882406194</ele>
        <time>2021-03-18T08:13:47Z</time>
      </trkpt>
      <trkpt lat="46.50244" lon="0.56254">
        <ele>125.13164755423</ele>
        <time>2021-03-18T08:13:49Z</time>
      </trkpt>
      <trkpt lat="46.50242" lon="0.56252">
        <ele>125.15447722375</ele>
        <time>2021-03-18T08:13:51Z</time>
      </trkpt>
      <trkpt lat="46.50239" lon="0.56251">
        <ele>125.29004008789</ele>
        <time>2021-03-18T08:13:53Z</time>
      </trkpt>
      <trkpt lat="46.50236" lon="0.5625">
        <ele>125.14178037643</ele>
        <time>2021-03-18T08:13:55Z</time>
      </trkpt>
      <trkpt lat="46.50234" lon="0.56248">
        <ele>125.22161766049</ele>
        <time>2021-03-18T08:13:57Z</time>
      </trkpt>
      <trkpt lat="46.50231" lon="0.56247">
        <ele>125.42094707303</ele>
        <time>2021-03-18T08:13:59Z</time>
      </trkpt>
      <trkpt lat="46.50228" lon="0.56246">
        <ele>125.15207754821</ele>
        <time>2021-03-18T08:14:01Z</time>
      </trkpt>
      <trkpt lat="46.50225" lon="0.56244">
        <ele>125.33103849739</ele>
        <time>2021-03-18T08:14:03Z</time>
      </trkpt>
      <trkpt lat="46.50223" lon="0.56244">
        <ele>125.13379290421</ele>
        <time>2021-03-18T08:14:05Z</time>
      </trkpt>
      <trkpt lat="46.5022" lon="0.56242">
        <ele>124.85970647447</ele>
        <time>2021-03-18T08:14:07Z</time>
      </trkpt>
      <trkpt lat="46.50218" lon="0.5624">
        <ele>124.92908564303</ele>
        <time>2021-03-18T08:14:09Z</time>
      </trkpt>
      <trkpt lat="46.50215" lon="0.56239">
        <ele>125.05680224672</ele>
        <time>2021-03-18T08:14:11Z</time>
      </trkpt>
      <trkpt lat="46.50213" lon="0.56238">
        <ele>124.76319810282</ele>
        <time>2021-03-18T08:14:13Z</time>
      </trkpt>
      <trkpt lat="46.5021" lon="0.56237">
        <ele>124.32163826376</ele>
        <time>2021-03-18T08:14:15Z</time>
      </trkpt>
      <trkpt lat="46.50207" lon="0.56236">
        <ele>124.80763430521</ele>
        <time>2021-03-18T08:14:17Z</time>
      </trkpt>
      <trkpt lat="46.50204" lon="0.56234">
        <ele>124.63246045727</ele>
        <time>2021-03-18T08:14:19Z</time>
      </trkpt>
      <trkpt lat="46.50202" lon="0.56234">
        <ele>124.33868302219</ele>
        <time>2021-03-18T08:14:21Z</time>
      </trkpt>
      <trkpt lat="46.502" lon="0.56232">
        <ele>123.34387414716</ele>
        <time>2021-03-18T08:14:23Z</time>
      </trkpt>
      <trkpt lat="46.50198" lon="0.56232">
        <ele>123.4058567984</ele>
        <time>2021-03-18T08:14:25Z</time>
      </trkpt>
      <trkpt lat="46.50196" lon="0.56231">
        <ele>123.62060240842</ele>
        <time>2021-03-18T08:14:26Z</time>
      </trkpt>
      <trkpt lat="46.50194" lon="0.5623">
        <ele>123.9596926868</ele>
        <time>2021-03-18T08:14:28Z</time>
      </trkpt>
      <trkpt lat="46.50191" lon="0.56229">
        <ele>123.97219194658</ele>
        <time>2021-03-18T08:14:30Z</time>
      </trkpt>
      <trkpt lat="46.50189" lon="0.56227">
        <ele>124.00486485008</ele>
        <time>2021-03-18T08:14:32Z</time>
      </trkpt>
      <trkpt lat="46.50186" lon="0.56226">
        <ele>123.44053341076</ele>
        <time>2021-03-18T08:14:34Z</time>
      </trkpt>
      <trkpt lat="46.50184" lon="0.56224">
        <ele>123.5666540768</ele>
        <time>2021-03-18T08:14:36Z</time>
      </trkpt>
      <trkpt lat="46.50181" lon="0.56223">
        <ele>123.9086200567</ele>
        <time>2021-03-18T08:14:38Z</time>
      </trkpt>
      <trkpt lat="46.50178" lon="0.56221">
        <ele>123.57204257604</ele>
        <time>2021-03-18T08:14:40Z</time>
      </trkpt>
      <trkpt lat="46.50176" lon="0.5622">
        <ele>123.16492987331</ele>
        <time>2021-03-18T08:14:42Z</time>
      </trkpt>
      <trkpt lat="46.50173" lon="0.56219">
        <ele>123.0115308715</ele>
        <time>2021-03-18T08:14:44Z</time>
      </trkpt>
      <trkpt lat="46.5017" lon="0.56218">
        <ele>123.66574858222</ele>
        <time>2021-03-18T08:14:46Z</time>
      </trkpt>
      <trkpt lat="46.50168" lon="0.56216">
        <ele>123.69342316687</ele>
        <time>2021-03-18T08:14:48Z</time>
      </trkpt>
      <trkpt lat="46.50165" lon="0.56214">
        <ele>123.56181892194</ele>
        <time>2021-03-18T08:14:50Z</time>
      </trkpt>
      <trkpt lat="46.50163" lon="0.56214">
        <ele>123.66152936779</ele>
        <time>2021-03-18T08:14:52Z</time>
      </trkpt>
      <trkpt lat="46.5016" lon="0.56212">
        <ele>123.60559529532</ele>
        <time>2021-03-18T08:14:54Z</time>
      </trkpt>
      <trkpt lat="46.50157" lon="0.56211">
        <ele>123.4788876595</ele>
        <time>2021-03-18T08:14:56Z</time>
      </trkpt>
      <trkpt lat="46.50155" lon="0.5621">
        <ele>123.75107570272</ele>
        <time>2021-03-18T08:14:58Z</time>
      </trkpt>
      <trkpt lat="46.50152" lon="0.56209">
        <ele>123.71945159789</ele>
        <time>2021-03-18T08:15:00Z</time>
      </trkpt>
      <trkpt lat="46.5015" lon="0.56207">
        <ele>123.35847965814</ele>
        <time>2021-03-18T08:15:02Z</time>
      </trkpt>
      <trkpt lat="46.50148" lon="0.56206">
        <ele>122.92824979313</ele>
        <time>2021-03-18T08:15:04Z</time>
      </trkpt>
      <trkpt lat="46.50146" lon="0.56206">
        <ele>122.67693590932</ele>
        <time>2021-03-18T08:15:06Z</time>
      </trkpt>
      <trkpt lat="46.50143" lon="0.56204">
        <ele>122.66743239667</ele>
        <time>2021-03-18T08:15:08Z</time>
      </trkpt>
      <trkpt lat="46.5014" lon="0.56204">
        <ele>123.45679024141</ele>
        <time>2021-03-18T08:15:10Z</time>
      </trkpt>
      <trkpt lat="46.50139" lon="0.56202">
        <ele>122.83965835907</ele>
        <time>2021-03-18T08:15:12Z</time>
      </trkpt>
      <trkpt lat="46.50137" lon="0.562">
        <ele>122.52841822896</ele>
        <time>2021-03-18T08:15:14Z</time>
      </trkpt>
      <trkpt lat="46.50136" lon="0.56197">
        <ele>122.61580421217</ele>
        <time>2021-03-18T08:15:16Z</time>
      </trkpt>
      <trkpt lat="46.50136" lon="0.56194">
        <ele>122.6345448494</ele>
        <time>2021-03-18T08:15:19Z</time>
      </trkpt>
      <trkpt lat="46.50136" lon="0.56191">
        <ele>122.62998439278</ele>
        <time>2021-03-18T08:15:21Z</time>
      </trkpt>
      <trkpt lat="46.50137" lon="0.56187">
        <ele>122.24554161914</ele>
        <time>2021-03-18T08:15:24Z</time>
      </trkpt>
      <trkpt lat="46.50138" lon="0.56184">
        <ele>123.48380504921</ele>
        <time>2021-03-18T08:15:26Z</time>
      </trkpt>
      <trkpt lat="46.50138" lon="0.56181">
        <ele>122.59449686296</ele>
        <time>2021-03-18T08:15:28Z</time>
      </trkpt>
      <trkpt lat="46.50139" lon="0.56177">
        <ele>122.82559374068</ele>
        <time>2021-03-18T08:15:30Z</time>
      </trkpt>
      <trkpt lat="46.50139" lon="0.56173">
        <ele>123.55281665362</ele>
        <time>2021-03-18T08:15:33Z</time>
      </trkpt>
      <trkpt lat="46.50139" lon="0.56169">
        <ele>123.08763151336</ele>
        <time>2021-03-18T08:15:35Z</time>
      </trkpt>
      <trkpt lat="46.5014" lon="0.56165">
        <ele>123.33836185094</ele>
        <time>2021-03-18T08:15:38Z</time>
      </trkpt>
      <trkpt lat="46.5014" lon="0.56162">
        <ele>123.46202555764</ele>
        <time>2021-03-18T08:15:40Z</time>
      </trkpt>
      <trkpt lat="46.5014" lon="0.56159">
        <ele>124.03662621882</ele>
        <time>2021-03-18T08:15:42Z</time>
      </trkpt>
      <trkpt lat="46.50141" lon="0.56155">
        <ele>123.31725770701</ele>
        <time>2021-03-18T08:15:44Z</time>
      </trkpt>
      <trkpt lat="46.50141" lon="0.56152">
        <ele>124.37279816438</ele>
        <time>2021-03-18T08:15:46Z</time>
      </trkpt>
      <trkpt lat="46.50141" lon="0.56148">
        <ele>123.76320014708</ele>
        <time>2021-03-18T08:15:48Z</time>
      </trkpt>
      <trkpt lat="46.50141" lon="0.56145">
        <ele>123.61841632519</ele>
        <time>2021-03-18T08:15:50Z</time>
      </trkpt>
      <trkpt lat="46.50141" lon="0.56142">
        <ele>123.98469958361</ele>
        <time>2021-03-18T08:15:52Z</time>
      </trkpt>
      <trkpt lat="46.50141" lon="0.56138">
        <ele>123.40191237815</ele>
        <time>2021-03-18T08:15:54Z</time>
      </trkpt>
      <trkpt lat="46.50141" lon="0.56134">
        <ele>124.39995851368</ele>
        <time>2021-03-18T08:15:56Z</time>
      </trkpt>
      <trkpt lat="46.50142" lon="0.5613">
        <ele>123.79760160297</ele>
        <time>2021-03-18T08:15:58Z</time>
      </trkpt>
      <trkpt lat="46.50143" lon="0.56127">
        <ele>124.13094062638</ele>
        <time>2021-03-18T08:16:00Z</time>
      </trkpt>
      <trkpt lat="46.50143" lon="0.56123">
        <ele>123.77233805042</ele>
        <time>2021-03-18T08:16:02Z</time>
      </trkpt>
      <trkpt lat="46.50143" lon="0.56119">
        <ele>124.00373422168</ele>
        <time>2021-03-18T08:16:04Z</time>
      </trkpt>
      <trkpt lat="46.50143" lon="0.56116">
        <ele>124.67946351878</ele>
        <time>2021-03-18T08:16:06Z</time>
      </trkpt>
      <trkpt lat="46.50143" lon="0.56112">
        <ele>124.22222569305</ele>
        <time>2021-03-18T08:16:08Z</time>
      </trkpt>
      <trkpt lat="46.50143" lon="0.5611">
        <ele>125.22138707899</ele>
        <time>2021-03-18T08:16:10Z</time>
      </trkpt>
      <trkpt lat="46.50143" lon="0.56106">
        <ele>124.19983549695</ele>
        <time>2021-03-18T08:16:12Z</time>
      </trkpt>
      <trkpt lat="46.50143" lon="0.56102">
        <ele>124.58089805581</ele>
        <time>2021-03-18T08:16:14Z</time>
      </trkpt>
      <trkpt lat="46.50143" lon="0.56099">
        <ele>124.6844053166</ele>
        <time>2021-03-18T08:16:16Z</time>
      </trkpt>
      <trkpt lat="46.50143" lon="0.56096">
        <ele>124.52070334461</ele>
        <time>2021-03-18T08:16:18Z</time>
      </trkpt>
      <trkpt lat="46.50144" lon="0.56092">
        <ele>124.76225877926</ele>
        <time>2021-03-18T08:16:20Z</time>
      </trkpt>
      <trkpt lat="46.50144" lon="0.56088">
        <ele>124.9773979811</ele>
        <time>2021-03-18T08:16:22Z</time>
      </trkpt>
      <trkpt lat="46.50144" lon="0.56085">
        <ele>124.28540895786</ele>
        <time>2021-03-18T08:16:24Z</time>
      </trkpt>
      <trkpt lat="46.50144" lon="0.56082">
        <ele>124.98158272263</ele>
        <time>2021-03-18T08:16:26Z</time>
      </trkpt>
      <trkpt lat="46.50144" lon="0.56078">
        <ele>124.368265111</ele>
        <time>2021-03-18T08:16:28Z</time>
      </trkpt>
      <trkpt lat="46.50144" lon="0.56075">
        <ele>125.2965360377</ele>
        <time>2021-03-18T08:16:30Z</time>
      </trkpt>
      <trkpt lat="46.50144" lon="0.56071">
        <ele>125.03761832602</ele>
        <time>2021-03-18T08:16:32Z</time>
      </trkpt>
      <trkpt lat="46.50144" lon="0.56067">
        <ele>125.18798321858</ele>
        <time>2021-03-18T08:16:34Z</time>
      </trkpt>
      <trkpt lat="46.50145" lon="0.56064">
        <ele>124.99488615617</ele>
        <time>2021-03-18T08:16:36Z</time>
      </trkpt>
      <trkpt lat="46.50145" lon="0.56061">
        <ele>125.37903374806</ele>
        <time>2021-03-18T08:16:38Z</time>
      </trkpt>
      <trkpt lat="46.50145" lon="0.56057">
        <ele>126.04006560706</ele>
        <time>2021-03-18T08:16:40Z</time>
      </trkpt>
      <trkpt lat="46.50145" lon="0.56053">
        <ele>125.44558035117</ele>
        <time>2021-03-18T08:16:42Z</time>
      </trkpt>
      <trkpt lat="46.50144" lon="0.5605">
        <ele>126.26278216206</ele>
        <time>2021-03-18T08:16:44Z</time>
      </trkpt>
      <trkpt lat="46.50144" lon="0.56046">
        <ele>125.57546997257</ele>
        <time>2021-03-18T08:16:46Z</time>
      </trkpt>
      <trkpt lat="46.50144" lon="0.56042">
        <ele>126.14425588958</ele>
        <time>2021-03-18T08:16:48Z</time>
      </trkpt>
      <trkpt lat="46.50145" lon="0.56039">
        <ele>125.98233301193</ele>
        <time>2021-03-18T08:16:50Z</time>
      </trkpt>
      <trkpt lat="46.50145" lon="0.56036">
        <ele>126.03520974796</ele>
        <time>2021-03-18T08:16:52Z</time>
      </trkpt>
      <trkpt lat="46.50145" lon="0.56032">
        <ele>126.29608196206</ele>
        <time>2021-03-18T08:16:54Z</time>
      </trkpt>
      <trkpt lat="46.50145" lon="0.56029">
        <ele>126.67509272322</ele>
        <time>2021-03-18T08:16:56Z</time>
      </trkpt>
      <trkpt lat="46.50145" lon="0.56025">
        <ele>126.70914519113</ele>
        <time>2021-03-18T08:16:58Z</time>
      </trkpt>
      <trkpt lat="46.50145" lon="0.56021">
        <ele>126.12481853366</ele>
        <time>2021-03-18T08:17:00Z</time>
      </trkpt>
      <trkpt lat="46.50145" lon="0.56018">
        <ele>127.07707517408</ele>
        <time>2021-03-18T08:17:01Z</time>
      </trkpt>
      <trkpt lat="46.50145" lon="0.56015">
        <ele>127.14386891574</ele>
        <time>2021-03-18T08:17:02Z</time>
      </trkpt>
      <trkpt lat="46.50145" lon="0.56011">
        <ele>126.46711411234</ele>
        <time>2021-03-18T08:17:04Z</time>
      </trkpt>
      <trkpt lat="46.50145" lon="0.56007">
        <ele>127.06371021736</ele>
        <time>2021-03-18T08:17:06Z</time>
      </trkpt>
      <trkpt lat="46.50145" lon="0.56004">
        <ele>126.79519610479</ele>
        <time>2021-03-18T08:17:07Z</time>
      </trkpt>
      <trkpt lat="46.50146" lon="0.56">
        <ele>127.08393879142</ele>
        <time>2021-03-18T08:17:09Z</time>
      </trkpt>
      <trkpt lat="46.50146" lon="0.55996">
        <ele>127.22553686053</ele>
        <time>2021-03-18T08:17:11Z</time>
      </trkpt>
      <trkpt lat="46.50146" lon="0.55992">
        <ele>127.05298352242</ele>
        <time>2021-03-18T08:17:13Z</time>
      </trkpt>
      <trkpt lat="46.50146" lon="0.55988">
        <ele>127.44676289614</ele>
        <time>2021-03-18T08:17:15Z</time>
      </trkpt>
      <trkpt lat="46.50146" lon="0.55985">
        <ele>126.75735114422</ele>
        <time>2021-03-18T08:17:17Z</time>
      </trkpt>
      <trkpt lat="46.50146" lon="0.55981">
        <ele>127.27080496959</ele>
        <time>2021-03-18T08:17:19Z</time>
      </trkpt>
      <trkpt lat="46.50146" lon="0.55977">
        <ele>126.63517562021</ele>
        <time>2021-03-18T08:17:21Z</time>
      </trkpt>
      <trkpt lat="46.50146" lon="0.55973">
        <ele>127.21288874652</ele>
        <time>2021-03-18T08:17:23Z</time>
      </trkpt>
      <trkpt lat="46.50147" lon="0.55969">
        <ele>126.3545295326</ele>
        <time>2021-03-18T08:17:25Z</time>
      </trkpt>
      <trkpt lat="46.50147" lon="0.55966">
        <ele>126.99650103878</ele>
        <time>2021-03-18T08:17:27Z</time>
      </trkpt>
      <trkpt lat="46.50147" lon="0.55963">
        <ele>126.9104370689</ele>
        <time>2021-03-18T08:17:29Z</time>
      </trkpt>
      <trkpt lat="46.50147" lon="0.5596">
        <ele>127.49989824928</ele>
        <time>2021-03-18T08:17:31Z</time>
      </trkpt>
      <trkpt lat="46.50148" lon="0.55955">
        <ele>126.7796158595</ele>
        <time>2021-03-18T08:17:33Z</time>
      </trkpt>
      <trkpt lat="46.50148" lon="0.55952">
        <ele>127.43971766997</ele>
        <time>2021-03-18T08:17:35Z</time>
      </trkpt>
      <trkpt lat="46.50148" lon="0.55948">
        <ele>127.19024558831</ele>
        <time>2021-03-18T08:17:37Z</time>
      </trkpt>
      <trkpt lat="46.50148" lon="0.55946">
        <ele>127.48510764912</ele>
        <time>2021-03-18T08:17:38Z</time>
      </trkpt>
      <trkpt lat="46.50148" lon="0.55942">
        <ele>127.38143286388</ele>
        <time>2021-03-18T08:17:40Z</time>
      </trkpt>
      <trkpt lat="46.50149" lon="0.55938">
        <ele>127.70518098678</ele>
        <time>2021-03-18T08:17:42Z</time>
      </trkpt>
      <trkpt lat="46.50149" lon="0.55935">
        <ele>127.58952053916</ele>
        <time>2021-03-18T08:17:44Z</time>
      </trkpt>
      <trkpt lat="46.50149" lon="0.55931">
        <ele>128.12423365656</ele>
        <time>2021-03-18T08:17:46Z</time>
      </trkpt>
      <trkpt lat="46.5015" lon="0.55927">
        <ele>127.7065565493</ele>
        <time>2021-03-18T08:17:48Z</time>
      </trkpt>
      <trkpt lat="46.5015" lon="0.55923">
        <ele>127.66285255924</ele>
        <time>2021-03-18T08:17:50Z</time>
      </trkpt>
      <trkpt lat="46.5015" lon="0.5592">
        <ele>128.23452105839</ele>
        <time>2021-03-18T08:17:52Z</time>
      </trkpt>
      <trkpt lat="46.5015" lon="0.55916">
        <ele>127.3864862686</ele>
        <time>2021-03-18T08:17:54Z</time>
      </trkpt>
      <trkpt lat="46.50151" lon="0.55912">
        <ele>127.80956906173</ele>
        <time>2021-03-18T08:17:56Z</time>
      </trkpt>
      <trkpt lat="46.50151" lon="0.55908">
        <ele>128.17301668227</ele>
        <time>2021-03-18T08:17:58Z</time>
      </trkpt>
      <trkpt lat="46.50152" lon="0.55904">
        <ele>128.04707500525</ele>
        <time>2021-03-18T08:18:00Z</time>
      </trkpt>
      <trkpt lat="46.50152" lon="0.55899">
        <ele>128.0612467099</ele>
        <time>2021-03-18T08:18:02Z</time>
      </trkpt>
      <trkpt lat="46.50152" lon="0.55896">
        <ele>127.78441179637</ele>
        <time>2021-03-18T08:18:04Z</time>
      </trkpt>
      <trkpt lat="46.50153" lon="0.55892">
        <ele>127.71947202832</ele>
        <time>2021-03-18T08:18:06Z</time>
      </trkpt>
      <trkpt lat="46.50154" lon="0.55888">
        <ele>127.75433614664</ele>
        <time>2021-03-18T08:18:08Z</time>
      </trkpt>
      <trkpt lat="46.50154" lon="0.55886">
        <ele>128.34184302855</ele>
        <time>2021-03-18T08:18:09Z</time>
      </trkpt>
      <trkpt lat="46.50155" lon="0.55882">
        <ele>128.30575547926</ele>
        <time>2021-03-18T08:18:11Z</time>
      </trkpt>
      <trkpt lat="46.50156" lon="0.55879">
        <ele>128.51987718139</ele>
        <time>2021-03-18T08:18:13Z</time>
      </trkpt>
      <trkpt lat="46.50156" lon="0.55875">
        <ele>128.13030721992</ele>
        <time>2021-03-18T08:18:15Z</time>
      </trkpt>
      <trkpt lat="46.50157" lon="0.55872">
        <ele>127.58071216661</ele>
        <time>2021-03-18T08:18:17Z</time>
      </trkpt>
      <trkpt lat="46.50158" lon="0.55869">
        <ele>128.43195814826</ele>
        <time>2021-03-18T08:18:19Z</time>
      </trkpt>
      <trkpt lat="46.50159" lon="0.55866">
        <ele>127.91110362764</ele>
        <time>2021-03-18T08:18:21Z</time>
      </trkpt>
      <trkpt lat="46.5016" lon="0.55862">
        <ele>128.17685419787</ele>
        <time>2021-03-18T08:18:23Z</time>
      </trkpt>
      <trkpt lat="46.50161" lon="0.55859">
        <ele>128.31636462454</ele>
        <time>2021-03-18T08:18:25Z</time>
      </trkpt>
      <trkpt lat="46.50162" lon="0.55856">
        <ele>128.20743340068</ele>
        <time>2021-03-18T08:18:27Z</time>
      </trkpt>
      <trkpt lat="46.50163" lon="0.55852">
        <ele>128.4183709519</ele>
        <time>2021-03-18T08:18:29Z</time>
      </trkpt>
      <trkpt lat="46.50164" lon="0.55849">
        <ele>129.24290919211</ele>
        <time>2021-03-18T08:18:31Z</time>
      </trkpt>
      <trkpt lat="46.50165" lon="0.55846">
        <ele>129.02017389983</ele>
        <time>2021-03-18T08:18:33Z</time>
      </trkpt>
      <trkpt lat="46.50166" lon="0.55843">
        <ele>127.77562776115</ele>
        <time>2021-03-18T08:18:35Z</time>
      </trkpt>
      <trkpt lat="46.50167" lon="0.5584">
        <ele>128.80561145395</ele>
        <time>2021-03-18T08:18:37Z</time>
      </trkpt>
      <trkpt lat="46.50169" lon="0.55837">
        <ele>128.35902934615</ele>
        <time>2021-03-18T08:18:39Z</time>
      </trkpt>
      <trkpt lat="46.5017" lon="0.55834">
        <ele>128.97851568926</ele>
        <time>2021-03-18T08:18:42Z</time>
      </trkpt>
      <trkpt lat="46.50172" lon="0.5583">
        <ele>128.53209896479</ele>
        <time>2021-03-18T08:18:44Z</time>
      </trkpt>
      <trkpt lat="46.50174" lon="0.55826">
        <ele>128.16796743218</ele>
        <time>2021-03-18T08:18:46Z</time>
      </trkpt>
      <trkpt lat="46.50176" lon="0.55823">
        <ele>129.08467766363</ele>
        <time>2021-03-18T08:18:48Z</time>
      </trkpt>
      <trkpt lat="46.50177" lon="0.5582">
        <ele>129.81486319564</ele>
        <time>2021-03-18T08:18:50Z</time>
      </trkpt>
      <trkpt lat="46.50178" lon="0.55817">
        <ele>128.93902042601</ele>
        <time>2021-03-18T08:18:52Z</time>
      </trkpt>
      <trkpt lat="46.5018" lon="0.55812">
        <ele>128.24380061496</ele>
        <time>2021-03-18T08:18:54Z</time>
      </trkpt>
      <trkpt lat="46.50182" lon="0.5581">
        <ele>129.15601758659</ele>
        <time>2021-03-18T08:18:56Z</time>
      </trkpt>
      <trkpt lat="46.50184" lon="0.55808">
        <ele>129.43646735046</ele>
        <time>2021-03-18T08:18:58Z</time>
      </trkpt>
      <trkpt lat="46.50185" lon="0.55805">
        <ele>128.30897112377</ele>
        <time>2021-03-18T08:19:00Z</time>
      </trkpt>
      <trkpt lat="46.50187" lon="0.55802">
        <ele>128.92901488114</ele>
        <time>2021-03-18T08:19:02Z</time>
      </trkpt>
      <trkpt lat="46.50188" lon="0.55798">
        <ele>128.5062143337</ele>
        <time>2021-03-18T08:19:04Z</time>
      </trkpt>
      <trkpt lat="46.50189" lon="0.55795">
        <ele>128.7884954717</ele>
        <time>2021-03-18T08:19:06Z</time>
      </trkpt>
      <trkpt lat="46.5019" lon="0.55791">
        <ele>128.06583804172</ele>
        <time>2021-03-18T08:19:08Z</time>
      </trkpt>
      <trkpt lat="46.50191" lon="0.55788">
        <ele>128.25200763438</ele>
        <time>2021-03-18T08:19:10Z</time>
      </trkpt>
      <trkpt lat="46.50193" lon="0.55785">
        <ele>128.74898766447</ele>
        <time>2021-03-18T08:19:12Z</time>
      </trkpt>
      <trkpt lat="46.50194" lon="0.55783">
        <ele>128.33263296075</ele>
        <time>2021-03-18T08:19:14Z</time>
      </trkpt>
      <trkpt lat="46.50196" lon="0.5578">
        <ele>129.20722989645</ele>
        <time>2021-03-18T08:19:16Z</time>
      </trkpt>
      <trkpt lat="46.50197" lon="0.55778">
        <ele>127.96002155263</ele>
        <time>2021-03-18T08:19:18Z</time>
      </trkpt>
      <trkpt lat="46.50199" lon="0.55775">
        <ele>128.93570834305</ele>
        <time>2021-03-18T08:19:20Z</time>
      </trkpt>
      <trkpt lat="46.50201" lon="0.55772">
        <ele>128.47486383189</ele>
        <time>2021-03-18T08:19:22Z</time>
      </trkpt>
      <trkpt lat="46.50203" lon="0.5577">
        <ele>128.57390844915</ele>
        <time>2021-03-18T08:19:24Z</time>
      </trkpt>
      <trkpt lat="46.50204" lon="0.55767">
        <ele>128.52669594157</ele>
        <time>2021-03-18T08:19:25Z</time>
      </trkpt>
      <trkpt lat="46.50206" lon="0.55765">
        <ele>127.91753274016</ele>
        <time>2021-03-18T08:19:27Z</time>
      </trkpt>
      <trkpt lat="46.50207" lon="0.55761">
        <ele>128.53335625771</ele>
        <time>2021-03-18T08:19:29Z</time>
      </trkpt>
      <trkpt lat="46.50209" lon="0.55758">
        <ele>128.65094785951</ele>
        <time>2021-03-18T08:19:31Z</time>
      </trkpt>
      <trkpt lat="46.5021" lon="0.55754">
        <ele>128.9901533993</ele>
        <time>2021-03-18T08:19:34Z</time>
      </trkpt>
      <trkpt lat="46.50212" lon="0.55752">
        <ele>128.63902266137</ele>
        <time>2021-03-18T08:19:36Z</time>
      </trkpt>
      <trkpt lat="46.50213" lon="0.55749">
        <ele>128.01933011692</ele>
        <time>2021-03-18T08:19:38Z</time>
      </trkpt>
      <trkpt lat="46.50214" lon="0.55745">
        <ele>129.0324513549</ele>
        <time>2021-03-18T08:19:41Z</time>
      </trkpt>
      <trkpt lat="46.50215" lon="0.55742">
        <ele>128.77951749321</ele>
        <time>2021-03-18T08:19:43Z</time>
      </trkpt>
      <trkpt lat="46.50216" lon="0.55738">
        <ele>128.0019486798</ele>
        <time>2021-03-18T08:19:45Z</time>
      </trkpt>
      <trkpt lat="46.50217" lon="0.55735">
        <ele>128.33456404135</ele>
        <time>2021-03-18T08:19:47Z</time>
      </trkpt>
      <trkpt lat="46.50218" lon="0.55732">
        <ele>128.3893881524</ele>
        <time>2021-03-18T08:19:49Z</time>
      </trkpt>
      <trkpt lat="46.50218" lon="0.55728">
        <ele>128.5832621064</ele>
        <time>2021-03-18T08:19:51Z</time>
      </trkpt>
      <trkpt lat="46.50219" lon="0.55725">
        <ele>128.31101990119</ele>
        <time>2021-03-18T08:19:53Z</time>
      </trkpt>
      <trkpt lat="46.5022" lon="0.55722">
        <ele>128.24549100734</ele>
        <time>2021-03-18T08:19:55Z</time>
      </trkpt>
      <trkpt lat="46.5022" lon="0.55718">
        <ele>128.33958347421</ele>
        <time>2021-03-18T08:19:57Z</time>
      </trkpt>
      <trkpt lat="46.50221" lon="0.55715">
        <ele>128.87999334838</ele>
        <time>2021-03-18T08:19:59Z</time>
      </trkpt>
      <trkpt lat="46.50222" lon="0.55711">
        <ele>128.5810683528</ele>
        <time>2021-03-18T08:20:01Z</time>
      </trkpt>
      <trkpt lat="46.50223" lon="0.55707">
        <ele>127.97823388316</ele>
        <time>2021-03-18T08:20:03Z</time>
      </trkpt>
      <trkpt lat="46.50223" lon="0.55703">
        <ele>128.57777331583</ele>
        <time>2021-03-18T08:20:05Z</time>
      </trkpt>
      <trkpt lat="46.50224" lon="0.55699">
        <ele>128.36742930487</ele>
        <time>2021-03-18T08:20:07Z</time>
      </trkpt>
      <trkpt lat="46.50225" lon="0.55697">
        <ele>128.47115438897</ele>
        <time>2021-03-18T08:20:08Z</time>
      </trkpt>
      <trkpt lat="46.50225" lon="0.55692">
        <ele>128.57130099926</ele>
        <time>2021-03-18T08:20:10Z</time>
      </trkpt>
      <trkpt lat="46.50226" lon="0.55689">
        <ele>128.24670922197</ele>
        <time>2021-03-18T08:20:12Z</time>
      </trkpt>
      <trkpt lat="46.50227" lon="0.55685">
        <ele>128.25376358721</ele>
        <time>2021-03-18T08:20:14Z</time>
      </trkpt>
      <trkpt lat="46.50228" lon="0.55682">
        <ele>128.31075399555</ele>
        <time>2021-03-18T08:20:16Z</time>
      </trkpt>
      <trkpt lat="46.5023" lon="0.5568">
        <ele>128.38413409237</ele>
        <time>2021-03-18T08:20:18Z</time>
      </trkpt>
      <trkpt lat="46.50231" lon="0.55677">
        <ele>128.38399535231</ele>
        <time>2021-03-18T08:20:20Z</time>
      </trkpt>
      <trkpt lat="46.50232" lon="0.55672">
        <ele>129.56079181936</ele>
        <time>2021-03-18T08:20:23Z</time>
      </trkpt>
      <trkpt lat="46.50232" lon="0.55669">
        <ele>128.62169809453</ele>
        <time>2021-03-18T08:20:25Z</time>
      </trkpt>
      <trkpt lat="46.50233" lon="0.55665">
        <ele>128.66195271071</ele>
        <time>2021-03-18T08:20:27Z</time>
      </trkpt>
      <trkpt lat="46.50233" lon="0.55661">
        <ele>127.37839671411</ele>
        <time>2021-03-18T08:20:29Z</time>
      </trkpt>
      <trkpt lat="46.50234" lon="0.55657">
        <ele>128.44019483496</ele>
        <time>2021-03-18T08:20:31Z</time>
      </trkpt>
      <trkpt lat="46.50234" lon="0.55653">
        <ele>128.27511950769</ele>
        <time>2021-03-18T08:20:34Z</time>
      </trkpt>
      <trkpt lat="46.50235" lon="0.5565">
        <ele>127.92053169385</ele>
        <time>2021-03-18T08:20:36Z</time>
      </trkpt>
      <trkpt lat="46.50235" lon="0.55647">
        <ele>128.20962240454</ele>
        <time>2021-03-18T08:20:38Z</time>
      </trkpt>
      <trkpt lat="46.50236" lon="0.55643">
        <ele>128.13762622327</ele>
        <time>2021-03-18T08:20:40Z</time>
      </trkpt>
      <trkpt lat="46.50237" lon="0.5564">
        <ele>127.96824980062</ele>
        <time>2021-03-18T08:20:42Z</time>
      </trkpt>
      <trkpt lat="46.50238" lon="0.55636">
        <ele>128.2630538065</ele>
        <time>2021-03-18T08:20:44Z</time>
      </trkpt>
      <trkpt lat="46.50239" lon="0.55632">
        <ele>128.16196039598</ele>
        <time>2021-03-18T08:20:46Z</time>
      </trkpt>
      <trkpt lat="46.5024" lon="0.55628">
        <ele>128.86748417094</ele>
        <time>2021-03-18T08:20:48Z</time>
      </trkpt>
      <trkpt lat="46.50241" lon="0.55624">
        <ele>128.62744735274</ele>
        <time>2021-03-18T08:20:50Z</time>
      </trkpt>
      <trkpt lat="46.50242" lon="0.55621">
        <ele>127.76143730897</ele>
        <time>2021-03-18T08:20:52Z</time>
      </trkpt>
      <trkpt lat="46.50242" lon="0.55616">
        <ele>127.34739820752</ele>
        <time>2021-03-18T08:20:54Z</time>
      </trkpt>
      <trkpt lat="46.50243" lon="0.55613">
        <ele>128.01217972673</ele>
        <time>2021-03-18T08:20:56Z</time>
      </trkpt>
      <trkpt lat="46.50244" lon="0.55609">
        <ele>128.08625656087</ele>
        <time>2021-03-18T08:20:58Z</time>
      </trkpt>
      <trkpt lat="46.50245" lon="0.55606">
        <ele>127.15358129609</ele>
        <time>2021-03-18T08:21:00Z</time>
      </trkpt>
      <trkpt lat="46.50245" lon="0.55602">
        <ele>127.27718857396</ele>
        <time>2021-03-18T08:21:02Z</time>
      </trkpt>
      <trkpt lat="46.50246" lon="0.55598">
        <ele>127.53397931904</ele>
        <time>2021-03-18T08:21:04Z</time>
      </trkpt>
      <trkpt lat="46.50246" lon="0.55595">
        <ele>127.55140818842</ele>
        <time>2021-03-18T08:21:06Z</time>
      </trkpt>
      <trkpt lat="46.50247" lon="0.55591">
        <ele>127.51628047135</ele>
        <time>2021-03-18T08:21:08Z</time>
      </trkpt>
      <trkpt lat="46.50248" lon="0.55588">
        <ele>127.08627096936</ele>
        <time>2021-03-18T08:21:10Z</time>
      </trkpt>
      <trkpt lat="46.50248" lon="0.55583">
        <ele>126.9426856339</ele>
        <time>2021-03-18T08:21:12Z</time>
      </trkpt>
      <trkpt lat="46.50249" lon="0.5558">
        <ele>126.9982052464</ele>
        <time>2021-03-18T08:21:14Z</time>
      </trkpt>
      <trkpt lat="46.50249" lon="0.55576">
        <ele>127.01996850595</ele>
        <time>2021-03-18T08:21:16Z</time>
      </trkpt>
      <trkpt lat="46.5025" lon="0.55573">
        <ele>127.02302901447</ele>
        <time>2021-03-18T08:21:18Z</time>
      </trkpt>
      <trkpt lat="46.5025" lon="0.55569">
        <ele>127.05720018223</ele>
        <time>2021-03-18T08:21:20Z</time>
      </trkpt>
      <trkpt lat="46.50249" lon="0.55565">
        <ele>126.69164940249</ele>
        <time>2021-03-18T08:21:22Z</time>
      </trkpt>
      <trkpt lat="46.5025" lon="0.55561">
        <ele>126.74873555265</ele>
        <time>2021-03-18T08:21:24Z</time>
      </trkpt>
      <trkpt lat="46.5025" lon="0.55558">
        <ele>127.16539319884</ele>
        <time>2021-03-18T08:21:26Z</time>
      </trkpt>
      <trkpt lat="46.5025" lon="0.55555">
        <ele>126.58288669679</ele>
        <time>2021-03-18T08:21:28Z</time>
      </trkpt>
      <trkpt lat="46.50251" lon="0.55551">
        <ele>126.05945684109</ele>
        <time>2021-03-18T08:21:30Z</time>
      </trkpt>
      <trkpt lat="46.50251" lon="0.55547">
        <ele>125.68568301853</ele>
        <time>2021-03-18T08:21:32Z</time>
      </trkpt>
      <trkpt lat="46.50251" lon="0.55544">
        <ele>126.46395021491</ele>
        <time>2021-03-18T08:21:34Z</time>
      </trkpt>
      <trkpt lat="46.50252" lon="0.55541">
        <ele>125.42722675763</ele>
        <time>2021-03-18T08:21:36Z</time>
      </trkpt>
      <trkpt lat="46.50252" lon="0.55537">
        <ele>125.72275806498</ele>
        <time>2021-03-18T08:21:38Z</time>
      </trkpt>
      <trkpt lat="46.50252" lon="0.55534">
        <ele>126.15614224132</ele>
        <time>2021-03-18T08:21:40Z</time>
      </trkpt>
      <trkpt lat="46.50252" lon="0.5553">
        <ele>126.2775637554</ele>
        <time>2021-03-18T08:21:42Z</time>
      </trkpt>
      <trkpt lat="46.50252" lon="0.55525">
        <ele>125.99701031949</ele>
        <time>2021-03-18T08:21:44Z</time>
      </trkpt>
      <trkpt lat="46.50252" lon="0.55522">
        <ele>126.08870437369</ele>
        <time>2021-03-18T08:21:45Z</time>
      </trkpt>
      <trkpt lat="46.50253" lon="0.55518">
        <ele>125.95629249513</ele>
        <time>2021-03-18T08:21:47Z</time>
      </trkpt>
      <trkpt lat="46.50253" lon="0.55514">
        <ele>125.76293721423</ele>
        <time>2021-03-18T08:21:49Z</time>
      </trkpt>
      <trkpt lat="46.50253" lon="0.55511">
        <ele>126.13616491854</ele>
        <time>2021-03-18T08:21:52Z</time>
      </trkpt>
      <trkpt lat="46.50253" lon="0.55506">
        <ele>126.05246621184</ele>
        <time>2021-03-18T08:21:54Z</time>
      </trkpt>
      <trkpt lat="46.50253" lon="0.55503">
        <ele>124.53984211944</ele>
        <time>2021-03-18T08:21:56Z</time>
      </trkpt>
      <trkpt lat="46.50253" lon="0.55499">
        <ele>125.17375890631</ele>
        <time>2021-03-18T08:21:58Z</time>
      </trkpt>
      <trkpt lat="46.50253" lon="0.55495">
        <ele>125.43982135598</ele>
        <time>2021-03-18T08:22:00Z</time>
      </trkpt>
      <trkpt lat="46.50253" lon="0.55491">
        <ele>124.46593513619</ele>
        <time>2021-03-18T08:22:02Z</time>
      </trkpt>
      <trkpt lat="46.50253" lon="0.55488">
        <ele>124.71092539933</ele>
        <time>2021-03-18T08:22:04Z</time>
      </trkpt>
      <trkpt lat="46.50253" lon="0.55483">
        <ele>125.0051097814</ele>
        <time>2021-03-18T08:22:06Z</time>
      </trkpt>
      <trkpt lat="46.50254" lon="0.5548">
        <ele>124.72531210631</ele>
        <time>2021-03-18T08:22:08Z</time>
      </trkpt>
      <trkpt lat="46.50254" lon="0.55476">
        <ele>124.82687751204</ele>
        <time>2021-03-18T08:22:10Z</time>
      </trkpt>
      <trkpt lat="46.50254" lon="0.55473">
        <ele>124.64765576087</ele>
        <time>2021-03-18T08:22:12Z</time>
      </trkpt>
      <trkpt lat="46.50254" lon="0.5547">
        <ele>125.30775366258</ele>
        <time>2021-03-18T08:22:14Z</time>
      </trkpt>
      <trkpt lat="46.50255" lon="0.55466">
        <ele>124.68683277071</ele>
        <time>2021-03-18T08:22:16Z</time>
      </trkpt>
      <trkpt lat="46.50255" lon="0.5546">
        <ele>124.27938521188</ele>
        <time>2021-03-18T08:22:18Z</time>
      </trkpt>
      <trkpt lat="46.50255" lon="0.55456">
        <ele>124.42316987365</ele>
        <time>2021-03-18T08:22:20Z</time>
      </trkpt>
      <trkpt lat="46.50254" lon="0.55453">
        <ele>124.08991343714</ele>
        <time>2021-03-18T08:22:22Z</time>
      </trkpt>
      <trkpt lat="46.50255" lon="0.5545">
        <ele>124.07030961942</ele>
        <time>2021-03-18T08:22:24Z</time>
      </trkpt>
      <trkpt lat="46.50255" lon="0.55445">
        <ele>124.72335903626</ele>
        <time>2021-03-18T08:22:27Z</time>
      </trkpt>
      <trkpt lat="46.50255" lon="0.55441">
        <ele>124.55220585689</ele>
        <time>2021-03-18T08:22:28Z</time>
      </trkpt>
      <trkpt lat="46.50256" lon="0.55438">
        <ele>123.55383345671</ele>
        <time>2021-03-18T08:22:30Z</time>
      </trkpt>
      <trkpt lat="46.50255" lon="0.55435">
        <ele>123.51746839006</ele>
        <time>2021-03-18T08:22:33Z</time>
      </trkpt>
      <trkpt lat="46.50255" lon="0.55432">
        <ele>123.13053026609</ele>
        <time>2021-03-18T08:22:34Z</time>
      </trkpt>
      <trkpt lat="46.50255" lon="0.55428">
        <ele>123.30608257372</ele>
        <time>2021-03-18T08:22:36Z</time>
      </trkpt>
      <trkpt lat="46.50255" lon="0.55424">
        <ele>123.37983222213</ele>
        <time>2021-03-18T08:22:38Z</time>
      </trkpt>
      <trkpt lat="46.50255" lon="0.55419">
        <ele>123.73205782473</ele>
        <time>2021-03-18T08:22:40Z</time>
      </trkpt>
      <trkpt lat="46.50256" lon="0.55415">
        <ele>122.76372896973</ele>
        <time>2021-03-18T08:22:43Z</time>
      </trkpt>
      <trkpt lat="46.50256" lon="0.55412">
        <ele>123.80617272761</ele>
        <time>2021-03-18T08:22:45Z</time>
      </trkpt>
      <trkpt lat="46.50256" lon="0.55409">
        <ele>123.51653433405</ele>
        <time>2021-03-18T08:22:46Z</time>
      </trkpt>
      <trkpt lat="46.50256" lon="0.55404">
        <ele>122.27737180796</ele>
        <time>2021-03-18T08:22:48Z</time>
      </trkpt>
      <trkpt lat="46.50256" lon="0.554">
        <ele>123.36012257356</ele>
        <time>2021-03-18T08:22:50Z</time>
      </trkpt>
      <trkpt lat="46.50256" lon="0.55397">
        <ele>122.73911566287</ele>
        <time>2021-03-18T08:22:51Z</time>
      </trkpt>
      <trkpt lat="46.50254" lon="0.55395">
        <ele>123.11511680298</ele>
        <time>2021-03-18T08:22:54Z</time>
      </trkpt>
      <trkpt lat="46.50252" lon="0.55392">
        <ele>123.10982600041</ele>
        <time>2021-03-18T08:22:56Z</time>
      </trkpt>
      <trkpt lat="46.50249" lon="0.55391">
        <ele>123.23191268183</ele>
        <time>2021-03-18T08:22:58Z</time>
      </trkpt>
      <trkpt lat="46.50247" lon="0.55391">
        <ele>123.06577992253</ele>
        <time>2021-03-18T08:23:00Z</time>
      </trkpt>
      <trkpt lat="46.50246" lon="0.5539">
        <ele>123.59853336308</ele>
        <time>2021-03-18T08:23:01Z</time>
      </trkpt>
      <trkpt lat="46.50243" lon="0.55389">
        <ele>122.53917734511</ele>
        <time>2021-03-18T08:23:03Z</time>
      </trkpt>
      <trkpt lat="46.50241" lon="0.55389">
        <ele>122.78164483327</ele>
        <time>2021-03-18T08:23:05Z</time>
      </trkpt>
      <trkpt lat="46.50239" lon="0.55387">
        <ele>122.56231139693</ele>
        <time>2021-03-18T08:23:07Z</time>
      </trkpt>
      <trkpt lat="46.50236" lon="0.55387">
        <ele>123.15302226879</ele>
        <time>2021-03-18T08:23:09Z</time>
      </trkpt>
      <trkpt lat="46.50234" lon="0.55386">
        <ele>122.97145119403</ele>
        <time>2021-03-18T08:23:11Z</time>
      </trkpt>
      <trkpt lat="46.50232" lon="0.55386">
        <ele>123.32637797948</ele>
        <time>2021-03-18T08:23:13Z</time>
      </trkpt>
      <trkpt lat="46.5023" lon="0.55385">
        <ele>123.30733593833</ele>
        <time>2021-03-18T08:23:15Z</time>
      </trkpt>
      <trkpt lat="46.50228" lon="0.55384">
        <ele>123.12023024075</ele>
        <time>2021-03-18T08:23:17Z</time>
      </trkpt>
      <trkpt lat="46.50226" lon="0.55383">
        <ele>123.84605102427</ele>
        <time>2021-03-18T08:23:19Z</time>
      </trkpt>
      <trkpt lat="46.50223" lon="0.55382">
        <ele>123.04906769469</ele>
        <time>2021-03-18T08:23:21Z</time>
      </trkpt>
      <trkpt lat="46.50221" lon="0.55381">
        <ele>123.77388675325</ele>
        <time>2021-03-18T08:23:23Z</time>
      </trkpt>
      <trkpt lat="46.50218" lon="0.5538">
        <ele>123.37677981146</ele>
        <time>2021-03-18T08:23:25Z</time>
      </trkpt>
      <trkpt lat="46.50215" lon="0.55379">
        <ele>123.35041967314</ele>
        <time>2021-03-18T08:23:27Z</time>
      </trkpt>
      <trkpt lat="46.50213" lon="0.55379">
        <ele>123.8093314413</ele>
        <time>2021-03-18T08:23:29Z</time>
      </trkpt>
      <trkpt lat="46.50211" lon="0.55378">
        <ele>123.45232238993</ele>
        <time>2021-03-18T08:23:31Z</time>
      </trkpt>
      <trkpt lat="46.50208" lon="0.55377">
        <ele>123.91927777138</ele>
        <time>2021-03-18T08:23:33Z</time>
      </trkpt>
      <trkpt lat="46.50205" lon="0.55376">
        <ele>124.25409659091</ele>
        <time>2021-03-18T08:23:35Z</time>
      </trkpt>
      <trkpt lat="46.50203" lon="0.55376">
        <ele>123.67493591737</ele>
        <time>2021-03-18T08:23:37Z</time>
      </trkpt>
      <trkpt lat="46.50201" lon="0.55375">
        <ele>123.89626227506</ele>
        <time>2021-03-18T08:23:39Z</time>
      </trkpt>
      <trkpt lat="46.50199" lon="0.55375">
        <ele>124.59258054476</ele>
        <time>2021-03-18T08:23:42Z</time>
      </trkpt>
      <trkpt lat="46.50196" lon="0.55374">
        <ele>124.03485461604</ele>
        <time>2021-03-18T08:23:44Z</time>
      </trkpt>
      <trkpt lat="46.50193" lon="0.55374">
        <ele>124.29582775291</ele>
        <time>2021-03-18T08:23:46Z</time>
      </trkpt>
      <trkpt lat="46.50191" lon="0.55373">
        <ele>124.4713181546</ele>
        <time>2021-03-18T08:23:49Z</time>
      </trkpt>
      <trkpt lat="46.50189" lon="0.55373">
        <ele>124.87753542606</ele>
        <time>2021-03-18T08:23:50Z</time>
      </trkpt>
      <trkpt lat="46.50187" lon="0.55373">
        <ele>124.9008341264</ele>
        <time>2021-03-18T08:23:52Z</time>
      </trkpt>
      <trkpt lat="46.50184" lon="0.55373">
        <ele>124.9435663186</ele>
        <time>2021-03-18T08:23:54Z</time>
      </trkpt>
      <trkpt lat="46.50183" lon="0.55373">
        <ele>124.1966796387</ele>
        <time>2021-03-18T08:23:56Z</time>
      </trkpt>
      <trkpt lat="46.5018" lon="0.55372">
        <ele>124.56543532759</ele>
        <time>2021-03-18T08:23:58Z</time>
      </trkpt>
      <trkpt lat="46.50178" lon="0.55371">
        <ele>124.57165666018</ele>
        <time>2021-03-18T08:23:59Z</time>
      </trkpt>
      <trkpt lat="46.50176" lon="0.55371">
        <ele>124.7764626909</ele>
        <time>2021-03-18T08:24:01Z</time>
      </trkpt>
      <trkpt lat="46.50172" lon="0.5537">
        <ele>124.39216421265</ele>
        <time>2021-03-18T08:24:03Z</time>
      </trkpt>
      <trkpt lat="46.5017" lon="0.5537">
        <ele>124.75499655586</ele>
        <time>2021-03-18T08:24:05Z</time>
      </trkpt>
      <trkpt lat="46.50167" lon="0.55369">
        <ele>124.8746378934</ele>
        <time>2021-03-18T08:24:07Z</time>
      </trkpt>
      <trkpt lat="46.50165" lon="0.55369">
        <ele>124.52616590727</ele>
        <time>2021-03-18T08:24:09Z</time>
      </trkpt>
      <trkpt lat="46.50163" lon="0.55369">
        <ele>124.67381760012</ele>
        <time>2021-03-18T08:24:11Z</time>
      </trkpt>
      <trkpt lat="46.5016" lon="0.55368">
        <ele>124.66730065923</ele>
        <time>2021-03-18T08:24:13Z</time>
      </trkpt>
      <trkpt lat="46.50157" lon="0.55367">
        <ele>124.64532825723</ele>
        <time>2021-03-18T08:24:15Z</time>
      </trkpt>
      <trkpt lat="46.50155" lon="0.55367">
        <ele>125.02513487358</ele>
        <time>2021-03-18T08:24:17Z</time>
      </trkpt>
      <trkpt lat="46.50152" lon="0.55366">
        <ele>125.01453282312</ele>
        <time>2021-03-18T08:24:20Z</time>
      </trkpt>
      <trkpt lat="46.5015" lon="0.55366">
        <ele>124.99636279047</ele>
        <time>2021-03-18T08:24:21Z</time>
      </trkpt>
      <trkpt lat="46.50147" lon="0.55365">
        <ele>125.31154697202</ele>
        <time>2021-03-18T08:24:23Z</time>
      </trkpt>
      <trkpt lat="46.50144" lon="0.55365">
        <ele>125.09647804499</ele>
        <time>2021-03-18T08:24:25Z</time>
      </trkpt>
      <trkpt lat="46.50141" lon="0.55364">
        <ele>125.16714971978</ele>
        <time>2021-03-18T08:24:27Z</time>
      </trkpt>
      <trkpt lat="46.50139" lon="0.55363">
        <ele>125.22681198735</ele>
        <time>2021-03-18T08:24:29Z</time>
      </trkpt>
      <trkpt lat="46.50136" lon="0.55363">
        <ele>125.55808618665</ele>
        <time>2021-03-18T08:24:31Z</time>
      </trkpt>
      <trkpt lat="46.50134" lon="0.55362">
        <ele>125.4170475509</ele>
        <time>2021-03-18T08:24:34Z</time>
      </trkpt>
      <trkpt lat="46.50132" lon="0.55363">
        <ele>125.60145104676</ele>
        <time>2021-03-18T08:24:35Z</time>
      </trkpt>
      <trkpt lat="46.50129" lon="0.55361">
        <ele>125.73078127112</ele>
        <time>2021-03-18T08:24:37Z</time>
      </trkpt>
      <trkpt lat="46.50127" lon="0.55361">
        <ele>125.61420565657</ele>
        <time>2021-03-18T08:24:39Z</time>
      </trkpt>
      <trkpt lat="46.50125" lon="0.5536">
        <ele>125.76610787585</ele>
        <time>2021-03-18T08:24:41Z</time>
      </trkpt>
      <trkpt lat="46.50123" lon="0.55359">
        <ele>125.59193942044</ele>
        <time>2021-03-18T08:24:43Z</time>
      </trkpt>
      <trkpt lat="46.5012" lon="0.55359">
        <ele>125.99199370667</ele>
        <time>2021-03-18T08:24:45Z</time>
      </trkpt>
      <trkpt lat="46.50117" lon="0.55359">
        <ele>125.94876520522</ele>
        <time>2021-03-18T08:24:47Z</time>
      </trkpt>
      <trkpt lat="46.50115" lon="0.55358">
        <ele>125.89411633741</ele>
        <time>2021-03-18T08:24:49Z</time>
      </trkpt>
      <trkpt lat="46.50113" lon="0.55357">
        <ele>126.36034268606</ele>
        <time>2021-03-18T08:24:51Z</time>
      </trkpt>
      <trkpt lat="46.5011" lon="0.55357">
        <ele>126.5321134245</ele>
        <time>2021-03-18T08:24:52Z</time>
      </trkpt>
      <trkpt lat="46.50106" lon="0.55356">
        <ele>126.5633529881</ele>
        <time>2021-03-18T08:24:54Z</time>
      </trkpt>
      <trkpt lat="46.50104" lon="0.55355">
        <ele>126.60721609928</ele>
        <time>2021-03-18T08:24:56Z</time>
      </trkpt>
      <trkpt lat="46.50101" lon="0.55354">
        <ele>126.55117649678</ele>
        <time>2021-03-18T08:24:58Z</time>
      </trkpt>
      <trkpt lat="46.50099" lon="0.55353">
        <ele>126.25587556325</ele>
        <time>2021-03-18T08:25:00Z</time>
      </trkpt>
      <trkpt lat="46.50096" lon="0.55352">
        <ele>126.62974449433</ele>
        <time>2021-03-18T08:25:02Z</time>
      </trkpt>
      <trkpt lat="46.50094" lon="0.5535">
        <ele>127.2609737888</ele>
        <time>2021-03-18T08:25:04Z</time>
      </trkpt>
      <trkpt lat="46.50091" lon="0.55349">
        <ele>126.49239129946</ele>
        <time>2021-03-18T08:25:06Z</time>
      </trkpt>
      <trkpt lat="46.50089" lon="0.55348">
        <ele>126.37713472731</ele>
        <time>2021-03-18T08:25:07Z</time>
      </trkpt>
      <trkpt lat="46.50087" lon="0.55347">
        <ele>127.63120426796</ele>
        <time>2021-03-18T08:25:09Z</time>
      </trkpt>
      <trkpt lat="46.50084" lon="0.55346">
        <ele>126.59294185694</ele>
        <time>2021-03-18T08:25:11Z</time>
      </trkpt>
      <trkpt lat="46.50082" lon="0.55345">
        <ele>126.46209068317</ele>
        <time>2021-03-18T08:25:13Z</time>
      </trkpt>
      <trkpt lat="46.5008" lon="0.55344">
        <ele>126.42949688807</ele>
        <time>2021-03-18T08:25:15Z</time>
      </trkpt>
      <trkpt lat="46.50078" lon="0.55343">
        <ele>126.53447402641</ele>
        <time>2021-03-18T08:25:17Z</time>
      </trkpt>
      <trkpt lat="46.50075" lon="0.55341">
        <ele>126.55958653614</ele>
        <time>2021-03-18T08:25:19Z</time>
      </trkpt>
      <trkpt lat="46.50073" lon="0.5534">
        <ele>126.75441037491</ele>
        <time>2021-03-18T08:25:21Z</time>
      </trkpt>
      <trkpt lat="46.50071" lon="0.55339">
        <ele>126.43771177158</ele>
        <time>2021-03-18T08:25:23Z</time>
      </trkpt>
      <trkpt lat="46.50069" lon="0.55337">
        <ele>126.68496585079</ele>
        <time>2021-03-18T08:25:25Z</time>
      </trkpt>
      <trkpt lat="46.50067" lon="0.55335">
        <ele>126.55667775124</ele>
        <time>2021-03-18T08:25:27Z</time>
      </trkpt>
      <trkpt lat="46.50065" lon="0.55333">
        <ele>126.80244215298</ele>
        <time>2021-03-18T08:25:29Z</time>
      </trkpt>
      <trkpt lat="46.50062" lon="0.55331">
        <ele>126.75022934377</ele>
        <time>2021-03-18T08:25:31Z</time>
      </trkpt>
      <trkpt lat="46.5006" lon="0.5533">
        <ele>126.63200700004</ele>
        <time>2021-03-18T08:25:33Z</time>
      </trkpt>
      <trkpt lat="46.50058" lon="0.55327">
        <ele>125.81912237592</ele>
        <time>2021-03-18T08:25:35Z</time>
      </trkpt>
      <trkpt lat="46.50055" lon="0.55325">
        <ele>126.4850278059</ele>
        <time>2021-03-18T08:25:37Z</time>
      </trkpt>
      <trkpt lat="46.50052" lon="0.55323">
        <ele>126.61786586326</ele>
        <time>2021-03-18T08:25:40Z</time>
      </trkpt>
      <trkpt lat="46.5005" lon="0.5532">
        <ele>126.48092917539</ele>
        <time>2021-03-18T08:25:42Z</time>
      </trkpt>
      <trkpt lat="46.50048" lon="0.55319">
        <ele>126.30532400031</ele>
        <time>2021-03-18T08:25:44Z</time>
      </trkpt>
      <trkpt lat="46.50046" lon="0.55316">
        <ele>126.14026557654</ele>
        <time>2021-03-18T08:25:46Z</time>
      </trkpt>
      <trkpt lat="46.50043" lon="0.55313">
        <ele>126.73864208162</ele>
        <time>2021-03-18T08:25:48Z</time>
      </trkpt>
      <trkpt lat="46.50041" lon="0.5531">
        <ele>126.61246479675</ele>
        <time>2021-03-18T08:25:50Z</time>
      </trkpt>
      <trkpt lat="46.50039" lon="0.55308">
        <ele>126.95478458051</ele>
        <time>2021-03-18T08:25:52Z</time>
      </trkpt>
      <trkpt lat="46.50037" lon="0.55306">
        <ele>126.87454117741</ele>
        <time>2021-03-18T08:25:54Z</time>
      </trkpt>
      <trkpt lat="46.50035" lon="0.55303">
        <ele>126.86447977927</ele>
        <time>2021-03-18T08:25:55Z</time>
      </trkpt>
      <trkpt lat="46.50033" lon="0.553">
        <ele>125.99252025131</ele>
        <time>2021-03-18T08:25:58Z</time>
      </trkpt>
      <trkpt lat="46.5003" lon="0.55298">
        <ele>126.66096351203</ele>
        <time>2021-03-18T08:26:00Z</time>
      </trkpt>
      <trkpt lat="46.50028" lon="0.55296">
        <ele>126.91724571772</ele>
        <time>2021-03-18T08:26:02Z</time>
      </trkpt>
      <trkpt lat="46.50026" lon="0.55293">
        <ele>126.33943683095</ele>
        <time>2021-03-18T08:26:04Z</time>
      </trkpt>
      <trkpt lat="46.50024" lon="0.55291">
        <ele>126.12092135381</ele>
        <time>2021-03-18T08:26:06Z</time>
      </trkpt>
      <trkpt lat="46.50021" lon="0.55289">
        <ele>126.20320114307</ele>
        <time>2021-03-18T08:26:08Z</time>
      </trkpt>
      <trkpt lat="46.50019" lon="0.55287">
        <ele>126.17901493236</ele>
        <time>2021-03-18T08:26:10Z</time>
      </trkpt>
      <trkpt lat="46.50018" lon="0.55284">
        <ele>125.8620637944</ele>
        <time>2021-03-18T08:26:12Z</time>
      </trkpt>
      <trkpt lat="46.50015" lon="0.55281">
        <ele>125.80171860661</ele>
        <time>2021-03-18T08:26:14Z</time>
      </trkpt>
      <trkpt lat="46.50013" lon="0.55279">
        <ele>125.92856752221</ele>
        <time>2021-03-18T08:26:16Z</time>
      </trkpt>
      <trkpt lat="46.50011" lon="0.55276">
        <ele>126.00338575989</ele>
        <time>2021-03-18T08:26:18Z</time>
      </trkpt>
      <trkpt lat="46.50009" lon="0.55274">
        <ele>125.9171498362</ele>
        <time>2021-03-18T08:26:20Z</time>
      </trkpt>
      <trkpt lat="46.50007" lon="0.55272">
        <ele>126.63784100767</ele>
        <time>2021-03-18T08:26:22Z</time>
      </trkpt>
      <trkpt lat="46.50005" lon="0.55271">
        <ele>126.5759579679</ele>
        <time>2021-03-18T08:26:24Z</time>
      </trkpt>
      <trkpt lat="46.50002" lon="0.55269">
        <ele>126.14221239928</ele>
        <time>2021-03-18T08:26:26Z</time>
      </trkpt>
      <trkpt lat="46.5" lon="0.55267">
        <ele>126.13500431925</ele>
        <time>2021-03-18T08:26:29Z</time>
      </trkpt>
      <trkpt lat="46.49997" lon="0.55264">
        <ele>125.89662653115</ele>
        <time>2021-03-18T08:26:31Z</time>
      </trkpt>
      <trkpt lat="46.49995" lon="0.55262">
        <ele>126.03393245768</ele>
        <time>2021-03-18T08:26:33Z</time>
      </trkpt>
      <trkpt lat="46.49993" lon="0.55259">
        <ele>125.9851501286</ele>
        <time>2021-03-18T08:26:35Z</time>
      </trkpt>
      <trkpt lat="46.49992" lon="0.55257">
        <ele>126.19073407911</ele>
        <time>2021-03-18T08:26:37Z</time>
      </trkpt>
      <trkpt lat="46.49989" lon="0.55254">
        <ele>125.81654238049</ele>
        <time>2021-03-18T08:26:39Z</time>
      </trkpt>
      <trkpt lat="46.49987" lon="0.55252">
        <ele>125.71889530588</ele>
        <time>2021-03-18T08:26:41Z</time>
      </trkpt>
      <trkpt lat="46.49985" lon="0.5525">
        <ele>125.4260387402</ele>
        <time>2021-03-18T08:26:43Z</time>
      </trkpt>
      <trkpt lat="46.49982" lon="0.55248">
        <ele>125.85358952545</ele>
        <time>2021-03-18T08:26:45Z</time>
      </trkpt>
      <trkpt lat="46.4998" lon="0.55245">
        <ele>125.81220033858</ele>
        <time>2021-03-18T08:26:47Z</time>
      </trkpt>
      <trkpt lat="46.49978" lon="0.55243">
        <ele>125.57712523732</ele>
        <time>2021-03-18T08:26:49Z</time>
      </trkpt>
      <trkpt lat="46.49976" lon="0.55241">
        <ele>125.47035306972</ele>
        <time>2021-03-18T08:26:51Z</time>
      </trkpt>
      <trkpt lat="46.49974" lon="0.55239">
        <ele>125.75376937725</ele>
        <time>2021-03-18T08:26:53Z</time>
      </trkpt>
      <trkpt lat="46.49971" lon="0.55236">
        <ele>125.39379809331</ele>
        <time>2021-03-18T08:26:55Z</time>
      </trkpt>
      <trkpt lat="46.49969" lon="0.55234">
        <ele>125.77543444093</ele>
        <time>2021-03-18T08:26:57Z</time>
      </trkpt>
      <trkpt lat="46.49967" lon="0.55232">
        <ele>125.62837836705</ele>
        <time>2021-03-18T08:26:59Z</time>
      </trkpt>
      <trkpt lat="46.49965" lon="0.55229">
        <ele>125.7959527988</ele>
        <time>2021-03-18T08:27:01Z</time>
      </trkpt>
      <trkpt lat="46.49962" lon="0.55227">
        <ele>125.79622773267</ele>
        <time>2021-03-18T08:27:03Z</time>
      </trkpt>
      <trkpt lat="46.4996" lon="0.55224">
        <ele>125.91403168812</ele>
        <time>2021-03-18T08:27:05Z</time>
      </trkpt>
      <trkpt lat="46.49959" lon="0.55222">
        <ele>125.43510966469</ele>
        <time>2021-03-18T08:27:07Z</time>
      </trkpt>
      <trkpt lat="46.49957" lon="0.55221">
        <ele>125.4559312379</ele>
        <time>2021-03-18T08:27:08Z</time>
      </trkpt>
      <trkpt lat="46.49955" lon="0.55219">
        <ele>125.48678023182</ele>
        <time>2021-03-18T08:27:10Z</time>
      </trkpt>
      <trkpt lat="46.49953" lon="0.55216">
        <ele>125.84966062102</ele>
        <time>2021-03-18T08:27:12Z</time>
      </trkpt>
      <trkpt lat="46.4995" lon="0.55214">
        <ele>124.89382396173</ele>
        <time>2021-03-18T08:27:14Z</time>
      </trkpt>
      <trkpt lat="46.49948" lon="0.55212">
        <ele>125.5830366537</ele>
        <time>2021-03-18T08:27:16Z</time>
      </trkpt>
      <trkpt lat="46.49946" lon="0.5521">
        <ele>125.68701213505</ele>
        <time>2021-03-18T08:27:18Z</time>
      </trkpt>
      <trkpt lat="46.49944" lon="0.55208">
        <ele>125.7250207644</ele>
        <time>2021-03-18T08:27:20Z</time>
      </trkpt>
      <trkpt lat="46.49942" lon="0.55205">
        <ele>125.69391181506</ele>
        <time>2021-03-18T08:27:22Z</time>
      </trkpt>
      <trkpt lat="46.49939" lon="0.55202">
        <ele>125.76937995013</ele>
        <time>2021-03-18T08:27:25Z</time>
      </trkpt>
      <trkpt lat="46.49937" lon="0.552">
        <ele>125.70060835406</ele>
        <time>2021-03-18T08:27:27Z</time>
      </trkpt>
      <trkpt lat="46.49935" lon="0.55198">
        <ele>125.36429644469</ele>
        <time>2021-03-18T08:27:29Z</time>
      </trkpt>
      <trkpt lat="46.49933" lon="0.55196">
        <ele>125.09142523631</ele>
        <time>2021-03-18T08:27:31Z</time>
      </trkpt>
      <trkpt lat="46.4993" lon="0.55193">
        <ele>125.02448178641</ele>
        <time>2021-03-18T08:27:33Z</time>
      </trkpt>
      <trkpt lat="46.49928" lon="0.55191">
        <ele>125.23728145845</ele>
        <time>2021-03-18T08:27:35Z</time>
      </trkpt>
      <trkpt lat="46.49926" lon="0.55188">
        <ele>125.99796779919</ele>
        <time>2021-03-18T08:27:37Z</time>
      </trkpt>
      <trkpt lat="46.49924" lon="0.55186">
        <ele>125.5411133673</ele>
        <time>2021-03-18T08:27:39Z</time>
      </trkpt>
      <trkpt lat="46.49921" lon="0.55184">
        <ele>125.80166717246</ele>
        <time>2021-03-18T08:27:41Z</time>
      </trkpt>
      <trkpt lat="46.49919" lon="0.55183">
        <ele>125.84771045204</ele>
        <time>2021-03-18T08:27:43Z</time>
      </trkpt>
      <trkpt lat="46.49916" lon="0.55184">
        <ele>125.88654849399</ele>
        <time>2021-03-18T08:27:45Z</time>
      </trkpt>
      <trkpt lat="46.49914" lon="0.55186">
        <ele>125.19035360869</ele>
        <time>2021-03-18T08:27:47Z</time>
      </trkpt>
      <trkpt lat="46.49911" lon="0.55187">
        <ele>125.43804045022</ele>
        <time>2021-03-18T08:27:49Z</time>
      </trkpt>
      <trkpt lat="46.4991" lon="0.5519">
        <ele>125.41037307028</ele>
        <time>2021-03-18T08:27:51Z</time>
      </trkpt>
      <trkpt lat="46.49907" lon="0.55193">
        <ele>125.41752923094</ele>
        <time>2021-03-18T08:27:53Z</time>
      </trkpt>
      <trkpt lat="46.49906" lon="0.55196">
        <ele>125.64425806049</ele>
        <time>2021-03-18T08:27:55Z</time>
      </trkpt>
      <trkpt lat="46.49905" lon="0.55198">
        <ele>125.49821578246</ele>
        <time>2021-03-18T08:27:56Z</time>
      </trkpt>
      <trkpt lat="46.49903" lon="0.552">
        <ele>125.55336005986</ele>
        <time>2021-03-18T08:27:58Z</time>
      </trkpt>
      <trkpt lat="46.49901" lon="0.55204">
        <ele>125.87693370692</ele>
        <time>2021-03-18T08:28:00Z</time>
      </trkpt>
      <trkpt lat="46.49898" lon="0.55208">
        <ele>125.58433265425</ele>
        <time>2021-03-18T08:28:03Z</time>
      </trkpt>
      <trkpt lat="46.49897" lon="0.5521">
        <ele>125.70940268971</ele>
        <time>2021-03-18T08:28:05Z</time>
      </trkpt>
      <trkpt lat="46.49895" lon="0.55214">
        <ele>125.57369594742</ele>
        <time>2021-03-18T08:28:07Z</time>
      </trkpt>
      <trkpt lat="46.49893" lon="0.55217">
        <ele>125.63311780337</ele>
        <time>2021-03-18T08:28:09Z</time>
      </trkpt>
      <trkpt lat="46.49891" lon="0.5522">
        <ele>125.65713752061</ele>
        <time>2021-03-18T08:28:11Z</time>
      </trkpt>
      <trkpt lat="46.4989" lon="0.55223">
        <ele>125.64409091324</ele>
        <time>2021-03-18T08:28:13Z</time>
      </trkpt>
      <trkpt lat="46.49888" lon="0.55225">
        <ele>125.78457586654</ele>
        <time>2021-03-18T08:28:15Z</time>
      </trkpt>
      <trkpt lat="46.49887" lon="0.55228">
        <ele>125.7816975629</ele>
        <time>2021-03-18T08:28:17Z</time>
      </trkpt>
      <trkpt lat="46.49885" lon="0.55231">
        <ele>125.83030077815</ele>
        <time>2021-03-18T08:28:19Z</time>
      </trkpt>
      <trkpt lat="46.49883" lon="0.55235">
        <ele>126.06852333061</ele>
        <time>2021-03-18T08:28:21Z</time>
      </trkpt>
      <trkpt lat="46.49881" lon="0.55237">
        <ele>126.14752180595</ele>
        <time>2021-03-18T08:28:23Z</time>
      </trkpt>
      <trkpt lat="46.4988" lon="0.55239">
        <ele>126.02819113806</ele>
        <time>2021-03-18T08:28:24Z</time>
      </trkpt>
      <trkpt lat="46.49879" lon="0.55242">
        <ele>126.55620756652</ele>
        <time>2021-03-18T08:28:26Z</time>
      </trkpt>
      <trkpt lat="46.49877" lon="0.55244">
        <ele>126.54351720214</ele>
        <time>2021-03-18T08:28:28Z</time>
      </trkpt>
      <trkpt lat="46.49875" lon="0.55247">
        <ele>126.3923343122</ele>
        <time>2021-03-18T08:28:30Z</time>
      </trkpt>
      <trkpt lat="46.49873" lon="0.5525">
        <ele>126.69252824411</ele>
        <time>2021-03-18T08:28:32Z</time>
      </trkpt>
      <trkpt lat="46.49871" lon="0.55253">
        <ele>126.94981358852</ele>
        <time>2021-03-18T08:28:34Z</time>
      </trkpt>
      <trkpt lat="46.4987" lon="0.55255">
        <ele>126.58834191691</ele>
        <time>2021-03-18T08:28:36Z</time>
      </trkpt>
      <trkpt lat="46.49868" lon="0.55258">
        <ele>126.81681687664</ele>
        <time>2021-03-18T08:28:38Z</time>
      </trkpt>
      <trkpt lat="46.49866" lon="0.55262">
        <ele>126.87987467926</ele>
        <time>2021-03-18T08:28:40Z</time>
      </trkpt>
      <trkpt lat="46.49864" lon="0.55264">
        <ele>126.7244217312</ele>
        <time>2021-03-18T08:28:42Z</time>
      </trkpt>
      <trkpt lat="46.49862" lon="0.55268">
        <ele>126.45693481714</ele>
        <time>2021-03-18T08:28:44Z</time>
      </trkpt>
      <trkpt lat="46.49861" lon="0.55271">
        <ele>126.8894850621</ele>
        <time>2021-03-18T08:28:46Z</time>
      </trkpt>
      <trkpt lat="46.49859" lon="0.55273">
        <ele>126.84116612561</ele>
        <time>2021-03-18T08:28:47Z</time>
      </trkpt>
      <trkpt lat="46.49858" lon="0.55275">
        <ele>126.65328208264</ele>
        <time>2021-03-18T08:28:49Z</time>
      </trkpt>
      <trkpt lat="46.49857" lon="0.55279">
        <ele>126.49168439116</ele>
        <time>2021-03-18T08:28:51Z</time>
      </trkpt>
      <trkpt lat="46.49856" lon="0.55281">
        <ele>126.6349802576</ele>
        <time>2021-03-18T08:28:52Z</time>
      </trkpt>
      <trkpt lat="46.49854" lon="0.55285">
        <ele>126.95900539402</ele>
        <time>2021-03-18T08:28:54Z</time>
      </trkpt>
      <trkpt lat="46.49853" lon="0.55288">
        <ele>126.55317698885</ele>
        <time>2021-03-18T08:28:56Z</time>
      </trkpt>
      <trkpt lat="46.49852" lon="0.55293">
        <ele>126.86544986442</ele>
        <time>2021-03-18T08:28:58Z</time>
      </trkpt>
      <trkpt lat="46.49851" lon="0.55296">
        <ele>126.86611250509</ele>
        <time>2021-03-18T08:29:00Z</time>
      </trkpt>
      <trkpt lat="46.4985" lon="0.55299">
        <ele>126.79005663097</ele>
        <time>2021-03-18T08:29:02Z</time>
      </trkpt>
      <trkpt lat="46.49849" lon="0.55304">
        <ele>126.78386227321</ele>
        <time>2021-03-18T08:29:04Z</time>
      </trkpt>
      <trkpt lat="46.49849" lon="0.55308">
        <ele>126.94767703954</ele>
        <time>2021-03-18T08:29:06Z</time>
      </trkpt>
      <trkpt lat="46.49848" lon="0.55313">
        <ele>127.20672662836</ele>
        <time>2021-03-18T08:29:08Z</time>
      </trkpt>
      <trkpt lat="46.49848" lon="0.55316">
        <ele>127.23163692281</ele>
        <time>2021-03-18T08:29:10Z</time>
      </trkpt>
      <trkpt lat="46.49847" lon="0.5532">
        <ele>127.29549021181</ele>
        <time>2021-03-18T08:29:12Z</time>
      </trkpt>
      <trkpt lat="46.49846" lon="0.55324">
        <ele>127.41514234897</ele>
        <time>2021-03-18T08:29:14Z</time>
      </trkpt>
      <trkpt lat="46.49846" lon="0.55328">
        <ele>127.42278224695</ele>
        <time>2021-03-18T08:29:16Z</time>
      </trkpt>
      <trkpt lat="46.49846" lon="0.55332">
        <ele>127.58239465114</ele>
        <time>2021-03-18T08:29:18Z</time>
      </trkpt>
      <trkpt lat="46.49845" lon="0.55337">
        <ele>127.21571358293</ele>
        <time>2021-03-18T08:29:20Z</time>
      </trkpt>
      <trkpt lat="46.49844" lon="0.5534">
        <ele>127.20327299554</ele>
        <time>2021-03-18T08:29:22Z</time>
      </trkpt>
      <trkpt lat="46.49844" lon="0.55343">
        <ele>127.61103696842</ele>
        <time>2021-03-18T08:29:24Z</time>
      </trkpt>
      <trkpt lat="46.49844" lon="0.55347">
        <ele>127.45488807466</ele>
        <time>2021-03-18T08:29:26Z</time>
      </trkpt>
      <trkpt lat="46.49843" lon="0.55353">
        <ele>127.60541199148</ele>
        <time>2021-03-18T08:29:28Z</time>
      </trkpt>
      <trkpt lat="46.49842" lon="0.55356">
        <ele>127.91019416135</ele>
        <time>2021-03-18T08:29:30Z</time>
      </trkpt>
      <trkpt lat="46.49842" lon="0.5536">
        <ele>127.65675145015</ele>
        <time>2021-03-18T08:29:32Z</time>
      </trkpt>
      <trkpt lat="46.49842" lon="0.55363">
        <ele>127.60639995709</ele>
        <time>2021-03-18T08:29:34Z</time>
      </trkpt>
      <trkpt lat="46.49841" lon="0.55367">
        <ele>127.25349855702</ele>
        <time>2021-03-18T08:29:36Z</time>
      </trkpt>
      <trkpt lat="46.49841" lon="0.55371">
        <ele>127.62002031878</ele>
        <time>2021-03-18T08:29:38Z</time>
      </trkpt>
      <trkpt lat="46.49841" lon="0.55375">
        <ele>127.75764191709</ele>
        <time>2021-03-18T08:29:40Z</time>
      </trkpt>
      <trkpt lat="46.49841" lon="0.55379">
        <ele>127.46919871494</ele>
        <time>2021-03-18T08:29:42Z</time>
      </trkpt>
      <trkpt lat="46.4984" lon="0.55383">
        <ele>127.90735426359</ele>
        <time>2021-03-18T08:29:44Z</time>
      </trkpt>
      <trkpt lat="46.4984" lon="0.55387">
        <ele>127.72000861075</ele>
        <time>2021-03-18T08:29:46Z</time>
      </trkpt>
      <trkpt lat="46.4984" lon="0.5539">
        <ele>127.86181663722</ele>
        <time>2021-03-18T08:29:47Z</time>
      </trkpt>
      <trkpt lat="46.49839" lon="0.55393">
        <ele>127.60565877799</ele>
        <time>2021-03-18T08:29:49Z</time>
      </trkpt>
      <trkpt lat="46.49839" lon="0.55397">
        <ele>127.51861620974</ele>
        <time>2021-03-18T08:29:51Z</time>
      </trkpt>
      <trkpt lat="46.49838" lon="0.55399">
        <ele>127.71288213041</ele>
        <time>2021-03-18T08:29:52Z</time>
      </trkpt>
      <trkpt lat="46.49838" lon="0.55403">
        <ele>127.97085153963</ele>
        <time>2021-03-18T08:29:54Z</time>
      </trkpt>
      <trkpt lat="46.49838" lon="0.55407">
        <ele>127.51140912436</ele>
        <time>2021-03-18T08:29:56Z</time>
      </trkpt>
      <trkpt lat="46.49838" lon="0.55412">
        <ele>127.71088792011</ele>
        <time>2021-03-18T08:29:58Z</time>
      </trkpt>
      <trkpt lat="46.49837" lon="0.55415">
        <ele>127.2492189426</ele>
        <time>2021-03-18T08:30:00Z</time>
      </trkpt>
      <trkpt lat="46.49837" lon="0.55419">
        <ele>127.13882671483</ele>
        <time>2021-03-18T08:30:02Z</time>
      </trkpt>
      <trkpt lat="46.49836" lon="0.55424">
        <ele>127.4038770562</ele>
        <time>2021-03-18T08:30:04Z</time>
      </trkpt>
      <trkpt lat="46.49836" lon="0.55427">
        <ele>127.32478951104</ele>
        <time>2021-03-18T08:30:06Z</time>
      </trkpt>
      <trkpt lat="46.49836" lon="0.55431">
        <ele>127.50345855113</ele>
        <time>2021-03-18T08:30:08Z</time>
      </trkpt>
      <trkpt lat="46.49835" lon="0.55435">
        <ele>127.31562260073</ele>
        <time>2021-03-18T08:30:10Z</time>
      </trkpt>
      <trkpt lat="46.49835" lon="0.55438">
        <ele>127.41142170597</ele>
        <time>2021-03-18T08:30:12Z</time>
      </trkpt>
      <trkpt lat="46.49834" lon="0.55443">
        <ele>127.3436106462</ele>
        <time>2021-03-18T08:30:14Z</time>
      </trkpt>
      <trkpt lat="46.49834" lon="0.55447">
        <ele>127.72329489887</ele>
        <time>2021-03-18T08:30:16Z</time>
      </trkpt>
      <trkpt lat="46.49834" lon="0.5545">
        <ele>127.37712683063</ele>
        <time>2021-03-18T08:30:18Z</time>
      </trkpt>
      <trkpt lat="46.49833" lon="0.55454">
        <ele>127.44446482975</ele>
        <time>2021-03-18T08:30:20Z</time>
      </trkpt>
      <trkpt lat="46.49833" lon="0.55458">
        <ele>127.34107902553</ele>
        <time>2021-03-18T08:30:22Z</time>
      </trkpt>
      <trkpt lat="46.49832" lon="0.55462">
        <ele>127.41036862973</ele>
        <time>2021-03-18T08:30:24Z</time>
      </trkpt>
      <trkpt lat="46.49832" lon="0.55466">
        <ele>127.46654590406</ele>
        <time>2021-03-18T08:30:26Z</time>
      </trkpt>
      <trkpt lat="46.49831" lon="0.5547">
        <ele>127.7602948593</ele>
        <time>2021-03-18T08:30:28Z</time>
      </trkpt>
      <trkpt lat="46.4983" lon="0.55473">
        <ele>127.60946975742</ele>
        <time>2021-03-18T08:30:30Z</time>
      </trkpt>
      <trkpt lat="46.4983" lon="0.55477">
        <ele>127.54290034249</ele>
        <time>2021-03-18T08:30:32Z</time>
      </trkpt>
      <trkpt lat="46.4983" lon="0.55481">
        <ele>127.36170112155</ele>
        <time>2021-03-18T08:30:34Z</time>
      </trkpt>
      <trkpt lat="46.4983" lon="0.55484">
        <ele>127.66911156476</ele>
        <time>2021-03-18T08:30:36Z</time>
      </trkpt>
      <trkpt lat="46.49829" lon="0.55488">
        <ele>127.38969566766</ele>
        <time>2021-03-18T08:30:38Z</time>
      </trkpt>
      <trkpt lat="46.49829" lon="0.5549">
        <ele>127.37855423149</ele>
        <time>2021-03-18T08:30:39Z</time>
      </trkpt>
      <trkpt lat="46.49828" lon="0.55494">
        <ele>127.50814268924</ele>
        <time>2021-03-18T08:30:41Z</time>
      </trkpt>
      <trkpt lat="46.49828" lon="0.55497">
        <ele>127.4330160683</ele>
        <time>2021-03-18T08:30:43Z</time>
      </trkpt>
      <trkpt lat="46.49827" lon="0.55501">
        <ele>127.60940709524</ele>
        <time>2021-03-18T08:30:45Z</time>
      </trkpt>
      <trkpt lat="46.49826" lon="0.55505">
        <ele>127.18530021235</ele>
        <time>2021-03-18T08:30:47Z</time>
      </trkpt>
      <trkpt lat="46.49826" lon="0.55509">
        <ele>127.25109980814</ele>
        <time>2021-03-18T08:30:49Z</time>
      </trkpt>
      <trkpt lat="46.49825" lon="0.55514">
        <ele>127.26509649586</ele>
        <time>2021-03-18T08:30:51Z</time>
      </trkpt>
      <trkpt lat="46.49825" lon="0.55517">
        <ele>127.18064278644</ele>
        <time>2021-03-18T08:30:53Z</time>
      </trkpt>
      <trkpt lat="46.49825" lon="0.55521">
        <ele>126.89561612625</ele>
        <time>2021-03-18T08:30:55Z</time>
      </trkpt>
      <trkpt lat="46.49825" lon="0.55524">
        <ele>126.99670776166</ele>
        <time>2021-03-18T08:30:57Z</time>
      </trkpt>
      <trkpt lat="46.49824" lon="0.55527">
        <ele>127.08162473142</ele>
        <time>2021-03-18T08:30:59Z</time>
      </trkpt>
      <trkpt lat="46.49824" lon="0.55531">
        <ele>126.82944790646</ele>
        <time>2021-03-18T08:31:01Z</time>
      </trkpt>
      <trkpt lat="46.49823" lon="0.55535">
        <ele>127.36231980659</ele>
        <time>2021-03-18T08:31:03Z</time>
      </trkpt>
      <trkpt lat="46.49822" lon="0.55538">
        <ele>126.85195530485</ele>
        <time>2021-03-18T08:31:05Z</time>
      </trkpt>
      <trkpt lat="46.49822" lon="0.55542">
        <ele>126.65076928679</ele>
        <time>2021-03-18T08:31:07Z</time>
      </trkpt>
      <trkpt lat="46.49821" lon="0.55546">
        <ele>126.72106391471</ele>
        <time>2021-03-18T08:31:09Z</time>
      </trkpt>
      <trkpt lat="46.49821" lon="0.5555">
        <ele>126.5103506567</ele>
        <time>2021-03-18T08:31:11Z</time>
      </trkpt>
      <trkpt lat="46.4982" lon="0.55554">
        <ele>126.7485609157</ele>
        <time>2021-03-18T08:31:13Z</time>
      </trkpt>
      <trkpt lat="46.49819" lon="0.55558">
        <ele>126.82392789796</ele>
        <time>2021-03-18T08:31:15Z</time>
      </trkpt>
      <trkpt lat="46.49819" lon="0.55561">
        <ele>126.71914831456</ele>
        <time>2021-03-18T08:31:17Z</time>
      </trkpt>
      <trkpt lat="46.49818" lon="0.55566">
        <ele>126.78917214461</ele>
        <time>2021-03-18T08:31:19Z</time>
      </trkpt>
      <trkpt lat="46.49818" lon="0.55569">
        <ele>126.67970788293</ele>
        <time>2021-03-18T08:31:21Z</time>
      </trkpt>
      <trkpt lat="46.49817" lon="0.55573">
        <ele>126.14044288918</ele>
        <time>2021-03-18T08:31:23Z</time>
      </trkpt>
      <trkpt lat="46.49816" lon="0.55577">
        <ele>126.376477479</ele>
        <time>2021-03-18T08:31:25Z</time>
      </trkpt>
      <trkpt lat="46.49816" lon="0.55581">
        <ele>126.38183394726</ele>
        <time>2021-03-18T08:31:27Z</time>
      </trkpt>
      <trkpt lat="46.49816" lon="0.55584">
        <ele>126.04168535676</ele>
        <time>2021-03-18T08:31:29Z</time>
      </trkpt>
      <trkpt lat="46.49815" lon="0.55588">
        <ele>126.21144689806</ele>
        <time>2021-03-18T08:31:31Z</time>
      </trkpt>
      <trkpt lat="46.49814" lon="0.55592">
        <ele>126.75308542047</ele>
        <time>2021-03-18T08:31:33Z</time>
      </trkpt>
      <trkpt lat="46.49813" lon="0.55596">
        <ele>126.18248699792</ele>
        <time>2021-03-18T08:31:36Z</time>
      </trkpt>
      <trkpt lat="46.49813" lon="0.55601">
        <ele>126.24924700893</ele>
        <time>2021-03-18T08:31:38Z</time>
      </trkpt>
      <trkpt lat="46.49812" lon="0.55604">
        <ele>126.13115440961</ele>
        <time>2021-03-18T08:31:40Z</time>
      </trkpt>
      <trkpt lat="46.49812" lon="0.55608">
        <ele>126.14347074833</ele>
        <time>2021-03-18T08:31:42Z</time>
      </trkpt>
      <trkpt lat="46.49812" lon="0.55612">
        <ele>125.84784457274</ele>
        <time>2021-03-18T08:31:44Z</time>
      </trkpt>
      <trkpt lat="46.49811" lon="0.55616">
        <ele>125.65725298692</ele>
        <time>2021-03-18T08:31:46Z</time>
      </trkpt>
      <trkpt lat="46.4981" lon="0.5562">
        <ele>125.6757166516</ele>
        <time>2021-03-18T08:31:48Z</time>
      </trkpt>
      <trkpt lat="46.4981" lon="0.55624">
        <ele>125.29234858602</ele>
        <time>2021-03-18T08:31:50Z</time>
      </trkpt>
      <trkpt lat="46.49809" lon="0.55626">
        <ele>125.60783213004</ele>
        <time>2021-03-18T08:31:52Z</time>
      </trkpt>
      <trkpt lat="46.49809" lon="0.5563">
        <ele>125.56898472644</ele>
        <time>2021-03-18T08:31:54Z</time>
      </trkpt>
      <trkpt lat="46.49808" lon="0.55635">
        <ele>125.53180625476</ele>
        <time>2021-03-18T08:31:56Z</time>
      </trkpt>
      <trkpt lat="46.49808" lon="0.55637">
        <ele>125.25736830197</ele>
        <time>2021-03-18T08:31:58Z</time>
      </trkpt>
      <trkpt lat="46.49807" lon="0.55641">
        <ele>125.84625618812</ele>
        <time>2021-03-18T08:32:00Z</time>
      </trkpt>
      <trkpt lat="46.49806" lon="0.55645">
        <ele>125.220836767</ele>
        <time>2021-03-18T08:32:02Z</time>
      </trkpt>
      <trkpt lat="46.49806" lon="0.55649">
        <ele>125.27849970199</ele>
        <time>2021-03-18T08:32:04Z</time>
      </trkpt>
      <trkpt lat="46.49805" lon="0.55652">
        <ele>125.77523430809</ele>
        <time>2021-03-18T08:32:06Z</time>
      </trkpt>
      <trkpt lat="46.49805" lon="0.55655">
        <ele>125.13712754101</ele>
        <time>2021-03-18T08:32:07Z</time>
      </trkpt>
      <trkpt lat="46.49804" lon="0.55658">
        <ele>124.52008068189</ele>
        <time>2021-03-18T08:32:10Z</time>
      </trkpt>
      <trkpt lat="46.49803" lon="0.55661">
        <ele>124.44987412915</ele>
        <time>2021-03-18T08:32:11Z</time>
      </trkpt>
      <trkpt lat="46.49803" lon="0.55664">
        <ele>124.3250231687</ele>
        <time>2021-03-18T08:32:13Z</time>
      </trkpt>
      <trkpt lat="46.49802" lon="0.55668">
        <ele>124.45244626701</ele>
        <time>2021-03-18T08:32:15Z</time>
      </trkpt>
      <trkpt lat="46.49801" lon="0.55672">
        <ele>124.50774991233</ele>
        <time>2021-03-18T08:32:17Z</time>
      </trkpt>
      <trkpt lat="46.498" lon="0.55676">
        <ele>124.38766392041</ele>
        <time>2021-03-18T08:32:19Z</time>
      </trkpt>
      <trkpt lat="46.49799" lon="0.55679">
        <ele>124.25904770475</ele>
        <time>2021-03-18T08:32:21Z</time>
      </trkpt>
      <trkpt lat="46.49798" lon="0.55682">
        <ele>123.88358596526</ele>
        <time>2021-03-18T08:32:23Z</time>
      </trkpt>
      <trkpt lat="46.49797" lon="0.55686">
        <ele>124.30054262374</ele>
        <time>2021-03-18T08:32:25Z</time>
      </trkpt>
      <trkpt lat="46.49796" lon="0.5569">
        <ele>123.86511034332</ele>
        <time>2021-03-18T08:32:28Z</time>
      </trkpt>
      <trkpt lat="46.49794" lon="0.55694">
        <ele>123.7041962212</ele>
        <time>2021-03-18T08:32:30Z</time>
      </trkpt>
      <trkpt lat="46.49792" lon="0.55698">
        <ele>123.83889944386</ele>
        <time>2021-03-18T08:32:33Z</time>
      </trkpt>
      <trkpt lat="46.49791" lon="0.55702">
        <ele>123.85380393732</ele>
        <time>2021-03-18T08:32:35Z</time>
      </trkpt>
      <trkpt lat="46.4979" lon="0.55705">
        <ele>123.54595283885</ele>
        <time>2021-03-18T08:32:37Z</time>
      </trkpt>
      <trkpt lat="46.49788" lon="0.55708">
        <ele>123.61547527742</ele>
        <time>2021-03-18T08:32:39Z</time>
      </trkpt>
      <trkpt lat="46.49786" lon="0.55712">
        <ele>124.06805461831</ele>
        <time>2021-03-18T08:32:41Z</time>
      </trkpt>
      <trkpt lat="46.49785" lon="0.55716">
        <ele>123.56716589909</ele>
        <time>2021-03-18T08:32:43Z</time>
      </trkpt>
      <trkpt lat="46.49784" lon="0.55718">
        <ele>123.60483886302</ele>
        <time>2021-03-18T08:32:44Z</time>
      </trkpt>
      <trkpt lat="46.49783" lon="0.55722">
        <ele>123.35428641085</ele>
        <time>2021-03-18T08:32:46Z</time>
      </trkpt>
      <trkpt lat="46.49781" lon="0.55726">
        <ele>123.20059515163</ele>
        <time>2021-03-18T08:32:48Z</time>
      </trkpt>
      <trkpt lat="46.4978" lon="0.55728">
        <ele>123.493059773</ele>
        <time>2021-03-18T08:32:50Z</time>
      </trkpt>
      <trkpt lat="46.49778" lon="0.55732">
        <ele>123.15289304964</ele>
        <time>2021-03-18T08:32:52Z</time>
      </trkpt>
      <trkpt lat="46.49776" lon="0.55735">
        <ele>123.28276431281</ele>
        <time>2021-03-18T08:32:54Z</time>
      </trkpt>
      <trkpt lat="46.49775" lon="0.55738">
        <ele>123.27989588957</ele>
        <time>2021-03-18T08:32:56Z</time>
      </trkpt>
      <trkpt lat="46.49774" lon="0.55741">
        <ele>122.88260377198</ele>
        <time>2021-03-18T08:32:58Z</time>
      </trkpt>
      <trkpt lat="46.49773" lon="0.55743">
        <ele>122.59586103633</ele>
        <time>2021-03-18T08:32:59Z</time>
      </trkpt>
      <trkpt lat="46.49771" lon="0.55745">
        <ele>122.18295381032</ele>
        <time>2021-03-18T08:33:01Z</time>
      </trkpt>
      <trkpt lat="46.4977" lon="0.55749">
        <ele>121.45242051315</ele>
        <time>2021-03-18T08:33:03Z</time>
      </trkpt>
      <trkpt lat="46.49769" lon="0.55752">
        <ele>121.47405536938</ele>
        <time>2021-03-18T08:33:05Z</time>
      </trkpt>
      <trkpt lat="46.49767" lon="0.55756">
        <ele>121.58061413467</ele>
        <time>2021-03-18T08:33:07Z</time>
      </trkpt>
      <trkpt lat="46.49765" lon="0.55759">
        <ele>121.50868575461</ele>
        <time>2021-03-18T08:33:09Z</time>
      </trkpt>
      <trkpt lat="46.49764" lon="0.55761">
        <ele>121.22950551473</ele>
        <time>2021-03-18T08:33:10Z</time>
      </trkpt>
      <trkpt lat="46.49763" lon="0.55763">
        <ele>121.00171185471</ele>
        <time>2021-03-18T08:33:12Z</time>
      </trkpt>
      <trkpt lat="46.49762" lon="0.55767">
        <ele>120.98860830627</ele>
        <time>2021-03-18T08:33:14Z</time>
      </trkpt>
      <trkpt lat="46.49761" lon="0.5577">
        <ele>120.61633501109</ele>
        <time>2021-03-18T08:33:16Z</time>
      </trkpt>
      <trkpt lat="46.49759" lon="0.55773">
        <ele>121.20929789543</ele>
        <time>2021-03-18T08:33:18Z</time>
      </trkpt>
      <trkpt lat="46.49758" lon="0.55775">
        <ele>120.92451327853</ele>
        <time>2021-03-18T08:33:19Z</time>
      </trkpt>
      <trkpt lat="46.49757" lon="0.55778">
        <ele>121.51028644573</ele>
        <time>2021-03-18T08:33:21Z</time>
      </trkpt>
      <trkpt lat="46.49756" lon="0.55782">
        <ele>120.8538159756</ele>
        <time>2021-03-18T08:33:23Z</time>
      </trkpt>
      <trkpt lat="46.49754" lon="0.55785">
        <ele>120.34964285791</ele>
        <time>2021-03-18T08:33:25Z</time>
      </trkpt>
      <trkpt lat="46.49752" lon="0.55788">
        <ele>120.46544124745</ele>
        <time>2021-03-18T08:33:27Z</time>
      </trkpt>
      <trkpt lat="46.49751" lon="0.55792">
        <ele>120.3426003987</ele>
        <time>2021-03-18T08:33:29Z</time>
      </trkpt>
      <trkpt lat="46.49749" lon="0.55795">
        <ele>120.33225322887</ele>
        <time>2021-03-18T08:33:31Z</time>
      </trkpt>
      <trkpt lat="46.49748" lon="0.55799">
        <ele>120.18740360718</ele>
        <time>2021-03-18T08:33:33Z</time>
      </trkpt>
      <trkpt lat="46.49746" lon="0.55803">
        <ele>119.60769564286</ele>
        <time>2021-03-18T08:33:35Z</time>
      </trkpt>
      <trkpt lat="46.49744" lon="0.55806">
        <ele>119.38186757918</ele>
        <time>2021-03-18T08:33:37Z</time>
      </trkpt>
      <trkpt lat="46.49742" lon="0.5581">
        <ele>119.48297470715</ele>
        <time>2021-03-18T08:33:39Z</time>
      </trkpt>
      <trkpt lat="46.49741" lon="0.55813">
        <ele>119.30524769332</ele>
        <time>2021-03-18T08:33:41Z</time>
      </trkpt>
      <trkpt lat="46.49739" lon="0.55817">
        <ele>119.89662046451</ele>
        <time>2021-03-18T08:33:43Z</time>
      </trkpt>
      <trkpt lat="46.49737" lon="0.55821">
        <ele>119.56695374381</ele>
        <time>2021-03-18T08:33:45Z</time>
      </trkpt>
      <trkpt lat="46.49736" lon="0.55824">
        <ele>119.27427271195</ele>
        <time>2021-03-18T08:33:47Z</time>
      </trkpt>
      <trkpt lat="46.49734" lon="0.55828">
        <ele>119.26153563242</ele>
        <time>2021-03-18T08:33:49Z</time>
      </trkpt>
      <trkpt lat="46.49733" lon="0.55831">
        <ele>119.59837815817</ele>
        <time>2021-03-18T08:33:51Z</time>
      </trkpt>
      <trkpt lat="46.49731" lon="0.55834">
        <ele>118.87680135854</ele>
        <time>2021-03-18T08:33:53Z</time>
      </trkpt>
      <trkpt lat="46.4973" lon="0.55836">
        <ele>119.25177340209</ele>
        <time>2021-03-18T08:33:54Z</time>
      </trkpt>
      <trkpt lat="46.49729" lon="0.55839">
        <ele>119.26107118186</ele>
        <time>2021-03-18T08:33:56Z</time>
      </trkpt>
      <trkpt lat="46.49728" lon="0.55843">
        <ele>118.92269014288</ele>
        <time>2021-03-18T08:33:58Z</time>
      </trkpt>
      <trkpt lat="46.49727" lon="0.55845">
        <ele>119.66540172044</ele>
        <time>2021-03-18T08:33:59Z</time>
      </trkpt>
      <trkpt lat="46.49725" lon="0.55848">
        <ele>119.10271802265</ele>
        <time>2021-03-18T08:34:01Z</time>
      </trkpt>
      <trkpt lat="46.49724" lon="0.55849">
        <ele>118.88398745935</ele>
        <time>2021-03-18T08:34:02Z</time>
      </trkpt>
      <trkpt lat="46.49723" lon="0.55853">
        <ele>118.94868182205</ele>
        <time>2021-03-18T08:34:04Z</time>
      </trkpt>
      <trkpt lat="46.49721" lon="0.55857">
        <ele>119.08943215292</ele>
        <time>2021-03-18T08:34:06Z</time>
      </trkpt>
      <trkpt lat="46.4972" lon="0.55859">
        <ele>118.57191161532</ele>
        <time>2021-03-18T08:34:08Z</time>
      </trkpt>
      <trkpt lat="46.49718" lon="0.55863">
        <ele>118.34085436724</ele>
        <time>2021-03-18T08:34:10Z</time>
      </trkpt>
      <trkpt lat="46.49717" lon="0.55867">
        <ele>118.69160061609</ele>
        <time>2021-03-18T08:34:12Z</time>
      </trkpt>
      <trkpt lat="46.49716" lon="0.5587">
        <ele>118.11107495334</ele>
        <time>2021-03-18T08:34:14Z</time>
      </trkpt>
      <trkpt lat="46.49713" lon="0.55873">
        <ele>118.38342855871</ele>
        <time>2021-03-18T08:34:16Z</time>
      </trkpt>
      <trkpt lat="46.49712" lon="0.55876">
        <ele>118.39989954978</ele>
        <time>2021-03-18T08:34:18Z</time>
      </trkpt>
      <trkpt lat="46.49711" lon="0.5588">
        <ele>117.79833324067</ele>
        <time>2021-03-18T08:34:20Z</time>
      </trkpt>
      <trkpt lat="46.49709" lon="0.55883">
        <ele>117.64323972259</ele>
        <time>2021-03-18T08:34:22Z</time>
      </trkpt>
      <trkpt lat="46.49708" lon="0.55887">
        <ele>117.48395402264</ele>
        <time>2021-03-18T08:34:24Z</time>
      </trkpt>
      <trkpt lat="46.49706" lon="0.5589">
        <ele>117.00195814483</ele>
        <time>2021-03-18T08:34:26Z</time>
      </trkpt>
      <trkpt lat="46.49704" lon="0.55894">
        <ele>117.37977862637</ele>
        <time>2021-03-18T08:34:28Z</time>
      </trkpt>
      <trkpt lat="46.49703" lon="0.55896">
        <ele>117.31975226384</ele>
        <time>2021-03-18T08:34:30Z</time>
      </trkpt>
      <trkpt lat="46.49701" lon="0.55901">
        <ele>117.23492185306</ele>
        <time>2021-03-18T08:34:32Z</time>
      </trkpt>
      <trkpt lat="46.497" lon="0.55903">
        <ele>117.11506688036</ele>
        <time>2021-03-18T08:34:34Z</time>
      </trkpt>
      <trkpt lat="46.49698" lon="0.55907">
        <ele>116.73340796679</ele>
        <time>2021-03-18T08:34:36Z</time>
      </trkpt>
      <trkpt lat="46.49697" lon="0.5591">
        <ele>116.30227183085</ele>
        <time>2021-03-18T08:34:38Z</time>
      </trkpt>
      <trkpt lat="46.49695" lon="0.55914">
        <ele>116.56042244844</ele>
        <time>2021-03-18T08:34:40Z</time>
      </trkpt>
      <trkpt lat="46.49694" lon="0.55917">
        <ele>117.02083291393</ele>
        <time>2021-03-18T08:34:42Z</time>
      </trkpt>
      <trkpt lat="46.49692" lon="0.55921">
        <ele>116.85853551235</ele>
        <time>2021-03-18T08:34:44Z</time>
      </trkpt>
      <trkpt lat="46.4969" lon="0.55924">
        <ele>116.80702497438</ele>
        <time>2021-03-18T08:34:46Z</time>
      </trkpt>
      <trkpt lat="46.49689" lon="0.55927">
        <ele>116.19614487793</ele>
        <time>2021-03-18T08:34:48Z</time>
      </trkpt>
      <trkpt lat="46.49687" lon="0.5593">
        <ele>116.22091959883</ele>
        <time>2021-03-18T08:34:50Z</time>
      </trkpt>
      <trkpt lat="46.49686" lon="0.55933">
        <ele>115.89258332364</ele>
        <time>2021-03-18T08:34:51Z</time>
      </trkpt>
      <trkpt lat="46.49685" lon="0.55935">
        <ele>116.00319548137</ele>
        <time>2021-03-18T08:34:53Z</time>
      </trkpt>
      <trkpt lat="46.49683" lon="0.55939">
        <ele>116.29319721833</ele>
        <time>2021-03-18T08:34:55Z</time>
      </trkpt>
      <trkpt lat="46.49681" lon="0.55943">
        <ele>116.09318512958</ele>
        <time>2021-03-18T08:34:57Z</time>
      </trkpt>
      <trkpt lat="46.4968" lon="0.55946">
        <ele>115.99475842994</ele>
        <time>2021-03-18T08:34:59Z</time>
      </trkpt>
      <trkpt lat="46.49678" lon="0.5595">
        <ele>115.30527653266</ele>
        <time>2021-03-18T08:35:01Z</time>
      </trkpt>
      <trkpt lat="46.49677" lon="0.55953">
        <ele>114.95356282312</ele>
        <time>2021-03-18T08:35:03Z</time>
      </trkpt>
      <trkpt lat="46.49675" lon="0.55956">
        <ele>115.19597478304</ele>
        <time>2021-03-18T08:35:05Z</time>
      </trkpt>
      <trkpt lat="46.49674" lon="0.5596">
        <ele>115.15718119312</ele>
        <time>2021-03-18T08:35:07Z</time>
      </trkpt>
      <trkpt lat="46.49673" lon="0.55963">
        <ele>115.07655185089</ele>
        <time>2021-03-18T08:35:09Z</time>
      </trkpt>
      <trkpt lat="46.49671" lon="0.55967">
        <ele>114.83468014468</ele>
        <time>2021-03-18T08:35:11Z</time>
      </trkpt>
      <trkpt lat="46.49669" lon="0.5597">
        <ele>114.69495542999</ele>
        <time>2021-03-18T08:35:13Z</time>
      </trkpt>
      <trkpt lat="46.49668" lon="0.55973">
        <ele>114.29939601757</ele>
        <time>2021-03-18T08:35:15Z</time>
      </trkpt>
      <trkpt lat="46.49666" lon="0.55977">
        <ele>114.48691938818</ele>
        <time>2021-03-18T08:35:17Z</time>
      </trkpt>
      <trkpt lat="46.49664" lon="0.5598">
        <ele>114.1536050681</ele>
        <time>2021-03-18T08:35:19Z</time>
      </trkpt>
      <trkpt lat="46.49663" lon="0.55982">
        <ele>114.85907596536</ele>
        <time>2021-03-18T08:35:20Z</time>
      </trkpt>
      <trkpt lat="46.49662" lon="0.55985">
        <ele>114.45527507737</ele>
        <time>2021-03-18T08:35:22Z</time>
      </trkpt>
      <trkpt lat="46.49661" lon="0.55989">
        <ele>114.17732513417</ele>
        <time>2021-03-18T08:35:24Z</time>
      </trkpt>
      <trkpt lat="46.49659" lon="0.55993">
        <ele>114.3125696294</ele>
        <time>2021-03-18T08:35:26Z</time>
      </trkpt>
      <trkpt lat="46.49658" lon="0.55997">
        <ele>114.64040553011</ele>
        <time>2021-03-18T08:35:29Z</time>
      </trkpt>
      <trkpt lat="46.49657" lon="0.56001">
        <ele>114.57724443171</ele>
        <time>2021-03-18T08:35:31Z</time>
      </trkpt>
      <trkpt lat="46.49657" lon="0.56005">
        <ele>113.89063704293</ele>
        <time>2021-03-18T08:35:33Z</time>
      </trkpt>
      <trkpt lat="46.49658" lon="0.56007">
        <ele>114.49830644671</ele>
        <time>2021-03-18T08:35:35Z</time>
      </trkpt>
      <trkpt lat="46.49661" lon="0.56008">
        <ele>114.45790100843</ele>
        <time>2021-03-18T08:35:37Z</time>
      </trkpt>
      <trkpt lat="46.49664" lon="0.5601">
        <ele>113.6854850892</ele>
        <time>2021-03-18T08:35:39Z</time>
      </trkpt>
      <trkpt lat="46.49666" lon="0.56011">
        <ele>114.29162243847</ele>
        <time>2021-03-18T08:35:41Z</time>
      </trkpt>
      <trkpt lat="46.49669" lon="0.56012">
        <ele>114.18988163769</ele>
        <time>2021-03-18T08:35:43Z</time>
      </trkpt>
      <trkpt lat="46.49671" lon="0.56014">
        <ele>114.31933711749</ele>
        <time>2021-03-18T08:35:45Z</time>
      </trkpt>
      <trkpt lat="46.49673" lon="0.56015">
        <ele>114.1357115712</ele>
        <time>2021-03-18T08:35:46Z</time>
      </trkpt>
      <trkpt lat="46.49675" lon="0.56016">
        <ele>114.50743378885</ele>
        <time>2021-03-18T08:35:48Z</time>
      </trkpt>
      <trkpt lat="46.49677" lon="0.56018">
        <ele>114.09293970279</ele>
        <time>2021-03-18T08:35:50Z</time>
      </trkpt>
      <trkpt lat="46.4968" lon="0.56019">
        <ele>113.56233448628</ele>
        <time>2021-03-18T08:35:52Z</time>
      </trkpt>
      <trkpt lat="46.49682" lon="0.56021">
        <ele>113.46193845663</ele>
        <time>2021-03-18T08:35:54Z</time>
      </trkpt>
      <trkpt lat="46.49684" lon="0.56022">
        <ele>113.82007709984</ele>
        <time>2021-03-18T08:35:55Z</time>
      </trkpt>
      <trkpt lat="46.49687" lon="0.56024">
        <ele>113.66137291957</ele>
        <time>2021-03-18T08:35:57Z</time>
      </trkpt>
      <trkpt lat="46.49688" lon="0.56025">
        <ele>113.98602022696</ele>
        <time>2021-03-18T08:35:59Z</time>
      </trkpt>
      <trkpt lat="46.49691" lon="0.56026">
        <ele>113.34511558805</ele>
        <time>2021-03-18T08:36:01Z</time>
      </trkpt>
      <trkpt lat="46.49693" lon="0.56028">
        <ele>113.16583487578</ele>
        <time>2021-03-18T08:36:03Z</time>
      </trkpt>
      <trkpt lat="46.49695" lon="0.5603">
        <ele>113.15515206195</ele>
        <time>2021-03-18T08:36:05Z</time>
      </trkpt>
      <trkpt lat="46.49699" lon="0.56032">
        <ele>112.56568688899</ele>
        <time>2021-03-18T08:36:08Z</time>
      </trkpt>
      <trkpt lat="46.497" lon="0.56035">
        <ele>113.10371108539</ele>
        <time>2021-03-18T08:36:10Z</time>
      </trkpt>
      <trkpt lat="46.49702" lon="0.56037">
        <ele>113.61215574481</ele>
        <time>2021-03-18T08:36:12Z</time>
      </trkpt>
      <trkpt lat="46.49705" lon="0.56039">
        <ele>112.58979277872</ele>
        <time>2021-03-18T08:36:14Z</time>
      </trkpt>
      <trkpt lat="46.49707" lon="0.5604">
        <ele>114.11684245802</ele>
        <time>2021-03-18T08:36:16Z</time>
      </trkpt>
      <trkpt lat="46.49709" lon="0.56042">
        <ele>112.94384504389</ele>
        <time>2021-03-18T08:36:18Z</time>
      </trkpt>
      <trkpt lat="46.49711" lon="0.56044">
        <ele>113.32988730073</ele>
        <time>2021-03-18T08:36:20Z</time>
      </trkpt>
      <trkpt lat="46.49714" lon="0.56046">
        <ele>112.95879221428</ele>
        <time>2021-03-18T08:36:22Z</time>
      </trkpt>
      <trkpt lat="46.49716" lon="0.56048">
        <ele>115.37779356726</ele>
        <time>2021-03-18T08:36:24Z</time>
      </trkpt>
      <trkpt lat="46.49718" lon="0.5605">
        <ele>113.84424903616</ele>
        <time>2021-03-18T08:36:26Z</time>
      </trkpt>
      <trkpt lat="46.4972" lon="0.56052">
        <ele>113.32575359195</ele>
        <time>2021-03-18T08:36:28Z</time>
      </trkpt>
      <trkpt lat="46.49723" lon="0.56054">
        <ele>113.33317731787</ele>
        <time>2021-03-18T08:36:30Z</time>
      </trkpt>
      <trkpt lat="46.49725" lon="0.56055">
        <ele>113.31759766489</ele>
        <time>2021-03-18T08:36:32Z</time>
      </trkpt>
      <trkpt lat="46.49727" lon="0.56058">
        <ele>114.02079869993</ele>
        <time>2021-03-18T08:36:34Z</time>
      </trkpt>
      <trkpt lat="46.4973" lon="0.56059">
        <ele>113.69728489686</ele>
        <time>2021-03-18T08:36:36Z</time>
      </trkpt>
      <trkpt lat="46.49732" lon="0.5606">
        <ele>113.09258596599</ele>
        <time>2021-03-18T08:36:38Z</time>
      </trkpt>
      <trkpt lat="46.49735" lon="0.56062">
        <ele>113.10944077838</ele>
        <time>2021-03-18T08:36:40Z</time>
      </trkpt>
      <trkpt lat="46.49737" lon="0.56063">
        <ele>113.7399028996</ele>
        <time>2021-03-18T08:36:42Z</time>
      </trkpt>
      <trkpt lat="46.4974" lon="0.56065">
        <ele>112.71878985222</ele>
        <time>2021-03-18T08:36:44Z</time>
      </trkpt>
      <trkpt lat="46.49742" lon="0.56067">
        <ele>113.19077864382</ele>
        <time>2021-03-18T08:36:46Z</time>
      </trkpt>
      <trkpt lat="46.49745" lon="0.56068">
        <ele>113.04620447382</ele>
        <time>2021-03-18T08:36:48Z</time>
      </trkpt>
      <trkpt lat="46.49748" lon="0.56069">
        <ele>112.48498767428</ele>
        <time>2021-03-18T08:36:50Z</time>
      </trkpt>
      <trkpt lat="46.4975" lon="0.56071">
        <ele>113.16444736719</ele>
        <time>2021-03-18T08:36:52Z</time>
      </trkpt>
      <trkpt lat="46.49753" lon="0.56073">
        <ele>113.71444148757</ele>
        <time>2021-03-18T08:36:54Z</time>
      </trkpt>
      <trkpt lat="46.49751" lon="0.56071">
        <ele>113.31994721666</ele>
        <time>2021-03-18T08:36:57Z</time>
      </trkpt>
      <trkpt lat="46.49753" lon="0.56073">
        <ele>113.61959415581</ele>
        <time>2021-03-18T08:37:00Z</time>
      </trkpt>
      <trkpt lat="46.49756" lon="0.56074">
        <ele>113.9123164434</ele>
        <time>2021-03-18T08:37:02Z</time>
      </trkpt>
      <trkpt lat="46.49758" lon="0.56076">
        <ele>113.00079716649</ele>
        <time>2021-03-18T08:37:04Z</time>
      </trkpt>
      <trkpt lat="46.4976" lon="0.56077">
        <ele>112.38633263391</ele>
        <time>2021-03-18T08:37:06Z</time>
      </trkpt>
      <trkpt lat="46.49763" lon="0.56079">
        <ele>112.860408145</ele>
        <time>2021-03-18T08:37:08Z</time>
      </trkpt>
      <trkpt lat="46.49764" lon="0.56081">
        <ele>113.06963694468</ele>
        <time>2021-03-18T08:37:09Z</time>
      </trkpt>
      <trkpt lat="46.49766" lon="0.56082">
        <ele>113.27074444853</ele>
        <time>2021-03-18T08:37:11Z</time>
      </trkpt>
      <trkpt lat="46.49769" lon="0.56084">
        <ele>113.18572153896</ele>
        <time>2021-03-18T08:37:13Z</time>
      </trkpt>
      <trkpt lat="46.49771" lon="0.56085">
        <ele>112.41501591261</ele>
        <time>2021-03-18T08:37:15Z</time>
      </trkpt>
      <trkpt lat="46.49773" lon="0.56087">
        <ele>112.98842664342</ele>
        <time>2021-03-18T08:37:17Z</time>
      </trkpt>
      <trkpt lat="46.49775" lon="0.56089">
        <ele>112.61261599138</ele>
        <time>2021-03-18T08:37:19Z</time>
      </trkpt>
      <trkpt lat="46.49778" lon="0.56091">
        <ele>112.35663542524</ele>
        <time>2021-03-18T08:37:21Z</time>
      </trkpt>
      <trkpt lat="46.4978" lon="0.56093">
        <ele>112.51220143586</ele>
        <time>2021-03-18T08:37:23Z</time>
      </trkpt>
      <trkpt lat="46.49782" lon="0.56095">
        <ele>112.24152482953</ele>
        <time>2021-03-18T08:37:25Z</time>
      </trkpt>
      <trkpt lat="46.49785" lon="0.56097">
        <ele>111.3593371585</ele>
        <time>2021-03-18T08:37:27Z</time>
      </trkpt>
      <trkpt lat="46.49787" lon="0.561">
        <ele>111.55732396245</ele>
        <time>2021-03-18T08:37:29Z</time>
      </trkpt>
      <trkpt lat="46.49789" lon="0.56102">
        <ele>112.05823130999</ele>
        <time>2021-03-18T08:37:31Z</time>
      </trkpt>
      <trkpt lat="46.49791" lon="0.56103">
        <ele>111.36079171393</ele>
        <time>2021-03-18T08:37:33Z</time>
      </trkpt>
      <trkpt lat="46.49794" lon="0.56106">
        <ele>111.57482127286</ele>
        <time>2021-03-18T08:37:35Z</time>
      </trkpt>
      <trkpt lat="46.49797" lon="0.56108">
        <ele>112.48714422341</ele>
        <time>2021-03-18T08:37:37Z</time>
      </trkpt>
      <trkpt lat="46.49799" lon="0.5611">
        <ele>112.94814772438</ele>
        <time>2021-03-18T08:37:39Z</time>
      </trkpt>
      <trkpt lat="46.49801" lon="0.56112">
        <ele>112.4831937002</ele>
        <time>2021-03-18T08:37:41Z</time>
      </trkpt>
      <trkpt lat="46.49802" lon="0.56113">
        <ele>112.42774999887</ele>
        <time>2021-03-18T08:37:42Z</time>
      </trkpt>
      <trkpt lat="46.49804" lon="0.56116">
        <ele>111.89705917425</ele>
        <time>2021-03-18T08:37:44Z</time>
      </trkpt>
      <trkpt lat="46.49806" lon="0.56118">
        <ele>112.60821024887</ele>
        <time>2021-03-18T08:37:46Z</time>
      </trkpt>
      <trkpt lat="46.49808" lon="0.56121">
        <ele>111.83005088847</ele>
        <time>2021-03-18T08:37:48Z</time>
      </trkpt>
      <trkpt lat="46.4981" lon="0.56123">
        <ele>111.99180640467</ele>
        <time>2021-03-18T08:37:50Z</time>
      </trkpt>
      <trkpt lat="46.49812" lon="0.56125">
        <ele>111.69563132711</ele>
        <time>2021-03-18T08:37:52Z</time>
      </trkpt>
      <trkpt lat="46.49814" lon="0.56127">
        <ele>111.79752034694</ele>
        <time>2021-03-18T08:37:54Z</time>
      </trkpt>
      <trkpt lat="46.49816" lon="0.5613">
        <ele>111.92538606282</ele>
        <time>2021-03-18T08:37:56Z</time>
      </trkpt>
      <trkpt lat="46.49818" lon="0.56132">
        <ele>112.20204723999</ele>
        <time>2021-03-18T08:37:58Z</time>
      </trkpt>
      <trkpt lat="46.49819" lon="0.56134">
        <ele>112.50920250081</ele>
        <time>2021-03-18T08:37:59Z</time>
      </trkpt>
      <trkpt lat="46.49821" lon="0.56137">
        <ele>112.28685243335</ele>
        <time>2021-03-18T08:38:01Z</time>
      </trkpt>
      <trkpt lat="46.49823" lon="0.56139">
        <ele>112.062607117</ele>
        <time>2021-03-18T08:38:03Z</time>
      </trkpt>
      <trkpt lat="46.49825" lon="0.56141">
        <ele>112.40282439347</ele>
        <time>2021-03-18T08:38:05Z</time>
      </trkpt>
      <trkpt lat="46.49826" lon="0.56144">
        <ele>112.47712207399</ele>
        <time>2021-03-18T08:38:07Z</time>
      </trkpt>
      <trkpt lat="46.49828" lon="0.56146">
        <ele>112.14851544984</ele>
        <time>2021-03-18T08:38:09Z</time>
      </trkpt>
      <trkpt lat="46.4983" lon="0.56149">
        <ele>112.34120738134</ele>
        <time>2021-03-18T08:38:11Z</time>
      </trkpt>
      <trkpt lat="46.49832" lon="0.56152">
        <ele>112.83395122737</ele>
        <time>2021-03-18T08:38:13Z</time>
      </trkpt>
      <trkpt lat="46.49834" lon="0.56154">
        <ele>111.88465686049</ele>
        <time>2021-03-18T08:38:15Z</time>
      </trkpt>
      <trkpt lat="46.49836" lon="0.56157">
        <ele>113.53895177413</ele>
        <time>2021-03-18T08:38:17Z</time>
      </trkpt>
      <trkpt lat="46.49838" lon="0.56159">
        <ele>112.9532390153</ele>
        <time>2021-03-18T08:38:19Z</time>
      </trkpt>
      <trkpt lat="46.49839" lon="0.56162">
        <ele>112.2932370808</ele>
        <time>2021-03-18T08:38:21Z</time>
      </trkpt>
      <trkpt lat="46.49838" lon="0.56167">
        <ele>112.16975885443</ele>
        <time>2021-03-18T08:38:23Z</time>
      </trkpt>
      <trkpt lat="46.49837" lon="0.56172">
        <ele>112.08751110826</ele>
        <time>2021-03-18T08:38:25Z</time>
      </trkpt>
      <trkpt lat="46.49835" lon="0.56176">
        <ele>112.0906753419</ele>
        <time>2021-03-18T08:38:28Z</time>
      </trkpt>
      <trkpt lat="46.49834" lon="0.56178">
        <ele>112.51219630428</ele>
        <time>2021-03-18T08:38:29Z</time>
      </trkpt>
      <trkpt lat="46.49833" lon="0.5618">
        <ele>112.6512512574</ele>
        <time>2021-03-18T08:38:31Z</time>
      </trkpt>
      <trkpt lat="46.49833" lon="0.56185">
        <ele>112.31410758477</ele>
        <time>2021-03-18T08:38:33Z</time>
      </trkpt>
      <trkpt lat="46.49832" lon="0.5619">
        <ele>112.53042954113</ele>
        <time>2021-03-18T08:38:36Z</time>
      </trkpt>
      <trkpt lat="46.49832" lon="0.56193">
        <ele>112.79596232809</ele>
        <time>2021-03-18T08:38:38Z</time>
      </trkpt>
      <trkpt lat="46.49832" lon="0.56196">
        <ele>112.50482464582</ele>
        <time>2021-03-18T08:38:40Z</time>
      </trkpt>
      <trkpt lat="46.49833" lon="0.562">
        <ele>112.77814528067</ele>
        <time>2021-03-18T08:38:42Z</time>
      </trkpt>
      <trkpt lat="46.49833" lon="0.56203">
        <ele>112.92659592908</ele>
        <time>2021-03-18T08:38:44Z</time>
      </trkpt>
      <trkpt lat="46.49834" lon="0.56205">
        <ele>113.34542924259</ele>
        <time>2021-03-18T08:38:49Z</time>
      </trkpt>
      <trkpt lat="46.49836" lon="0.56206">
        <ele>113.35654116143</ele>
        <time>2021-03-18T08:38:53Z</time>
      </trkpt>
      <trkpt lat="46.49838" lon="0.56206">
        <ele>112.97615069058</ele>
        <time>2021-03-18T08:39:18Z</time>
      </trkpt>
      <trkpt lat="46.49838" lon="0.56209">
        <ele>113.51334345806</ele>
        <time>2021-03-18T08:39:30Z</time>
      </trkpt>
      <trkpt lat="46.49839" lon="0.56212">
        <ele>113.40412480757</ele>
        <time>2021-03-18T08:39:39Z</time>
      </trkpt>
      <trkpt lat="46.49837" lon="0.56212">
        <ele>113.42985799722</ele>
        <time>2021-03-18T08:39:42Z</time>
      </trkpt>
      <trkpt lat="46.49837" lon="0.56209">
        <ele>113.11473678611</ele>
        <time>2021-03-18T08:39:47Z</time>
      </trkpt>
      <trkpt lat="46.49835" lon="0.56207">
        <ele>113.00814554747</ele>
        <time>2021-03-18T08:39:53Z</time>
      </trkpt>
      <trkpt lat="46.49833" lon="0.56205">
        <ele>112.70454246644</ele>
        <time>2021-03-18T08:39:57Z</time>
      </trkpt>
      <trkpt lat="46.49833" lon="0.56202">
        <ele>113.01038208511</ele>
        <time>2021-03-18T08:40:07Z</time>
      </trkpt>
      <trkpt lat="46.49832" lon="0.56199">
        <ele>112.95970520284</ele>
        <time>2021-03-18T08:40:11Z</time>
      </trkpt>
      <trkpt lat="46.49833" lon="0.56196">
        <ele>112.43484190851</ele>
        <time>2021-03-18T08:40:16Z</time>
      </trkpt>
      <trkpt lat="46.49832" lon="0.56193">
        <ele>113.06599836145</ele>
        <time>2021-03-18T08:40:18Z</time>
      </trkpt>
      <trkpt lat="46.49833" lon="0.56191">
        <ele>112.33387901168</ele>
        <time>2021-03-18T08:40:20Z</time>
      </trkpt>
      <trkpt lat="46.49834" lon="0.56189">
        <ele>112.41270720772</ele>
        <time>2021-03-18T08:40:22Z</time>
      </trkpt>
      <trkpt lat="46.49835" lon="0.56186">
        <ele>112.29469663743</ele>
        <time>2021-03-18T08:40:24Z</time>
      </trkpt>
      <trkpt lat="46.49835" lon="0.56182">
        <ele>112.62680009194</ele>
        <time>2021-03-18T08:40:26Z</time>
      </trkpt>
      <trkpt lat="46.49836" lon="0.5618">
        <ele>112.69212618284</ele>
        <time>2021-03-18T08:40:28Z</time>
      </trkpt>
      <trkpt lat="46.49838" lon="0.56177">
        <ele>113.05122670904</ele>
        <time>2021-03-18T08:40:30Z</time>
      </trkpt>
      <trkpt lat="46.49839" lon="0.56174">
        <ele>113.0405744873</ele>
        <time>2021-03-18T08:40:32Z</time>
      </trkpt>
      <trkpt lat="46.4984" lon="0.56172">
        <ele>113.30802674498</ele>
        <time>2021-03-18T08:40:34Z</time>
      </trkpt>
      <trkpt lat="46.49841" lon="0.56169">
        <ele>112.68002883345</ele>
        <time>2021-03-18T08:40:36Z</time>
      </trkpt>
      <trkpt lat="46.49843" lon="0.56166">
        <ele>113.77856509387</ele>
        <time>2021-03-18T08:40:38Z</time>
      </trkpt>
      <trkpt lat="46.49845" lon="0.56168">
        <ele>112.7951125931</ele>
        <time>2021-03-18T08:40:40Z</time>
      </trkpt>
      <trkpt lat="46.49848" lon="0.56169">
        <ele>113.73389093392</ele>
        <time>2021-03-18T08:40:42Z</time>
      </trkpt>
      <trkpt lat="46.49849" lon="0.56171">
        <ele>113.51930414792</ele>
        <time>2021-03-18T08:40:44Z</time>
      </trkpt>
      <trkpt lat="46.49852" lon="0.56172">
        <ele>112.89520047791</ele>
        <time>2021-03-18T08:40:46Z</time>
      </trkpt>
      <trkpt lat="46.49854" lon="0.56174">
        <ele>113.8594080992</ele>
        <time>2021-03-18T08:40:48Z</time>
      </trkpt>
      <trkpt lat="46.49856" lon="0.56176">
        <ele>113.3723483216</ele>
        <time>2021-03-18T08:40:51Z</time>
      </trkpt>
      <trkpt lat="46.49859" lon="0.56178">
        <ele>113.58336257003</ele>
        <time>2021-03-18T08:40:53Z</time>
      </trkpt>
      <trkpt lat="46.49861" lon="0.56179">
        <ele>113.78731348831</ele>
        <time>2021-03-18T08:40:55Z</time>
      </trkpt>
      <trkpt lat="46.49863" lon="0.5618">
        <ele>113.5844392851</ele>
        <time>2021-03-18T08:40:57Z</time>
      </trkpt>
      <trkpt lat="46.49865" lon="0.56182">
        <ele>113.3906761976</ele>
        <time>2021-03-18T08:40:59Z</time>
      </trkpt>
      <trkpt lat="46.49868" lon="0.56183">
        <ele>113.83310776297</ele>
        <time>2021-03-18T08:41:01Z</time>
      </trkpt>
      <trkpt lat="46.4987" lon="0.56184">
        <ele>113.96669148002</ele>
        <time>2021-03-18T08:41:03Z</time>
      </trkpt>
      <trkpt lat="46.49873" lon="0.56185">
        <ele>113.29427810572</ele>
        <time>2021-03-18T08:41:05Z</time>
      </trkpt>
      <trkpt lat="46.49876" lon="0.56186">
        <ele>113.72669152543</ele>
        <time>2021-03-18T08:41:07Z</time>
      </trkpt>
      <trkpt lat="46.49878" lon="0.56187">
        <ele>114.2250992395</ele>
        <time>2021-03-18T08:41:10Z</time>
      </trkpt>
      <trkpt lat="46.49881" lon="0.56188">
        <ele>114.29385744128</ele>
        <time>2021-03-18T08:41:12Z</time>
      </trkpt>
      <trkpt lat="46.49883" lon="0.56189">
        <ele>114.23562435433</ele>
        <time>2021-03-18T08:41:14Z</time>
      </trkpt>
      <trkpt lat="46.49885" lon="0.5619">
        <ele>114.40730982646</ele>
        <time>2021-03-18T08:41:16Z</time>
      </trkpt>
      <trkpt lat="46.49887" lon="0.56191">
        <ele>114.39951461554</ele>
        <time>2021-03-18T08:41:18Z</time>
      </trkpt>
      <trkpt lat="46.4989" lon="0.56192">
        <ele>115.02862721588</ele>
        <time>2021-03-18T08:41:20Z</time>
      </trkpt>
      <trkpt lat="46.49892" lon="0.56193">
        <ele>114.74889494386</ele>
        <time>2021-03-18T08:41:22Z</time>
      </trkpt>
      <trkpt lat="46.49894" lon="0.56194">
        <ele>114.8381292969</ele>
        <time>2021-03-18T08:41:24Z</time>
      </trkpt>
      <trkpt lat="46.49896" lon="0.56195">
        <ele>115.20591698308</ele>
        <time>2021-03-18T08:41:26Z</time>
      </trkpt>
      <trkpt lat="46.49895" lon="0.56197">
        <ele>114.62002086174</ele>
        <time>2021-03-18T08:41:31Z</time>
      </trkpt>
      <trkpt lat="46.49893" lon="0.56199">
        <ele>114.94154518098</ele>
        <time>2021-03-18T08:41:36Z</time>
      </trkpt>
      <trkpt lat="46.49895" lon="0.56201">
        <ele>115.17420274951</ele>
        <time>2021-03-18T08:41:43Z</time>
      </trkpt>
      <trkpt lat="46.49897" lon="0.562">
        <ele>115.03740409948</ele>
        <time>2021-03-18T08:42:29Z</time>
      </trkpt>
      <trkpt lat="46.49897" lon="0.56195">
        <ele>115.03007261362</ele>
        <time>2021-03-18T08:42:36Z</time>
      </trkpt>
      <trkpt lat="46.49898" lon="0.56193">
        <ele>115.92585337255</ele>
        <time>2021-03-18T08:42:37Z</time>
      </trkpt>
      <trkpt lat="46.499" lon="0.56196">
        <ele>115.04936660361</ele>
        <time>2021-03-18T08:42:39Z</time>
      </trkpt>
      <trkpt lat="46.49901" lon="0.56197">
        <ele>115.00834977441</ele>
        <time>2021-03-18T08:42:41Z</time>
      </trkpt>
      <trkpt lat="46.49904" lon="0.56196">
        <ele>115.18212468643</ele>
        <time>2021-03-18T08:42:43Z</time>
      </trkpt>
      <trkpt lat="46.49907" lon="0.56196">
        <ele>114.82625665795</ele>
        <time>2021-03-18T08:42:45Z</time>
      </trkpt>
      <trkpt lat="46.49909" lon="0.56197">
        <ele>115.05295735132</ele>
        <time>2021-03-18T08:42:48Z</time>
      </trkpt>
      <trkpt lat="46.4991" lon="0.56198">
        <ele>115.42775853444</ele>
        <time>2021-03-18T08:42:50Z</time>
      </trkpt>
      <trkpt lat="46.49912" lon="0.56199">
        <ele>115.36725365836</ele>
        <time>2021-03-18T08:42:52Z</time>
      </trkpt>
      <trkpt lat="46.49915" lon="0.562">
        <ele>115.76940336637</ele>
        <time>2021-03-18T08:42:55Z</time>
      </trkpt>
      <trkpt lat="46.49918" lon="0.56202">
        <ele>115.86780901626</ele>
        <time>2021-03-18T08:42:58Z</time>
      </trkpt>
      <trkpt lat="46.49921" lon="0.56202">
        <ele>115.91195564251</ele>
        <time>2021-03-18T08:43:00Z</time>
      </trkpt>
      <trkpt lat="46.49924" lon="0.56202">
        <ele>115.68922954518</ele>
        <time>2021-03-18T08:43:03Z</time>
      </trkpt>
      <trkpt lat="46.49926" lon="0.56203">
        <ele>115.82960742619</ele>
        <time>2021-03-18T08:43:05Z</time>
      </trkpt>
      <trkpt lat="46.49929" lon="0.56204">
        <ele>115.91307632811</ele>
        <time>2021-03-18T08:43:07Z</time>
      </trkpt>
      <trkpt lat="46.49932" lon="0.56205">
        <ele>116.87743083201</ele>
        <time>2021-03-18T08:43:09Z</time>
      </trkpt>
      <trkpt lat="46.49934" lon="0.56205">
        <ele>116.14848002885</ele>
        <time>2021-03-18T08:43:11Z</time>
      </trkpt>
      <trkpt lat="46.49936" lon="0.56205">
        <ele>116.30181134678</ele>
        <time>2021-03-18T08:43:13Z</time>
      </trkpt>
      <trkpt lat="46.49938" lon="0.56206">
        <ele>116.31017696299</ele>
        <time>2021-03-18T08:43:15Z</time>
      </trkpt>
      <trkpt lat="46.4994" lon="0.56207">
        <ele>116.66442930046</ele>
        <time>2021-03-18T08:43:17Z</time>
      </trkpt>
      <trkpt lat="46.49943" lon="0.56208">
        <ele>116.54570026789</ele>
        <time>2021-03-18T08:43:19Z</time>
      </trkpt>
      <trkpt lat="46.49946" lon="0.56208">
        <ele>116.735033934</ele>
        <time>2021-03-18T08:43:22Z</time>
      </trkpt>
      <trkpt lat="46.49948" lon="0.56207">
        <ele>116.94943705294</ele>
        <time>2021-03-18T08:43:24Z</time>
      </trkpt>
      <trkpt lat="46.49951" lon="0.56206">
        <ele>117.0000395067</ele>
        <time>2021-03-18T08:43:26Z</time>
      </trkpt>
      <trkpt lat="46.49954" lon="0.56206">
        <ele>117.32727578282</ele>
        <time>2021-03-18T08:43:28Z</time>
      </trkpt>
      <trkpt lat="46.49956" lon="0.56208">
        <ele>117.02527843602</ele>
        <time>2021-03-18T08:43:31Z</time>
      </trkpt>
      <trkpt lat="46.49959" lon="0.56208">
        <ele>117.11922671832</ele>
        <time>2021-03-18T08:43:33Z</time>
      </trkpt>
      <trkpt lat="46.49961" lon="0.5621">
        <ele>117.06282677781</ele>
        <time>2021-03-18T08:43:35Z</time>
      </trkpt>
      <trkpt lat="46.49961" lon="0.56212">
        <ele>117.562604337</ele>
        <time>2021-03-18T08:43:41Z</time>
      </trkpt>
      <trkpt lat="46.49963" lon="0.56213">
        <ele>117.47719840333</ele>
        <time>2021-03-18T08:43:45Z</time>
      </trkpt>
      <trkpt lat="46.49965" lon="0.56212">
        <ele>119.27185233124</ele>
        <time>2021-03-18T08:43:59Z</time>
      </trkpt>
      <trkpt lat="46.49967" lon="0.56213">
        <ele>117.67963165417</ele>
        <time>2021-03-18T08:44:52Z</time>
      </trkpt>
      <trkpt lat="46.49968" lon="0.56214">
        <ele>117.53766366374</ele>
        <time>2021-03-18T08:45:05Z</time>
      </trkpt>
      <trkpt lat="46.49971" lon="0.56214">
        <ele>117.91966533475</ele>
        <time>2021-03-18T08:45:08Z</time>
      </trkpt>
      <trkpt lat="46.49973" lon="0.56214">
        <ele>117.6738737775</ele>
        <time>2021-03-18T08:45:10Z</time>
      </trkpt>
      <trkpt lat="46.49974" lon="0.56213">
        <ele>118.0810467992</ele>
        <time>2021-03-18T08:45:12Z</time>
      </trkpt>
      <trkpt lat="46.49977" lon="0.56214">
        <ele>117.62642424554</ele>
        <time>2021-03-18T08:45:15Z</time>
      </trkpt>
      <trkpt lat="46.49979" lon="0.56214">
        <ele>117.95031504985</ele>
        <time>2021-03-18T08:45:18Z</time>
      </trkpt>
      <trkpt lat="46.49983" lon="0.56214">
        <ele>118.10621626489</ele>
        <time>2021-03-18T08:45:20Z</time>
      </trkpt>
      <trkpt lat="46.49985" lon="0.56213">
        <ele>117.83265157975</ele>
        <time>2021-03-18T08:45:22Z</time>
      </trkpt>
      <trkpt lat="46.49987" lon="0.56213">
        <ele>118.45889866538</ele>
        <time>2021-03-18T08:45:24Z</time>
      </trkpt>
      <trkpt lat="46.49989" lon="0.56214">
        <ele>117.96008580085</ele>
        <time>2021-03-18T08:45:26Z</time>
      </trkpt>
      <trkpt lat="46.49991" lon="0.56213">
        <ele>118.39885716327</ele>
        <time>2021-03-18T08:45:28Z</time>
      </trkpt>
      <trkpt lat="46.49993" lon="0.56213">
        <ele>118.11038329545</ele>
        <time>2021-03-18T08:45:30Z</time>
      </trkpt>
      <trkpt lat="46.49995" lon="0.56213">
        <ele>118.18911362812</ele>
        <time>2021-03-18T08:45:32Z</time>
      </trkpt>
      <trkpt lat="46.49997" lon="0.56213">
        <ele>118.3247364331</ele>
        <time>2021-03-18T08:45:34Z</time>
      </trkpt>
      <trkpt lat="46.49999" lon="0.56213">
        <ele>118.51412737463</ele>
        <time>2021-03-18T08:45:36Z</time>
      </trkpt>
      <trkpt lat="46.50002" lon="0.56211">
        <ele>118.69727226626</ele>
        <time>2021-03-18T08:45:38Z</time>
      </trkpt>
      <trkpt lat="46.50004" lon="0.56211">
        <ele>118.64569741488</ele>
        <time>2021-03-18T08:45:40Z</time>
      </trkpt>
      <trkpt lat="46.50006" lon="0.56211">
        <ele>118.49994077533</ele>
        <time>2021-03-18T08:45:42Z</time>
      </trkpt>
      <trkpt lat="46.50009" lon="0.5621">
        <ele>119.01656778902</ele>
        <time>2021-03-18T08:45:44Z</time>
      </trkpt>
      <trkpt lat="46.50011" lon="0.5621">
        <ele>119.1435093144</ele>
        <time>2021-03-18T08:45:46Z</time>
      </trkpt>
      <trkpt lat="46.50014" lon="0.5621">
        <ele>119.12366866972</ele>
        <time>2021-03-18T08:45:48Z</time>
      </trkpt>
      <trkpt lat="46.50017" lon="0.5621">
        <ele>120.25493036862</ele>
        <time>2021-03-18T08:45:50Z</time>
      </trkpt>
      <trkpt lat="46.5002" lon="0.5621">
        <ele>119.3282537302</ele>
        <time>2021-03-18T08:45:53Z</time>
      </trkpt>
      <trkpt lat="46.50023" lon="0.56211">
        <ele>118.42857757863</ele>
        <time>2021-03-18T08:45:55Z</time>
      </trkpt>
      <trkpt lat="46.50025" lon="0.56211">
        <ele>120.00835780427</ele>
        <time>2021-03-18T08:45:56Z</time>
      </trkpt>
      <trkpt lat="46.50027" lon="0.56211">
        <ele>119.18603627943</ele>
        <time>2021-03-18T08:45:58Z</time>
      </trkpt>
      <trkpt lat="46.5003" lon="0.56211">
        <ele>119.89873370994</ele>
        <time>2021-03-18T08:46:00Z</time>
      </trkpt>
      <trkpt lat="46.50033" lon="0.56211">
        <ele>120.16314432491</ele>
        <time>2021-03-18T08:46:02Z</time>
      </trkpt>
      <trkpt lat="46.50035" lon="0.5621">
        <ele>120.33187712077</ele>
        <time>2021-03-18T08:46:04Z</time>
      </trkpt>
      <trkpt lat="46.50038" lon="0.5621">
        <ele>120.18402864784</ele>
        <time>2021-03-18T08:46:06Z</time>
      </trkpt>
      <trkpt lat="46.50041" lon="0.56208">
        <ele>120.53803986311</ele>
        <time>2021-03-18T08:46:08Z</time>
      </trkpt>
      <trkpt lat="46.50043" lon="0.56209">
        <ele>119.80905354209</ele>
        <time>2021-03-18T08:46:11Z</time>
      </trkpt>
      <trkpt lat="46.50046" lon="0.56208">
        <ele>120.43268719316</ele>
        <time>2021-03-18T08:46:13Z</time>
      </trkpt>
      <trkpt lat="46.50049" lon="0.56207">
        <ele>121.0999332685</ele>
        <time>2021-03-18T08:46:15Z</time>
      </trkpt>
      <trkpt lat="46.50051" lon="0.56207">
        <ele>120.77245535236</ele>
        <time>2021-03-18T08:46:17Z</time>
      </trkpt>
      <trkpt lat="46.50053" lon="0.56206">
        <ele>119.99863854237</ele>
        <time>2021-03-18T08:46:19Z</time>
      </trkpt>
      <trkpt lat="46.50056" lon="0.56207">
        <ele>120.9116665991</ele>
        <time>2021-03-18T08:46:22Z</time>
      </trkpt>
      <trkpt lat="46.50058" lon="0.56205">
        <ele>120.26398775261</ele>
        <time>2021-03-18T08:46:24Z</time>
      </trkpt>
      <trkpt lat="46.5006" lon="0.56204">
        <ele>120.53900917992</ele>
        <time>2021-03-18T08:46:26Z</time>
      </trkpt>
      <trkpt lat="46.50063" lon="0.56204">
        <ele>121.1860206807</ele>
        <time>2021-03-18T08:46:29Z</time>
      </trkpt>
      <trkpt lat="46.50066" lon="0.56202">
        <ele>120.60006754287</ele>
        <time>2021-03-18T08:46:31Z</time>
      </trkpt>
      <trkpt lat="46.50069" lon="0.56201">
        <ele>121.56300870422</ele>
        <time>2021-03-18T08:46:33Z</time>
      </trkpt>
      <trkpt lat="46.50072" lon="0.562">
        <ele>120.87938902341</ele>
        <time>2021-03-18T08:46:35Z</time>
      </trkpt>
      <trkpt lat="46.50074" lon="0.56199">
        <ele>120.63672602177</ele>
        <time>2021-03-18T08:46:37Z</time>
      </trkpt>
      <trkpt lat="46.50076" lon="0.56198">
        <ele>121.89048815798</ele>
        <time>2021-03-18T08:46:39Z</time>
      </trkpt>
      <trkpt lat="46.50079" lon="0.56196">
        <ele>121.31325161364</ele>
        <time>2021-03-18T08:46:41Z</time>
      </trkpt>
      <trkpt lat="46.50082" lon="0.56196">
        <ele>121.4701364357</ele>
        <time>2021-03-18T08:46:43Z</time>
      </trkpt>
      <trkpt lat="46.50084" lon="0.56195">
        <ele>121.35471765511</ele>
        <time>2021-03-18T08:46:45Z</time>
      </trkpt>
      <trkpt lat="46.50087" lon="0.56195">
        <ele>121.52966474928</ele>
        <time>2021-03-18T08:46:47Z</time>
      </trkpt>
      <trkpt lat="46.50089" lon="0.56195">
        <ele>122.16507019289</ele>
        <time>2021-03-18T08:46:49Z</time>
      </trkpt>
      <trkpt lat="46.50092" lon="0.56194">
        <ele>122.106105024</ele>
        <time>2021-03-18T08:46:51Z</time>
      </trkpt>
      <trkpt lat="46.50094" lon="0.56193">
        <ele>122.11218796764</ele>
        <time>2021-03-18T08:46:53Z</time>
      </trkpt>
      <trkpt lat="46.50096" lon="0.56193">
        <ele>121.5923187267</ele>
        <time>2021-03-18T08:46:55Z</time>
      </trkpt>
      <trkpt lat="46.50099" lon="0.56194">
        <ele>122.06530633289</ele>
        <time>2021-03-18T08:46:57Z</time>
      </trkpt>
      <trkpt lat="46.50102" lon="0.56194">
        <ele>121.67919270322</ele>
        <time>2021-03-18T08:46:59Z</time>
      </trkpt>
      <trkpt lat="46.50105" lon="0.56194">
        <ele>122.79151288141</ele>
        <time>2021-03-18T08:47:01Z</time>
      </trkpt>
      <trkpt lat="46.50108" lon="0.56194">
        <ele>122.73093997501</ele>
        <time>2021-03-18T08:47:03Z</time>
      </trkpt>
      <trkpt lat="46.5011" lon="0.56194">
        <ele>122.49647677131</ele>
        <time>2021-03-18T08:47:05Z</time>
      </trkpt>
      <trkpt lat="46.50113" lon="0.56194">
        <ele>122.4358502198</ele>
        <time>2021-03-18T08:47:07Z</time>
      </trkpt>
      <trkpt lat="46.50116" lon="0.56194">
        <ele>122.6966029387</ele>
        <time>2021-03-18T08:47:09Z</time>
      </trkpt>
      <trkpt lat="46.50118" lon="0.56195">
        <ele>122.5766897155</ele>
        <time>2021-03-18T08:47:11Z</time>
      </trkpt>
      <trkpt lat="46.50121" lon="0.56195">
        <ele>122.64716320671</ele>
        <time>2021-03-18T08:47:13Z</time>
      </trkpt>
      <trkpt lat="46.50123" lon="0.56196">
        <ele>122.38879001047</ele>
        <time>2021-03-18T08:47:15Z</time>
      </trkpt>
      <trkpt lat="46.50126" lon="0.56196">
        <ele>123.02580992691</ele>
        <time>2021-03-18T08:47:17Z</time>
      </trkpt>
      <trkpt lat="46.50129" lon="0.56197">
        <ele>122.45060769003</ele>
        <time>2021-03-18T08:47:19Z</time>
      </trkpt>
      <trkpt lat="46.50131" lon="0.56198">
        <ele>122.74524310976</ele>
        <time>2021-03-18T08:47:21Z</time>
      </trkpt>
      <trkpt lat="46.50133" lon="0.56199">
        <ele>123.58246144</ele>
        <time>2021-03-18T08:47:23Z</time>
      </trkpt>
      <trkpt lat="46.50135" lon="0.562">
        <ele>122.76311752759</ele>
        <time>2021-03-18T08:47:25Z</time>
      </trkpt>
      <trkpt lat="46.50136" lon="0.56204">
        <ele>123.6412789356</ele>
        <time>2021-03-18T08:47:27Z</time>
      </trkpt>
      <trkpt lat="46.50137" lon="0.56208">
        <ele>123.25837612804</ele>
        <time>2021-03-18T08:47:29Z</time>
      </trkpt>
      <trkpt lat="46.50136" lon="0.56211">
        <ele>123.57710055728</ele>
        <time>2021-03-18T08:47:31Z</time>
      </trkpt>
      <trkpt lat="46.50136" lon="0.56215">
        <ele>123.19527928066</ele>
        <time>2021-03-18T08:47:33Z</time>
      </trkpt>
      <trkpt lat="46.50136" lon="0.56219">
        <ele>123.04548236728</ele>
        <time>2021-03-18T08:47:35Z</time>
      </trkpt>
      <trkpt lat="46.50136" lon="0.56223">
        <ele>123.548413774</ele>
        <time>2021-03-18T08:47:37Z</time>
      </trkpt>
      <trkpt lat="46.50135" lon="0.56226">
        <ele>123.17525229044</ele>
        <time>2021-03-18T08:47:39Z</time>
      </trkpt>
      <trkpt lat="46.50135" lon="0.56231">
        <ele>122.81238597073</ele>
        <time>2021-03-18T08:47:41Z</time>
      </trkpt>
      <trkpt lat="46.50135" lon="0.56234">
        <ele>122.68929607049</ele>
        <time>2021-03-18T08:47:43Z</time>
      </trkpt>
      <trkpt lat="46.50134" lon="0.56237">
        <ele>123.01092474349</ele>
        <time>2021-03-18T08:47:45Z</time>
      </trkpt>
      <trkpt lat="46.50134" lon="0.56242">
        <ele>122.48460204154</ele>
        <time>2021-03-18T08:47:47Z</time>
      </trkpt>
      <trkpt lat="46.50134" lon="0.56246">
        <ele>122.34627187252</ele>
        <time>2021-03-18T08:47:49Z</time>
      </trkpt>
      <trkpt lat="46.50133" lon="0.56249">
        <ele>122.72742497921</ele>
        <time>2021-03-18T08:47:51Z</time>
      </trkpt>
      <trkpt lat="46.50133" lon="0.56253">
        <ele>122.19183239061</ele>
        <time>2021-03-18T08:47:53Z</time>
      </trkpt>
      <trkpt lat="46.50133" lon="0.56257">
        <ele>122.1826221291</ele>
        <time>2021-03-18T08:47:55Z</time>
      </trkpt>
      <trkpt lat="46.50133" lon="0.56261">
        <ele>122.33208037075</ele>
        <time>2021-03-18T08:47:58Z</time>
      </trkpt>
      <trkpt lat="46.50132" lon="0.56266">
        <ele>122.44117398746</ele>
        <time>2021-03-18T08:48:00Z</time>
      </trkpt>
      <trkpt lat="46.50132" lon="0.5627">
        <ele>122.78743184451</ele>
        <time>2021-03-18T08:48:02Z</time>
      </trkpt>
      <trkpt lat="46.50132" lon="0.56273">
        <ele>122.36000006646</ele>
        <time>2021-03-18T08:48:04Z</time>
      </trkpt>
      <trkpt lat="46.50132" lon="0.56277">
        <ele>122.61298980564</ele>
        <time>2021-03-18T08:48:06Z</time>
      </trkpt>
      <trkpt lat="46.50132" lon="0.56281">
        <ele>122.51610314474</ele>
        <time>2021-03-18T08:48:08Z</time>
      </trkpt>
      <trkpt lat="46.50131" lon="0.56285">
        <ele>122.4299947517</ele>
        <time>2021-03-18T08:48:10Z</time>
      </trkpt>
      <trkpt lat="46.50131" lon="0.56289">
        <ele>121.79149245284</ele>
        <time>2021-03-18T08:48:12Z</time>
      </trkpt>
      <trkpt lat="46.50131" lon="0.56293">
        <ele>122.56017472036</ele>
        <time>2021-03-18T08:48:14Z</time>
      </trkpt>
      <trkpt lat="46.50131" lon="0.56297">
        <ele>121.65923258103</ele>
        <time>2021-03-18T08:48:16Z</time>
      </trkpt>
      <trkpt lat="46.5013" lon="0.563">
        <ele>121.89180529397</ele>
        <time>2021-03-18T08:48:18Z</time>
      </trkpt>
      <trkpt lat="46.5013" lon="0.56305">
        <ele>122.68028213084</ele>
        <time>2021-03-18T08:48:20Z</time>
      </trkpt>
      <trkpt lat="46.5013" lon="0.56309">
        <ele>122.07973945606</ele>
        <time>2021-03-18T08:48:22Z</time>
      </trkpt>
      <trkpt lat="46.50129" lon="0.56313">
        <ele>121.57032836415</ele>
        <time>2021-03-18T08:48:24Z</time>
      </trkpt>
      <trkpt lat="46.50129" lon="0.56317">
        <ele>121.96823684964</ele>
        <time>2021-03-18T08:48:26Z</time>
      </trkpt>
      <trkpt lat="46.50129" lon="0.5632">
        <ele>122.42896004487</ele>
        <time>2021-03-18T08:48:28Z</time>
      </trkpt>
      <trkpt lat="46.50129" lon="0.56325">
        <ele>123.06036545895</ele>
        <time>2021-03-18T08:48:30Z</time>
      </trkpt>
      <trkpt lat="46.50129" lon="0.56328">
        <ele>122.36392644979</ele>
        <time>2021-03-18T08:48:32Z</time>
      </trkpt>
      <trkpt lat="46.50129" lon="0.56332">
        <ele>121.33448489197</ele>
        <time>2021-03-18T08:48:34Z</time>
      </trkpt>
      <trkpt lat="46.50129" lon="0.56336">
        <ele>121.50815216172</ele>
        <time>2021-03-18T08:48:36Z</time>
      </trkpt>
      <trkpt lat="46.50128" lon="0.5634">
        <ele>121.72200811375</ele>
        <time>2021-03-18T08:48:38Z</time>
      </trkpt>
      <trkpt lat="46.50128" lon="0.56343">
        <ele>121.7138801245</ele>
        <time>2021-03-18T08:48:39Z</time>
      </trkpt>
      <trkpt lat="46.50128" lon="0.56346">
        <ele>121.47733416315</ele>
        <time>2021-03-18T08:48:41Z</time>
      </trkpt>
      <trkpt lat="46.50128" lon="0.5635">
        <ele>121.45905292034</ele>
        <time>2021-03-18T08:48:43Z</time>
      </trkpt>
      <trkpt lat="46.50128" lon="0.56354">
        <ele>121.78551204503</ele>
        <time>2021-03-18T08:48:45Z</time>
      </trkpt>
      <trkpt lat="46.50127" lon="0.56359">
        <ele>121.66764897574</ele>
        <time>2021-03-18T08:48:47Z</time>
      </trkpt>
      <trkpt lat="46.50127" lon="0.56362">
        <ele>121.55378046539</ele>
        <time>2021-03-18T08:48:49Z</time>
      </trkpt>
      <trkpt lat="46.50127" lon="0.56367">
        <ele>121.56332451664</ele>
        <time>2021-03-18T08:48:51Z</time>
      </trkpt>
      <trkpt lat="46.50127" lon="0.56371">
        <ele>121.70278694853</ele>
        <time>2021-03-18T08:48:53Z</time>
      </trkpt>
      <trkpt lat="46.50127" lon="0.56375">
        <ele>121.59356067702</ele>
        <time>2021-03-18T08:48:55Z</time>
      </trkpt>
      <trkpt lat="46.50126" lon="0.56379">
        <ele>120.90272377897</ele>
        <time>2021-03-18T08:48:57Z</time>
      </trkpt>
      <trkpt lat="46.50126" lon="0.56382">
        <ele>121.03294801619</ele>
        <time>2021-03-18T08:48:59Z</time>
      </trkpt>
      <trkpt lat="46.50126" lon="0.56386">
        <ele>121.36541104969</ele>
        <time>2021-03-18T08:49:01Z</time>
      </trkpt>
      <trkpt lat="46.50127" lon="0.56391">
        <ele>121.39415642433</ele>
        <time>2021-03-18T08:49:03Z</time>
      </trkpt>
      <trkpt lat="46.50126" lon="0.56395">
        <ele>121.27478400338</ele>
        <time>2021-03-18T08:49:05Z</time>
      </trkpt>
      <trkpt lat="46.50126" lon="0.56399">
        <ele>121.57082734164</ele>
        <time>2021-03-18T08:49:07Z</time>
      </trkpt>
      <trkpt lat="46.50126" lon="0.56402">
        <ele>121.52669977117</ele>
        <time>2021-03-18T08:49:09Z</time>
      </trkpt>
      <trkpt lat="46.50126" lon="0.56407">
        <ele>121.19757313281</ele>
        <time>2021-03-18T08:49:11Z</time>
      </trkpt>
      <trkpt lat="46.50125" lon="0.56411">
        <ele>121.24133170024</ele>
        <time>2021-03-18T08:49:13Z</time>
      </trkpt>
      <trkpt lat="46.50126" lon="0.56415">
        <ele>121.13175390381</ele>
        <time>2021-03-18T08:49:15Z</time>
      </trkpt>
      <trkpt lat="46.50126" lon="0.56418">
        <ele>120.22710543592</ele>
        <time>2021-03-18T08:49:17Z</time>
      </trkpt>
      <trkpt lat="46.50126" lon="0.56423">
        <ele>121.07193937991</ele>
        <time>2021-03-18T08:49:19Z</time>
      </trkpt>
      <trkpt lat="46.50126" lon="0.56426">
        <ele>119.91684148554</ele>
        <time>2021-03-18T08:49:21Z</time>
      </trkpt>
      <trkpt lat="46.50126" lon="0.56429">
        <ele>121.1469719056</ele>
        <time>2021-03-18T08:49:22Z</time>
      </trkpt>
      <trkpt lat="46.50127" lon="0.56432">
        <ele>121.03433325607</ele>
        <time>2021-03-18T08:49:24Z</time>
      </trkpt>
      <trkpt lat="46.50127" lon="0.56436">
        <ele>120.09928099718</ele>
        <time>2021-03-18T08:49:26Z</time>
      </trkpt>
      <trkpt lat="46.50127" lon="0.5644">
        <ele>120.48446546774</ele>
        <time>2021-03-18T08:49:28Z</time>
      </trkpt>
      <trkpt lat="46.50127" lon="0.56444">
        <ele>120.13254006952</ele>
        <time>2021-03-18T08:49:30Z</time>
      </trkpt>
      <trkpt lat="46.50127" lon="0.56448">
        <ele>120.41453705635</ele>
        <time>2021-03-18T08:49:32Z</time>
      </trkpt>
      <trkpt lat="46.50127" lon="0.56451">
        <ele>119.88805504516</ele>
        <time>2021-03-18T08:49:34Z</time>
      </trkpt>
      <trkpt lat="46.50127" lon="0.56455">
        <ele>120.13614951074</ele>
        <time>2021-03-18T08:49:36Z</time>
      </trkpt>
      <trkpt lat="46.50127" lon="0.56459">
        <ele>119.91177552938</ele>
        <time>2021-03-18T08:49:38Z</time>
      </trkpt>
      <trkpt lat="46.50127" lon="0.56463">
        <ele>120.22505786922</ele>
        <time>2021-03-18T08:49:40Z</time>
      </trkpt>
      <trkpt lat="46.50127" lon="0.56467">
        <ele>120.42510281131</ele>
        <time>2021-03-18T08:49:42Z</time>
      </trkpt>
      <trkpt lat="46.50127" lon="0.56471">
        <ele>120.35810072441</ele>
        <time>2021-03-18T08:49:44Z</time>
      </trkpt>
      <trkpt lat="46.50127" lon="0.56476">
        <ele>120.4256739039</ele>
        <time>2021-03-18T08:49:46Z</time>
      </trkpt>
      <trkpt lat="46.50127" lon="0.5648">
        <ele>119.50414173491</ele>
        <time>2021-03-18T08:49:48Z</time>
      </trkpt>
      <trkpt lat="46.50127" lon="0.56484">
        <ele>120.53799655102</ele>
        <time>2021-03-18T08:49:50Z</time>
      </trkpt>
      <trkpt lat="46.50126" lon="0.56488">
        <ele>120.27664739266</ele>
        <time>2021-03-18T08:49:52Z</time>
      </trkpt>
      <trkpt lat="46.50126" lon="0.56493">
        <ele>120.54853643104</ele>
        <time>2021-03-18T08:49:54Z</time>
      </trkpt>
      <trkpt lat="46.50126" lon="0.56498">
        <ele>120.33408816159</ele>
        <time>2021-03-18T08:49:56Z</time>
      </trkpt>
      <trkpt lat="46.50126" lon="0.56504">
        <ele>119.61731534638</ele>
        <time>2021-03-18T08:49:59Z</time>
      </trkpt>
      <trkpt lat="46.50126" lon="0.56508">
        <ele>119.83208091557</ele>
        <time>2021-03-18T08:50:01Z</time>
      </trkpt>
      <trkpt lat="46.50126" lon="0.56511">
        <ele>119.80423658993</ele>
        <time>2021-03-18T08:50:03Z</time>
      </trkpt>
      <trkpt lat="46.50125" lon="0.56515">
        <ele>120.0872453358</ele>
        <time>2021-03-18T08:50:05Z</time>
      </trkpt>
      <trkpt lat="46.50125" lon="0.56519">
        <ele>120.36115678586</ele>
        <time>2021-03-18T08:50:07Z</time>
      </trkpt>
      <trkpt lat="46.50125" lon="0.56523">
        <ele>120.36393595953</ele>
        <time>2021-03-18T08:50:09Z</time>
      </trkpt>
      <trkpt lat="46.50124" lon="0.56526">
        <ele>120.07265045773</ele>
        <time>2021-03-18T08:50:11Z</time>
      </trkpt>
      <trkpt lat="46.50123" lon="0.5653">
        <ele>119.7496235352</ele>
        <time>2021-03-18T08:50:13Z</time>
      </trkpt>
      <trkpt lat="46.50122" lon="0.56534">
        <ele>120.01281884871</ele>
        <time>2021-03-18T08:50:15Z</time>
      </trkpt>
      <trkpt lat="46.50121" lon="0.56538">
        <ele>120.31278477702</ele>
        <time>2021-03-18T08:50:17Z</time>
      </trkpt>
      <trkpt lat="46.5012" lon="0.56542">
        <ele>120.17489287816</ele>
        <time>2021-03-18T08:50:19Z</time>
      </trkpt>
      <trkpt lat="46.5012" lon="0.56545">
        <ele>120.28692178614</ele>
        <time>2021-03-18T08:50:21Z</time>
      </trkpt>
      <trkpt lat="46.50119" lon="0.56549">
        <ele>120.04599488247</ele>
        <time>2021-03-18T08:50:23Z</time>
      </trkpt>
      <trkpt lat="46.50118" lon="0.56553">
        <ele>120.14930758066</ele>
        <time>2021-03-18T08:50:25Z</time>
      </trkpt>
      <trkpt lat="46.50117" lon="0.56557">
        <ele>120.8154673269</ele>
        <time>2021-03-18T08:50:27Z</time>
      </trkpt>
      <trkpt lat="46.50116" lon="0.56561">
        <ele>120.63157257438</ele>
        <time>2021-03-18T08:50:29Z</time>
      </trkpt>
      <trkpt lat="46.50115" lon="0.56565">
        <ele>120.84310016874</ele>
        <time>2021-03-18T08:50:31Z</time>
      </trkpt>
      <trkpt lat="46.50114" lon="0.56569">
        <ele>120.97621874232</ele>
        <time>2021-03-18T08:50:33Z</time>
      </trkpt>
      <trkpt lat="46.50114" lon="0.56572">
        <ele>120.47669815831</ele>
        <time>2021-03-18T08:50:35Z</time>
      </trkpt>
      <trkpt lat="46.50113" lon="0.56576">
        <ele>120.86339073908</ele>
        <time>2021-03-18T08:50:37Z</time>
      </trkpt>
      <trkpt lat="46.50112" lon="0.5658">
        <ele>121.32585116848</ele>
        <time>2021-03-18T08:50:39Z</time>
      </trkpt>
      <trkpt lat="46.50111" lon="0.56584">
        <ele>120.67160402704</ele>
        <time>2021-03-18T08:50:41Z</time>
      </trkpt>
      <trkpt lat="46.5011" lon="0.56588">
        <ele>120.78409858327</ele>
        <time>2021-03-18T08:50:43Z</time>
      </trkpt>
      <trkpt lat="46.5011" lon="0.56591">
        <ele>120.91144925915</ele>
        <time>2021-03-18T08:50:45Z</time>
      </trkpt>
      <trkpt lat="46.50109" lon="0.56595">
        <ele>121.05099976342</ele>
        <time>2021-03-18T08:50:47Z</time>
      </trkpt>
      <trkpt lat="46.50109" lon="0.56598">
        <ele>121.25747985393</ele>
        <time>2021-03-18T08:50:49Z</time>
      </trkpt>
      <trkpt lat="46.50108" lon="0.56602">
        <ele>121.49488853011</ele>
        <time>2021-03-18T08:50:51Z</time>
      </trkpt>
      <trkpt lat="46.50108" lon="0.56606">
        <ele>121.34135240037</ele>
        <time>2021-03-18T08:50:53Z</time>
      </trkpt>
      <trkpt lat="46.50107" lon="0.5661">
        <ele>121.34785129782</ele>
        <time>2021-03-18T08:50:55Z</time>
      </trkpt>
      <trkpt lat="46.50106" lon="0.56614">
        <ele>120.88688942883</ele>
        <time>2021-03-18T08:50:57Z</time>
      </trkpt>
      <trkpt lat="46.50106" lon="0.56618">
        <ele>121.77503484488</ele>
        <time>2021-03-18T08:50:59Z</time>
      </trkpt>
      <trkpt lat="46.50105" lon="0.56621">
        <ele>121.7374447342</ele>
        <time>2021-03-18T08:51:01Z</time>
      </trkpt>
      <trkpt lat="46.50105" lon="0.56625">
        <ele>122.16725295782</ele>
        <time>2021-03-18T08:51:03Z</time>
      </trkpt>
      <trkpt lat="46.50104" lon="0.56628">
        <ele>122.46826697607</ele>
        <time>2021-03-18T08:51:05Z</time>
      </trkpt>
      <trkpt lat="46.50103" lon="0.56632">
        <ele>122.38577610347</ele>
        <time>2021-03-18T08:51:07Z</time>
      </trkpt>
      <trkpt lat="46.50103" lon="0.56636">
        <ele>122.35719634313</ele>
        <time>2021-03-18T08:51:09Z</time>
      </trkpt>
      <trkpt lat="46.50102" lon="0.5664">
        <ele>122.35816315282</ele>
        <time>2021-03-18T08:51:11Z</time>
      </trkpt>
      <trkpt lat="46.50102" lon="0.56643">
        <ele>122.64558477793</ele>
        <time>2021-03-18T08:51:13Z</time>
      </trkpt>
      <trkpt lat="46.50101" lon="0.56647">
        <ele>122.9108855892</ele>
        <time>2021-03-18T08:51:15Z</time>
      </trkpt>
      <trkpt lat="46.50101" lon="0.56651">
        <ele>122.40629736241</ele>
        <time>2021-03-18T08:51:17Z</time>
      </trkpt>
      <trkpt lat="46.50101" lon="0.56655">
        <ele>123.39292673487</ele>
        <time>2021-03-18T08:51:19Z</time>
      </trkpt>
      <trkpt lat="46.501" lon="0.56658">
        <ele>122.70819303766</ele>
        <time>2021-03-18T08:51:21Z</time>
      </trkpt>
      <trkpt lat="46.501" lon="0.56662">
        <ele>123.42048790585</ele>
        <time>2021-03-18T08:51:23Z</time>
      </trkpt>
      <trkpt lat="46.50099" lon="0.56665">
        <ele>123.39600733016</ele>
        <time>2021-03-18T08:51:25Z</time>
      </trkpt>
      <trkpt lat="46.50099" lon="0.5667">
        <ele>123.01787086017</ele>
        <time>2021-03-18T08:51:27Z</time>
      </trkpt>
      <trkpt lat="46.50098" lon="0.56672">
        <ele>122.59355253633</ele>
        <time>2021-03-18T08:51:29Z</time>
      </trkpt>
      <trkpt lat="46.50098" lon="0.56676">
        <ele>123.27008521836</ele>
        <time>2021-03-18T08:51:31Z</time>
      </trkpt>
      <trkpt lat="46.50097" lon="0.56681">
        <ele>123.4978512479</ele>
        <time>2021-03-18T08:51:33Z</time>
      </trkpt>
      <trkpt lat="46.50097" lon="0.56684">
        <ele>123.3112117406</ele>
        <time>2021-03-18T08:51:35Z</time>
      </trkpt>
      <trkpt lat="46.50096" lon="0.56687">
        <ele>122.8779009534</ele>
        <time>2021-03-18T08:51:37Z</time>
      </trkpt>
      <trkpt lat="46.50096" lon="0.56691">
        <ele>123.62775888573</ele>
        <time>2021-03-18T08:51:39Z</time>
      </trkpt>
      <trkpt lat="46.50095" lon="0.56695">
        <ele>124.19185499754</ele>
        <time>2021-03-18T08:51:41Z</time>
      </trkpt>
      <trkpt lat="46.50095" lon="0.56697">
        <ele>123.81641204469</ele>
        <time>2021-03-18T08:51:43Z</time>
      </trkpt>
      <trkpt lat="46.50094" lon="0.56701">
        <ele>124.10698619671</ele>
        <time>2021-03-18T08:51:45Z</time>
      </trkpt>
      <trkpt lat="46.50094" lon="0.56705">
        <ele>124.21267808694</ele>
        <time>2021-03-18T08:51:47Z</time>
      </trkpt>
      <trkpt lat="46.50093" lon="0.56709">
        <ele>124.17591466196</ele>
        <time>2021-03-18T08:51:49Z</time>
      </trkpt>
      <trkpt lat="46.50093" lon="0.56712">
        <ele>123.8353807684</ele>
        <time>2021-03-18T08:51:51Z</time>
      </trkpt>
      <trkpt lat="46.50092" lon="0.56716">
        <ele>124.1602481734</ele>
        <time>2021-03-18T08:51:53Z</time>
      </trkpt>
      <trkpt lat="46.50092" lon="0.56719">
        <ele>124.28003521729</ele>
        <time>2021-03-18T08:51:55Z</time>
      </trkpt>
      <trkpt lat="46.50091" lon="0.56723">
        <ele>124.36454422586</ele>
        <time>2021-03-18T08:51:57Z</time>
      </trkpt>
      <trkpt lat="46.50091" lon="0.56727">
        <ele>124.75017415918</ele>
        <time>2021-03-18T08:51:59Z</time>
      </trkpt>
      <trkpt lat="46.5009" lon="0.5673">
        <ele>124.78976549767</ele>
        <time>2021-03-18T08:52:01Z</time>
      </trkpt>
      <trkpt lat="46.50089" lon="0.56734">
        <ele>124.48043947946</ele>
        <time>2021-03-18T08:52:03Z</time>
      </trkpt>
      <trkpt lat="46.50089" lon="0.56737">
        <ele>124.58114980254</ele>
        <time>2021-03-18T08:52:05Z</time>
      </trkpt>
      <trkpt lat="46.50088" lon="0.56741">
        <ele>125.20223037805</ele>
        <time>2021-03-18T08:52:07Z</time>
      </trkpt>
      <trkpt lat="46.50088" lon="0.56744">
        <ele>124.71274714172</ele>
        <time>2021-03-18T08:52:09Z</time>
      </trkpt>
      <trkpt lat="46.50087" lon="0.56748">
        <ele>124.79920512717</ele>
        <time>2021-03-18T08:52:11Z</time>
      </trkpt>
      <trkpt lat="46.50086" lon="0.56752">
        <ele>125.53239535075</ele>
        <time>2021-03-18T08:52:13Z</time>
      </trkpt>
      <trkpt lat="46.50086" lon="0.56755">
        <ele>124.9080888899</ele>
        <time>2021-03-18T08:52:15Z</time>
      </trkpt>
      <trkpt lat="46.50085" lon="0.56758">
        <ele>124.92067596503</ele>
        <time>2021-03-18T08:52:17Z</time>
      </trkpt>
      <trkpt lat="46.50085" lon="0.56761">
        <ele>125.06718259118</ele>
        <time>2021-03-18T08:52:18Z</time>
      </trkpt>
      <trkpt lat="46.50084" lon="0.56765">
        <ele>124.89892578498</ele>
        <time>2021-03-18T08:52:20Z</time>
      </trkpt>
      <trkpt lat="46.50083" lon="0.56769">
        <ele>125.3852860136</ele>
        <time>2021-03-18T08:52:22Z</time>
      </trkpt>
      <trkpt lat="46.50083" lon="0.56772">
        <ele>125.41051376425</ele>
        <time>2021-03-18T08:52:24Z</time>
      </trkpt>
      <trkpt lat="46.50082" lon="0.56776">
        <ele>125.70326913521</ele>
        <time>2021-03-18T08:52:26Z</time>
      </trkpt>
      <trkpt lat="46.50082" lon="0.56781">
        <ele>125.26572709531</ele>
        <time>2021-03-18T08:52:28Z</time>
      </trkpt>
      <trkpt lat="46.50081" lon="0.56784">
        <ele>125.48463471327</ele>
        <time>2021-03-18T08:52:30Z</time>
      </trkpt>
      <trkpt lat="46.5008" lon="0.56788">
        <ele>125.44439041894</ele>
        <time>2021-03-18T08:52:32Z</time>
      </trkpt>
      <trkpt lat="46.50079" lon="0.56792">
        <ele>125.26249294914</ele>
        <time>2021-03-18T08:52:34Z</time>
      </trkpt>
      <trkpt lat="46.50079" lon="0.56796">
        <ele>125.91980075836</ele>
        <time>2021-03-18T08:52:36Z</time>
      </trkpt>
      <trkpt lat="46.50078" lon="0.568">
        <ele>125.40382716246</ele>
        <time>2021-03-18T08:52:38Z</time>
      </trkpt>
      <trkpt lat="46.50077" lon="0.56804">
        <ele>125.64272502065</ele>
        <time>2021-03-18T08:52:40Z</time>
      </trkpt>
      <trkpt lat="46.50077" lon="0.56808">
        <ele>125.70464628097</ele>
        <time>2021-03-18T08:52:42Z</time>
      </trkpt>
      <trkpt lat="46.50076" lon="0.56811">
        <ele>125.76696808636</ele>
        <time>2021-03-18T08:52:44Z</time>
      </trkpt>
      <trkpt lat="46.50075" lon="0.56815">
        <ele>125.9882268142</ele>
        <time>2021-03-18T08:52:46Z</time>
      </trkpt>
      <trkpt lat="46.50075" lon="0.56818">
        <ele>125.97386130877</ele>
        <time>2021-03-18T08:52:48Z</time>
      </trkpt>
      <trkpt lat="46.50075" lon="0.56822">
        <ele>125.32097470947</ele>
        <time>2021-03-18T08:52:50Z</time>
      </trkpt>
      <trkpt lat="46.50074" lon="0.56826">
        <ele>125.42105758376</ele>
        <time>2021-03-18T08:52:52Z</time>
      </trkpt>
      <trkpt lat="46.50073" lon="0.5683">
        <ele>125.62390288245</ele>
        <time>2021-03-18T08:52:54Z</time>
      </trkpt>
      <trkpt lat="46.50072" lon="0.56834">
        <ele>125.89743015729</ele>
        <time>2021-03-18T08:52:56Z</time>
      </trkpt>
      <trkpt lat="46.50072" lon="0.56837">
        <ele>125.82694009691</ele>
        <time>2021-03-18T08:52:58Z</time>
      </trkpt>
      <trkpt lat="46.50072" lon="0.5684">
        <ele>125.60566768982</ele>
        <time>2021-03-18T08:52:59Z</time>
      </trkpt>
      <trkpt lat="46.50072" lon="0.56843">
        <ele>125.87847926747</ele>
        <time>2021-03-18T08:53:01Z</time>
      </trkpt>
      <trkpt lat="46.50071" lon="0.56847">
        <ele>125.47668541037</ele>
        <time>2021-03-18T08:53:03Z</time>
      </trkpt>
      <trkpt lat="46.50069" lon="0.56851">
        <ele>125.80076379608</ele>
        <time>2021-03-18T08:53:06Z</time>
      </trkpt>
      <trkpt lat="46.50068" lon="0.56855">
        <ele>125.69776221272</ele>
        <time>2021-03-18T08:53:08Z</time>
      </trkpt>
      <trkpt lat="46.50068" lon="0.56858">
        <ele>126.32539608795</ele>
        <time>2021-03-18T08:53:10Z</time>
      </trkpt>
      <trkpt lat="46.50068" lon="0.56862">
        <ele>126.30982403643</ele>
        <time>2021-03-18T08:53:12Z</time>
      </trkpt>
      <trkpt lat="46.50068" lon="0.56865">
        <ele>126.28906905372</ele>
        <time>2021-03-18T08:53:14Z</time>
      </trkpt>
      <trkpt lat="46.50068" lon="0.56869">
        <ele>125.91478103679</ele>
        <time>2021-03-18T08:53:16Z</time>
      </trkpt>
      <trkpt lat="46.50067" lon="0.56873">
        <ele>125.89726981707</ele>
        <time>2021-03-18T08:53:18Z</time>
      </trkpt>
      <trkpt lat="46.50067" lon="0.56876">
        <ele>125.97442905512</ele>
        <time>2021-03-18T08:53:20Z</time>
      </trkpt>
      <trkpt lat="46.50067" lon="0.5688">
        <ele>126.25191794336</ele>
        <time>2021-03-18T08:53:22Z</time>
      </trkpt>
      <trkpt lat="46.50066" lon="0.56884">
        <ele>125.80517078564</ele>
        <time>2021-03-18T08:53:24Z</time>
      </trkpt>
      <trkpt lat="46.50066" lon="0.56887">
        <ele>125.13980046194</ele>
        <time>2021-03-18T08:53:26Z</time>
      </trkpt>
      <trkpt lat="46.50066" lon="0.56891">
        <ele>125.90961193573</ele>
        <time>2021-03-18T08:53:28Z</time>
      </trkpt>
      <trkpt lat="46.50066" lon="0.56895">
        <ele>126.00093697943</ele>
        <time>2021-03-18T08:53:30Z</time>
      </trkpt>
      <trkpt lat="46.50065" lon="0.569">
        <ele>125.74246635195</ele>
        <time>2021-03-18T08:53:33Z</time>
      </trkpt>
      <trkpt lat="46.50065" lon="0.56904">
        <ele>125.84583571553</ele>
        <time>2021-03-18T08:53:35Z</time>
      </trkpt>
      <trkpt lat="46.50065" lon="0.56907">
        <ele>126.31044708844</ele>
        <time>2021-03-18T08:53:37Z</time>
      </trkpt>
      <trkpt lat="46.50065" lon="0.56912">
        <ele>125.90259941295</ele>
        <time>2021-03-18T08:53:39Z</time>
      </trkpt>
      <trkpt lat="46.50065" lon="0.56915">
        <ele>126.2829966275</ele>
        <time>2021-03-18T08:53:41Z</time>
      </trkpt>
      <trkpt lat="46.50065" lon="0.56918">
        <ele>125.69896691293</ele>
        <time>2021-03-18T08:53:43Z</time>
      </trkpt>
      <trkpt lat="46.50064" lon="0.56922">
        <ele>125.69105203915</ele>
        <time>2021-03-18T08:53:45Z</time>
      </trkpt>
      <trkpt lat="46.50064" lon="0.56927">
        <ele>125.49537269957</ele>
        <time>2021-03-18T08:53:47Z</time>
      </trkpt>
      <trkpt lat="46.50064" lon="0.56931">
        <ele>125.30514190439</ele>
        <time>2021-03-18T08:53:49Z</time>
      </trkpt>
      <trkpt lat="46.50063" lon="0.56934">
        <ele>125.72366052773</ele>
        <time>2021-03-18T08:53:51Z</time>
      </trkpt>
      <trkpt lat="46.50063" lon="0.56938">
        <ele>125.58628948219</ele>
        <time>2021-03-18T08:53:53Z</time>
      </trkpt>
      <trkpt lat="46.50062" lon="0.56942">
        <ele>125.77743445802</ele>
        <time>2021-03-18T08:53:55Z</time>
      </trkpt>
      <trkpt lat="46.50062" lon="0.56946">
        <ele>125.94980192278</ele>
        <time>2021-03-18T08:53:57Z</time>
      </trkpt>
      <trkpt lat="46.50061" lon="0.56949">
        <ele>125.78465124685</ele>
        <time>2021-03-18T08:53:59Z</time>
      </trkpt>
      <trkpt lat="46.50061" lon="0.56953">
        <ele>125.64706799667</ele>
        <time>2021-03-18T08:54:01Z</time>
      </trkpt>
      <trkpt lat="46.5006" lon="0.56957">
        <ele>125.75635255594</ele>
        <time>2021-03-18T08:54:03Z</time>
      </trkpt>
      <trkpt lat="46.50059" lon="0.5696">
        <ele>125.45294596627</ele>
        <time>2021-03-18T08:54:05Z</time>
      </trkpt>
      <trkpt lat="46.50059" lon="0.56964">
        <ele>125.66890562419</ele>
        <time>2021-03-18T08:54:07Z</time>
      </trkpt>
      <trkpt lat="46.50059" lon="0.56967">
        <ele>125.27665864117</ele>
        <time>2021-03-18T08:54:09Z</time>
      </trkpt>
      <trkpt lat="46.50058" lon="0.56971">
        <ele>125.71076179668</ele>
        <time>2021-03-18T08:54:12Z</time>
      </trkpt>
      <trkpt lat="46.50058" lon="0.56974">
        <ele>125.97762392648</ele>
        <time>2021-03-18T08:54:14Z</time>
      </trkpt>
      <trkpt lat="46.50057" lon="0.56978">
        <ele>125.98694668524</ele>
        <time>2021-03-18T08:54:17Z</time>
      </trkpt>
      <trkpt lat="46.50057" lon="0.56982">
        <ele>126.37239378225</ele>
        <time>2021-03-18T08:54:19Z</time>
      </trkpt>
      <trkpt lat="46.50056" lon="0.56985">
        <ele>126.21367787663</ele>
        <time>2021-03-18T08:54:21Z</time>
      </trkpt>
      <trkpt lat="46.50056" lon="0.56988">
        <ele>125.50793299545</ele>
        <time>2021-03-18T08:54:23Z</time>
      </trkpt>
      <trkpt lat="46.50055" lon="0.56991">
        <ele>125.37360052485</ele>
        <time>2021-03-18T08:54:25Z</time>
      </trkpt>
      <trkpt lat="46.50055" lon="0.56994">
        <ele>125.69144657906</ele>
        <time>2021-03-18T08:54:27Z</time>
      </trkpt>
      <trkpt lat="46.50054" lon="0.56997">
        <ele>125.54430059996</ele>
        <time>2021-03-18T08:54:29Z</time>
      </trkpt>
      <trkpt lat="46.50053" lon="0.57">
        <ele>125.61870593857</ele>
        <time>2021-03-18T08:54:31Z</time>
      </trkpt>
      <trkpt lat="46.50053" lon="0.57003">
        <ele>125.99620229099</ele>
        <time>2021-03-18T08:54:34Z</time>
      </trkpt>
      <trkpt lat="46.50053" lon="0.57007">
        <ele>125.42269171402</ele>
        <time>2021-03-18T08:54:37Z</time>
      </trkpt>
      <trkpt lat="46.50052" lon="0.5701">
        <ele>125.47010937706</ele>
        <time>2021-03-18T08:54:39Z</time>
      </trkpt>
      <trkpt lat="46.50051" lon="0.57013">
        <ele>125.28694572579</ele>
        <time>2021-03-18T08:54:41Z</time>
      </trkpt>
      <trkpt lat="46.50051" lon="0.57016">
        <ele>125.57627265994</ele>
        <time>2021-03-18T08:54:44Z</time>
      </trkpt>
      <trkpt lat="46.50051" lon="0.57018">
        <ele>125.59914659336</ele>
        <time>2021-03-18T08:54:49Z</time>
      </trkpt>
      <trkpt lat="46.50052" lon="0.57021">
        <ele>125.38180013932</ele>
        <time>2021-03-18T08:54:55Z</time>
      </trkpt>
      <trkpt lat="46.50053" lon="0.57024">
        <ele>125.93411718402</ele>
        <time>2021-03-18T08:54:57Z</time>
      </trkpt>
      <trkpt lat="46.50053" lon="0.57027">
        <ele>124.98495557066</ele>
        <time>2021-03-18T08:55:00Z</time>
      </trkpt>
      <trkpt lat="46.50052" lon="0.57031">
        <ele>125.38465056382</ele>
        <time>2021-03-18T08:55:02Z</time>
      </trkpt>
      <trkpt lat="46.50052" lon="0.57036">
        <ele>125.67870833911</ele>
        <time>2021-03-18T08:55:05Z</time>
      </trkpt>
      <trkpt lat="46.50052" lon="0.57039">
        <ele>125.09147719108</ele>
        <time>2021-03-18T08:55:07Z</time>
      </trkpt>
      <trkpt lat="46.50051" lon="0.57043">
        <ele>125.54453768022</ele>
        <time>2021-03-18T08:55:09Z</time>
      </trkpt>
      <trkpt lat="46.50051" lon="0.57046">
        <ele>125.11815156695</ele>
        <time>2021-03-18T08:55:11Z</time>
      </trkpt>
      <trkpt lat="46.5005" lon="0.57049">
        <ele>125.20989301801</ele>
        <time>2021-03-18T08:55:13Z</time>
      </trkpt>
      <trkpt lat="46.5005" lon="0.57052">
        <ele>124.9917894192</ele>
        <time>2021-03-18T08:55:15Z</time>
      </trkpt>
      <trkpt lat="46.5005" lon="0.57056">
        <ele>124.53350874688</ele>
        <time>2021-03-18T08:55:17Z</time>
      </trkpt>
      <trkpt lat="46.50049" lon="0.5706">
        <ele>124.85126229841</ele>
        <time>2021-03-18T08:55:19Z</time>
      </trkpt>
      <trkpt lat="46.50049" lon="0.57063">
        <ele>124.80870332755</ele>
        <time>2021-03-18T08:55:21Z</time>
      </trkpt>
      <trkpt lat="46.50048" lon="0.57066">
        <ele>124.62672914285</ele>
        <time>2021-03-18T08:55:23Z</time>
      </trkpt>
      <trkpt lat="46.50048" lon="0.5707">
        <ele>124.52024415229</ele>
        <time>2021-03-18T08:55:25Z</time>
      </trkpt>
      <trkpt lat="46.50048" lon="0.57074">
        <ele>124.46074281074</ele>
        <time>2021-03-18T08:55:27Z</time>
      </trkpt>
      <trkpt lat="46.50047" lon="0.57078">
        <ele>124.14713405352</ele>
        <time>2021-03-18T08:55:29Z</time>
      </trkpt>
      <trkpt lat="46.50047" lon="0.57081">
        <ele>123.93863915466</ele>
        <time>2021-03-18T08:55:31Z</time>
      </trkpt>
      <trkpt lat="46.50046" lon="0.57085">
        <ele>123.96748661064</ele>
        <time>2021-03-18T08:55:33Z</time>
      </trkpt>
      <trkpt lat="46.50046" lon="0.57089">
        <ele>123.97750323359</ele>
        <time>2021-03-18T08:55:35Z</time>
      </trkpt>
      <trkpt lat="46.50046" lon="0.57092">
        <ele>123.70289166085</ele>
        <time>2021-03-18T08:55:37Z</time>
      </trkpt>
      <trkpt lat="46.50045" lon="0.57096">
        <ele>124.2977965679</ele>
        <time>2021-03-18T08:55:39Z</time>
      </trkpt>
      <trkpt lat="46.50045" lon="0.571">
        <ele>123.56522677559</ele>
        <time>2021-03-18T08:55:41Z</time>
      </trkpt>
      <trkpt lat="46.50045" lon="0.57104">
        <ele>123.68002247717</ele>
        <time>2021-03-18T08:55:43Z</time>
      </trkpt>
      <trkpt lat="46.50044" lon="0.57108">
        <ele>124.07985760272</ele>
        <time>2021-03-18T08:55:45Z</time>
      </trkpt>
      <trkpt lat="46.50044" lon="0.57112">
        <ele>123.66283259541</ele>
        <time>2021-03-18T08:55:47Z</time>
      </trkpt>
      <trkpt lat="46.50044" lon="0.57116">
        <ele>123.81060699001</ele>
        <time>2021-03-18T08:55:49Z</time>
      </trkpt>
      <trkpt lat="46.50043" lon="0.57119">
        <ele>123.35703541152</ele>
        <time>2021-03-18T08:55:51Z</time>
      </trkpt>
      <trkpt lat="46.50043" lon="0.57124">
        <ele>123.04909691308</ele>
        <time>2021-03-18T08:55:53Z</time>
      </trkpt>
      <trkpt lat="46.50043" lon="0.57128">
        <ele>123.47742769867</ele>
        <time>2021-03-18T08:55:55Z</time>
      </trkpt>
      <trkpt lat="46.50043" lon="0.57131">
        <ele>123.3807536941</ele>
        <time>2021-03-18T08:55:57Z</time>
      </trkpt>
      <trkpt lat="46.50042" lon="0.57134">
        <ele>123.6314739706</ele>
        <time>2021-03-18T08:55:59Z</time>
      </trkpt>
      <trkpt lat="46.50042" lon="0.57138">
        <ele>123.31041531544</ele>
        <time>2021-03-18T08:56:01Z</time>
      </trkpt>
      <trkpt lat="46.50042" lon="0.57142">
        <ele>123.29945555888</ele>
        <time>2021-03-18T08:56:03Z</time>
      </trkpt>
      <trkpt lat="46.50041" lon="0.57146">
        <ele>123.14565151278</ele>
        <time>2021-03-18T08:56:05Z</time>
      </trkpt>
      <trkpt lat="46.50041" lon="0.57149">
        <ele>123.21008959971</ele>
        <time>2021-03-18T08:56:07Z</time>
      </trkpt>
      <trkpt lat="46.5004" lon="0.57153">
        <ele>123.14300335292</ele>
        <time>2021-03-18T08:56:09Z</time>
      </trkpt>
      <trkpt lat="46.5004" lon="0.57157">
        <ele>123.52995250188</ele>
        <time>2021-03-18T08:56:11Z</time>
      </trkpt>
      <trkpt lat="46.50039" lon="0.5716">
        <ele>123.40177000593</ele>
        <time>2021-03-18T08:56:13Z</time>
      </trkpt>
      <trkpt lat="46.50039" lon="0.57164">
        <ele>122.88028724212</ele>
        <time>2021-03-18T08:56:15Z</time>
      </trkpt>
      <trkpt lat="46.50039" lon="0.57168">
        <ele>122.97762206383</ele>
        <time>2021-03-18T08:56:17Z</time>
      </trkpt>
      <trkpt lat="46.50038" lon="0.57172">
        <ele>122.71268642414</ele>
        <time>2021-03-18T08:56:19Z</time>
      </trkpt>
      <trkpt lat="46.50037" lon="0.57176">
        <ele>123.25471942127</ele>
        <time>2021-03-18T08:56:21Z</time>
      </trkpt>
      <trkpt lat="46.50037" lon="0.5718">
        <ele>123.40362660959</ele>
        <time>2021-03-18T08:56:23Z</time>
      </trkpt>
      <trkpt lat="46.50037" lon="0.57184">
        <ele>122.73801658303</ele>
        <time>2021-03-18T08:56:25Z</time>
      </trkpt>
      <trkpt lat="46.50037" lon="0.57188">
        <ele>122.69681375008</ele>
        <time>2021-03-18T08:56:27Z</time>
      </trkpt>
      <trkpt lat="46.50037" lon="0.57192">
        <ele>123.01227377914</ele>
        <time>2021-03-18T08:56:29Z</time>
      </trkpt>
      <trkpt lat="46.50036" lon="0.57196">
        <ele>122.82115891762</ele>
        <time>2021-03-18T08:56:31Z</time>
      </trkpt>
      <trkpt lat="46.50036" lon="0.57199">
        <ele>123.01760775223</ele>
        <time>2021-03-18T08:56:33Z</time>
      </trkpt>
      <trkpt lat="46.50035" lon="0.57204">
        <ele>123.15813809168</ele>
        <time>2021-03-18T08:56:35Z</time>
      </trkpt>
      <trkpt lat="46.50035" lon="0.57208">
        <ele>123.67331323028</ele>
        <time>2021-03-18T08:56:37Z</time>
      </trkpt>
      <trkpt lat="46.50034" lon="0.57211">
        <ele>122.55827205349</ele>
        <time>2021-03-18T08:56:39Z</time>
      </trkpt>
      <trkpt lat="46.50034" lon="0.57215">
        <ele>122.46386535931</ele>
        <time>2021-03-18T08:56:41Z</time>
      </trkpt>
      <trkpt lat="46.50033" lon="0.57219">
        <ele>122.76248973049</ele>
        <time>2021-03-18T08:56:43Z</time>
      </trkpt>
      <trkpt lat="46.50033" lon="0.57223">
        <ele>123.01294210553</ele>
        <time>2021-03-18T08:56:45Z</time>
      </trkpt>
      <trkpt lat="46.50033" lon="0.57227">
        <ele>123.19708433468</ele>
        <time>2021-03-18T08:56:47Z</time>
      </trkpt>
      <trkpt lat="46.50032" lon="0.57231">
        <ele>123.21979012527</ele>
        <time>2021-03-18T08:56:49Z</time>
      </trkpt>
      <trkpt lat="46.50031" lon="0.57235">
        <ele>122.4767094478</ele>
        <time>2021-03-18T08:56:51Z</time>
      </trkpt>
      <trkpt lat="46.50031" lon="0.57239">
        <ele>122.92133079376</ele>
        <time>2021-03-18T08:56:53Z</time>
      </trkpt>
      <trkpt lat="46.50031" lon="0.57242">
        <ele>122.64100059308</ele>
        <time>2021-03-18T08:56:55Z</time>
      </trkpt>
      <trkpt lat="46.50031" lon="0.57246">
        <ele>123.06139164884</ele>
        <time>2021-03-18T08:56:57Z</time>
      </trkpt>
      <trkpt lat="46.50031" lon="0.57249">
        <ele>122.70612993836</ele>
        <time>2021-03-18T08:56:59Z</time>
      </trkpt>
      <trkpt lat="46.50029" lon="0.57253">
        <ele>122.47648175526</ele>
        <time>2021-03-18T08:57:01Z</time>
      </trkpt>
      <trkpt lat="46.50029" lon="0.57257">
        <ele>122.70046321116</ele>
        <time>2021-03-18T08:57:03Z</time>
      </trkpt>
      <trkpt lat="46.50028" lon="0.5726">
        <ele>123.53989920579</ele>
        <time>2021-03-18T08:57:05Z</time>
      </trkpt>
      <trkpt lat="46.50028" lon="0.57264">
        <ele>122.62008976284</ele>
        <time>2021-03-18T08:57:07Z</time>
      </trkpt>
      <trkpt lat="46.50027" lon="0.57268">
        <ele>122.6377526857</ele>
        <time>2021-03-18T08:57:09Z</time>
      </trkpt>
      <trkpt lat="46.50026" lon="0.57272">
        <ele>123.01684229355</ele>
        <time>2021-03-18T08:57:11Z</time>
      </trkpt>
      <trkpt lat="46.50026" lon="0.57276">
        <ele>123.35944996309</ele>
        <time>2021-03-18T08:57:13Z</time>
      </trkpt>
      <trkpt lat="46.50025" lon="0.57279">
        <ele>123.12374412175</ele>
        <time>2021-03-18T08:57:15Z</time>
      </trkpt>
      <trkpt lat="46.50025" lon="0.57283">
        <ele>122.58078088984</ele>
        <time>2021-03-18T08:57:17Z</time>
      </trkpt>
      <trkpt lat="46.50024" lon="0.57287">
        <ele>122.59245070908</ele>
        <time>2021-03-18T08:57:19Z</time>
      </trkpt>
      <trkpt lat="46.50024" lon="0.57291">
        <ele>122.46396169998</ele>
        <time>2021-03-18T08:57:21Z</time>
      </trkpt>
      <trkpt lat="46.50023" lon="0.57294">
        <ele>122.66507044807</ele>
        <time>2021-03-18T08:57:23Z</time>
      </trkpt>
      <trkpt lat="46.50023" lon="0.57298">
        <ele>123.10093179438</ele>
        <time>2021-03-18T08:57:25Z</time>
      </trkpt>
      <trkpt lat="46.50022" lon="0.57302">
        <ele>123.29190256167</ele>
        <time>2021-03-18T08:57:27Z</time>
      </trkpt>
      <trkpt lat="46.50022" lon="0.57306">
        <ele>122.8544917535</ele>
        <time>2021-03-18T08:57:29Z</time>
      </trkpt>
      <trkpt lat="46.50021" lon="0.57309">
        <ele>122.45384103153</ele>
        <time>2021-03-18T08:57:31Z</time>
      </trkpt>
      <trkpt lat="46.50023" lon="0.57313">
        <ele>122.32747950032</ele>
        <time>2021-03-18T08:57:33Z</time>
      </trkpt>
      <trkpt lat="46.50025" lon="0.57316">
        <ele>122.07434042543</ele>
        <time>2021-03-18T08:57:35Z</time>
      </trkpt>
      <trkpt lat="46.50027" lon="0.57318">
        <ele>122.35244766623</ele>
        <time>2021-03-18T08:57:37Z</time>
      </trkpt>
      <trkpt lat="46.50029" lon="0.57319">
        <ele>122.24792960566</ele>
        <time>2021-03-18T08:57:39Z</time>
      </trkpt>
      <trkpt lat="46.50031" lon="0.57321">
        <ele>122.21645498835</ele>
        <time>2021-03-18T08:57:41Z</time>
      </trkpt>
      <trkpt lat="46.50033" lon="0.57324">
        <ele>122.54482143372</ele>
        <time>2021-03-18T08:57:43Z</time>
      </trkpt>
      <trkpt lat="46.50036" lon="0.57324">
        <ele>123.31842791382</ele>
        <time>2021-03-18T08:57:45Z</time>
      </trkpt>
      <trkpt lat="46.50038" lon="0.57325">
        <ele>123.3620435195</ele>
        <time>2021-03-18T08:57:47Z</time>
      </trkpt>
      <trkpt lat="46.50041" lon="0.57326">
        <ele>123.46906356327</ele>
        <time>2021-03-18T08:57:49Z</time>
      </trkpt>
      <trkpt lat="46.50043" lon="0.57328">
        <ele>123.05292890407</ele>
        <time>2021-03-18T08:57:51Z</time>
      </trkpt>
      <trkpt lat="46.50046" lon="0.57329">
        <ele>122.92129555997</ele>
        <time>2021-03-18T08:57:53Z</time>
      </trkpt>
      <trkpt lat="46.5005" lon="0.5733">
        <ele>122.9356203638</ele>
        <time>2021-03-18T08:57:55Z</time>
      </trkpt>
      <trkpt lat="46.50052" lon="0.57331">
        <ele>122.7669193875</ele>
        <time>2021-03-18T08:57:57Z</time>
      </trkpt>
      <trkpt lat="46.50054" lon="0.57333">
        <ele>123.69094690308</ele>
        <time>2021-03-18T08:57:59Z</time>
      </trkpt>
      <trkpt lat="46.50056" lon="0.57334">
        <ele>123.68292134535</ele>
        <time>2021-03-18T08:58:01Z</time>
      </trkpt>
      <trkpt lat="46.50059" lon="0.57335">
        <ele>123.43324769475</ele>
        <time>2021-03-18T08:58:03Z</time>
      </trkpt>
      <trkpt lat="46.50061" lon="0.57336">
        <ele>123.59827244096</ele>
        <time>2021-03-18T08:58:05Z</time>
      </trkpt>
      <trkpt lat="46.50064" lon="0.57337">
        <ele>123.93947547022</ele>
        <time>2021-03-18T08:58:07Z</time>
      </trkpt>
      <trkpt lat="46.50066" lon="0.57339">
        <ele>123.72159130685</ele>
        <time>2021-03-18T08:58:09Z</time>
      </trkpt>
      <trkpt lat="46.50068" lon="0.5734">
        <ele>123.94386733789</ele>
        <time>2021-03-18T08:58:11Z</time>
      </trkpt>
      <trkpt lat="46.50071" lon="0.57342">
        <ele>124.07946295012</ele>
        <time>2021-03-18T08:58:13Z</time>
      </trkpt>
      <trkpt lat="46.50073" lon="0.57343">
        <ele>123.8751547737</ele>
        <time>2021-03-18T08:58:14Z</time>
      </trkpt>
      <trkpt lat="46.50075" lon="0.57344">
        <ele>123.7022438664</ele>
        <time>2021-03-18T08:58:16Z</time>
      </trkpt>
      <trkpt lat="46.50077" lon="0.57345">
        <ele>123.81004725024</ele>
        <time>2021-03-18T08:58:18Z</time>
      </trkpt>
      <trkpt lat="46.5008" lon="0.57347">
        <ele>123.80877816584</ele>
        <time>2021-03-18T08:58:20Z</time>
      </trkpt>
      <trkpt lat="46.50082" lon="0.57348">
        <ele>124.20477346424</ele>
        <time>2021-03-18T08:58:22Z</time>
      </trkpt>
      <trkpt lat="46.50086" lon="0.5735">
        <ele>123.88866231404</ele>
        <time>2021-03-18T08:58:24Z</time>
      </trkpt>
      <trkpt lat="46.50088" lon="0.57351">
        <ele>124.44388386887</ele>
        <time>2021-03-18T08:58:26Z</time>
      </trkpt>
      <trkpt lat="46.50089" lon="0.57352">
        <ele>123.76947786473</ele>
        <time>2021-03-18T08:58:27Z</time>
      </trkpt>
      <trkpt lat="46.50092" lon="0.57353">
        <ele>123.95086457022</ele>
        <time>2021-03-18T08:58:29Z</time>
      </trkpt>
      <trkpt lat="46.50094" lon="0.57355">
        <ele>124.33763781097</ele>
        <time>2021-03-18T08:58:31Z</time>
      </trkpt>
      <trkpt lat="46.50096" lon="0.57357">
        <ele>123.96772403177</ele>
        <time>2021-03-18T08:58:33Z</time>
      </trkpt>
      <trkpt lat="46.50099" lon="0.57359">
        <ele>124.0515470719</ele>
        <time>2021-03-18T08:58:35Z</time>
      </trkpt>
      <trkpt lat="46.50102" lon="0.57361">
        <ele>124.14840075094</ele>
        <time>2021-03-18T08:58:37Z</time>
      </trkpt>
      <trkpt lat="46.50103" lon="0.57361">
        <ele>124.15548795275</ele>
        <time>2021-03-18T08:58:39Z</time>
      </trkpt>
      <trkpt lat="46.50106" lon="0.57363">
        <ele>124.20883350633</ele>
        <time>2021-03-18T08:58:41Z</time>
      </trkpt>
      <trkpt lat="46.50109" lon="0.57365">
        <ele>124.52683925163</ele>
        <time>2021-03-18T08:58:43Z</time>
      </trkpt>
      <trkpt lat="46.50111" lon="0.57366">
        <ele>125.1753924787</ele>
        <time>2021-03-18T08:58:45Z</time>
      </trkpt>
      <trkpt lat="46.50114" lon="0.57368">
        <ele>124.90299035888</ele>
        <time>2021-03-18T08:58:47Z</time>
      </trkpt>
      <trkpt lat="46.50116" lon="0.57369">
        <ele>124.7065544147</ele>
        <time>2021-03-18T08:58:49Z</time>
      </trkpt>
      <trkpt lat="46.50118" lon="0.57371">
        <ele>124.20377970394</ele>
        <time>2021-03-18T08:58:51Z</time>
      </trkpt>
      <trkpt lat="46.50121" lon="0.57372">
        <ele>124.08239557501</ele>
        <time>2021-03-18T08:58:53Z</time>
      </trkpt>
      <trkpt lat="46.50123" lon="0.57372">
        <ele>124.45286015328</ele>
        <time>2021-03-18T08:58:54Z</time>
      </trkpt>
      <trkpt lat="46.50125" lon="0.57374">
        <ele>125.03991548251</ele>
        <time>2021-03-18T08:58:56Z</time>
      </trkpt>
      <trkpt lat="46.50127" lon="0.57376">
        <ele>124.75474389829</ele>
        <time>2021-03-18T08:58:58Z</time>
      </trkpt>
      <trkpt lat="46.5013" lon="0.57377">
        <ele>125.05232692789</ele>
        <time>2021-03-18T08:59:00Z</time>
      </trkpt>
      <trkpt lat="46.50132" lon="0.57377">
        <ele>125.08832169976</ele>
        <time>2021-03-18T08:59:01Z</time>
      </trkpt>
      <trkpt lat="46.50134" lon="0.57379">
        <ele>125.32635760959</ele>
        <time>2021-03-18T08:59:03Z</time>
      </trkpt>
      <trkpt lat="46.50136" lon="0.57381">
        <ele>124.90830017999</ele>
        <time>2021-03-18T08:59:05Z</time>
      </trkpt>
      <trkpt lat="46.50139" lon="0.57381">
        <ele>124.96866433695</ele>
        <time>2021-03-18T08:59:07Z</time>
      </trkpt>
      <trkpt lat="46.50142" lon="0.57383">
        <ele>125.70573990978</ele>
        <time>2021-03-18T08:59:09Z</time>
      </trkpt>
      <trkpt lat="46.50144" lon="0.57384">
        <ele>125.93119024765</ele>
        <time>2021-03-18T08:59:11Z</time>
      </trkpt>
      <trkpt lat="46.50146" lon="0.57386">
        <ele>126.14918708988</ele>
        <time>2021-03-18T08:59:12Z</time>
      </trkpt>
      <trkpt lat="46.50148" lon="0.57387">
        <ele>125.30611141119</ele>
        <time>2021-03-18T08:59:14Z</time>
      </trkpt>
      <trkpt lat="46.5015" lon="0.57388">
        <ele>124.98681345116</ele>
        <time>2021-03-18T08:59:16Z</time>
      </trkpt>
      <trkpt lat="46.50153" lon="0.5739">
        <ele>125.41143125761</ele>
        <time>2021-03-18T08:59:18Z</time>
      </trkpt>
      <trkpt lat="46.50156" lon="0.57392">
        <ele>125.70441510435</ele>
        <time>2021-03-18T08:59:20Z</time>
      </trkpt>
      <trkpt lat="46.50158" lon="0.57392">
        <ele>126.21266155504</ele>
        <time>2021-03-18T08:59:22Z</time>
      </trkpt>
      <trkpt lat="46.5016" lon="0.57394">
        <ele>125.73518025689</ele>
        <time>2021-03-18T08:59:24Z</time>
      </trkpt>
      <trkpt lat="46.50163" lon="0.57394">
        <ele>125.7512710942</ele>
        <time>2021-03-18T08:59:26Z</time>
      </trkpt>
      <trkpt lat="46.50165" lon="0.57396">
        <ele>125.82912255917</ele>
        <time>2021-03-18T08:59:28Z</time>
      </trkpt>
      <trkpt lat="46.50168" lon="0.57398">
        <ele>126.08828701358</ele>
        <time>2021-03-18T08:59:30Z</time>
      </trkpt>
      <trkpt lat="46.5017" lon="0.57399">
        <ele>125.99152156245</ele>
        <time>2021-03-18T08:59:32Z</time>
      </trkpt>
      <trkpt lat="46.50172" lon="0.57401">
        <ele>125.42094997317</ele>
        <time>2021-03-18T08:59:34Z</time>
      </trkpt>
      <trkpt lat="46.50175" lon="0.57403">
        <ele>124.94966252241</ele>
        <time>2021-03-18T08:59:36Z</time>
      </trkpt>
      <trkpt lat="46.50177" lon="0.57404">
        <ele>125.54624593537</ele>
        <time>2021-03-18T08:59:38Z</time>
      </trkpt>
      <trkpt lat="46.50181" lon="0.57406">
        <ele>126.63446152862</ele>
        <time>2021-03-18T08:59:40Z</time>
      </trkpt>
      <trkpt lat="46.50182" lon="0.57407">
        <ele>126.08483098261</ele>
        <time>2021-03-18T08:59:42Z</time>
      </trkpt>
      <trkpt lat="46.50185" lon="0.57409">
        <ele>126.27753620315</ele>
        <time>2021-03-18T08:59:44Z</time>
      </trkpt>
      <trkpt lat="46.50187" lon="0.57411">
        <ele>125.6982545834</ele>
        <time>2021-03-18T08:59:46Z</time>
      </trkpt>
      <trkpt lat="46.50189" lon="0.57413">
        <ele>127.13217189722</ele>
        <time>2021-03-18T08:59:48Z</time>
      </trkpt>
      <trkpt lat="46.50192" lon="0.57415">
        <ele>127.20385071356</ele>
        <time>2021-03-18T08:59:50Z</time>
      </trkpt>
      <trkpt lat="46.50194" lon="0.57417">
        <ele>126.40718978085</ele>
        <time>2021-03-18T08:59:53Z</time>
      </trkpt>
      <trkpt lat="46.50197" lon="0.57419">
        <ele>126.42535639275</ele>
        <time>2021-03-18T08:59:55Z</time>
      </trkpt>
      <trkpt lat="46.50199" lon="0.57421">
        <ele>126.50306978635</ele>
        <time>2021-03-18T08:59:57Z</time>
      </trkpt>
      <trkpt lat="46.50202" lon="0.57423">
        <ele>126.09353658836</ele>
        <time>2021-03-18T08:59:59Z</time>
      </trkpt>
      <trkpt lat="46.50204" lon="0.57424">
        <ele>126.87310978118</ele>
        <time>2021-03-18T09:00:01Z</time>
      </trkpt>
      <trkpt lat="46.50206" lon="0.57427">
        <ele>127.3428887194</ele>
        <time>2021-03-18T09:00:03Z</time>
      </trkpt>
      <trkpt lat="46.50208" lon="0.57429">
        <ele>126.98554947972</ele>
        <time>2021-03-18T09:00:05Z</time>
      </trkpt>
      <trkpt lat="46.50211" lon="0.57431">
        <ele>126.67490165867</ele>
        <time>2021-03-18T09:00:07Z</time>
      </trkpt>
      <trkpt lat="46.50213" lon="0.57434">
        <ele>126.61654734984</ele>
        <time>2021-03-18T09:00:09Z</time>
      </trkpt>
      <trkpt lat="46.50216" lon="0.57435">
        <ele>127.24898861442</ele>
        <time>2021-03-18T09:00:11Z</time>
      </trkpt>
      <trkpt lat="46.50218" lon="0.57438">
        <ele>127.78691128083</ele>
        <time>2021-03-18T09:00:13Z</time>
      </trkpt>
      <trkpt lat="46.5022" lon="0.57439">
        <ele>126.50287732109</ele>
        <time>2021-03-18T09:00:15Z</time>
      </trkpt>
      <trkpt lat="46.50222" lon="0.57442">
        <ele>127.13053773995</ele>
        <time>2021-03-18T09:00:17Z</time>
      </trkpt>
      <trkpt lat="46.50223" lon="0.57443">
        <ele>128.40012754872</ele>
        <time>2021-03-18T09:00:18Z</time>
      </trkpt>
      <trkpt lat="46.50225" lon="0.57445">
        <ele>127.5118046077</ele>
        <time>2021-03-18T09:00:20Z</time>
      </trkpt>
      <trkpt lat="46.50227" lon="0.57447">
        <ele>127.64485800732</ele>
        <time>2021-03-18T09:00:22Z</time>
      </trkpt>
      <trkpt lat="46.5023" lon="0.57449">
        <ele>127.77097946778</ele>
        <time>2021-03-18T09:00:24Z</time>
      </trkpt>
      <trkpt lat="46.50232" lon="0.57451">
        <ele>127.15061247628</ele>
        <time>2021-03-18T09:00:26Z</time>
      </trkpt>
      <trkpt lat="46.50234" lon="0.57453">
        <ele>127.76298899483</ele>
        <time>2021-03-18T09:00:28Z</time>
      </trkpt>
      <trkpt lat="46.50237" lon="0.57456">
        <ele>127.63397254981</ele>
        <time>2021-03-18T09:00:30Z</time>
      </trkpt>
      <trkpt lat="46.50239" lon="0.57457">
        <ele>127.14137104806</ele>
        <time>2021-03-18T09:00:32Z</time>
      </trkpt>
      <trkpt lat="46.50241" lon="0.57459">
        <ele>127.80695359409</ele>
        <time>2021-03-18T09:00:34Z</time>
      </trkpt>
      <trkpt lat="46.50243" lon="0.57461">
        <ele>127.76360515505</ele>
        <time>2021-03-18T09:00:36Z</time>
      </trkpt>
      <trkpt lat="46.50245" lon="0.57463">
        <ele>127.59192422125</ele>
        <time>2021-03-18T09:00:38Z</time>
      </trkpt>
      <trkpt lat="46.50247" lon="0.57464">
        <ele>126.54115206562</ele>
        <time>2021-03-18T09:00:40Z</time>
      </trkpt>
      <trkpt lat="46.5025" lon="0.57466">
        <ele>128.01502349786</ele>
        <time>2021-03-18T09:00:42Z</time>
      </trkpt>
      <trkpt lat="46.50252" lon="0.57469">
        <ele>128.02049044054</ele>
        <time>2021-03-18T09:00:44Z</time>
      </trkpt>
      <trkpt lat="46.50254" lon="0.57471">
        <ele>127.93126220256</ele>
        <time>2021-03-18T09:00:46Z</time>
      </trkpt>
      <trkpt lat="46.50256" lon="0.57472">
        <ele>127.44522636291</ele>
        <time>2021-03-18T09:00:48Z</time>
      </trkpt>
      <trkpt lat="46.50259" lon="0.57474">
        <ele>127.85927636642</ele>
        <time>2021-03-18T09:00:50Z</time>
      </trkpt>
      <trkpt lat="46.50261" lon="0.57476">
        <ele>127.34170879796</ele>
        <time>2021-03-18T09:00:52Z</time>
      </trkpt>
      <trkpt lat="46.50263" lon="0.57477">
        <ele>127.96999752894</ele>
        <time>2021-03-18T09:00:54Z</time>
      </trkpt>
      <trkpt lat="46.50264" lon="0.5748">
        <ele>127.46333529335</ele>
        <time>2021-03-18T09:00:56Z</time>
      </trkpt>
      <trkpt lat="46.50266" lon="0.57483">
        <ele>127.43645772152</ele>
        <time>2021-03-18T09:00:58Z</time>
      </trkpt>
      <trkpt lat="46.50268" lon="0.57484">
        <ele>127.42235567421</ele>
        <time>2021-03-18T09:01:00Z</time>
      </trkpt>
      <trkpt lat="46.50269" lon="0.57486">
        <ele>128.4195936285</ele>
        <time>2021-03-18T09:01:02Z</time>
      </trkpt>
      <trkpt lat="46.50269" lon="0.57489">
        <ele>127.9135611644</ele>
        <time>2021-03-18T09:01:04Z</time>
      </trkpt>
      <trkpt lat="46.50269" lon="0.57493">
        <ele>127.51859172713</ele>
        <time>2021-03-18T09:01:06Z</time>
      </trkpt>
      <trkpt lat="46.50267" lon="0.57497">
        <ele>128.01926327031</ele>
        <time>2021-03-18T09:01:08Z</time>
      </trkpt>
      <trkpt lat="46.50266" lon="0.575">
        <ele>127.63647218049</ele>
        <time>2021-03-18T09:01:10Z</time>
      </trkpt>
      <trkpt lat="46.50264" lon="0.57504">
        <ele>128.16325530596</ele>
        <time>2021-03-18T09:01:12Z</time>
      </trkpt>
      <trkpt lat="46.50262" lon="0.57507">
        <ele>128.25272512343</ele>
        <time>2021-03-18T09:01:14Z</time>
      </trkpt>
      <trkpt lat="46.5026" lon="0.5751">
        <ele>127.96722238325</ele>
        <time>2021-03-18T09:01:16Z</time>
      </trkpt>
      <trkpt lat="46.50259" lon="0.57514">
        <ele>128.48891053163</ele>
        <time>2021-03-18T09:01:18Z</time>
      </trkpt>
      <trkpt lat="46.50258" lon="0.57517">
        <ele>128.26785055362</ele>
        <time>2021-03-18T09:01:20Z</time>
      </trkpt>
      <trkpt lat="46.50256" lon="0.57521">
        <ele>128.17330379505</ele>
        <time>2021-03-18T09:01:22Z</time>
      </trkpt>
      <trkpt lat="46.50255" lon="0.57523">
        <ele>127.80819399934</ele>
        <time>2021-03-18T09:01:24Z</time>
      </trkpt>
      <trkpt lat="46.50253" lon="0.57527">
        <ele>128.43805943057</ele>
        <time>2021-03-18T09:01:26Z</time>
      </trkpt>
      <trkpt lat="46.50252" lon="0.5753">
        <ele>128.38585329615</ele>
        <time>2021-03-18T09:01:28Z</time>
      </trkpt>
      <trkpt lat="46.5025" lon="0.57534">
        <ele>128.00846978556</ele>
        <time>2021-03-18T09:01:30Z</time>
      </trkpt>
      <trkpt lat="46.50249" lon="0.57538">
        <ele>128.5002099108</ele>
        <time>2021-03-18T09:01:32Z</time>
      </trkpt>
      <trkpt lat="46.50247" lon="0.57541">
        <ele>128.6382903913</ele>
        <time>2021-03-18T09:01:34Z</time>
      </trkpt>
      <trkpt lat="46.50246" lon="0.57545">
        <ele>128.84157062508</ele>
        <time>2021-03-18T09:01:36Z</time>
      </trkpt>
      <trkpt lat="46.50244" lon="0.57548">
        <ele>127.92981239222</ele>
        <time>2021-03-18T09:01:38Z</time>
      </trkpt>
      <trkpt lat="46.50243" lon="0.57551">
        <ele>128.05218841508</ele>
        <time>2021-03-18T09:01:40Z</time>
      </trkpt>
      <trkpt lat="46.50242" lon="0.57555">
        <ele>128.26461041253</ele>
        <time>2021-03-18T09:01:42Z</time>
      </trkpt>
      <trkpt lat="46.50241" lon="0.57557">
        <ele>127.2862487426</ele>
        <time>2021-03-18T09:01:44Z</time>
      </trkpt>
      <trkpt lat="46.50239" lon="0.57561">
        <ele>128.10070497543</ele>
        <time>2021-03-18T09:01:46Z</time>
      </trkpt>
      <trkpt lat="46.50238" lon="0.57564">
        <ele>128.2174984226</ele>
        <time>2021-03-18T09:01:48Z</time>
      </trkpt>
      <trkpt lat="46.50237" lon="0.57567">
        <ele>128.08128521591</ele>
        <time>2021-03-18T09:01:50Z</time>
      </trkpt>
      <trkpt lat="46.50235" lon="0.57571">
        <ele>127.58084730152</ele>
        <time>2021-03-18T09:01:52Z</time>
      </trkpt>
      <trkpt lat="46.50234" lon="0.57574">
        <ele>127.68785419315</ele>
        <time>2021-03-18T09:01:54Z</time>
      </trkpt>
      <trkpt lat="46.50232" lon="0.57579">
        <ele>127.96344231628</ele>
        <time>2021-03-18T09:01:56Z</time>
      </trkpt>
      <trkpt lat="46.50231" lon="0.57583">
        <ele>128.17806795053</ele>
        <time>2021-03-18T09:01:59Z</time>
      </trkpt>
      <trkpt lat="46.50229" lon="0.57586">
        <ele>127.98033137061</ele>
        <time>2021-03-18T09:02:01Z</time>
      </trkpt>
      <trkpt lat="46.50228" lon="0.57589">
        <ele>128.0946178576</ele>
        <time>2021-03-18T09:02:03Z</time>
      </trkpt>
      <trkpt lat="46.50226" lon="0.57593">
        <ele>128.15193612874</ele>
        <time>2021-03-18T09:02:05Z</time>
      </trkpt>
      <trkpt lat="46.50225" lon="0.57597">
        <ele>127.87039223406</ele>
        <time>2021-03-18T09:02:07Z</time>
      </trkpt>
      <trkpt lat="46.50224" lon="0.576">
        <ele>127.95386294369</ele>
        <time>2021-03-18T09:02:09Z</time>
      </trkpt>
      <trkpt lat="46.50222" lon="0.57604">
        <ele>128.17896753736</ele>
        <time>2021-03-18T09:02:11Z</time>
      </trkpt>
      <trkpt lat="46.50221" lon="0.57607">
        <ele>127.54326618556</ele>
        <time>2021-03-18T09:02:13Z</time>
      </trkpt>
      <trkpt lat="46.5022" lon="0.5761">
        <ele>127.40306324977</ele>
        <time>2021-03-18T09:02:15Z</time>
      </trkpt>
      <trkpt lat="46.50218" lon="0.57614">
        <ele>127.81651425641</ele>
        <time>2021-03-18T09:02:17Z</time>
      </trkpt>
      <trkpt lat="46.50217" lon="0.57617">
        <ele>128.4749850817</ele>
        <time>2021-03-18T09:02:19Z</time>
      </trkpt>
      <trkpt lat="46.50215" lon="0.57622">
        <ele>127.9915901646</ele>
        <time>2021-03-18T09:02:21Z</time>
      </trkpt>
      <trkpt lat="46.50214" lon="0.57624">
        <ele>127.52722475585</ele>
        <time>2021-03-18T09:02:23Z</time>
      </trkpt>
      <trkpt lat="46.50212" lon="0.57628">
        <ele>127.45771058556</ele>
        <time>2021-03-18T09:02:25Z</time>
      </trkpt>
      <trkpt lat="46.50211" lon="0.57632">
        <ele>127.39701487124</ele>
        <time>2021-03-18T09:02:27Z</time>
      </trkpt>
      <trkpt lat="46.50209" lon="0.57635">
        <ele>127.05761858262</ele>
        <time>2021-03-18T09:02:29Z</time>
      </trkpt>
      <trkpt lat="46.50208" lon="0.57639">
        <ele>126.99573984556</ele>
        <time>2021-03-18T09:02:31Z</time>
      </trkpt>
      <trkpt lat="46.50206" lon="0.57642">
        <ele>127.17003043089</ele>
        <time>2021-03-18T09:02:33Z</time>
      </trkpt>
      <trkpt lat="46.50205" lon="0.57646">
        <ele>127.23212539498</ele>
        <time>2021-03-18T09:02:35Z</time>
      </trkpt>
      <trkpt lat="46.50204" lon="0.57649">
        <ele>127.29717442952</ele>
        <time>2021-03-18T09:02:37Z</time>
      </trkpt>
      <trkpt lat="46.50202" lon="0.57653">
        <ele>127.41912013758</ele>
        <time>2021-03-18T09:02:39Z</time>
      </trkpt>
      <trkpt lat="46.502" lon="0.57656">
        <ele>126.83817710727</ele>
        <time>2021-03-18T09:02:41Z</time>
      </trkpt>
      <trkpt lat="46.50199" lon="0.57659">
        <ele>126.65907862131</ele>
        <time>2021-03-18T09:02:43Z</time>
      </trkpt>
      <trkpt lat="46.50198" lon="0.57663">
        <ele>126.93676396273</ele>
        <time>2021-03-18T09:02:45Z</time>
      </trkpt>
      <trkpt lat="46.50196" lon="0.57667">
        <ele>127.08003940247</ele>
        <time>2021-03-18T09:02:47Z</time>
      </trkpt>
      <trkpt lat="46.50195" lon="0.5767">
        <ele>127.0909563154</ele>
        <time>2021-03-18T09:02:49Z</time>
      </trkpt>
      <trkpt lat="46.50194" lon="0.57674">
        <ele>126.8058669623</ele>
        <time>2021-03-18T09:02:51Z</time>
      </trkpt>
      <trkpt lat="46.50192" lon="0.57678">
        <ele>126.54601653758</ele>
        <time>2021-03-18T09:02:53Z</time>
      </trkpt>
      <trkpt lat="46.50191" lon="0.5768">
        <ele>126.6991108451</ele>
        <time>2021-03-18T09:02:55Z</time>
      </trkpt>
      <trkpt lat="46.50189" lon="0.57684">
        <ele>126.30912796315</ele>
        <time>2021-03-18T09:02:57Z</time>
      </trkpt>
      <trkpt lat="46.50188" lon="0.57686">
        <ele>126.27286039386</ele>
        <time>2021-03-18T09:02:58Z</time>
      </trkpt>
      <trkpt lat="46.50187" lon="0.5769">
        <ele>126.47223519534</ele>
        <time>2021-03-18T09:03:01Z</time>
      </trkpt>
      <trkpt lat="46.50185" lon="0.57693">
        <ele>125.71375261992</ele>
        <time>2021-03-18T09:03:03Z</time>
      </trkpt>
      <trkpt lat="46.50184" lon="0.57696">
        <ele>125.52992861904</ele>
        <time>2021-03-18T09:03:05Z</time>
      </trkpt>
      <trkpt lat="46.50183" lon="0.577">
        <ele>125.81551109534</ele>
        <time>2021-03-18T09:03:07Z</time>
      </trkpt>
      <trkpt lat="46.50182" lon="0.57704">
        <ele>125.59979804419</ele>
        <time>2021-03-18T09:03:09Z</time>
      </trkpt>
      <trkpt lat="46.5018" lon="0.57707">
        <ele>125.97188236658</ele>
        <time>2021-03-18T09:03:11Z</time>
      </trkpt>
      <trkpt lat="46.50178" lon="0.57711">
        <ele>126.04726411402</ele>
        <time>2021-03-18T09:03:13Z</time>
      </trkpt>
      <trkpt lat="46.50178" lon="0.57715">
        <ele>125.50760370959</ele>
        <time>2021-03-18T09:03:15Z</time>
      </trkpt>
      <trkpt lat="46.50177" lon="0.57718">
        <ele>126.01794346236</ele>
        <time>2021-03-18T09:03:17Z</time>
      </trkpt>
      <trkpt lat="46.50176" lon="0.57721">
        <ele>125.05732861161</ele>
        <time>2021-03-18T09:03:19Z</time>
      </trkpt>
      <trkpt lat="46.50174" lon="0.57723">
        <ele>125.33585686982</ele>
        <time>2021-03-18T09:03:20Z</time>
      </trkpt>
      <trkpt lat="46.50172" lon="0.57727">
        <ele>124.90550599806</ele>
        <time>2021-03-18T09:03:22Z</time>
      </trkpt>
      <trkpt lat="46.50171" lon="0.5773">
        <ele>125.0330677256</ele>
        <time>2021-03-18T09:03:24Z</time>
      </trkpt>
      <trkpt lat="46.5017" lon="0.57734">
        <ele>125.69197444431</ele>
        <time>2021-03-18T09:03:26Z</time>
      </trkpt>
      <trkpt lat="46.50169" lon="0.57736">
        <ele>125.58384725917</ele>
        <time>2021-03-18T09:03:28Z</time>
      </trkpt>
      <trkpt lat="46.50167" lon="0.5774">
        <ele>125.17205824424</ele>
        <time>2021-03-18T09:03:30Z</time>
      </trkpt>
      <trkpt lat="46.50166" lon="0.57743">
        <ele>125.95145101752</ele>
        <time>2021-03-18T09:03:32Z</time>
      </trkpt>
      <trkpt lat="46.50164" lon="0.57747">
        <ele>125.26445517037</ele>
        <time>2021-03-18T09:03:34Z</time>
      </trkpt>
      <trkpt lat="46.50162" lon="0.57751">
        <ele>125.14017258584</ele>
        <time>2021-03-18T09:03:36Z</time>
      </trkpt>
      <trkpt lat="46.50161" lon="0.57755">
        <ele>124.9943941189</ele>
        <time>2021-03-18T09:03:38Z</time>
      </trkpt>
      <trkpt lat="46.50159" lon="0.57759">
        <ele>125.06512729265</ele>
        <time>2021-03-18T09:03:40Z</time>
      </trkpt>
      <trkpt lat="46.50158" lon="0.57762">
        <ele>124.91526128072</ele>
        <time>2021-03-18T09:03:42Z</time>
      </trkpt>
      <trkpt lat="46.50156" lon="0.57766">
        <ele>124.58887921274</ele>
        <time>2021-03-18T09:03:44Z</time>
      </trkpt>
      <trkpt lat="46.50155" lon="0.5777">
        <ele>124.46384887304</ele>
        <time>2021-03-18T09:03:46Z</time>
      </trkpt>
      <trkpt lat="46.50153" lon="0.57774">
        <ele>124.34954863228</ele>
        <time>2021-03-18T09:03:49Z</time>
      </trkpt>
      <trkpt lat="46.50151" lon="0.57779">
        <ele>124.31576404627</ele>
        <time>2021-03-18T09:03:51Z</time>
      </trkpt>
      <trkpt lat="46.5015" lon="0.57781">
        <ele>124.18520846497</ele>
        <time>2021-03-18T09:03:53Z</time>
      </trkpt>
      <trkpt lat="46.50148" lon="0.57785">
        <ele>124.34428095166</ele>
        <time>2021-03-18T09:03:55Z</time>
      </trkpt>
      <trkpt lat="46.50147" lon="0.57789">
        <ele>124.06630055886</ele>
        <time>2021-03-18T09:03:57Z</time>
      </trkpt>
      <trkpt lat="46.50145" lon="0.57793">
        <ele>124.28531845286</ele>
        <time>2021-03-18T09:03:59Z</time>
      </trkpt>
      <trkpt lat="46.50144" lon="0.57796">
        <ele>123.78177885059</ele>
        <time>2021-03-18T09:04:01Z</time>
      </trkpt>
      <trkpt lat="46.50146" lon="0.57799">
        <ele>123.94590905122</ele>
        <time>2021-03-18T09:04:03Z</time>
      </trkpt>
      <trkpt lat="46.50145" lon="0.57802">
        <ele>123.61973991431</ele>
        <time>2021-03-18T09:04:05Z</time>
      </trkpt>
      <trkpt lat="46.50145" lon="0.57805">
        <ele>123.52141304594</ele>
        <time>2021-03-18T09:04:07Z</time>
      </trkpt>
      <trkpt lat="46.50145" lon="0.57808">
        <ele>123.36156172119</ele>
        <time>2021-03-18T09:04:09Z</time>
      </trkpt>
      <trkpt lat="46.50144" lon="0.57812">
        <ele>123.20562405977</ele>
        <time>2021-03-18T09:04:11Z</time>
      </trkpt>
      <trkpt lat="46.50146" lon="0.57813">
        <ele>123.70499221329</ele>
        <time>2021-03-18T09:04:15Z</time>
      </trkpt>
      <trkpt lat="46.50148" lon="0.57815">
        <ele>123.1462722877</ele>
        <time>2021-03-18T09:04:18Z</time>
      </trkpt>
      <trkpt lat="46.50149" lon="0.57817">
        <ele>123.5331550343</ele>
        <time>2021-03-18T09:04:21Z</time>
      </trkpt>
      <trkpt lat="46.50151" lon="0.57817">
        <ele>123.45871207863</ele>
        <time>2021-03-18T09:04:23Z</time>
      </trkpt>
      <trkpt lat="46.50153" lon="0.57818">
        <ele>123.60082918406</ele>
        <time>2021-03-18T09:04:26Z</time>
      </trkpt>
      <trkpt lat="46.50154" lon="0.57819">
        <ele>123.67228878476</ele>
        <time>2021-03-18T09:04:29Z</time>
      </trkpt>
      <trkpt lat="46.50157" lon="0.5782">
        <ele>123.49552004598</ele>
        <time>2021-03-18T09:04:31Z</time>
      </trkpt>
      <trkpt lat="46.50159" lon="0.5782">
        <ele>123.42726900149</ele>
        <time>2021-03-18T09:04:34Z</time>
      </trkpt>
      <trkpt lat="46.50161" lon="0.57821">
        <ele>123.68355529383</ele>
        <time>2021-03-18T09:04:36Z</time>
      </trkpt>
      <trkpt lat="46.50163" lon="0.57822">
        <ele>123.98129035532</ele>
        <time>2021-03-18T09:04:39Z</time>
      </trkpt>
      <trkpt lat="46.50165" lon="0.57823">
        <ele>123.55726135988</ele>
        <time>2021-03-18T09:04:42Z</time>
      </trkpt>
      <trkpt lat="46.50166" lon="0.57823">
        <ele>123.51729191653</ele>
        <time>2021-03-18T09:04:46Z</time>
      </trkpt>
      <trkpt lat="46.50168" lon="0.57823">
        <ele>124.36033761222</ele>
        <time>2021-03-18T09:04:48Z</time>
      </trkpt>
      <trkpt lat="46.5017" lon="0.57824">
        <ele>123.98798310664</ele>
        <time>2021-03-18T09:04:51Z</time>
      </trkpt>
      <trkpt lat="46.50172" lon="0.57825">
        <ele>123.98038984928</ele>
        <time>2021-03-18T09:04:54Z</time>
      </trkpt>
      <trkpt lat="46.50174" lon="0.57825">
        <ele>123.75918070786</ele>
        <time>2021-03-18T09:04:56Z</time>
      </trkpt>
      <trkpt lat="46.50176" lon="0.57827">
        <ele>124.12027624249</ele>
        <time>2021-03-18T09:04:59Z</time>
      </trkpt>
      <trkpt lat="46.50178" lon="0.57828">
        <ele>124.05769269727</ele>
        <time>2021-03-18T09:05:02Z</time>
      </trkpt>
      <trkpt lat="46.50181" lon="0.57828">
        <ele>124.14151590224</ele>
        <time>2021-03-18T09:05:04Z</time>
      </trkpt>
      <trkpt lat="46.50183" lon="0.57829">
        <ele>123.65696363617</ele>
        <time>2021-03-18T09:05:07Z</time>
      </trkpt>
      <trkpt lat="46.50185" lon="0.57829">
        <ele>124.2258565817</ele>
        <time>2021-03-18T09:05:10Z</time>
      </trkpt>
      <trkpt lat="46.50188" lon="0.5783">
        <ele>123.72456584405</ele>
        <time>2021-03-18T09:05:13Z</time>
      </trkpt>
      <trkpt lat="46.50191" lon="0.57832">
        <ele>124.95160552766</ele>
        <time>2021-03-18T09:05:16Z</time>
      </trkpt>
      <trkpt lat="46.50193" lon="0.57832">
        <ele>124.41361711081</ele>
        <time>2021-03-18T09:05:19Z</time>
      </trkpt>
      <trkpt lat="46.50195" lon="0.57832">
        <ele>124.58135070279</ele>
        <time>2021-03-18T09:05:21Z</time>
      </trkpt>
      <trkpt lat="46.50197" lon="0.57833">
        <ele>124.65737668332</ele>
        <time>2021-03-18T09:05:24Z</time>
      </trkpt>
      <trkpt lat="46.502" lon="0.57834">
        <ele>124.86996999476</ele>
        <time>2021-03-18T09:05:26Z</time>
      </trkpt>
      <trkpt lat="46.50203" lon="0.57834">
        <ele>124.79223723058</ele>
        <time>2021-03-18T09:05:28Z</time>
      </trkpt>
      <trkpt lat="46.50205" lon="0.57833">
        <ele>125.20720889792</ele>
        <time>2021-03-18T09:05:30Z</time>
      </trkpt>
      <trkpt lat="46.50207" lon="0.57835">
        <ele>124.59656257648</ele>
        <time>2021-03-18T09:05:33Z</time>
      </trkpt>
      <trkpt lat="46.5021" lon="0.57836">
        <ele>125.34011909645</ele>
        <time>2021-03-18T09:05:36Z</time>
      </trkpt>
      <trkpt lat="46.50212" lon="0.57836">
        <ele>124.62112531718</ele>
        <time>2021-03-18T09:05:38Z</time>
      </trkpt>
      <trkpt lat="46.50214" lon="0.57837">
        <ele>124.45032972936</ele>
        <time>2021-03-18T09:05:40Z</time>
      </trkpt>
      <trkpt lat="46.50216" lon="0.57837">
        <ele>125.02556521725</ele>
        <time>2021-03-18T09:05:41Z</time>
      </trkpt>
      <trkpt lat="46.50218" lon="0.57838">
        <ele>124.90668673441</ele>
        <time>2021-03-18T09:05:43Z</time>
      </trkpt>
      <trkpt lat="46.5022" lon="0.57839">
        <ele>124.89171061479</ele>
        <time>2021-03-18T09:05:45Z</time>
      </trkpt>
      <trkpt lat="46.50223" lon="0.57839">
        <ele>124.82129691169</ele>
        <time>2021-03-18T09:05:48Z</time>
      </trkpt>
      <trkpt lat="46.50225" lon="0.57839">
        <ele>124.32351383287</ele>
        <time>2021-03-18T09:05:50Z</time>
      </trkpt>
      <trkpt lat="46.50228" lon="0.5784">
        <ele>124.44829696324</ele>
        <time>2021-03-18T09:05:52Z</time>
      </trkpt>
      <trkpt lat="46.50231" lon="0.57841">
        <ele>124.85307931714</ele>
        <time>2021-03-18T09:05:54Z</time>
      </trkpt>
      <trkpt lat="46.50233" lon="0.57841">
        <ele>124.8149492424</ele>
        <time>2021-03-18T09:05:55Z</time>
      </trkpt>
      <trkpt lat="46.50236" lon="0.57842">
        <ele>125.18645199761</ele>
        <time>2021-03-18T09:05:57Z</time>
      </trkpt>
      <trkpt lat="46.50238" lon="0.57844">
        <ele>125.15971235372</ele>
        <time>2021-03-18T09:05:59Z</time>
      </trkpt>
      <trkpt lat="46.50241" lon="0.57844">
        <ele>125.59799476992</ele>
        <time>2021-03-18T09:06:01Z</time>
      </trkpt>
      <trkpt lat="46.50243" lon="0.57846">
        <ele>124.71096112765</ele>
        <time>2021-03-18T09:06:03Z</time>
      </trkpt>
      <trkpt lat="46.50247" lon="0.57847">
        <ele>125.78959661722</ele>
        <time>2021-03-18T09:06:05Z</time>
      </trkpt>
      <trkpt lat="46.5025" lon="0.57848">
        <ele>125.51251849253</ele>
        <time>2021-03-18T09:06:07Z</time>
      </trkpt>
      <trkpt lat="46.50252" lon="0.5785">
        <ele>124.88476188481</ele>
        <time>2021-03-18T09:06:10Z</time>
      </trkpt>
      <trkpt lat="46.50255" lon="0.5785">
        <ele>125.14961566217</ele>
        <time>2021-03-18T09:06:12Z</time>
      </trkpt>
      <trkpt lat="46.50258" lon="0.57852">
        <ele>125.27643087413</ele>
        <time>2021-03-18T09:06:14Z</time>
      </trkpt>
      <trkpt lat="46.5026" lon="0.57852">
        <ele>125.46441525314</ele>
        <time>2021-03-18T09:06:16Z</time>
      </trkpt>
      <trkpt lat="46.50263" lon="0.57853">
        <ele>125.17458570004</ele>
        <time>2021-03-18T09:06:18Z</time>
      </trkpt>
      <trkpt lat="46.50266" lon="0.57854">
        <ele>125.77874929644</ele>
        <time>2021-03-18T09:06:20Z</time>
      </trkpt>
      <trkpt lat="46.50268" lon="0.57854">
        <ele>125.3099271832</ele>
        <time>2021-03-18T09:06:22Z</time>
      </trkpt>
      <trkpt lat="46.5027" lon="0.57855">
        <ele>125.53845798783</ele>
        <time>2021-03-18T09:06:24Z</time>
      </trkpt>
      <trkpt lat="46.50272" lon="0.57855">
        <ele>126.11970796995</ele>
        <time>2021-03-18T09:06:26Z</time>
      </trkpt>
      <trkpt lat="46.50274" lon="0.57856">
        <ele>125.68639713153</ele>
        <time>2021-03-18T09:06:28Z</time>
      </trkpt>
      <trkpt lat="46.50276" lon="0.57857">
        <ele>125.92096704151</ele>
        <time>2021-03-18T09:06:30Z</time>
      </trkpt>
      <trkpt lat="46.50278" lon="0.57858">
        <ele>125.93975797202</ele>
        <time>2021-03-18T09:06:31Z</time>
      </trkpt>
      <trkpt lat="46.5028" lon="0.57858">
        <ele>125.63994118106</ele>
        <time>2021-03-18T09:06:33Z</time>
      </trkpt>
      <trkpt lat="46.50282" lon="0.57859">
        <ele>125.52949112095</ele>
        <time>2021-03-18T09:06:35Z</time>
      </trkpt>
      <trkpt lat="46.50284" lon="0.5786">
        <ele>125.38982998952</ele>
        <time>2021-03-18T09:06:36Z</time>
      </trkpt>
      <trkpt lat="46.50286" lon="0.57861">
        <ele>126.0298434617</ele>
        <time>2021-03-18T09:06:37Z</time>
      </trkpt>
      <trkpt lat="46.50288" lon="0.5786">
        <ele>125.92279826012</ele>
        <time>2021-03-18T09:06:38Z</time>
      </trkpt>
      <trkpt lat="46.50291" lon="0.57861">
        <ele>126.04435539339</ele>
        <time>2021-03-18T09:06:40Z</time>
      </trkpt>
      <trkpt lat="46.50293" lon="0.57862">
        <ele>125.71194612142</ele>
        <time>2021-03-18T09:06:41Z</time>
      </trkpt>
      <trkpt lat="46.50296" lon="0.57863">
        <ele>125.42519167811</ele>
        <time>2021-03-18T09:06:43Z</time>
      </trkpt>
      <trkpt lat="46.50299" lon="0.57863">
        <ele>125.64707735088</ele>
        <time>2021-03-18T09:06:45Z</time>
      </trkpt>
      <trkpt lat="46.50301" lon="0.57864">
        <ele>125.74718870316</ele>
        <time>2021-03-18T09:06:47Z</time>
      </trkpt>
      <trkpt lat="46.50304" lon="0.57865">
        <ele>125.78697581682</ele>
        <time>2021-03-18T09:06:49Z</time>
      </trkpt>
      <trkpt lat="46.50306" lon="0.57865">
        <ele>125.74192734249</ele>
        <time>2021-03-18T09:06:51Z</time>
      </trkpt>
      <trkpt lat="46.50307" lon="0.57866">
        <ele>126.05670547113</ele>
        <time>2021-03-18T09:06:53Z</time>
      </trkpt>
      <trkpt lat="46.5031" lon="0.57867">
        <ele>126.26380026434</ele>
        <time>2021-03-18T09:06:55Z</time>
      </trkpt>
      <trkpt lat="46.50312" lon="0.57868">
        <ele>125.8803344667</ele>
        <time>2021-03-18T09:06:57Z</time>
      </trkpt>
      <trkpt lat="46.50315" lon="0.57869">
        <ele>125.35406460799</ele>
        <time>2021-03-18T09:06:59Z</time>
      </trkpt>
      <trkpt lat="46.50318" lon="0.5787">
        <ele>125.46250885073</ele>
        <time>2021-03-18T09:07:01Z</time>
      </trkpt>
      <trkpt lat="46.5032" lon="0.5787">
        <ele>125.97555716056</ele>
        <time>2021-03-18T09:07:03Z</time>
      </trkpt>
      <trkpt lat="46.50322" lon="0.5787">
        <ele>125.82010616548</ele>
        <time>2021-03-18T09:07:04Z</time>
      </trkpt>
      <trkpt lat="46.50324" lon="0.57872">
        <ele>125.68246373255</ele>
        <time>2021-03-18T09:07:06Z</time>
      </trkpt>
      <trkpt lat="46.50327" lon="0.57873">
        <ele>124.45470652822</ele>
        <time>2021-03-18T09:07:08Z</time>
      </trkpt>
      <trkpt lat="46.50329" lon="0.57873">
        <ele>126.07724365219</ele>
        <time>2021-03-18T09:07:09Z</time>
      </trkpt>
      <trkpt lat="46.5033" lon="0.57874">
        <ele>125.71969318483</ele>
        <time>2021-03-18T09:07:11Z</time>
      </trkpt>
      <trkpt lat="46.50333" lon="0.57875">
        <ele>125.37842369452</ele>
        <time>2021-03-18T09:07:13Z</time>
      </trkpt>
      <trkpt lat="46.50335" lon="0.57876">
        <ele>125.53172380291</ele>
        <time>2021-03-18T09:07:15Z</time>
      </trkpt>
      <trkpt lat="46.50338" lon="0.57877">
        <ele>126.1655481793</ele>
        <time>2021-03-18T09:07:17Z</time>
      </trkpt>
      <trkpt lat="46.50341" lon="0.57878">
        <ele>125.52030395623</ele>
        <time>2021-03-18T09:07:19Z</time>
      </trkpt>
      <trkpt lat="46.50345" lon="0.57879">
        <ele>126.17070378736</ele>
        <time>2021-03-18T09:07:21Z</time>
      </trkpt>
      <trkpt lat="46.50347" lon="0.57879">
        <ele>125.98685037065</ele>
        <time>2021-03-18T09:07:23Z</time>
      </trkpt>
      <trkpt lat="46.5035" lon="0.5788">
        <ele>125.59417380579</ele>
        <time>2021-03-18T09:07:25Z</time>
      </trkpt>
      <trkpt lat="46.50353" lon="0.57881">
        <ele>126.19935608003</ele>
        <time>2021-03-18T09:07:27Z</time>
      </trkpt>
      <trkpt lat="46.50355" lon="0.57882">
        <ele>126.12282987498</ele>
        <time>2021-03-18T09:07:29Z</time>
      </trkpt>
      <trkpt lat="46.50357" lon="0.57882">
        <ele>126.24042204116</ele>
        <time>2021-03-18T09:07:30Z</time>
      </trkpt>
      <trkpt lat="46.50359" lon="0.57884">
        <ele>126.21676969063</ele>
        <time>2021-03-18T09:07:32Z</time>
      </trkpt>
      <trkpt lat="46.50361" lon="0.57885">
        <ele>126.37773500197</ele>
        <time>2021-03-18T09:07:34Z</time>
      </trkpt>
      <trkpt lat="46.50364" lon="0.57886">
        <ele>126.30365111027</ele>
        <time>2021-03-18T09:07:36Z</time>
      </trkpt>
      <trkpt lat="46.50366" lon="0.57886">
        <ele>125.77892536949</ele>
        <time>2021-03-18T09:07:38Z</time>
      </trkpt>
      <trkpt lat="46.50368" lon="0.57886">
        <ele>125.52993317973</ele>
        <time>2021-03-18T09:07:40Z</time>
      </trkpt>
      <trkpt lat="46.50371" lon="0.57887">
        <ele>125.79009869881</ele>
        <time>2021-03-18T09:07:42Z</time>
      </trkpt>
      <trkpt lat="46.50373" lon="0.57888">
        <ele>126.06009042263</ele>
        <time>2021-03-18T09:07:44Z</time>
      </trkpt>
      <trkpt lat="46.50376" lon="0.57888">
        <ele>126.12961573154</ele>
        <time>2021-03-18T09:07:45Z</time>
      </trkpt>
      <trkpt lat="46.50378" lon="0.57888">
        <ele>125.71422752738</ele>
        <time>2021-03-18T09:07:47Z</time>
      </trkpt>
      <trkpt lat="46.50381" lon="0.57889">
        <ele>125.92110896111</ele>
        <time>2021-03-18T09:07:49Z</time>
      </trkpt>
      <trkpt lat="46.50384" lon="0.5789">
        <ele>125.44228782132</ele>
        <time>2021-03-18T09:07:51Z</time>
      </trkpt>
      <trkpt lat="46.50387" lon="0.57892">
        <ele>126.14562252536</ele>
        <time>2021-03-18T09:07:53Z</time>
      </trkpt>
      <trkpt lat="46.50389" lon="0.57893">
        <ele>126.31714727823</ele>
        <time>2021-03-18T09:07:55Z</time>
      </trkpt>
      <trkpt lat="46.50392" lon="0.57893">
        <ele>125.16356152482</ele>
        <time>2021-03-18T09:07:57Z</time>
      </trkpt>
      <trkpt lat="46.50394" lon="0.57894">
        <ele>124.97951223981</ele>
        <time>2021-03-18T09:07:59Z</time>
      </trkpt>
      <trkpt lat="46.50397" lon="0.57895">
        <ele>125.35528039653</ele>
        <time>2021-03-18T09:08:01Z</time>
      </trkpt>
      <trkpt lat="46.50398" lon="0.57897">
        <ele>125.51667011809</ele>
        <time>2021-03-18T09:08:02Z</time>
      </trkpt>
      <trkpt lat="46.50401" lon="0.57899">
        <ele>125.47997920495</ele>
        <time>2021-03-18T09:08:04Z</time>
      </trkpt>
      <trkpt lat="46.50404" lon="0.57901">
        <ele>125.23918468412</ele>
        <time>2021-03-18T09:08:06Z</time>
      </trkpt>
      <trkpt lat="46.50405" lon="0.57903">
        <ele>125.28145751078</ele>
        <time>2021-03-18T09:08:07Z</time>
      </trkpt>
      <trkpt lat="46.50407" lon="0.57905">
        <ele>125.28804540914</ele>
        <time>2021-03-18T09:08:09Z</time>
      </trkpt>
      <trkpt lat="46.5041" lon="0.57908">
        <ele>125.07252394035</ele>
        <time>2021-03-18T09:08:11Z</time>
      </trkpt>
      <trkpt lat="46.50412" lon="0.5791">
        <ele>125.12912004255</ele>
        <time>2021-03-18T09:08:13Z</time>
      </trkpt>
      <trkpt lat="46.50414" lon="0.57912">
        <ele>124.97411700338</ele>
        <time>2021-03-18T09:08:15Z</time>
      </trkpt>
      <trkpt lat="46.50416" lon="0.57914">
        <ele>125.57549042813</ele>
        <time>2021-03-18T09:08:17Z</time>
      </trkpt>
      <trkpt lat="46.50418" lon="0.57917">
        <ele>125.83320570271</ele>
        <time>2021-03-18T09:08:19Z</time>
      </trkpt>
      <trkpt lat="46.5042" lon="0.5792">
        <ele>125.50046580564</ele>
        <time>2021-03-18T09:08:21Z</time>
      </trkpt>
      <trkpt lat="46.50421" lon="0.57922">
        <ele>125.50694979262</ele>
        <time>2021-03-18T09:08:23Z</time>
      </trkpt>
      <trkpt lat="46.50424" lon="0.57925">
        <ele>125.69708856381</ele>
        <time>2021-03-18T09:08:25Z</time>
      </trkpt>
      <trkpt lat="46.50426" lon="0.57927">
        <ele>125.2428464815</ele>
        <time>2021-03-18T09:08:27Z</time>
      </trkpt>
      <trkpt lat="46.50427" lon="0.57929">
        <ele>125.45431924518</ele>
        <time>2021-03-18T09:08:29Z</time>
      </trkpt>
      <trkpt lat="46.50429" lon="0.57932">
        <ele>125.26157937758</ele>
        <time>2021-03-18T09:08:31Z</time>
      </trkpt>
      <trkpt lat="46.50431" lon="0.57934">
        <ele>125.04474595282</ele>
        <time>2021-03-18T09:08:33Z</time>
      </trkpt>
      <trkpt lat="46.50433" lon="0.57936">
        <ele>124.75004209764</ele>
        <time>2021-03-18T09:08:35Z</time>
      </trkpt>
      <trkpt lat="46.50435" lon="0.57938">
        <ele>125.33073604014</ele>
        <time>2021-03-18T09:08:37Z</time>
      </trkpt>
      <trkpt lat="46.50437" lon="0.57941">
        <ele>125.19746422395</ele>
        <time>2021-03-18T09:08:39Z</time>
      </trkpt>
      <trkpt lat="46.50439" lon="0.57942">
        <ele>124.17910847068</ele>
        <time>2021-03-18T09:08:41Z</time>
      </trkpt>
      <trkpt lat="46.5044" lon="0.57945">
        <ele>124.39657619223</ele>
        <time>2021-03-18T09:08:43Z</time>
      </trkpt>
      <trkpt lat="46.50442" lon="0.57948">
        <ele>124.74259029422</ele>
        <time>2021-03-18T09:08:45Z</time>
      </trkpt>
      <trkpt lat="46.50444" lon="0.5795">
        <ele>124.6965497341</ele>
        <time>2021-03-18T09:08:47Z</time>
      </trkpt>
      <trkpt lat="46.50446" lon="0.57952">
        <ele>125.11999097187</ele>
        <time>2021-03-18T09:08:49Z</time>
      </trkpt>
      <trkpt lat="46.50448" lon="0.57954">
        <ele>124.82443642709</ele>
        <time>2021-03-18T09:08:51Z</time>
      </trkpt>
      <trkpt lat="46.5045" lon="0.57957">
        <ele>124.54729133099</ele>
        <time>2021-03-18T09:08:53Z</time>
      </trkpt>
      <trkpt lat="46.50452" lon="0.5796">
        <ele>124.54779977817</ele>
        <time>2021-03-18T09:08:55Z</time>
      </trkpt>
      <trkpt lat="46.50454" lon="0.57962">
        <ele>124.55178309418</ele>
        <time>2021-03-18T09:08:57Z</time>
      </trkpt>
      <trkpt lat="46.50456" lon="0.57964">
        <ele>124.73859686684</ele>
        <time>2021-03-18T09:08:59Z</time>
      </trkpt>
      <trkpt lat="46.50458" lon="0.57967">
        <ele>125.0542742433</ele>
        <time>2021-03-18T09:09:01Z</time>
      </trkpt>
      <trkpt lat="46.5046" lon="0.5797">
        <ele>124.14791004453</ele>
        <time>2021-03-18T09:09:03Z</time>
      </trkpt>
      <trkpt lat="46.50461" lon="0.57972">
        <ele>124.77338135522</ele>
        <time>2021-03-18T09:09:05Z</time>
      </trkpt>
      <trkpt lat="46.50463" lon="0.57975">
        <ele>124.68908304442</ele>
        <time>2021-03-18T09:09:07Z</time>
      </trkpt>
      <trkpt lat="46.50464" lon="0.57977">
        <ele>124.5439566141</ele>
        <time>2021-03-18T09:09:09Z</time>
      </trkpt>
      <trkpt lat="46.50466" lon="0.5798">
        <ele>124.73109410331</ele>
        <time>2021-03-18T09:09:11Z</time>
      </trkpt>
      <trkpt lat="46.50468" lon="0.57983">
        <ele>124.08102063835</ele>
        <time>2021-03-18T09:09:13Z</time>
      </trkpt>
      <trkpt lat="46.50469" lon="0.57985">
        <ele>124.1004572846</ele>
        <time>2021-03-18T09:09:15Z</time>
      </trkpt>
      <trkpt lat="46.50471" lon="0.57988">
        <ele>123.89644204173</ele>
        <time>2021-03-18T09:09:17Z</time>
      </trkpt>
      <trkpt lat="46.50473" lon="0.57991">
        <ele>124.17077642772</ele>
        <time>2021-03-18T09:09:19Z</time>
      </trkpt>
      <trkpt lat="46.50475" lon="0.57994">
        <ele>124.09886759892</ele>
        <time>2021-03-18T09:09:21Z</time>
      </trkpt>
      <trkpt lat="46.50477" lon="0.57996">
        <ele>123.60504624061</ele>
        <time>2021-03-18T09:09:23Z</time>
      </trkpt>
      <trkpt lat="46.50479" lon="0.57998">
        <ele>123.65359565988</ele>
        <time>2021-03-18T09:09:25Z</time>
      </trkpt>
      <trkpt lat="46.5048" lon="0.58001">
        <ele>124.0983464336</ele>
        <time>2021-03-18T09:09:27Z</time>
      </trkpt>
      <trkpt lat="46.50483" lon="0.58003">
        <ele>124.0675236769</ele>
        <time>2021-03-18T09:09:29Z</time>
      </trkpt>
      <trkpt lat="46.50485" lon="0.58007">
        <ele>124.14720300492</ele>
        <time>2021-03-18T09:09:31Z</time>
      </trkpt>
      <trkpt lat="46.50487" lon="0.58009">
        <ele>124.01099889819</ele>
        <time>2021-03-18T09:09:33Z</time>
      </trkpt>
      <trkpt lat="46.50489" lon="0.58012">
        <ele>123.68549967743</ele>
        <time>2021-03-18T09:09:35Z</time>
      </trkpt>
      <trkpt lat="46.5049" lon="0.58014">
        <ele>123.82052252535</ele>
        <time>2021-03-18T09:09:37Z</time>
      </trkpt>
      <trkpt lat="46.50492" lon="0.58017">
        <ele>123.42553423345</ele>
        <time>2021-03-18T09:09:39Z</time>
      </trkpt>
      <trkpt lat="46.50494" lon="0.58019">
        <ele>123.59026113898</ele>
        <time>2021-03-18T09:09:41Z</time>
      </trkpt>
      <trkpt lat="46.50496" lon="0.58022">
        <ele>123.86716093868</ele>
        <time>2021-03-18T09:09:43Z</time>
      </trkpt>
      <trkpt lat="46.50498" lon="0.58024">
        <ele>123.46291677468</ele>
        <time>2021-03-18T09:09:45Z</time>
      </trkpt>
      <trkpt lat="46.505" lon="0.58027">
        <ele>123.54660460632</ele>
        <time>2021-03-18T09:09:47Z</time>
      </trkpt>
      <trkpt lat="46.50502" lon="0.58029">
        <ele>123.67001198698</ele>
        <time>2021-03-18T09:09:49Z</time>
      </trkpt>
      <trkpt lat="46.50504" lon="0.58031">
        <ele>123.78512643185</ele>
        <time>2021-03-18T09:09:51Z</time>
      </trkpt>
      <trkpt lat="46.50505" lon="0.58034">
        <ele>123.84551420808</ele>
        <time>2021-03-18T09:09:53Z</time>
      </trkpt>
      <trkpt lat="46.50507" lon="0.58037">
        <ele>123.36455630884</ele>
        <time>2021-03-18T09:09:55Z</time>
      </trkpt>
      <trkpt lat="46.50509" lon="0.5804">
        <ele>123.67140496615</ele>
        <time>2021-03-18T09:09:57Z</time>
      </trkpt>
      <trkpt lat="46.50512" lon="0.58042">
        <ele>123.11627158336</ele>
        <time>2021-03-18T09:09:59Z</time>
      </trkpt>
      <trkpt lat="46.50514" lon="0.58045">
        <ele>123.24054990336</ele>
        <time>2021-03-18T09:10:01Z</time>
      </trkpt>
      <trkpt lat="46.50515" lon="0.58048">
        <ele>123.32777940482</ele>
        <time>2021-03-18T09:10:03Z</time>
      </trkpt>
      <trkpt lat="46.50518" lon="0.58052">
        <ele>123.22316178028</ele>
        <time>2021-03-18T09:10:05Z</time>
      </trkpt>
      <trkpt lat="46.5052" lon="0.58054">
        <ele>122.22208141256</ele>
        <time>2021-03-18T09:10:07Z</time>
      </trkpt>
      <trkpt lat="46.50522" lon="0.58057">
        <ele>122.23776119109</ele>
        <time>2021-03-18T09:10:09Z</time>
      </trkpt>
      <trkpt lat="46.50524" lon="0.5806">
        <ele>122.05039436929</ele>
        <time>2021-03-18T09:10:11Z</time>
      </trkpt>
      <trkpt lat="46.50526" lon="0.58062">
        <ele>122.62505044788</ele>
        <time>2021-03-18T09:10:13Z</time>
      </trkpt>
      <trkpt lat="46.50528" lon="0.58064">
        <ele>122.65783875622</ele>
        <time>2021-03-18T09:10:15Z</time>
      </trkpt>
      <trkpt lat="46.5053" lon="0.58067">
        <ele>122.16455248836</ele>
        <time>2021-03-18T09:10:17Z</time>
      </trkpt>
      <trkpt lat="46.50532" lon="0.5807">
        <ele>122.20109585579</ele>
        <time>2021-03-18T09:10:19Z</time>
      </trkpt>
      <trkpt lat="46.50534" lon="0.58072">
        <ele>122.47238593269</ele>
        <time>2021-03-18T09:10:21Z</time>
      </trkpt>
      <trkpt lat="46.50536" lon="0.58075">
        <ele>122.27668222971</ele>
        <time>2021-03-18T09:10:23Z</time>
      </trkpt>
      <trkpt lat="46.50538" lon="0.58077">
        <ele>121.77190433629</ele>
        <time>2021-03-18T09:10:25Z</time>
      </trkpt>
      <trkpt lat="46.5054" lon="0.58081">
        <ele>121.96026672609</ele>
        <time>2021-03-18T09:10:27Z</time>
      </trkpt>
      <trkpt lat="46.50542" lon="0.58083">
        <ele>121.82049408648</ele>
        <time>2021-03-18T09:10:29Z</time>
      </trkpt>
      <trkpt lat="46.50544" lon="0.58086">
        <ele>121.90813591331</ele>
        <time>2021-03-18T09:10:31Z</time>
      </trkpt>
      <trkpt lat="46.50546" lon="0.58089">
        <ele>121.73912962805</ele>
        <time>2021-03-18T09:10:33Z</time>
      </trkpt>
      <trkpt lat="46.50548" lon="0.58092">
        <ele>121.87955382001</ele>
        <time>2021-03-18T09:10:35Z</time>
      </trkpt>
      <trkpt lat="46.5055" lon="0.58095">
        <ele>122.00454875082</ele>
        <time>2021-03-18T09:10:37Z</time>
      </trkpt>
      <trkpt lat="46.50552" lon="0.58098">
        <ele>121.74496470764</ele>
        <time>2021-03-18T09:10:39Z</time>
      </trkpt>
      <trkpt lat="46.50554" lon="0.581">
        <ele>121.78462296911</ele>
        <time>2021-03-18T09:10:41Z</time>
      </trkpt>
      <trkpt lat="46.50556" lon="0.58103">
        <ele>121.46005765535</ele>
        <time>2021-03-18T09:10:43Z</time>
      </trkpt>
      <trkpt lat="46.50558" lon="0.58106">
        <ele>121.39491669089</ele>
        <time>2021-03-18T09:10:45Z</time>
      </trkpt>
      <trkpt lat="46.5056" lon="0.58109">
        <ele>121.30692393892</ele>
        <time>2021-03-18T09:10:47Z</time>
      </trkpt>
      <trkpt lat="46.50562" lon="0.58112">
        <ele>120.84804777242</ele>
        <time>2021-03-18T09:10:49Z</time>
      </trkpt>
      <trkpt lat="46.50564" lon="0.58114">
        <ele>121.02751670219</ele>
        <time>2021-03-18T09:10:51Z</time>
      </trkpt>
      <trkpt lat="46.50567" lon="0.58117">
        <ele>121.14403743763</ele>
        <time>2021-03-18T09:10:53Z</time>
      </trkpt>
      <trkpt lat="46.50569" lon="0.5812">
        <ele>121.56952579878</ele>
        <time>2021-03-18T09:10:55Z</time>
      </trkpt>
      <trkpt lat="46.50572" lon="0.58121">
        <ele>121.52768702246</ele>
        <time>2021-03-18T09:10:57Z</time>
      </trkpt>
      <trkpt lat="46.50574" lon="0.58125">
        <ele>121.39876629878</ele>
        <time>2021-03-18T09:10:59Z</time>
      </trkpt>
      <trkpt lat="46.50576" lon="0.58128">
        <ele>120.88520227093</ele>
        <time>2021-03-18T09:11:01Z</time>
      </trkpt>
      <trkpt lat="46.50578" lon="0.5813">
        <ele>121.15965757426</ele>
        <time>2021-03-18T09:11:02Z</time>
      </trkpt>
      <trkpt lat="46.50579" lon="0.58132">
        <ele>121.03177042771</ele>
        <time>2021-03-18T09:11:04Z</time>
      </trkpt>
      <trkpt lat="46.50581" lon="0.58134">
        <ele>120.52926320117</ele>
        <time>2021-03-18T09:11:06Z</time>
      </trkpt>
      <trkpt lat="46.50584" lon="0.58137">
        <ele>120.05925443117</ele>
        <time>2021-03-18T09:11:08Z</time>
      </trkpt>
      <trkpt lat="46.50585" lon="0.58139">
        <ele>120.90580919757</ele>
        <time>2021-03-18T09:11:10Z</time>
      </trkpt>
      <trkpt lat="46.50587" lon="0.58141">
        <ele>120.60152061936</ele>
        <time>2021-03-18T09:11:12Z</time>
      </trkpt>
      <trkpt lat="46.50589" lon="0.58144">
        <ele>120.30776487198</ele>
        <time>2021-03-18T09:11:14Z</time>
      </trkpt>
      <trkpt lat="46.5059" lon="0.58146">
        <ele>121.47379916254</ele>
        <time>2021-03-18T09:11:16Z</time>
      </trkpt>
      <trkpt lat="46.50591" lon="0.58149">
        <ele>120.72568630055</ele>
        <time>2021-03-18T09:11:18Z</time>
      </trkpt>
      <trkpt lat="46.50593" lon="0.58151">
        <ele>120.50751065835</ele>
        <time>2021-03-18T09:11:20Z</time>
      </trkpt>
      <trkpt lat="46.50594" lon="0.58154">
        <ele>120.4122050656</ele>
        <time>2021-03-18T09:11:22Z</time>
      </trkpt>
      <trkpt lat="46.50595" lon="0.58156">
        <ele>120.6922023315</ele>
        <time>2021-03-18T09:11:24Z</time>
      </trkpt>
      <trkpt lat="46.50597" lon="0.5816">
        <ele>119.86995974742</ele>
        <time>2021-03-18T09:11:26Z</time>
      </trkpt>
      <trkpt lat="46.50599" lon="0.58164">
        <ele>119.71246468648</ele>
        <time>2021-03-18T09:11:28Z</time>
      </trkpt>
      <trkpt lat="46.506" lon="0.58167">
        <ele>119.82310075313</ele>
        <time>2021-03-18T09:11:30Z</time>
      </trkpt>
      <trkpt lat="46.50602" lon="0.5817">
        <ele>119.43471977022</ele>
        <time>2021-03-18T09:11:32Z</time>
      </trkpt>
      <trkpt lat="46.50603" lon="0.58173">
        <ele>119.48391044699</ele>
        <time>2021-03-18T09:11:34Z</time>
      </trkpt>
      <trkpt lat="46.50604" lon="0.58178">
        <ele>119.43650557194</ele>
        <time>2021-03-18T09:11:36Z</time>
      </trkpt>
      <trkpt lat="46.50605" lon="0.58182">
        <ele>119.33234874811</ele>
        <time>2021-03-18T09:11:38Z</time>
      </trkpt>
      <trkpt lat="46.50606" lon="0.58185">
        <ele>118.7220592564</ele>
        <time>2021-03-18T09:11:40Z</time>
      </trkpt>
      <trkpt lat="46.50604" lon="0.58188">
        <ele>118.69962418452</ele>
        <time>2021-03-18T09:11:42Z</time>
      </trkpt>
      <trkpt lat="46.50602" lon="0.58189">
        <ele>118.47426876333</ele>
        <time>2021-03-18T09:11:44Z</time>
      </trkpt>
      <trkpt lat="46.506" lon="0.5819">
        <ele>117.58421467151</ele>
        <time>2021-03-18T09:11:45Z</time>
      </trkpt>
      <trkpt lat="46.50598" lon="0.58189">
        <ele>119.09029742796</ele>
        <time>2021-03-18T09:11:47Z</time>
      </trkpt>
      <trkpt lat="46.50597" lon="0.58186">
        <ele>118.6016535908</ele>
        <time>2021-03-18T09:11:49Z</time>
      </trkpt>
      <trkpt lat="46.50595" lon="0.58186">
        <ele>118.7358204117</ele>
        <time>2021-03-18T09:12:06Z</time>
      </trkpt>
      <trkpt lat="46.50594" lon="0.58184">
        <ele>118.70137849264</ele>
        <time>2021-03-18T09:12:14Z</time>
      </trkpt>
      <trkpt lat="46.50596" lon="0.58186">
        <ele>118.87845304888</ele>
        <time>2021-03-18T09:12:19Z</time>
      </trkpt>
      <trkpt lat="46.50597" lon="0.58188">
        <ele>118.68194167688</ele>
        <time>2021-03-18T09:12:25Z</time>
      </trkpt>
      <trkpt lat="46.50597" lon="0.58191">
        <ele>118.53725055605</ele>
        <time>2021-03-18T09:12:27Z</time>
      </trkpt>
      <trkpt lat="46.50598" lon="0.58194">
        <ele>118.59587858338</ele>
        <time>2021-03-18T09:12:41Z</time>
      </trkpt>
      <trkpt lat="46.50599" lon="0.58197">
        <ele>118.43686331343</ele>
        <time>2021-03-18T09:12:49Z</time>
      </trkpt>
      <trkpt lat="46.50602" lon="0.58197">
        <ele>118.52378526796</ele>
        <time>2021-03-18T09:12:52Z</time>
      </trkpt>
      <trkpt lat="46.50604" lon="0.58196">
        <ele>117.92439729627</ele>
        <time>2021-03-18T09:12:54Z</time>
      </trkpt>
      <trkpt lat="46.50606" lon="0.58197">
        <ele>118.50445695035</ele>
        <time>2021-03-18T09:12:56Z</time>
      </trkpt>
      <trkpt lat="46.50608" lon="0.58199">
        <ele>118.2184997024</ele>
        <time>2021-03-18T09:12:58Z</time>
      </trkpt>
      <trkpt lat="46.5061" lon="0.58201">
        <ele>118.20994549524</ele>
        <time>2021-03-18T09:13:00Z</time>
      </trkpt>
      <trkpt lat="46.5061" lon="0.58205">
        <ele>118.21286074817</ele>
        <time>2021-03-18T09:13:02Z</time>
      </trkpt>
      <trkpt lat="46.50611" lon="0.58207">
        <ele>118.16896449961</ele>
        <time>2021-03-18T09:13:04Z</time>
      </trkpt>
      <trkpt lat="46.50611" lon="0.5821">
        <ele>118.07554190699</ele>
        <time>2021-03-18T09:13:05Z</time>
      </trkpt>
      <trkpt lat="46.50611" lon="0.58212">
        <ele>118.20729433559</ele>
        <time>2021-03-18T09:13:06Z</time>
      </trkpt>
      <trkpt lat="46.50611" lon="0.58215">
        <ele>117.75661167875</ele>
        <time>2021-03-18T09:13:08Z</time>
      </trkpt>
      <trkpt lat="46.50612" lon="0.58218">
        <ele>117.82046880294</ele>
        <time>2021-03-18T09:13:10Z</time>
      </trkpt>
      <trkpt lat="46.50614" lon="0.58221">
        <ele>117.98801300395</ele>
        <time>2021-03-18T09:13:12Z</time>
      </trkpt>
      <trkpt lat="46.50615" lon="0.58224">
        <ele>117.73491515312</ele>
        <time>2021-03-18T09:13:14Z</time>
      </trkpt>
      <trkpt lat="46.50615" lon="0.58227">
        <ele>117.6705014864</ele>
        <time>2021-03-18T09:13:16Z</time>
      </trkpt>
      <trkpt lat="46.50616" lon="0.58232">
        <ele>117.51576772798</ele>
        <time>2021-03-18T09:13:18Z</time>
      </trkpt>
      <trkpt lat="46.50616" lon="0.58235">
        <ele>117.65152906999</ele>
        <time>2021-03-18T09:13:19Z</time>
      </trkpt>
      <trkpt lat="46.50617" lon="0.58238">
        <ele>117.03663091455</ele>
        <time>2021-03-18T09:13:21Z</time>
      </trkpt>
      <trkpt lat="46.50618" lon="0.58241">
        <ele>117.48291616514</ele>
        <time>2021-03-18T09:13:22Z</time>
      </trkpt>
      <trkpt lat="46.50618" lon="0.58245">
        <ele>117.34461424127</ele>
        <time>2021-03-18T09:13:24Z</time>
      </trkpt>
      <trkpt lat="46.50619" lon="0.58249">
        <ele>116.66280276421</ele>
        <time>2021-03-18T09:13:26Z</time>
      </trkpt>
      <trkpt lat="46.50619" lon="0.58253">
        <ele>116.61809502635</ele>
        <time>2021-03-18T09:13:28Z</time>
      </trkpt>
      <trkpt lat="46.50619" lon="0.58258">
        <ele>116.27633521147</ele>
        <time>2021-03-18T09:13:30Z</time>
      </trkpt>
      <trkpt lat="46.5062" lon="0.58262">
        <ele>116.25270627998</ele>
        <time>2021-03-18T09:13:32Z</time>
      </trkpt>
      <trkpt lat="46.50622" lon="0.58266">
        <ele>116.06870874576</ele>
        <time>2021-03-18T09:13:34Z</time>
      </trkpt>
      <trkpt lat="46.50622" lon="0.58269">
        <ele>115.84355052374</ele>
        <time>2021-03-18T09:13:36Z</time>
      </trkpt>
      <trkpt lat="46.50623" lon="0.58271">
        <ele>115.64486308862</ele>
        <time>2021-03-18T09:13:38Z</time>
      </trkpt>
      <trkpt lat="46.50624" lon="0.58275">
        <ele>115.12871110905</ele>
        <time>2021-03-18T09:13:40Z</time>
      </trkpt>
      <trkpt lat="46.50624" lon="0.58277">
        <ele>114.82827056944</ele>
        <time>2021-03-18T09:13:41Z</time>
      </trkpt>
      <trkpt lat="46.50625" lon="0.58282">
        <ele>114.69687775802</ele>
        <time>2021-03-18T09:13:43Z</time>
      </trkpt>
      <trkpt lat="46.50626" lon="0.58287">
        <ele>114.94449429587</ele>
        <time>2021-03-18T09:13:45Z</time>
      </trkpt>
      <trkpt lat="46.50627" lon="0.5829">
        <ele>114.85008047055</ele>
        <time>2021-03-18T09:13:47Z</time>
      </trkpt>
      <trkpt lat="46.50628" lon="0.58294">
        <ele>114.55788014736</ele>
        <time>2021-03-18T09:13:49Z</time>
      </trkpt>
      <trkpt lat="46.50629" lon="0.58298">
        <ele>114.78119340166</ele>
        <time>2021-03-18T09:13:51Z</time>
      </trkpt>
      <trkpt lat="46.50629" lon="0.58302">
        <ele>114.21621972136</ele>
        <time>2021-03-18T09:13:53Z</time>
      </trkpt>
      <trkpt lat="46.5063" lon="0.58306">
        <ele>114.49243661016</ele>
        <time>2021-03-18T09:13:55Z</time>
      </trkpt>
      <trkpt lat="46.50631" lon="0.5831">
        <ele>114.17231894564</ele>
        <time>2021-03-18T09:13:57Z</time>
      </trkpt>
      <trkpt lat="46.50632" lon="0.58315">
        <ele>114.30352341384</ele>
        <time>2021-03-18T09:13:59Z</time>
      </trkpt>
      <trkpt lat="46.50633" lon="0.58319">
        <ele>113.569142811</ele>
        <time>2021-03-18T09:14:01Z</time>
      </trkpt>
      <trkpt lat="46.50634" lon="0.58323">
        <ele>113.70911214221</ele>
        <time>2021-03-18T09:14:03Z</time>
      </trkpt>
      <trkpt lat="46.50634" lon="0.58325">
        <ele>113.72669989336</ele>
        <time>2021-03-18T09:14:04Z</time>
      </trkpt>
      <trkpt lat="46.50635" lon="0.58328">
        <ele>113.24996224977</ele>
        <time>2021-03-18T09:14:06Z</time>
      </trkpt>
      <trkpt lat="46.50636" lon="0.58332">
        <ele>113.05691861827</ele>
        <time>2021-03-18T09:14:08Z</time>
      </trkpt>
      <trkpt lat="46.50635" lon="0.58336">
        <ele>112.82871364895</ele>
        <time>2021-03-18T09:14:10Z</time>
      </trkpt>
      <trkpt lat="46.50635" lon="0.58339">
        <ele>113.28650064394</ele>
        <time>2021-03-18T09:14:11Z</time>
      </trkpt>
      <trkpt lat="46.50636" lon="0.58342">
        <ele>112.31160459388</ele>
        <time>2021-03-18T09:14:13Z</time>
      </trkpt>
      <trkpt lat="46.50637" lon="0.58346">
        <ele>111.83924377616</ele>
        <time>2021-03-18T09:14:15Z</time>
      </trkpt>
      <trkpt lat="46.50638" lon="0.58349">
        <ele>111.9928928595</ele>
        <time>2021-03-18T09:14:17Z</time>
      </trkpt>
      <trkpt lat="46.50639" lon="0.58352">
        <ele>112.10956808366</ele>
        <time>2021-03-18T09:14:19Z</time>
      </trkpt>
      <trkpt lat="46.5064" lon="0.58356">
        <ele>111.66640801914</ele>
        <time>2021-03-18T09:14:21Z</time>
      </trkpt>
      <trkpt lat="46.50641" lon="0.5836">
        <ele>111.59877726156</ele>
        <time>2021-03-18T09:14:23Z</time>
      </trkpt>
      <trkpt lat="46.50641" lon="0.58363">
        <ele>111.29560955986</ele>
        <time>2021-03-18T09:14:25Z</time>
      </trkpt>
      <trkpt lat="46.50642" lon="0.58367">
        <ele>111.28329730034</ele>
        <time>2021-03-18T09:14:27Z</time>
      </trkpt>
      <trkpt lat="46.50643" lon="0.5837">
        <ele>110.95995369367</ele>
        <time>2021-03-18T09:14:29Z</time>
      </trkpt>
      <trkpt lat="46.50644" lon="0.58374">
        <ele>110.97212136444</ele>
        <time>2021-03-18T09:14:31Z</time>
      </trkpt>
      <trkpt lat="46.50644" lon="0.58377">
        <ele>111.11271146312</ele>
        <time>2021-03-18T09:14:33Z</time>
      </trkpt>
      <trkpt lat="46.50645" lon="0.58381">
        <ele>110.85864589643</ele>
        <time>2021-03-18T09:14:35Z</time>
      </trkpt>
      <trkpt lat="46.50645" lon="0.58385">
        <ele>110.72628799919</ele>
        <time>2021-03-18T09:14:37Z</time>
      </trkpt>
      <trkpt lat="46.50645" lon="0.58389">
        <ele>110.75971502811</ele>
        <time>2021-03-18T09:14:39Z</time>
      </trkpt>
      <trkpt lat="46.50646" lon="0.58392">
        <ele>110.99006649572</ele>
        <time>2021-03-18T09:14:40Z</time>
      </trkpt>
      <trkpt lat="46.50646" lon="0.58396">
        <ele>110.86039528158</ele>
        <time>2021-03-18T09:14:42Z</time>
      </trkpt>
      <trkpt lat="46.50647" lon="0.584">
        <ele>110.1355108805</ele>
        <time>2021-03-18T09:14:44Z</time>
      </trkpt>
      <trkpt lat="46.50648" lon="0.58403">
        <ele>110.32018174045</ele>
        <time>2021-03-18T09:14:46Z</time>
      </trkpt>
      <trkpt lat="46.50649" lon="0.58407">
        <ele>109.59866480716</ele>
        <time>2021-03-18T09:14:48Z</time>
      </trkpt>
      <trkpt lat="46.5065" lon="0.58411">
        <ele>109.60364294332</ele>
        <time>2021-03-18T09:14:50Z</time>
      </trkpt>
      <trkpt lat="46.50651" lon="0.58414">
        <ele>110.01439683512</ele>
        <time>2021-03-18T09:14:52Z</time>
      </trkpt>
      <trkpt lat="46.50652" lon="0.58418">
        <ele>109.6437797863</ele>
        <time>2021-03-18T09:14:54Z</time>
      </trkpt>
      <trkpt lat="46.50652" lon="0.5842">
        <ele>109.34176073503</ele>
        <time>2021-03-18T09:14:55Z</time>
      </trkpt>
      <trkpt lat="46.50653" lon="0.58424">
        <ele>109.49241889827</ele>
        <time>2021-03-18T09:14:57Z</time>
      </trkpt>
      <trkpt lat="46.50653" lon="0.58428">
        <ele>109.47201669775</ele>
        <time>2021-03-18T09:14:59Z</time>
      </trkpt>
      <trkpt lat="46.50654" lon="0.58433">
        <ele>109.02651035693</ele>
        <time>2021-03-18T09:15:02Z</time>
      </trkpt>
      <trkpt lat="46.50655" lon="0.58438">
        <ele>108.985934183</ele>
        <time>2021-03-18T09:15:04Z</time>
      </trkpt>
      <trkpt lat="46.50655" lon="0.58441">
        <ele>109.01436045207</ele>
        <time>2021-03-18T09:15:06Z</time>
      </trkpt>
      <trkpt lat="46.50656" lon="0.58445">
        <ele>108.22613466159</ele>
        <time>2021-03-18T09:15:08Z</time>
      </trkpt>
      <trkpt lat="46.50657" lon="0.58449">
        <ele>108.36088898499</ele>
        <time>2021-03-18T09:15:10Z</time>
      </trkpt>
      <trkpt lat="46.50657" lon="0.58453">
        <ele>108.10695633944</ele>
        <time>2021-03-18T09:15:12Z</time>
      </trkpt>
      <trkpt lat="46.50658" lon="0.58457">
        <ele>108.51825090777</ele>
        <time>2021-03-18T09:15:14Z</time>
      </trkpt>
      <trkpt lat="46.50659" lon="0.5846">
        <ele>107.63932560664</ele>
        <time>2021-03-18T09:15:16Z</time>
      </trkpt>
      <trkpt lat="46.5066" lon="0.58465">
        <ele>107.33433911391</ele>
        <time>2021-03-18T09:15:18Z</time>
      </trkpt>
      <trkpt lat="46.50661" lon="0.58469">
        <ele>107.17538304441</ele>
        <time>2021-03-18T09:15:20Z</time>
      </trkpt>
      <trkpt lat="46.50661" lon="0.58472">
        <ele>107.38113363739</ele>
        <time>2021-03-18T09:15:22Z</time>
      </trkpt>
      <trkpt lat="46.50662" lon="0.58476">
        <ele>107.20218006149</ele>
        <time>2021-03-18T09:15:24Z</time>
      </trkpt>
      <trkpt lat="46.50663" lon="0.58479">
        <ele>106.84715846833</ele>
        <time>2021-03-18T09:15:26Z</time>
      </trkpt>
      <trkpt lat="46.50663" lon="0.58483">
        <ele>107.08667304367</ele>
        <time>2021-03-18T09:15:28Z</time>
      </trkpt>
      <trkpt lat="46.50664" lon="0.58485">
        <ele>106.86526620761</ele>
        <time>2021-03-18T09:15:30Z</time>
      </trkpt>
      <trkpt lat="46.50664" lon="0.58489">
        <ele>106.74918574281</ele>
        <time>2021-03-18T09:15:32Z</time>
      </trkpt>
      <trkpt lat="46.50665" lon="0.58493">
        <ele>106.95847238973</ele>
        <time>2021-03-18T09:15:34Z</time>
      </trkpt>
      <trkpt lat="46.50666" lon="0.58498">
        <ele>106.64535196684</ele>
        <time>2021-03-18T09:15:36Z</time>
      </trkpt>
      <trkpt lat="46.50667" lon="0.58501">
        <ele>105.96489949338</ele>
        <time>2021-03-18T09:15:38Z</time>
      </trkpt>
      <trkpt lat="46.50668" lon="0.58505">
        <ele>105.87881507073</ele>
        <time>2021-03-18T09:15:40Z</time>
      </trkpt>
      <trkpt lat="46.50668" lon="0.58509">
        <ele>105.87824276462</ele>
        <time>2021-03-18T09:15:42Z</time>
      </trkpt>
      <trkpt lat="46.50669" lon="0.58513">
        <ele>105.89372765087</ele>
        <time>2021-03-18T09:15:44Z</time>
      </trkpt>
      <trkpt lat="46.50669" lon="0.58517">
        <ele>106.01672076806</ele>
        <time>2021-03-18T09:15:46Z</time>
      </trkpt>
      <trkpt lat="46.5067" lon="0.58521">
        <ele>105.76936971676</ele>
        <time>2021-03-18T09:15:48Z</time>
      </trkpt>
      <trkpt lat="46.50671" lon="0.58524">
        <ele>105.93061879091</ele>
        <time>2021-03-18T09:15:50Z</time>
      </trkpt>
      <trkpt lat="46.50672" lon="0.58528">
        <ele>105.9316778658</ele>
        <time>2021-03-18T09:15:52Z</time>
      </trkpt>
      <trkpt lat="46.50673" lon="0.58532">
        <ele>105.64171713404</ele>
        <time>2021-03-18T09:15:54Z</time>
      </trkpt>
      <trkpt lat="46.50674" lon="0.58536">
        <ele>105.30556878075</ele>
        <time>2021-03-18T09:15:56Z</time>
      </trkpt>
      <trkpt lat="46.50674" lon="0.58539">
        <ele>104.97512133885</ele>
        <time>2021-03-18T09:15:58Z</time>
      </trkpt>
      <trkpt lat="46.50675" lon="0.58542">
        <ele>104.92373202927</ele>
        <time>2021-03-18T09:15:59Z</time>
      </trkpt>
      <trkpt lat="46.50675" lon="0.58546">
        <ele>104.58310784772</ele>
        <time>2021-03-18T09:16:01Z</time>
      </trkpt>
      <trkpt lat="46.50676" lon="0.5855">
        <ele>104.41497405525</ele>
        <time>2021-03-18T09:16:03Z</time>
      </trkpt>
      <trkpt lat="46.50677" lon="0.58552">
        <ele>104.16319270898</ele>
        <time>2021-03-18T09:16:04Z</time>
      </trkpt>
      <trkpt lat="46.50678" lon="0.58556">
        <ele>104.18612316437</ele>
        <time>2021-03-18T09:16:06Z</time>
      </trkpt>
      <trkpt lat="46.50678" lon="0.5856">
        <ele>103.5317972796</ele>
        <time>2021-03-18T09:16:08Z</time>
      </trkpt>
      <trkpt lat="46.50679" lon="0.58564">
        <ele>103.45002282877</ele>
        <time>2021-03-18T09:16:10Z</time>
      </trkpt>
      <trkpt lat="46.5068" lon="0.58568">
        <ele>103.08655645885</ele>
        <time>2021-03-18T09:16:12Z</time>
      </trkpt>
      <trkpt lat="46.50681" lon="0.58573">
        <ele>102.51928785723</ele>
        <time>2021-03-18T09:16:14Z</time>
      </trkpt>
      <trkpt lat="46.50681" lon="0.58577">
        <ele>102.40005453862</ele>
        <time>2021-03-18T09:16:16Z</time>
      </trkpt>
      <trkpt lat="46.50682" lon="0.58581">
        <ele>101.76891640667</ele>
        <time>2021-03-18T09:16:18Z</time>
      </trkpt>
      <trkpt lat="46.50682" lon="0.58585">
        <ele>101.74713848904</ele>
        <time>2021-03-18T09:16:20Z</time>
      </trkpt>
      <trkpt lat="46.50683" lon="0.58589">
        <ele>101.5344584994</ele>
        <time>2021-03-18T09:16:22Z</time>
      </trkpt>
      <trkpt lat="46.50684" lon="0.58594">
        <ele>101.66396922618</ele>
        <time>2021-03-18T09:16:24Z</time>
      </trkpt>
      <trkpt lat="46.50685" lon="0.58598">
        <ele>101.21089083701</ele>
        <time>2021-03-18T09:16:26Z</time>
      </trkpt>
      <trkpt lat="46.50686" lon="0.58602">
        <ele>100.78793762997</ele>
        <time>2021-03-18T09:16:28Z</time>
      </trkpt>
      <trkpt lat="46.50686" lon="0.58604">
        <ele>100.78516249359</ele>
        <time>2021-03-18T09:16:29Z</time>
      </trkpt>
      <trkpt lat="46.50686" lon="0.58608">
        <ele>100.63751829043</ele>
        <time>2021-03-18T09:16:31Z</time>
      </trkpt>
      <trkpt lat="46.50687" lon="0.58611">
        <ele>100.08795619011</ele>
        <time>2021-03-18T09:16:33Z</time>
      </trkpt>
      <trkpt lat="46.50688" lon="0.58615">
        <ele>100.08236696385</ele>
        <time>2021-03-18T09:16:35Z</time>
      </trkpt>
      <trkpt lat="46.50688" lon="0.58618">
        <ele>100.06653404702</ele>
        <time>2021-03-18T09:16:36Z</time>
      </trkpt>
      <trkpt lat="46.50688" lon="0.58621">
        <ele>100.19271715358</ele>
        <time>2021-03-18T09:16:38Z</time>
      </trkpt>
      <trkpt lat="46.50689" lon="0.58623">
        <ele>100.1441114042</ele>
        <time>2021-03-18T09:16:40Z</time>
      </trkpt>
      <trkpt lat="46.5069" lon="0.58626">
        <ele>99.869027868845</ele>
        <time>2021-03-18T09:16:41Z</time>
      </trkpt>
      <trkpt lat="46.50691" lon="0.5863">
        <ele>100.02449014504</ele>
        <time>2021-03-18T09:16:43Z</time>
      </trkpt>
      <trkpt lat="46.50691" lon="0.58634">
        <ele>100.04164370988</ele>
        <time>2021-03-18T09:16:45Z</time>
      </trkpt>
      <trkpt lat="46.50692" lon="0.58638">
        <ele>99.183991489932</ele>
        <time>2021-03-18T09:16:47Z</time>
      </trkpt>
      <trkpt lat="46.50693" lon="0.58641">
        <ele>99.785639774986</ele>
        <time>2021-03-18T09:16:49Z</time>
      </trkpt>
      <trkpt lat="46.50694" lon="0.58645">
        <ele>99.184813635424</ele>
        <time>2021-03-18T09:16:51Z</time>
      </trkpt>
      <trkpt lat="46.50695" lon="0.58649">
        <ele>99.089026355185</ele>
        <time>2021-03-18T09:16:53Z</time>
      </trkpt>
      <trkpt lat="46.50696" lon="0.58653">
        <ele>99.420205452479</ele>
        <time>2021-03-18T09:16:55Z</time>
      </trkpt>
      <trkpt lat="46.50697" lon="0.58656">
        <ele>99.576900602318</ele>
        <time>2021-03-18T09:16:57Z</time>
      </trkpt>
      <trkpt lat="46.50698" lon="0.5866">
        <ele>99.337254612707</ele>
        <time>2021-03-18T09:16:59Z</time>
      </trkpt>
      <trkpt lat="46.50698" lon="0.58665">
        <ele>98.800556256436</ele>
        <time>2021-03-18T09:17:01Z</time>
      </trkpt>
      <trkpt lat="46.50699" lon="0.5867">
        <ele>98.769771756604</ele>
        <time>2021-03-18T09:17:03Z</time>
      </trkpt>
      <trkpt lat="46.507" lon="0.58672">
        <ele>98.624775872566</ele>
        <time>2021-03-18T09:17:05Z</time>
      </trkpt>
      <trkpt lat="46.507" lon="0.58677">
        <ele>98.404458758421</ele>
        <time>2021-03-18T09:17:07Z</time>
      </trkpt>
      <trkpt lat="46.507" lon="0.5868">
        <ele>98.178597430699</ele>
        <time>2021-03-18T09:17:09Z</time>
      </trkpt>
      <trkpt lat="46.50702" lon="0.58685">
        <ele>98.009701310657</ele>
        <time>2021-03-18T09:17:11Z</time>
      </trkpt>
      <trkpt lat="46.50702" lon="0.58688">
        <ele>98.194281167351</ele>
        <time>2021-03-18T09:17:13Z</time>
      </trkpt>
      <trkpt lat="46.50703" lon="0.58693">
        <ele>98.128307550214</ele>
        <time>2021-03-18T09:17:15Z</time>
      </trkpt>
      <trkpt lat="46.50703" lon="0.58696">
        <ele>97.87048597727</ele>
        <time>2021-03-18T09:17:17Z</time>
      </trkpt>
      <trkpt lat="46.50704" lon="0.587">
        <ele>98.11227002088</ele>
        <time>2021-03-18T09:17:19Z</time>
      </trkpt>
      <trkpt lat="46.50705" lon="0.58704">
        <ele>98.029386378825</ele>
        <time>2021-03-18T09:17:21Z</time>
      </trkpt>
      <trkpt lat="46.50706" lon="0.58708">
        <ele>97.700993373059</ele>
        <time>2021-03-18T09:17:23Z</time>
      </trkpt>
      <trkpt lat="46.50706" lon="0.58712">
        <ele>98.02982841339</ele>
        <time>2021-03-18T09:17:25Z</time>
      </trkpt>
      <trkpt lat="46.50707" lon="0.58717">
        <ele>97.97663447354</ele>
        <time>2021-03-18T09:17:27Z</time>
      </trkpt>
      <trkpt lat="46.50708" lon="0.5872">
        <ele>98.104538871907</ele>
        <time>2021-03-18T09:17:29Z</time>
      </trkpt>
      <trkpt lat="46.50708" lon="0.58725">
        <ele>98.121109771542</ele>
        <time>2021-03-18T09:17:31Z</time>
      </trkpt>
      <trkpt lat="46.50709" lon="0.58729">
        <ele>97.436455911957</ele>
        <time>2021-03-18T09:17:33Z</time>
      </trkpt>
      <trkpt lat="46.50709" lon="0.58733">
        <ele>97.45242774114</ele>
        <time>2021-03-18T09:17:35Z</time>
      </trkpt>
      <trkpt lat="46.5071" lon="0.58738">
        <ele>97.79927888047</ele>
        <time>2021-03-18T09:17:37Z</time>
      </trkpt>
      <trkpt lat="46.5071" lon="0.58742">
        <ele>97.68308554031</ele>
        <time>2021-03-18T09:17:39Z</time>
      </trkpt>
      <trkpt lat="46.50711" lon="0.58746">
        <ele>97.863157118671</ele>
        <time>2021-03-18T09:17:41Z</time>
      </trkpt>
      <trkpt lat="46.50712" lon="0.58751">
        <ele>97.54528787639</ele>
        <time>2021-03-18T09:17:43Z</time>
      </trkpt>
      <trkpt lat="46.50712" lon="0.58754">
        <ele>97.35902367346</ele>
        <time>2021-03-18T09:17:45Z</time>
      </trkpt>
      <trkpt lat="46.50713" lon="0.58757">
        <ele>97.242086925544</ele>
        <time>2021-03-18T09:17:47Z</time>
      </trkpt>
      <trkpt lat="46.50714" lon="0.5876">
        <ele>97.172175508924</ele>
        <time>2021-03-18T09:17:48Z</time>
      </trkpt>
      <trkpt lat="46.50714" lon="0.58763">
        <ele>97.118270527571</ele>
        <time>2021-03-18T09:17:49Z</time>
      </trkpt>
      <trkpt lat="46.50715" lon="0.58767">
        <ele>97.407782240771</ele>
        <time>2021-03-18T09:17:51Z</time>
      </trkpt>
      <trkpt lat="46.50716" lon="0.58772">
        <ele>97.394926447421</ele>
        <time>2021-03-18T09:17:53Z</time>
      </trkpt>
      <trkpt lat="46.50716" lon="0.58776">
        <ele>97.860719870776</ele>
        <time>2021-03-18T09:17:55Z</time>
      </trkpt>
      <trkpt lat="46.50716" lon="0.58779">
        <ele>97.435200626031</ele>
        <time>2021-03-18T09:17:56Z</time>
      </trkpt>
      <trkpt lat="46.50717" lon="0.58783">
        <ele>97.504069071263</ele>
        <time>2021-03-18T09:17:58Z</time>
      </trkpt>
      <trkpt lat="46.50717" lon="0.58785">
        <ele>97.539838287979</ele>
        <time>2021-03-18T09:17:59Z</time>
      </trkpt>
      <trkpt lat="46.50718" lon="0.58788">
        <ele>97.37009028811</ele>
        <time>2021-03-18T09:18:00Z</time>
      </trkpt>
      <trkpt lat="46.50718" lon="0.58792">
        <ele>97.492572175339</ele>
        <time>2021-03-18T09:18:02Z</time>
      </trkpt>
      <trkpt lat="46.50719" lon="0.58794">
        <ele>98.111194754951</ele>
        <time>2021-03-18T09:18:04Z</time>
      </trkpt>
      <trkpt lat="46.50719" lon="0.58797">
        <ele>97.453614596277</ele>
        <time>2021-03-18T09:18:06Z</time>
      </trkpt>
      <trkpt lat="46.50719" lon="0.58801">
        <ele>97.107147121802</ele>
        <time>2021-03-18T09:18:08Z</time>
      </trkpt>
      <trkpt lat="46.5072" lon="0.58804">
        <ele>97.128090363927</ele>
        <time>2021-03-18T09:18:09Z</time>
      </trkpt>
      <trkpt lat="46.50721" lon="0.58808">
        <ele>97.706558322534</ele>
        <time>2021-03-18T09:18:11Z</time>
      </trkpt>
      <trkpt lat="46.50721" lon="0.58811">
        <ele>97.999637749046</ele>
        <time>2021-03-18T09:18:13Z</time>
      </trkpt>
      <trkpt lat="46.50721" lon="0.58815">
        <ele>97.799552338198</ele>
        <time>2021-03-18T09:18:15Z</time>
      </trkpt>
      <trkpt lat="46.50721" lon="0.58818">
        <ele>98.405781425536</ele>
        <time>2021-03-18T09:18:17Z</time>
      </trkpt>
      <trkpt lat="46.50722" lon="0.58821">
        <ele>98.14556779433</ele>
        <time>2021-03-18T09:18:18Z</time>
      </trkpt>
      <trkpt lat="46.50723" lon="0.58825">
        <ele>98.479621612467</ele>
        <time>2021-03-18T09:18:20Z</time>
      </trkpt>
      <trkpt lat="46.50723" lon="0.58829">
        <ele>98.859049637802</ele>
        <time>2021-03-18T09:18:22Z</time>
      </trkpt>
      <trkpt lat="46.50725" lon="0.58833">
        <ele>98.616407495923</ele>
        <time>2021-03-18T09:18:24Z</time>
      </trkpt>
      <trkpt lat="46.50726" lon="0.58836">
        <ele>100.1530553503</ele>
        <time>2021-03-18T09:18:26Z</time>
      </trkpt>
      <trkpt lat="46.50728" lon="0.58839">
        <ele>99.809674376622</ele>
        <time>2021-03-18T09:18:28Z</time>
      </trkpt>
      <trkpt lat="46.5073" lon="0.58843">
        <ele>99.831485110335</ele>
        <time>2021-03-18T09:18:30Z</time>
      </trkpt>
      <trkpt lat="46.50732" lon="0.58845">
        <ele>100.76413582917</ele>
        <time>2021-03-18T09:18:32Z</time>
      </trkpt>
      <trkpt lat="46.50733" lon="0.58847">
        <ele>100.14932709374</ele>
        <time>2021-03-18T09:18:34Z</time>
      </trkpt>
      <trkpt lat="46.50734" lon="0.5885">
        <ele>100.68253309</ele>
        <time>2021-03-18T09:18:36Z</time>
      </trkpt>
      <trkpt lat="46.50736" lon="0.58853">
        <ele>100.92411772348</ele>
        <time>2021-03-18T09:18:38Z</time>
      </trkpt>
      <trkpt lat="46.50738" lon="0.58857">
        <ele>100.40706813615</ele>
        <time>2021-03-18T09:18:41Z</time>
      </trkpt>
      <trkpt lat="46.5074" lon="0.58859">
        <ele>100.84517839365</ele>
        <time>2021-03-18T09:18:43Z</time>
      </trkpt>
      <trkpt lat="46.50742" lon="0.58861">
        <ele>100.91349290218</ele>
        <time>2021-03-18T09:18:45Z</time>
      </trkpt>
      <trkpt lat="46.50743" lon="0.58864">
        <ele>100.33967337385</ele>
        <time>2021-03-18T09:18:47Z</time>
      </trkpt>
      <trkpt lat="46.50746" lon="0.58866">
        <ele>102.05681856349</ele>
        <time>2021-03-18T09:18:49Z</time>
      </trkpt>
      <trkpt lat="46.50748" lon="0.58866">
        <ele>101.21724982373</ele>
        <time>2021-03-18T09:18:51Z</time>
      </trkpt>
      <trkpt lat="46.50751" lon="0.58869">
        <ele>101.4730931595</ele>
        <time>2021-03-18T09:18:53Z</time>
      </trkpt>
      <trkpt lat="46.50752" lon="0.58872">
        <ele>100.91489572544</ele>
        <time>2021-03-18T09:18:55Z</time>
      </trkpt>
      <trkpt lat="46.50754" lon="0.58874">
        <ele>101.14689466264</ele>
        <time>2021-03-18T09:18:57Z</time>
      </trkpt>
      <trkpt lat="46.50755" lon="0.58876">
        <ele>101.10812280606</ele>
        <time>2021-03-18T09:18:59Z</time>
      </trkpt>
      <trkpt lat="46.50757" lon="0.58878">
        <ele>101.68055577017</ele>
        <time>2021-03-18T09:19:01Z</time>
      </trkpt>
      <trkpt lat="46.50758" lon="0.58881">
        <ele>101.96893135924</ele>
        <time>2021-03-18T09:19:03Z</time>
      </trkpt>
      <trkpt lat="46.5076" lon="0.58881">
        <ele>100.73903909046</ele>
        <time>2021-03-18T09:19:05Z</time>
      </trkpt>
      <trkpt lat="46.50762" lon="0.58882">
        <ele>101.28299767431</ele>
        <time>2021-03-18T09:19:07Z</time>
      </trkpt>
      <trkpt lat="46.50764" lon="0.58884">
        <ele>101.45630324073</ele>
        <time>2021-03-18T09:19:09Z</time>
      </trkpt>
      <trkpt lat="46.50766" lon="0.58886">
        <ele>101.55486289598</ele>
        <time>2021-03-18T09:19:11Z</time>
      </trkpt>
      <trkpt lat="46.50768" lon="0.58887">
        <ele>101.83475553431</ele>
        <time>2021-03-18T09:19:13Z</time>
      </trkpt>
      <trkpt lat="46.5077" lon="0.5889">
        <ele>100.74151795357</ele>
        <time>2021-03-18T09:19:15Z</time>
      </trkpt>
      <trkpt lat="46.50772" lon="0.58891">
        <ele>101.04963628016</ele>
        <time>2021-03-18T09:19:17Z</time>
      </trkpt>
      <trkpt lat="46.50774" lon="0.58892">
        <ele>101.21914878767</ele>
        <time>2021-03-18T09:19:19Z</time>
      </trkpt>
      <trkpt lat="46.50777" lon="0.58893">
        <ele>101.46989676729</ele>
        <time>2021-03-18T09:19:21Z</time>
      </trkpt>
      <trkpt lat="46.50779" lon="0.58895">
        <ele>101.61702641845</ele>
        <time>2021-03-18T09:19:23Z</time>
      </trkpt>
      <trkpt lat="46.50781" lon="0.58898">
        <ele>101.44058774691</ele>
        <time>2021-03-18T09:19:26Z</time>
      </trkpt>
      <trkpt lat="46.50784" lon="0.58899">
        <ele>101.63667871617</ele>
        <time>2021-03-18T09:19:28Z</time>
      </trkpt>
      <trkpt lat="46.50787" lon="0.58901">
        <ele>101.21220542211</ele>
        <time>2021-03-18T09:19:30Z</time>
      </trkpt>
      <trkpt lat="46.50789" lon="0.58902">
        <ele>101.32264507562</ele>
        <time>2021-03-18T09:19:32Z</time>
      </trkpt>
      <trkpt lat="46.50791" lon="0.58904">
        <ele>100.78175411839</ele>
        <time>2021-03-18T09:19:34Z</time>
      </trkpt>
      <trkpt lat="46.50794" lon="0.58905">
        <ele>100.78485361487</ele>
        <time>2021-03-18T09:19:37Z</time>
      </trkpt>
      <trkpt lat="46.50796" lon="0.58906">
        <ele>100.99686542246</ele>
        <time>2021-03-18T09:19:39Z</time>
      </trkpt>
      <trkpt lat="46.50798" lon="0.58907">
        <ele>101.11831942946</ele>
        <time>2021-03-18T09:19:41Z</time>
      </trkpt>
      <trkpt lat="46.50801" lon="0.5891">
        <ele>101.35007534083</ele>
        <time>2021-03-18T09:19:43Z</time>
      </trkpt>
      <trkpt lat="46.50803" lon="0.58911">
        <ele>100.98510918673</ele>
        <time>2021-03-18T09:19:45Z</time>
      </trkpt>
      <trkpt lat="46.50805" lon="0.58913">
        <ele>101.08207377698</ele>
        <time>2021-03-18T09:19:47Z</time>
      </trkpt>
      <trkpt lat="46.50807" lon="0.58914">
        <ele>100.95624089986</ele>
        <time>2021-03-18T09:19:49Z</time>
      </trkpt>
      <trkpt lat="46.5081" lon="0.58917">
        <ele>100.91106134001</ele>
        <time>2021-03-18T09:19:52Z</time>
      </trkpt>
      <trkpt lat="46.50813" lon="0.58919">
        <ele>101.13511962257</ele>
        <time>2021-03-18T09:19:54Z</time>
      </trkpt>
      <trkpt lat="46.50815" lon="0.5892">
        <ele>100.92178392503</ele>
        <time>2021-03-18T09:19:56Z</time>
      </trkpt>
      <trkpt lat="46.50818" lon="0.58922">
        <ele>101.29964240454</ele>
        <time>2021-03-18T09:19:58Z</time>
      </trkpt>
      <trkpt lat="46.5082" lon="0.58923">
        <ele>101.38753772154</ele>
        <time>2021-03-18T09:20:00Z</time>
      </trkpt>
      <trkpt lat="46.50822" lon="0.58924">
        <ele>100.75320944283</ele>
        <time>2021-03-18T09:20:02Z</time>
      </trkpt>
      <trkpt lat="46.50824" lon="0.58927">
        <ele>100.60700402968</ele>
        <time>2021-03-18T09:20:04Z</time>
      </trkpt>
      <trkpt lat="46.50826" lon="0.58929">
        <ele>101.64466860145</ele>
        <time>2021-03-18T09:20:06Z</time>
      </trkpt>
      <trkpt lat="46.50829" lon="0.58929">
        <ele>101.68866702821</ele>
        <time>2021-03-18T09:20:07Z</time>
      </trkpt>
      <trkpt lat="46.50831" lon="0.58932">
        <ele>101.61917028762</ele>
        <time>2021-03-18T09:20:09Z</time>
      </trkpt>
      <trkpt lat="46.50833" lon="0.58933">
        <ele>101.17531198449</ele>
        <time>2021-03-18T09:20:11Z</time>
      </trkpt>
      <trkpt lat="46.50834" lon="0.58935">
        <ele>101.44199879002</ele>
        <time>2021-03-18T09:20:13Z</time>
      </trkpt>
      <trkpt lat="46.50837" lon="0.58936">
        <ele>101.23649889044</ele>
        <time>2021-03-18T09:20:15Z</time>
      </trkpt>
      <trkpt lat="46.5084" lon="0.58938">
        <ele>101.42812010273</ele>
        <time>2021-03-18T09:20:17Z</time>
      </trkpt>
      <trkpt lat="46.50842" lon="0.58939">
        <ele>101.53196418658</ele>
        <time>2021-03-18T09:20:19Z</time>
      </trkpt>
      <trkpt lat="46.50845" lon="0.58941">
        <ele>101.93744389992</ele>
        <time>2021-03-18T09:20:21Z</time>
      </trkpt>
      <trkpt lat="46.50847" lon="0.58943">
        <ele>101.4378437344</ele>
        <time>2021-03-18T09:20:23Z</time>
      </trkpt>
      <trkpt lat="46.5085" lon="0.58945">
        <ele>101.95274592936</ele>
        <time>2021-03-18T09:20:25Z</time>
      </trkpt>
      <trkpt lat="46.50852" lon="0.58946">
        <ele>102.3914051773</ele>
        <time>2021-03-18T09:20:27Z</time>
      </trkpt>
      <trkpt lat="46.50855" lon="0.58948">
        <ele>102.10020622052</ele>
        <time>2021-03-18T09:20:29Z</time>
      </trkpt>
      <trkpt lat="46.50856" lon="0.58951">
        <ele>102.24245996587</ele>
        <time>2021-03-18T09:20:31Z</time>
      </trkpt>
      <trkpt lat="46.50858" lon="0.58952">
        <ele>102.1706803916</ele>
        <time>2021-03-18T09:20:33Z</time>
      </trkpt>
      <trkpt lat="46.5086" lon="0.58952">
        <ele>102.1378212329</ele>
        <time>2021-03-18T09:20:35Z</time>
      </trkpt>
      <trkpt lat="46.50863" lon="0.58953">
        <ele>102.08159252163</ele>
        <time>2021-03-18T09:20:37Z</time>
      </trkpt>
      <trkpt lat="46.50865" lon="0.58955">
        <ele>102.53624339309</ele>
        <time>2021-03-18T09:20:39Z</time>
      </trkpt>
      <trkpt lat="46.50867" lon="0.58956">
        <ele>102.65305800457</ele>
        <time>2021-03-18T09:20:41Z</time>
      </trkpt>
      <trkpt lat="46.50869" lon="0.58957">
        <ele>102.73672595713</ele>
        <time>2021-03-18T09:20:43Z</time>
      </trkpt>
      <trkpt lat="46.50872" lon="0.58959">
        <ele>103.00871422328</ele>
        <time>2021-03-18T09:20:45Z</time>
      </trkpt>
      <trkpt lat="46.50875" lon="0.5896">
        <ele>102.99550944567</ele>
        <time>2021-03-18T09:20:48Z</time>
      </trkpt>
      <trkpt lat="46.50878" lon="0.58962">
        <ele>102.72292767093</ele>
        <time>2021-03-18T09:20:50Z</time>
      </trkpt>
      <trkpt lat="46.5088" lon="0.58964">
        <ele>102.9252291685</ele>
        <time>2021-03-18T09:20:53Z</time>
      </trkpt>
      <trkpt lat="46.50882" lon="0.58966">
        <ele>103.06640985329</ele>
        <time>2021-03-18T09:20:55Z</time>
      </trkpt>
      <trkpt lat="46.50885" lon="0.58967">
        <ele>102.9914604621</ele>
        <time>2021-03-18T09:20:57Z</time>
      </trkpt>
      <trkpt lat="46.50887" lon="0.58969">
        <ele>102.95075251255</ele>
        <time>2021-03-18T09:20:59Z</time>
      </trkpt>
      <trkpt lat="46.50889" lon="0.58971">
        <ele>102.9876512466</ele>
        <time>2021-03-18T09:21:01Z</time>
      </trkpt>
      <trkpt lat="46.50892" lon="0.58972">
        <ele>102.98419660423</ele>
        <time>2021-03-18T09:21:03Z</time>
      </trkpt>
      <trkpt lat="46.50894" lon="0.58974">
        <ele>102.43287210446</ele>
        <time>2021-03-18T09:21:05Z</time>
      </trkpt>
      <trkpt lat="46.50895" lon="0.58975">
        <ele>103.12872001994</ele>
        <time>2021-03-18T09:21:07Z</time>
      </trkpt>
      <trkpt lat="46.50898" lon="0.58976">
        <ele>103.13948433381</ele>
        <time>2021-03-18T09:21:09Z</time>
      </trkpt>
      <trkpt lat="46.509" lon="0.58977">
        <ele>102.48340749834</ele>
        <time>2021-03-18T09:21:11Z</time>
      </trkpt>
      <trkpt lat="46.50904" lon="0.5898">
        <ele>103.43386985268</ele>
        <time>2021-03-18T09:21:13Z</time>
      </trkpt>
      <trkpt lat="46.50906" lon="0.58981">
        <ele>103.02498784661</ele>
        <time>2021-03-18T09:21:15Z</time>
      </trkpt>
      <trkpt lat="46.50908" lon="0.58982">
        <ele>103.24690591451</ele>
        <time>2021-03-18T09:21:17Z</time>
      </trkpt>
      <trkpt lat="46.50911" lon="0.58984">
        <ele>103.49715529755</ele>
        <time>2021-03-18T09:21:19Z</time>
      </trkpt>
      <trkpt lat="46.50913" lon="0.58985">
        <ele>103.605273013</ele>
        <time>2021-03-18T09:21:21Z</time>
      </trkpt>
      <trkpt lat="46.50915" lon="0.58986">
        <ele>103.88654239289</ele>
        <time>2021-03-18T09:21:23Z</time>
      </trkpt>
      <trkpt lat="46.50917" lon="0.58988">
        <ele>103.39722713735</ele>
        <time>2021-03-18T09:21:25Z</time>
      </trkpt>
      <trkpt lat="46.5092" lon="0.58989">
        <ele>103.70668390766</ele>
        <time>2021-03-18T09:21:27Z</time>
      </trkpt>
      <trkpt lat="46.50922" lon="0.5899">
        <ele>104.09257068112</ele>
        <time>2021-03-18T09:21:29Z</time>
      </trkpt>
      <trkpt lat="46.50924" lon="0.58991">
        <ele>103.59318763763</ele>
        <time>2021-03-18T09:21:31Z</time>
      </trkpt>
      <trkpt lat="46.50926" lon="0.58994">
        <ele>103.43178192712</ele>
        <time>2021-03-18T09:21:33Z</time>
      </trkpt>
      <trkpt lat="46.50929" lon="0.58996">
        <ele>104.43241311423</ele>
        <time>2021-03-18T09:21:35Z</time>
      </trkpt>
      <trkpt lat="46.50931" lon="0.58998">
        <ele>104.0539245829</ele>
        <time>2021-03-18T09:21:37Z</time>
      </trkpt>
      <trkpt lat="46.50935" lon="0.58999">
        <ele>104.43299448024</ele>
        <time>2021-03-18T09:21:39Z</time>
      </trkpt>
      <trkpt lat="46.50936" lon="0.59">
        <ele>103.83702053875</ele>
        <time>2021-03-18T09:21:42Z</time>
      </trkpt>
      <trkpt lat="46.50938" lon="0.59">
        <ele>104.15781552251</ele>
        <time>2021-03-18T09:21:44Z</time>
      </trkpt>
      <trkpt lat="46.5094" lon="0.58999">
        <ele>104.27560250368</ele>
        <time>2021-03-18T09:21:46Z</time>
      </trkpt>
      <trkpt lat="46.50941" lon="0.58996">
        <ele>103.96026647743</ele>
        <time>2021-03-18T09:21:52Z</time>
      </trkpt>
      <trkpt lat="46.50943" lon="0.58997">
        <ele>103.82924183551</ele>
        <time>2021-03-18T09:21:56Z</time>
      </trkpt>
      <trkpt lat="46.50945" lon="0.59">
        <ele>103.35900487192</ele>
        <time>2021-03-18T09:21:59Z</time>
      </trkpt>
      <trkpt lat="46.50946" lon="0.59003">
        <ele>104.22707702592</ele>
        <time>2021-03-18T09:22:03Z</time>
      </trkpt>
      <trkpt lat="46.50948" lon="0.59005">
        <ele>103.5908230925</ele>
        <time>2021-03-18T09:22:05Z</time>
      </trkpt>
      <trkpt lat="46.5095" lon="0.59007">
        <ele>103.78240179922</ele>
        <time>2021-03-18T09:22:08Z</time>
      </trkpt>
      <trkpt lat="46.50952" lon="0.59008">
        <ele>103.70541760512</ele>
        <time>2021-03-18T09:22:10Z</time>
      </trkpt>
      <trkpt lat="46.50954" lon="0.59009">
        <ele>104.02065700106</ele>
        <time>2021-03-18T09:22:12Z</time>
      </trkpt>
      <trkpt lat="46.50956" lon="0.59011">
        <ele>104.10339980386</ele>
        <time>2021-03-18T09:22:14Z</time>
      </trkpt>
      <trkpt lat="46.50958" lon="0.59012">
        <ele>103.9275685586</ele>
        <time>2021-03-18T09:22:16Z</time>
      </trkpt>
      <trkpt lat="46.5096" lon="0.59014">
        <ele>103.78793824743</ele>
        <time>2021-03-18T09:22:18Z</time>
      </trkpt>
      <trkpt lat="46.50962" lon="0.59015">
        <ele>103.51104353182</ele>
        <time>2021-03-18T09:22:20Z</time>
      </trkpt>
      <trkpt lat="46.50964" lon="0.59017">
        <ele>103.45818636194</ele>
        <time>2021-03-18T09:22:21Z</time>
      </trkpt>
      <trkpt lat="46.50966" lon="0.59018">
        <ele>103.54500917532</ele>
        <time>2021-03-18T09:22:23Z</time>
      </trkpt>
      <trkpt lat="46.50969" lon="0.5902">
        <ele>103.45516332984</ele>
        <time>2021-03-18T09:22:25Z</time>
      </trkpt>
      <trkpt lat="46.5097" lon="0.59022">
        <ele>103.91530640516</ele>
        <time>2021-03-18T09:22:27Z</time>
      </trkpt>
      <trkpt lat="46.50973" lon="0.59024">
        <ele>103.59709922504</ele>
        <time>2021-03-18T09:22:29Z</time>
      </trkpt>
      <trkpt lat="46.50976" lon="0.59025">
        <ele>103.77574270777</ele>
        <time>2021-03-18T09:22:31Z</time>
      </trkpt>
      <trkpt lat="46.50978" lon="0.59028">
        <ele>103.65067208745</ele>
        <time>2021-03-18T09:22:33Z</time>
      </trkpt>
      <trkpt lat="46.50982" lon="0.59029">
        <ele>103.57011074293</ele>
        <time>2021-03-18T09:22:35Z</time>
      </trkpt>
      <trkpt lat="46.50984" lon="0.5903">
        <ele>103.195519628</ele>
        <time>2021-03-18T09:22:36Z</time>
      </trkpt>
      <trkpt lat="46.50986" lon="0.59032">
        <ele>103.06956211478</ele>
        <time>2021-03-18T09:22:38Z</time>
      </trkpt>
      <trkpt lat="46.50989" lon="0.59033">
        <ele>103.28919528052</ele>
        <time>2021-03-18T09:22:40Z</time>
      </trkpt>
      <trkpt lat="46.50992" lon="0.59035">
        <ele>103.4161630515</ele>
        <time>2021-03-18T09:22:42Z</time>
      </trkpt>
      <trkpt lat="46.50994" lon="0.59035">
        <ele>102.86475639138</ele>
        <time>2021-03-18T09:22:44Z</time>
      </trkpt>
      <trkpt lat="46.50995" lon="0.59036">
        <ele>103.53024327289</ele>
        <time>2021-03-18T09:22:46Z</time>
      </trkpt>
      <trkpt lat="46.50998" lon="0.59037">
        <ele>103.57267804723</ele>
        <time>2021-03-18T09:22:48Z</time>
      </trkpt>
      <trkpt lat="46.51" lon="0.59037">
        <ele>103.57210182492</ele>
        <time>2021-03-18T09:22:50Z</time>
      </trkpt>
      <trkpt lat="46.51003" lon="0.59037">
        <ele>103.51046249457</ele>
        <time>2021-03-18T09:22:52Z</time>
      </trkpt>
      <trkpt lat="46.51005" lon="0.59037">
        <ele>103.41657115147</ele>
        <time>2021-03-18T09:22:54Z</time>
      </trkpt>
      <trkpt lat="46.51008" lon="0.59038">
        <ele>103.53422017489</ele>
        <time>2021-03-18T09:22:56Z</time>
      </trkpt>
      <trkpt lat="46.51011" lon="0.59038">
        <ele>103.25189129356</ele>
        <time>2021-03-18T09:22:58Z</time>
      </trkpt>
      <trkpt lat="46.51012" lon="0.59038">
        <ele>103.45051869471</ele>
        <time>2021-03-18T09:22:59Z</time>
      </trkpt>
      <trkpt lat="46.51015" lon="0.5904">
        <ele>103.68633759953</ele>
        <time>2021-03-18T09:23:00Z</time>
      </trkpt>
      <trkpt lat="46.51017" lon="0.59041">
        <ele>103.51598370261</ele>
        <time>2021-03-18T09:23:02Z</time>
      </trkpt>
      <trkpt lat="46.5102" lon="0.59042">
        <ele>103.71230430622</ele>
        <time>2021-03-18T09:23:04Z</time>
      </trkpt>
      <trkpt lat="46.51023" lon="0.59044">
        <ele>104.10549728479</ele>
        <time>2021-03-18T09:23:06Z</time>
      </trkpt>
      <trkpt lat="46.51026" lon="0.59045">
        <ele>104.05240145605</ele>
        <time>2021-03-18T09:23:08Z</time>
      </trkpt>
      <trkpt lat="46.51029" lon="0.59045">
        <ele>103.63125087041</ele>
        <time>2021-03-18T09:23:10Z</time>
      </trkpt>
      <trkpt lat="46.51032" lon="0.59045">
        <ele>104.00208362937</ele>
        <time>2021-03-18T09:23:12Z</time>
      </trkpt>
      <trkpt lat="46.51035" lon="0.59046">
        <ele>103.96981175244</ele>
        <time>2021-03-18T09:23:14Z</time>
      </trkpt>
      <trkpt lat="46.51037" lon="0.59046">
        <ele>104.10328562558</ele>
        <time>2021-03-18T09:23:16Z</time>
      </trkpt>
      <trkpt lat="46.51039" lon="0.59047">
        <ele>103.8980663456</ele>
        <time>2021-03-18T09:23:18Z</time>
      </trkpt>
      <trkpt lat="46.51041" lon="0.59048">
        <ele>103.9796450641</ele>
        <time>2021-03-18T09:23:20Z</time>
      </trkpt>
      <trkpt lat="46.51044" lon="0.59048">
        <ele>103.87716208212</ele>
        <time>2021-03-18T09:23:22Z</time>
      </trkpt>
      <trkpt lat="46.51046" lon="0.59048">
        <ele>104.26261857431</ele>
        <time>2021-03-18T09:23:24Z</time>
      </trkpt>
      <trkpt lat="46.51048" lon="0.59049">
        <ele>104.61064567417</ele>
        <time>2021-03-18T09:23:26Z</time>
      </trkpt>
      <trkpt lat="46.5105" lon="0.5905">
        <ele>104.39318208117</ele>
        <time>2021-03-18T09:23:28Z</time>
      </trkpt>
      <trkpt lat="46.51053" lon="0.59051">
        <ele>104.28617873322</ele>
        <time>2021-03-18T09:23:30Z</time>
      </trkpt>
      <trkpt lat="46.51056" lon="0.59052">
        <ele>103.90111696161</ele>
        <time>2021-03-18T09:23:32Z</time>
      </trkpt>
      <trkpt lat="46.51058" lon="0.59053">
        <ele>104.45448862016</ele>
        <time>2021-03-18T09:23:34Z</time>
      </trkpt>
      <trkpt lat="46.51061" lon="0.59052">
        <ele>104.05696624331</ele>
        <time>2021-03-18T09:23:36Z</time>
      </trkpt>
      <trkpt lat="46.51064" lon="0.59053">
        <ele>104.10252538044</ele>
        <time>2021-03-18T09:23:39Z</time>
      </trkpt>
      <trkpt lat="46.51066" lon="0.59054">
        <ele>103.93484537024</ele>
        <time>2021-03-18T09:23:40Z</time>
      </trkpt>
      <trkpt lat="46.51069" lon="0.59054">
        <ele>103.88137914892</ele>
        <time>2021-03-18T09:23:42Z</time>
      </trkpt>
      <trkpt lat="46.51071" lon="0.59055">
        <ele>103.93561182823</ele>
        <time>2021-03-18T09:23:44Z</time>
      </trkpt>
      <trkpt lat="46.51074" lon="0.59055">
        <ele>104.0795678841</ele>
        <time>2021-03-18T09:23:46Z</time>
      </trkpt>
      <trkpt lat="46.51076" lon="0.59055">
        <ele>104.12285115663</ele>
        <time>2021-03-18T09:23:48Z</time>
      </trkpt>
      <trkpt lat="46.51079" lon="0.59055">
        <ele>104.03344548866</ele>
        <time>2021-03-18T09:23:50Z</time>
      </trkpt>
      <trkpt lat="46.51082" lon="0.59056">
        <ele>104.39695855137</ele>
        <time>2021-03-18T09:23:52Z</time>
      </trkpt>
      <trkpt lat="46.51084" lon="0.59056">
        <ele>104.17276829109</ele>
        <time>2021-03-18T09:23:53Z</time>
      </trkpt>
      <trkpt lat="46.51088" lon="0.59056">
        <ele>103.99878563173</ele>
        <time>2021-03-18T09:23:55Z</time>
      </trkpt>
      <trkpt lat="46.5109" lon="0.59057">
        <ele>104.38168492354</ele>
        <time>2021-03-18T09:23:57Z</time>
      </trkpt>
      <trkpt lat="46.51092" lon="0.59057">
        <ele>103.73927825689</ele>
        <time>2021-03-18T09:23:59Z</time>
      </trkpt>
      <trkpt lat="46.51095" lon="0.59058">
        <ele>103.56620211061</ele>
        <time>2021-03-18T09:24:01Z</time>
      </trkpt>
      <trkpt lat="46.51097" lon="0.59059">
        <ele>104.07211918756</ele>
        <time>2021-03-18T09:24:02Z</time>
      </trkpt>
      <trkpt lat="46.51099" lon="0.59059">
        <ele>104.68444787245</ele>
        <time>2021-03-18T09:24:03Z</time>
      </trkpt>
      <trkpt lat="46.51101" lon="0.5906">
        <ele>104.46876189671</ele>
        <time>2021-03-18T09:24:05Z</time>
      </trkpt>
      <trkpt lat="46.51104" lon="0.59061">
        <ele>104.18205193058</ele>
        <time>2021-03-18T09:24:07Z</time>
      </trkpt>
      <trkpt lat="46.51107" lon="0.59062">
        <ele>103.97728585079</ele>
        <time>2021-03-18T09:24:10Z</time>
      </trkpt>
      <trkpt lat="46.5111" lon="0.59062">
        <ele>103.94286961015</ele>
        <time>2021-03-18T09:24:12Z</time>
      </trkpt>
      <trkpt lat="46.51113" lon="0.59063">
        <ele>104.3259995617</ele>
        <time>2021-03-18T09:24:14Z</time>
      </trkpt>
      <trkpt lat="46.51115" lon="0.59064">
        <ele>104.0918965023</ele>
        <time>2021-03-18T09:24:16Z</time>
      </trkpt>
      <trkpt lat="46.51118" lon="0.59064">
        <ele>104.19828555919</ele>
        <time>2021-03-18T09:24:18Z</time>
      </trkpt>
      <trkpt lat="46.5112" lon="0.59064">
        <ele>104.16573330946</ele>
        <time>2021-03-18T09:24:19Z</time>
      </trkpt>
      <trkpt lat="46.51123" lon="0.59065">
        <ele>103.85790744796</ele>
        <time>2021-03-18T09:24:21Z</time>
      </trkpt>
      <trkpt lat="46.51125" lon="0.59065">
        <ele>103.73800261132</ele>
        <time>2021-03-18T09:24:23Z</time>
      </trkpt>
      <trkpt lat="46.51128" lon="0.59066">
        <ele>103.61752710771</ele>
        <time>2021-03-18T09:24:25Z</time>
      </trkpt>
      <trkpt lat="46.5113" lon="0.59068">
        <ele>103.94737418648</ele>
        <time>2021-03-18T09:24:27Z</time>
      </trkpt>
      <trkpt lat="46.51133" lon="0.59069">
        <ele>103.59457032848</ele>
        <time>2021-03-18T09:24:29Z</time>
      </trkpt>
      <trkpt lat="46.51136" lon="0.59071">
        <ele>103.85070094746</ele>
        <time>2021-03-18T09:24:31Z</time>
      </trkpt>
      <trkpt lat="46.51139" lon="0.59071">
        <ele>103.67294014059</ele>
        <time>2021-03-18T09:24:33Z</time>
      </trkpt>
      <trkpt lat="46.51142" lon="0.59072">
        <ele>103.85588947125</ele>
        <time>2021-03-18T09:24:36Z</time>
      </trkpt>
      <trkpt lat="46.51145" lon="0.59072">
        <ele>104.23319763225</ele>
        <time>2021-03-18T09:24:38Z</time>
      </trkpt>
      <trkpt lat="46.51147" lon="0.59072">
        <ele>102.86637510546</ele>
        <time>2021-03-18T09:24:41Z</time>
      </trkpt>
      <trkpt lat="46.51149" lon="0.59073">
        <ele>103.48876143526</ele>
        <time>2021-03-18T09:24:43Z</time>
      </trkpt>
      <trkpt lat="46.51151" lon="0.59074">
        <ele>103.35173066892</ele>
        <time>2021-03-18T09:24:45Z</time>
      </trkpt>
      <trkpt lat="46.51153" lon="0.59074">
        <ele>103.44756985735</ele>
        <time>2021-03-18T09:24:47Z</time>
      </trkpt>
      <trkpt lat="46.51155" lon="0.59075">
        <ele>103.34797215648</ele>
        <time>2021-03-18T09:24:48Z</time>
      </trkpt>
      <trkpt lat="46.51159" lon="0.59075">
        <ele>103.49237597641</ele>
        <time>2021-03-18T09:24:50Z</time>
      </trkpt>
      <trkpt lat="46.51162" lon="0.59077">
        <ele>103.0184659576</ele>
        <time>2021-03-18T09:24:52Z</time>
      </trkpt>
      <trkpt lat="46.51165" lon="0.5908">
        <ele>103.51377444807</ele>
        <time>2021-03-18T09:24:54Z</time>
      </trkpt>
      <trkpt lat="46.51167" lon="0.59081">
        <ele>104.16002564039</ele>
        <time>2021-03-18T09:24:55Z</time>
      </trkpt>
      <trkpt lat="46.5117" lon="0.59083">
        <ele>102.74223384541</ele>
        <time>2021-03-18T09:24:57Z</time>
      </trkpt>
      <trkpt lat="46.51172" lon="0.59085">
        <ele>103.78146710526</ele>
        <time>2021-03-18T09:24:59Z</time>
      </trkpt>
      <trkpt lat="46.51174" lon="0.59087">
        <ele>103.92871009465</ele>
        <time>2021-03-18T09:25:01Z</time>
      </trkpt>
      <trkpt lat="46.51177" lon="0.5909">
        <ele>103.55265190359</ele>
        <time>2021-03-18T09:25:03Z</time>
      </trkpt>
      <trkpt lat="46.51179" lon="0.59092">
        <ele>103.62716741301</ele>
        <time>2021-03-18T09:25:05Z</time>
      </trkpt>
      <trkpt lat="46.51181" lon="0.59095">
        <ele>103.996443538</ele>
        <time>2021-03-18T09:25:07Z</time>
      </trkpt>
      <trkpt lat="46.51183" lon="0.59098">
        <ele>104.80381370988</ele>
        <time>2021-03-18T09:25:09Z</time>
      </trkpt>
      <trkpt lat="46.51185" lon="0.59101">
        <ele>104.39204730466</ele>
        <time>2021-03-18T09:25:11Z</time>
      </trkpt>
      <trkpt lat="46.51186" lon="0.59103">
        <ele>105.21832555253</ele>
        <time>2021-03-18T09:25:13Z</time>
      </trkpt>
      <trkpt lat="46.51188" lon="0.59105">
        <ele>105.90006797202</ele>
        <time>2021-03-18T09:25:15Z</time>
      </trkpt>
      <trkpt lat="46.5119" lon="0.59108">
        <ele>105.16156197991</ele>
        <time>2021-03-18T09:25:17Z</time>
      </trkpt>
      <trkpt lat="46.51192" lon="0.59111">
        <ele>105.27969490271</ele>
        <time>2021-03-18T09:25:19Z</time>
      </trkpt>
      <trkpt lat="46.51194" lon="0.59114">
        <ele>106.06602212787</ele>
        <time>2021-03-18T09:25:22Z</time>
      </trkpt>
      <trkpt lat="46.51195" lon="0.59117">
        <ele>106.47935010958</ele>
        <time>2021-03-18T09:25:24Z</time>
      </trkpt>
      <trkpt lat="46.51196" lon="0.59121">
        <ele>105.88803373557</ele>
        <time>2021-03-18T09:25:26Z</time>
      </trkpt>
      <trkpt lat="46.51198" lon="0.59124">
        <ele>106.13143405225</ele>
        <time>2021-03-18T09:25:28Z</time>
      </trkpt>
      <trkpt lat="46.512" lon="0.59126">
        <ele>106.22381156776</ele>
        <time>2021-03-18T09:25:30Z</time>
      </trkpt>
      <trkpt lat="46.51201" lon="0.5913">
        <ele>107.11126605701</ele>
        <time>2021-03-18T09:25:32Z</time>
      </trkpt>
      <trkpt lat="46.51201" lon="0.59134">
        <ele>106.41972983442</ele>
        <time>2021-03-18T09:25:34Z</time>
      </trkpt>
      <trkpt lat="46.51203" lon="0.59136">
        <ele>107.58672396187</ele>
        <time>2021-03-18T09:25:36Z</time>
      </trkpt>
      <trkpt lat="46.51204" lon="0.59139">
        <ele>107.43714186829</ele>
        <time>2021-03-18T09:25:38Z</time>
      </trkpt>
      <trkpt lat="46.51206" lon="0.59141">
        <ele>107.89405026194</ele>
        <time>2021-03-18T09:25:40Z</time>
      </trkpt>
      <trkpt lat="46.51207" lon="0.59144">
        <ele>107.2799136797</ele>
        <time>2021-03-18T09:25:42Z</time>
      </trkpt>
      <trkpt lat="46.51208" lon="0.59146">
        <ele>107.59902421199</ele>
        <time>2021-03-18T09:25:44Z</time>
      </trkpt>
      <trkpt lat="46.5121" lon="0.59148">
        <ele>108.05653950572</ele>
        <time>2021-03-18T09:25:46Z</time>
      </trkpt>
      <trkpt lat="46.51212" lon="0.5915">
        <ele>107.23064348102</ele>
        <time>2021-03-18T09:25:48Z</time>
      </trkpt>
      <trkpt lat="46.51213" lon="0.59153">
        <ele>107.95666396432</ele>
        <time>2021-03-18T09:25:50Z</time>
      </trkpt>
      <trkpt lat="46.51214" lon="0.59156">
        <ele>108.68575450405</ele>
        <time>2021-03-18T09:25:52Z</time>
      </trkpt>
      <trkpt lat="46.51216" lon="0.5916">
        <ele>108.05142776109</ele>
        <time>2021-03-18T09:25:54Z</time>
      </trkpt>
      <trkpt lat="46.51217" lon="0.59163">
        <ele>108.35635511391</ele>
        <time>2021-03-18T09:25:56Z</time>
      </trkpt>
      <trkpt lat="46.51218" lon="0.59166">
        <ele>107.79466222413</ele>
        <time>2021-03-18T09:25:58Z</time>
      </trkpt>
      <trkpt lat="46.51219" lon="0.5917">
        <ele>108.42835665774</ele>
        <time>2021-03-18T09:26:00Z</time>
      </trkpt>
      <trkpt lat="46.5122" lon="0.59172">
        <ele>108.29264309537</ele>
        <time>2021-03-18T09:26:03Z</time>
      </trkpt>
      <trkpt lat="46.51222" lon="0.59175">
        <ele>108.81553696003</ele>
        <time>2021-03-18T09:26:05Z</time>
      </trkpt>
      <trkpt lat="46.51223" lon="0.59179">
        <ele>108.78353721928</ele>
        <time>2021-03-18T09:26:07Z</time>
      </trkpt>
      <trkpt lat="46.51224" lon="0.59182">
        <ele>108.67103407439</ele>
        <time>2021-03-18T09:26:09Z</time>
      </trkpt>
      <trkpt lat="46.51225" lon="0.59184">
        <ele>110.87289362587</ele>
        <time>2021-03-18T09:26:10Z</time>
      </trkpt>
      <trkpt lat="46.51227" lon="0.59187">
        <ele>109.05754572432</ele>
        <time>2021-03-18T09:26:12Z</time>
      </trkpt>
      <trkpt lat="46.51229" lon="0.59189">
        <ele>109.97483128775</ele>
        <time>2021-03-18T09:26:14Z</time>
      </trkpt>
      <trkpt lat="46.5123" lon="0.59192">
        <ele>108.9661455648</ele>
        <time>2021-03-18T09:26:16Z</time>
      </trkpt>
      <trkpt lat="46.51231" lon="0.59194">
        <ele>109.62625342607</ele>
        <time>2021-03-18T09:26:18Z</time>
      </trkpt>
      <trkpt lat="46.51232" lon="0.59197">
        <ele>109.97350520175</ele>
        <time>2021-03-18T09:26:21Z</time>
      </trkpt>
      <trkpt lat="46.51232" lon="0.592">
        <ele>109.74139555637</ele>
        <time>2021-03-18T09:26:24Z</time>
      </trkpt>
      <trkpt lat="46.51231" lon="0.59203">
        <ele>110.50205880869</ele>
        <time>2021-03-18T09:26:29Z</time>
      </trkpt>
      <trkpt lat="46.51232" lon="0.59205">
        <ele>110.57887031976</ele>
        <time>2021-03-18T09:26:36Z</time>
      </trkpt>
      <trkpt lat="46.51231" lon="0.59207">
        <ele>110.67311343085</ele>
        <time>2021-03-18T09:26:44Z</time>
      </trkpt>
      <trkpt lat="46.5123" lon="0.5921">
        <ele>111.08242072072</ele>
        <time>2021-03-18T09:26:52Z</time>
      </trkpt>
      <trkpt lat="46.51231" lon="0.59207">
        <ele>111.00533469021</ele>
        <time>2021-03-18T09:26:57Z</time>
      </trkpt>
      <trkpt lat="46.51232" lon="0.59205">
        <ele>110.9021901302</ele>
        <time>2021-03-18T09:27:02Z</time>
      </trkpt>
      <trkpt lat="46.51233" lon="0.59208">
        <ele>110.85777665582</ele>
        <time>2021-03-18T09:27:12Z</time>
      </trkpt>
      <trkpt lat="46.51233" lon="0.59211">
        <ele>111.0660694465</ele>
        <time>2021-03-18T09:27:18Z</time>
      </trkpt>
      <trkpt lat="46.51234" lon="0.59208">
        <ele>110.99911738373</ele>
        <time>2021-03-18T09:27:34Z</time>
      </trkpt>
      <trkpt lat="46.51234" lon="0.59211">
        <ele>110.62129398528</ele>
        <time>2021-03-18T09:27:42Z</time>
      </trkpt>
      <trkpt lat="46.51232" lon="0.59211">
        <ele>110.85309732612</ele>
        <time>2021-03-18T09:27:52Z</time>
      </trkpt>
      <trkpt lat="46.5123" lon="0.59212">
        <ele>110.98853201512</ele>
        <time>2021-03-18T09:27:57Z</time>
      </trkpt>
      <trkpt lat="46.5123" lon="0.59208">
        <ele>111.21415513102</ele>
        <time>2021-03-18T09:28:03Z</time>
      </trkpt>
      <trkpt lat="46.51232" lon="0.59207">
        <ele>110.81092202198</ele>
        <time>2021-03-18T09:28:13Z</time>
      </trkpt>
      <trkpt lat="46.51232" lon="0.59204">
        <ele>110.86914813705</ele>
        <time>2021-03-18T09:28:28Z</time>
      </trkpt>
      <trkpt lat="46.51234" lon="0.59205">
        <ele>110.93570789788</ele>
        <time>2021-03-18T09:28:35Z</time>
      </trkpt>
      <trkpt lat="46.51234" lon="0.59209">
        <ele>110.37105475552</ele>
        <time>2021-03-18T09:28:37Z</time>
      </trkpt>
      <trkpt lat="46.51235" lon="0.59214">
        <ele>111.03132189345</ele>
        <time>2021-03-18T09:28:40Z</time>
      </trkpt>
      <trkpt lat="46.51236" lon="0.59216">
        <ele>110.74295224715</ele>
        <time>2021-03-18T09:28:42Z</time>
      </trkpt>
      <trkpt lat="46.51237" lon="0.59219">
        <ele>111.36620929092</ele>
        <time>2021-03-18T09:28:44Z</time>
      </trkpt>
      <trkpt lat="46.51237" lon="0.59222">
        <ele>111.63775280491</ele>
        <time>2021-03-18T09:28:46Z</time>
      </trkpt>
      <trkpt lat="46.51238" lon="0.59225">
        <ele>111.33285788819</ele>
        <time>2021-03-18T09:28:48Z</time>
      </trkpt>
      <trkpt lat="46.5124" lon="0.59227">
        <ele>111.02275835071</ele>
        <time>2021-03-18T09:28:50Z</time>
      </trkpt>
      <trkpt lat="46.5124" lon="0.59229">
        <ele>111.54534499347</ele>
        <time>2021-03-18T09:28:52Z</time>
      </trkpt>
      <trkpt lat="46.51241" lon="0.59232">
        <ele>111.7313464731</ele>
        <time>2021-03-18T09:28:54Z</time>
      </trkpt>
      <trkpt lat="46.5124" lon="0.59235">
        <ele>111.70317955315</ele>
        <time>2021-03-18T09:28:57Z</time>
      </trkpt>
      <trkpt lat="46.51239" lon="0.59238">
        <ele>111.55819720961</ele>
        <time>2021-03-18T09:28:59Z</time>
      </trkpt>
      <trkpt lat="46.51237" lon="0.5924">
        <ele>112.05862454325</ele>
        <time>2021-03-18T09:29:01Z</time>
      </trkpt>
      <trkpt lat="46.51236" lon="0.59242">
        <ele>112.3047727244</ele>
        <time>2021-03-18T09:29:03Z</time>
      </trkpt>
      <trkpt lat="46.51234" lon="0.59244">
        <ele>112.12533606589</ele>
        <time>2021-03-18T09:29:05Z</time>
      </trkpt>
      <trkpt lat="46.51232" lon="0.59246">
        <ele>112.43353916705</ele>
        <time>2021-03-18T09:29:07Z</time>
      </trkpt>
      <trkpt lat="46.5123" lon="0.59249">
        <ele>112.43544575386</ele>
        <time>2021-03-18T09:29:09Z</time>
      </trkpt>
      <trkpt lat="46.51228" lon="0.59251">
        <ele>112.32216962148</ele>
        <time>2021-03-18T09:29:11Z</time>
      </trkpt>
      <trkpt lat="46.51226" lon="0.59253">
        <ele>112.2992913425</ele>
        <time>2021-03-18T09:29:13Z</time>
      </trkpt>
      <trkpt lat="46.51224" lon="0.59255">
        <ele>112.30928777438</ele>
        <time>2021-03-18T09:29:15Z</time>
      </trkpt>
      <trkpt lat="46.51223" lon="0.59258">
        <ele>113.0296707917</ele>
        <time>2021-03-18T09:29:17Z</time>
      </trkpt>
      <trkpt lat="46.51221" lon="0.59261">
        <ele>112.96807218529</ele>
        <time>2021-03-18T09:29:19Z</time>
      </trkpt>
      <trkpt lat="46.5122" lon="0.59263">
        <ele>113.12151769828</ele>
        <time>2021-03-18T09:29:21Z</time>
      </trkpt>
      <trkpt lat="46.51218" lon="0.59266">
        <ele>113.35566354543</ele>
        <time>2021-03-18T09:29:23Z</time>
      </trkpt>
      <trkpt lat="46.51217" lon="0.59269">
        <ele>113.20421155263</ele>
        <time>2021-03-18T09:29:25Z</time>
      </trkpt>
      <trkpt lat="46.51215" lon="0.5927">
        <ele>113.29520406853</ele>
        <time>2021-03-18T09:29:29Z</time>
      </trkpt>
      <trkpt lat="46.51212" lon="0.59272">
        <ele>113.29046420194</ele>
        <time>2021-03-18T09:29:32Z</time>
      </trkpt>
      <trkpt lat="46.51211" lon="0.59273">
        <ele>113.61175441556</ele>
        <time>2021-03-18T09:29:36Z</time>
      </trkpt>
      <trkpt lat="46.51212" lon="0.59271">
        <ele>113.47799558658</ele>
        <time>2021-03-18T09:29:41Z</time>
      </trkpt>
      <trkpt lat="46.51214" lon="0.59271">
        <ele>113.57840446755</ele>
        <time>2021-03-18T09:29:47Z</time>
      </trkpt>
      <trkpt lat="46.51217" lon="0.59271">
        <ele>113.50784904975</ele>
        <time>2021-03-18T09:29:51Z</time>
      </trkpt>
      <trkpt lat="46.51219" lon="0.59271">
        <ele>113.27466233633</ele>
        <time>2021-03-18T09:30:01Z</time>
      </trkpt>
      <trkpt lat="46.51221" lon="0.59271">
        <ele>113.6490373984</ele>
        <time>2021-03-18T09:30:21Z</time>
      </trkpt>
      <trkpt lat="46.51222" lon="0.59272">
        <ele>113.56185592618</ele>
        <time>2021-03-18T09:30:26Z</time>
      </trkpt>
      <trkpt lat="46.51222" lon="0.59275">
        <ele>113.3991319621</ele>
        <time>2021-03-18T09:30:34Z</time>
      </trkpt>
      <trkpt lat="46.5122" lon="0.59277">
        <ele>113.35645093955</ele>
        <time>2021-03-18T09:30:36Z</time>
      </trkpt>
      <trkpt lat="46.51219" lon="0.59279">
        <ele>113.86264952645</ele>
        <time>2021-03-18T09:30:37Z</time>
      </trkpt>
      <trkpt lat="46.51217" lon="0.59282">
        <ele>113.88593995012</ele>
        <time>2021-03-18T09:30:39Z</time>
      </trkpt>
      <trkpt lat="46.51215" lon="0.59284">
        <ele>113.73301199172</ele>
        <time>2021-03-18T09:30:41Z</time>
      </trkpt>
      <trkpt lat="46.51213" lon="0.59287">
        <ele>113.82690823078</ele>
        <time>2021-03-18T09:30:43Z</time>
      </trkpt>
      <trkpt lat="46.51211" lon="0.5929">
        <ele>113.99403550103</ele>
        <time>2021-03-18T09:30:45Z</time>
      </trkpt>
      <trkpt lat="46.51211" lon="0.59293">
        <ele>113.68096830975</ele>
        <time>2021-03-18T09:30:47Z</time>
      </trkpt>
      <trkpt lat="46.51208" lon="0.59295">
        <ele>113.90453908034</ele>
        <time>2021-03-18T09:30:50Z</time>
      </trkpt>
      <trkpt lat="46.51205" lon="0.59295">
        <ele>113.70069610514</ele>
        <time>2021-03-18T09:30:52Z</time>
      </trkpt>
      <trkpt lat="46.51203" lon="0.59294">
        <ele>113.63502904121</ele>
        <time>2021-03-18T09:30:54Z</time>
      </trkpt>
      <trkpt lat="46.512" lon="0.59292">
        <ele>113.53939993586</ele>
        <time>2021-03-18T09:30:57Z</time>
      </trkpt>
      <trkpt lat="46.51199" lon="0.5929">
        <ele>113.09606511705</ele>
        <time>2021-03-18T09:31:01Z</time>
      </trkpt>
      <trkpt lat="46.51196" lon="0.59288">
        <ele>113.62188406195</ele>
        <time>2021-03-18T09:31:03Z</time>
      </trkpt>
      <trkpt lat="46.51194" lon="0.59288">
        <ele>113.5655552214</ele>
        <time>2021-03-18T09:31:05Z</time>
      </trkpt>
      <trkpt lat="46.51191" lon="0.59286">
        <ele>113.04076270014</ele>
        <time>2021-03-18T09:31:08Z</time>
      </trkpt>
      <trkpt lat="46.51189" lon="0.59284">
        <ele>113.1911278842</ele>
        <time>2021-03-18T09:31:10Z</time>
      </trkpt>
      <trkpt lat="46.51188" lon="0.59282">
        <ele>113.44304526318</ele>
        <time>2021-03-18T09:31:11Z</time>
      </trkpt>
      <trkpt lat="46.51186" lon="0.59281">
        <ele>113.55609148182</ele>
        <time>2021-03-18T09:31:14Z</time>
      </trkpt>
      <trkpt lat="46.51184" lon="0.59279">
        <ele>113.69127938803</ele>
        <time>2021-03-18T09:31:16Z</time>
      </trkpt>
      <trkpt lat="46.51183" lon="0.59278">
        <ele>113.89877031185</ele>
        <time>2021-03-18T09:31:18Z</time>
      </trkpt>
      <trkpt lat="46.5118" lon="0.59277">
        <ele>114.11978310812</ele>
        <time>2021-03-18T09:31:20Z</time>
      </trkpt>
      <trkpt lat="46.51179" lon="0.59275">
        <ele>114.14175009634</ele>
        <time>2021-03-18T09:31:22Z</time>
      </trkpt>
      <trkpt lat="46.51177" lon="0.59273">
        <ele>113.65122477803</ele>
        <time>2021-03-18T09:31:24Z</time>
      </trkpt>
      <trkpt lat="46.51176" lon="0.59271">
        <ele>113.86303921044</ele>
        <time>2021-03-18T09:31:26Z</time>
      </trkpt>
      <trkpt lat="46.51175" lon="0.59268">
        <ele>113.50019729976</ele>
        <time>2021-03-18T09:31:28Z</time>
      </trkpt>
      <trkpt lat="46.51175" lon="0.59264">
        <ele>113.61048996728</ele>
        <time>2021-03-18T09:31:30Z</time>
      </trkpt>
      <trkpt lat="46.51175" lon="0.59261">
        <ele>113.61090702843</ele>
        <time>2021-03-18T09:31:32Z</time>
      </trkpt>
      <trkpt lat="46.51175" lon="0.59259">
        <ele>113.94034822658</ele>
        <time>2021-03-18T09:31:34Z</time>
      </trkpt>
      <trkpt lat="46.51176" lon="0.59255">
        <ele>113.61978916079</ele>
        <time>2021-03-18T09:31:38Z</time>
      </trkpt>
      <trkpt lat="46.51176" lon="0.59253">
        <ele>113.47706814483</ele>
        <time>2021-03-18T09:31:45Z</time>
      </trkpt>
      <trkpt lat="46.51177" lon="0.5925">
        <ele>113.33582031634</ele>
        <time>2021-03-18T09:32:04Z</time>
      </trkpt>
      <trkpt lat="46.51178" lon="0.59252">
        <ele>113.83438770007</ele>
        <time>2021-03-18T09:32:09Z</time>
      </trkpt>
      <trkpt lat="46.5118" lon="0.59254">
        <ele>114.18205274828</ele>
        <time>2021-03-18T09:32:15Z</time>
      </trkpt>
      <trkpt lat="46.51177" lon="0.59255">
        <ele>113.77081689704</ele>
        <time>2021-03-18T09:32:31Z</time>
      </trkpt>
      <trkpt lat="46.51177" lon="0.59252">
        <ele>113.78362770285</ele>
        <time>2021-03-18T09:32:38Z</time>
      </trkpt>
      <trkpt lat="46.51174" lon="0.5925">
        <ele>113.72787642106</ele>
        <time>2021-03-18T09:32:42Z</time>
      </trkpt>
      <trkpt lat="46.51176" lon="0.59249">
        <ele>113.69979873765</ele>
        <time>2021-03-18T09:32:55Z</time>
      </trkpt>
      <trkpt lat="46.51173" lon="0.59249">
        <ele>113.13967415318</ele>
        <time>2021-03-18T09:33:01Z</time>
      </trkpt>
      <trkpt lat="46.51171" lon="0.59248">
        <ele>113.36403074767</ele>
        <time>2021-03-18T09:33:03Z</time>
      </trkpt>
      <trkpt lat="46.51169" lon="0.59247">
        <ele>113.44945574552</ele>
        <time>2021-03-18T09:33:08Z</time>
      </trkpt>
      <trkpt lat="46.51171" lon="0.59249">
        <ele>113.51021933649</ele>
        <time>2021-03-18T09:33:13Z</time>
      </trkpt>
      <trkpt lat="46.51173" lon="0.59251">
        <ele>113.35637666937</ele>
        <time>2021-03-18T09:33:16Z</time>
      </trkpt>
      <trkpt lat="46.51174" lon="0.59254">
        <ele>113.33437438868</ele>
        <time>2021-03-18T09:33:19Z</time>
      </trkpt>
      <trkpt lat="46.51175" lon="0.59256">
        <ele>113.54531857092</ele>
        <time>2021-03-18T09:33:25Z</time>
      </trkpt>
      <trkpt lat="46.51175" lon="0.59254">
        <ele>113.5855140388</ele>
        <time>2021-03-18T09:33:33Z</time>
      </trkpt>
      <trkpt lat="46.51176" lon="0.59251">
        <ele>113.84166089725</ele>
        <time>2021-03-18T09:33:37Z</time>
      </trkpt>
      <trkpt lat="46.51175" lon="0.59248">
        <ele>113.83934033755</ele>
        <time>2021-03-18T09:33:41Z</time>
      </trkpt>
      <trkpt lat="46.51173" lon="0.59248">
        <ele>113.69600945525</ele>
        <time>2021-03-18T09:33:44Z</time>
      </trkpt>
      <trkpt lat="46.51171" lon="0.59247">
        <ele>113.77246615384</ele>
        <time>2021-03-18T09:33:49Z</time>
      </trkpt>
      <trkpt lat="46.51169" lon="0.59247">
        <ele>113.81304742955</ele>
        <time>2021-03-18T09:33:50Z</time>
      </trkpt>
      <trkpt lat="46.51167" lon="0.59246">
        <ele>113.52247224282</ele>
        <time>2021-03-18T09:33:53Z</time>
      </trkpt>
      <trkpt lat="46.51165" lon="0.59245">
        <ele>113.48868656717</ele>
        <time>2021-03-18T09:33:57Z</time>
      </trkpt>
      <trkpt lat="46.51164" lon="0.59245">
        <ele>113.31022375543</ele>
        <time>2021-03-18T09:34:02Z</time>
      </trkpt>
      <trkpt lat="46.51163" lon="0.59249">
        <ele>113.68504404929</ele>
        <time>2021-03-18T09:34:08Z</time>
      </trkpt>
      <trkpt lat="46.51161" lon="0.59246">
        <ele>113.61257387046</ele>
        <time>2021-03-18T09:34:20Z</time>
      </trkpt>
      <trkpt lat="46.5116" lon="0.59244">
        <ele>114.00203882903</ele>
        <time>2021-03-18T09:34:22Z</time>
      </trkpt>
      <trkpt lat="46.51157" lon="0.59242">
        <ele>113.64875110704</ele>
        <time>2021-03-18T09:34:25Z</time>
      </trkpt>
      <trkpt lat="46.51155" lon="0.5924">
        <ele>113.42662404198</ele>
        <time>2021-03-18T09:34:28Z</time>
      </trkpt>
      <trkpt lat="46.51153" lon="0.59238">
        <ele>113.06110591628</ele>
        <time>2021-03-18T09:34:31Z</time>
      </trkpt>
      <trkpt lat="46.51151" lon="0.59237">
        <ele>113.50200224202</ele>
        <time>2021-03-18T09:34:33Z</time>
      </trkpt>
      <trkpt lat="46.51149" lon="0.59236">
        <ele>113.34401715361</ele>
        <time>2021-03-18T09:34:35Z</time>
      </trkpt>
      <trkpt lat="46.51147" lon="0.59235">
        <ele>113.09772927873</ele>
        <time>2021-03-18T09:34:37Z</time>
      </trkpt>
      <trkpt lat="46.51144" lon="0.59234">
        <ele>113.08620486222</ele>
        <time>2021-03-18T09:34:39Z</time>
      </trkpt>
      <trkpt lat="46.51141" lon="0.59233">
        <ele>113.43015355244</ele>
        <time>2021-03-18T09:34:41Z</time>
      </trkpt>
      <trkpt lat="46.51139" lon="0.59232">
        <ele>112.55786355119</ele>
        <time>2021-03-18T09:34:43Z</time>
      </trkpt>
      <trkpt lat="46.51136" lon="0.59231">
        <ele>112.98926447611</ele>
        <time>2021-03-18T09:34:45Z</time>
      </trkpt>
      <trkpt lat="46.51134" lon="0.5923">
        <ele>113.209357474</ele>
        <time>2021-03-18T09:34:47Z</time>
      </trkpt>
      <trkpt lat="46.51132" lon="0.59229">
        <ele>113.26249231119</ele>
        <time>2021-03-18T09:34:49Z</time>
      </trkpt>
      <trkpt lat="46.5113" lon="0.59229">
        <ele>112.95785574056</ele>
        <time>2021-03-18T09:34:51Z</time>
      </trkpt>
      <trkpt lat="46.51127" lon="0.59228">
        <ele>112.91236176714</ele>
        <time>2021-03-18T09:34:53Z</time>
      </trkpt>
      <trkpt lat="46.51124" lon="0.59226">
        <ele>112.64123227913</ele>
        <time>2021-03-18T09:34:55Z</time>
      </trkpt>
      <trkpt lat="46.51122" lon="0.59226">
        <ele>113.08678628784</ele>
        <time>2021-03-18T09:34:57Z</time>
      </trkpt>
      <trkpt lat="46.5112" lon="0.59225">
        <ele>112.83713079151</ele>
        <time>2021-03-18T09:34:59Z</time>
      </trkpt>
      <trkpt lat="46.51118" lon="0.59225">
        <ele>112.7769585913</ele>
        <time>2021-03-18T09:35:01Z</time>
      </trkpt>
      <trkpt lat="46.51116" lon="0.59224">
        <ele>112.97313610371</ele>
        <time>2021-03-18T09:35:03Z</time>
      </trkpt>
      <trkpt lat="46.51114" lon="0.59223">
        <ele>113.23745561391</ele>
        <time>2021-03-18T09:35:05Z</time>
      </trkpt>
      <trkpt lat="46.51112" lon="0.59223">
        <ele>112.80940783303</ele>
        <time>2021-03-18T09:35:07Z</time>
      </trkpt>
      <trkpt lat="46.51109" lon="0.59222">
        <ele>112.85724358913</ele>
        <time>2021-03-18T09:35:09Z</time>
      </trkpt>
      <trkpt lat="46.51107" lon="0.59219">
        <ele>113.01034822129</ele>
        <time>2021-03-18T09:35:11Z</time>
      </trkpt>
      <trkpt lat="46.51105" lon="0.59218">
        <ele>112.75848042034</ele>
        <time>2021-03-18T09:35:13Z</time>
      </trkpt>
      <trkpt lat="46.51103" lon="0.59216">
        <ele>112.6666425392</ele>
        <time>2021-03-18T09:35:15Z</time>
      </trkpt>
      <trkpt lat="46.511" lon="0.59215">
        <ele>112.76068150904</ele>
        <time>2021-03-18T09:35:16Z</time>
      </trkpt>
      <trkpt lat="46.51098" lon="0.59214">
        <ele>112.55253154691</ele>
        <time>2021-03-18T09:35:18Z</time>
      </trkpt>
      <trkpt lat="46.51096" lon="0.59213">
        <ele>112.79461788107</ele>
        <time>2021-03-18T09:35:20Z</time>
      </trkpt>
      <trkpt lat="46.51094" lon="0.59211">
        <ele>112.49224584922</ele>
        <time>2021-03-18T09:35:22Z</time>
      </trkpt>
      <trkpt lat="46.51092" lon="0.5921">
        <ele>112.89268605504</ele>
        <time>2021-03-18T09:35:23Z</time>
      </trkpt>
      <trkpt lat="46.5109" lon="0.59207">
        <ele>112.73627053481</ele>
        <time>2021-03-18T09:35:25Z</time>
      </trkpt>
      <trkpt lat="46.51088" lon="0.59205">
        <ele>112.59051744174</ele>
        <time>2021-03-18T09:35:28Z</time>
      </trkpt>
      <trkpt lat="46.51085" lon="0.59204">
        <ele>112.64159906656</ele>
        <time>2021-03-18T09:35:30Z</time>
      </trkpt>
      <trkpt lat="46.51083" lon="0.59203">
        <ele>112.61540466268</ele>
        <time>2021-03-18T09:35:32Z</time>
      </trkpt>
      <trkpt lat="46.51081" lon="0.59202">
        <ele>112.35889795795</ele>
        <time>2021-03-18T09:35:34Z</time>
      </trkpt>
      <trkpt lat="46.51078" lon="0.59202">
        <ele>113.03190864157</ele>
        <time>2021-03-18T09:35:36Z</time>
      </trkpt>
      <trkpt lat="46.51076" lon="0.592">
        <ele>112.19868338481</ele>
        <time>2021-03-18T09:35:38Z</time>
      </trkpt>
      <trkpt lat="46.51073" lon="0.59199">
        <ele>112.46940835286</ele>
        <time>2021-03-18T09:35:41Z</time>
      </trkpt>
      <trkpt lat="46.51071" lon="0.59199">
        <ele>112.66514446959</ele>
        <time>2021-03-18T09:35:42Z</time>
      </trkpt>
      <trkpt lat="46.51069" lon="0.59197">
        <ele>112.8287476562</ele>
        <time>2021-03-18T09:35:44Z</time>
      </trkpt>
      <trkpt lat="46.51067" lon="0.59196">
        <ele>112.38746982068</ele>
        <time>2021-03-18T09:35:46Z</time>
      </trkpt>
      <trkpt lat="46.51065" lon="0.59194">
        <ele>112.30525508989</ele>
        <time>2021-03-18T09:35:49Z</time>
      </trkpt>
      <trkpt lat="46.51062" lon="0.59193">
        <ele>112.10863097198</ele>
        <time>2021-03-18T09:35:51Z</time>
      </trkpt>
      <trkpt lat="46.51059" lon="0.59192">
        <ele>112.0160840461</ele>
        <time>2021-03-18T09:35:53Z</time>
      </trkpt>
      <trkpt lat="46.51057" lon="0.59191">
        <ele>111.95050649438</ele>
        <time>2021-03-18T09:35:55Z</time>
      </trkpt>
      <trkpt lat="46.51055" lon="0.59188">
        <ele>111.88092404976</ele>
        <time>2021-03-18T09:35:57Z</time>
      </trkpt>
      <trkpt lat="46.51053" lon="0.59187">
        <ele>111.89154444262</ele>
        <time>2021-03-18T09:35:59Z</time>
      </trkpt>
      <trkpt lat="46.51051" lon="0.59186">
        <ele>111.383128318</ele>
        <time>2021-03-18T09:36:01Z</time>
      </trkpt>
      <trkpt lat="46.51048" lon="0.59185">
        <ele>111.26023675874</ele>
        <time>2021-03-18T09:36:03Z</time>
      </trkpt>
      <trkpt lat="46.51045" lon="0.59184">
        <ele>111.7742742002</ele>
        <time>2021-03-18T09:36:05Z</time>
      </trkpt>
      <trkpt lat="46.51043" lon="0.59183">
        <ele>111.50644274056</ele>
        <time>2021-03-18T09:36:07Z</time>
      </trkpt>
      <trkpt lat="46.5104" lon="0.59183">
        <ele>111.42831296939</ele>
        <time>2021-03-18T09:36:09Z</time>
      </trkpt>
      <trkpt lat="46.51038" lon="0.59183">
        <ele>111.16547661088</ele>
        <time>2021-03-18T09:36:11Z</time>
      </trkpt>
      <trkpt lat="46.51036" lon="0.59182">
        <ele>111.17057602014</ele>
        <time>2021-03-18T09:36:13Z</time>
      </trkpt>
      <trkpt lat="46.51034" lon="0.59179">
        <ele>111.40521385241</ele>
        <time>2021-03-18T09:36:16Z</time>
      </trkpt>
      <trkpt lat="46.51032" lon="0.59179">
        <ele>111.21711294912</ele>
        <time>2021-03-18T09:36:17Z</time>
      </trkpt>
      <trkpt lat="46.5103" lon="0.59178">
        <ele>110.91474885121</ele>
        <time>2021-03-18T09:36:19Z</time>
      </trkpt>
      <trkpt lat="46.51028" lon="0.59176">
        <ele>111.16779206879</ele>
        <time>2021-03-18T09:36:21Z</time>
      </trkpt>
      <trkpt lat="46.51026" lon="0.59174">
        <ele>111.43533758912</ele>
        <time>2021-03-18T09:36:23Z</time>
      </trkpt>
      <trkpt lat="46.51024" lon="0.59173">
        <ele>111.12121059746</ele>
        <time>2021-03-18T09:36:25Z</time>
      </trkpt>
      <trkpt lat="46.51021" lon="0.59173">
        <ele>110.75351046491</ele>
        <time>2021-03-18T09:36:27Z</time>
      </trkpt>
      <trkpt lat="46.51019" lon="0.59172">
        <ele>110.95929293055</ele>
        <time>2021-03-18T09:36:29Z</time>
      </trkpt>
      <trkpt lat="46.51017" lon="0.5917">
        <ele>111.03767395671</ele>
        <time>2021-03-18T09:36:32Z</time>
      </trkpt>
      <trkpt lat="46.51015" lon="0.59169">
        <ele>111.23264774773</ele>
        <time>2021-03-18T09:36:34Z</time>
      </trkpt>
      <trkpt lat="46.51012" lon="0.59169">
        <ele>110.69873484876</ele>
        <time>2021-03-18T09:36:36Z</time>
      </trkpt>
      <trkpt lat="46.5101" lon="0.59168">
        <ele>110.78334730305</ele>
        <time>2021-03-18T09:36:38Z</time>
      </trkpt>
      <trkpt lat="46.51008" lon="0.59167">
        <ele>110.97312063351</ele>
        <time>2021-03-18T09:36:40Z</time>
      </trkpt>
      <trkpt lat="46.51006" lon="0.59165">
        <ele>110.68294491898</ele>
        <time>2021-03-18T09:36:41Z</time>
      </trkpt>
      <trkpt lat="46.51004" lon="0.59164">
        <ele>111.01610801369</ele>
        <time>2021-03-18T09:36:43Z</time>
      </trkpt>
      <trkpt lat="46.51002" lon="0.59163">
        <ele>110.71847389359</ele>
        <time>2021-03-18T09:36:45Z</time>
      </trkpt>
      <trkpt lat="46.50999" lon="0.59162">
        <ele>110.51455417369</ele>
        <time>2021-03-18T09:36:47Z</time>
      </trkpt>
      <trkpt lat="46.50997" lon="0.5916">
        <ele>110.89056327846</ele>
        <time>2021-03-18T09:36:49Z</time>
      </trkpt>
      <trkpt lat="46.50995" lon="0.59159">
        <ele>110.71927801333</ele>
        <time>2021-03-18T09:36:52Z</time>
      </trkpt>
      <trkpt lat="46.50993" lon="0.59157">
        <ele>110.64043109771</ele>
        <time>2021-03-18T09:36:54Z</time>
      </trkpt>
      <trkpt lat="46.50991" lon="0.59157">
        <ele>110.47800802998</ele>
        <time>2021-03-18T09:36:56Z</time>
      </trkpt>
      <trkpt lat="46.50989" lon="0.59157">
        <ele>110.47956642136</ele>
        <time>2021-03-18T09:36:58Z</time>
      </trkpt>
      <trkpt lat="46.50986" lon="0.59157">
        <ele>110.41411554627</ele>
        <time>2021-03-18T09:37:01Z</time>
      </trkpt>
      <trkpt lat="46.50985" lon="0.59156">
        <ele>110.48660749663</ele>
        <time>2021-03-18T09:37:03Z</time>
      </trkpt>
      <trkpt lat="46.50983" lon="0.59153">
        <ele>110.46731613018</ele>
        <time>2021-03-18T09:37:06Z</time>
      </trkpt>
      <trkpt lat="46.50981" lon="0.59152">
        <ele>110.66624609753</ele>
        <time>2021-03-18T09:37:07Z</time>
      </trkpt>
      <trkpt lat="46.5098" lon="0.5915">
        <ele>110.45164731797</ele>
        <time>2021-03-18T09:37:19Z</time>
      </trkpt>
      <trkpt lat="46.50978" lon="0.5915">
        <ele>110.40386516135</ele>
        <time>2021-03-18T09:37:23Z</time>
      </trkpt>
      <trkpt lat="46.5098" lon="0.59151">
        <ele>110.19737596437</ele>
        <time>2021-03-18T09:37:30Z</time>
      </trkpt>
      <trkpt lat="46.50982" lon="0.59152">
        <ele>110.15885443892</ele>
        <time>2021-03-18T09:37:32Z</time>
      </trkpt>
      <trkpt lat="46.50984" lon="0.59153">
        <ele>110.16220888868</ele>
        <time>2021-03-18T09:37:34Z</time>
      </trkpt>
      <trkpt lat="46.50986" lon="0.59152">
        <ele>110.22808038071</ele>
        <time>2021-03-18T09:37:36Z</time>
      </trkpt>
      <trkpt lat="46.50988" lon="0.5915">
        <ele>110.35916390084</ele>
        <time>2021-03-18T09:37:39Z</time>
      </trkpt>
      <trkpt lat="46.50989" lon="0.59152">
        <ele>110.27434506733</ele>
        <time>2021-03-18T09:37:57Z</time>
      </trkpt>
      <trkpt lat="46.50992" lon="0.59153">
        <ele>110.34816727787</ele>
        <time>2021-03-18T09:38:01Z</time>
      </trkpt>
      <trkpt lat="46.50994" lon="0.59153">
        <ele>110.37571718916</ele>
        <time>2021-03-18T09:38:05Z</time>
      </trkpt>
      <trkpt lat="46.50996" lon="0.59154">
        <ele>110.16755544953</ele>
        <time>2021-03-18T09:38:09Z</time>
      </trkpt>
      <trkpt lat="46.50996" lon="0.59151">
        <ele>110.38530315366</ele>
        <time>2021-03-18T09:38:13Z</time>
      </trkpt>
      <trkpt lat="46.50998" lon="0.59151">
        <ele>110.67129432503</ele>
        <time>2021-03-18T09:38:16Z</time>
      </trkpt>
      <trkpt lat="46.51" lon="0.59151">
        <ele>110.95291417092</ele>
        <time>2021-03-18T09:38:24Z</time>
      </trkpt>
      <trkpt lat="46.51002" lon="0.5915">
        <ele>110.79968670011</ele>
        <time>2021-03-18T09:38:29Z</time>
      </trkpt>
      <trkpt lat="46.51" lon="0.59152">
        <ele>110.74681056105</ele>
        <time>2021-03-18T09:38:48Z</time>
      </trkpt>
      <trkpt lat="46.50999" lon="0.59155">
        <ele>110.54623200838</ele>
        <time>2021-03-18T09:38:57Z</time>
      </trkpt>
      <trkpt lat="46.50996" lon="0.59155">
        <ele>110.71730800625</ele>
        <time>2021-03-18T09:38:58Z</time>
      </trkpt>
      <trkpt lat="46.50994" lon="0.59156">
        <ele>111.09829695802</ele>
        <time>2021-03-18T09:39:00Z</time>
      </trkpt>
      <trkpt lat="46.50992" lon="0.59156">
        <ele>110.93463424779</ele>
        <time>2021-03-18T09:39:06Z</time>
      </trkpt>
      <trkpt lat="46.5099" lon="0.59159">
        <ele>111.4315537801</ele>
        <time>2021-03-18T09:39:17Z</time>
      </trkpt>
      <trkpt lat="46.50988" lon="0.59157">
        <ele>111.28868025262</ele>
        <time>2021-03-18T09:39:19Z</time>
      </trkpt>
      <trkpt lat="46.50987" lon="0.59155">
        <ele>110.64179797936</ele>
        <time>2021-03-18T09:39:27Z</time>
      </trkpt>
      <trkpt lat="46.50986" lon="0.59157">
        <ele>111.04692444205</ele>
        <time>2021-03-18T09:39:30Z</time>
      </trkpt>
      <trkpt lat="46.50983" lon="0.59157">
        <ele>111.29822458513</ele>
        <time>2021-03-18T09:39:35Z</time>
      </trkpt>
      <trkpt lat="46.50982" lon="0.59156">
        <ele>110.84054252785</ele>
        <time>2021-03-18T09:39:43Z</time>
      </trkpt>
      <trkpt lat="46.50983" lon="0.59158">
        <ele>110.40084773116</ele>
        <time>2021-03-18T09:39:46Z</time>
      </trkpt>
      <trkpt lat="46.5098" lon="0.59156">
        <ele>110.88774720673</ele>
        <time>2021-03-18T09:39:51Z</time>
      </trkpt>
      <trkpt lat="46.50978" lon="0.59158">
        <ele>110.0528951725</ele>
        <time>2021-03-18T09:39:57Z</time>
      </trkpt>
      <trkpt lat="46.5098" lon="0.59157">
        <ele>110.5437342329</ele>
        <time>2021-03-18T09:40:07Z</time>
      </trkpt>
      <trkpt lat="46.50978" lon="0.5916">
        <ele>110.45319636073</ele>
        <time>2021-03-18T09:40:16Z</time>
      </trkpt>
      <trkpt lat="46.50977" lon="0.59167">
        <ele>110.39398860652</ele>
        <time>2021-03-18T09:40:21Z</time>
      </trkpt>
      <trkpt lat="46.50976" lon="0.5917">
        <ele>111.41351351328</ele>
        <time>2021-03-18T09:40:24Z</time>
      </trkpt>
      <trkpt lat="46.50977" lon="0.59173">
        <ele>111.63480432704</ele>
        <time>2021-03-18T09:40:35Z</time>
      </trkpt>
      <trkpt lat="46.50975" lon="0.59169">
        <ele>111.23344461527</ele>
        <time>2021-03-18T09:40:39Z</time>
      </trkpt>
      <trkpt lat="46.50973" lon="0.59167">
        <ele>110.81017616764</ele>
        <time>2021-03-18T09:40:43Z</time>
      </trkpt>
      <trkpt lat="46.50972" lon="0.59165">
        <ele>110.90273986105</ele>
        <time>2021-03-18T09:40:50Z</time>
      </trkpt>
      <trkpt lat="46.50971" lon="0.59162">
        <ele>110.75300592929</ele>
        <time>2021-03-18T09:40:55Z</time>
      </trkpt>
      <trkpt lat="46.50971" lon="0.59158">
        <ele>110.52742197458</ele>
        <time>2021-03-18T09:40:57Z</time>
      </trkpt>
      <trkpt lat="46.50973" lon="0.59157">
        <ele>111.28369366378</ele>
        <time>2021-03-18T09:41:01Z</time>
      </trkpt>
      <trkpt lat="46.50973" lon="0.59159">
        <ele>110.60944668204</ele>
        <time>2021-03-18T09:41:02Z</time>
      </trkpt>
      <trkpt lat="46.50975" lon="0.59161">
        <ele>110.53499312792</ele>
        <time>2021-03-18T09:41:04Z</time>
      </trkpt>
      <trkpt lat="46.50977" lon="0.59161">
        <ele>110.47034689132</ele>
        <time>2021-03-18T09:41:07Z</time>
      </trkpt>
      <trkpt lat="46.50975" lon="0.59161">
        <ele>110.92385901697</ele>
        <time>2021-03-18T09:41:13Z</time>
      </trkpt>
      <trkpt lat="46.50975" lon="0.59158">
        <ele>110.7696142979</ele>
        <time>2021-03-18T09:41:23Z</time>
      </trkpt>
      <trkpt lat="46.50975" lon="0.59156">
        <ele>110.79448495433</ele>
        <time>2021-03-18T09:41:31Z</time>
      </trkpt>
      <trkpt lat="46.50974" lon="0.5916">
        <ele>110.64346234594</ele>
        <time>2021-03-18T09:41:41Z</time>
      </trkpt>
      <trkpt lat="46.50975" lon="0.59157">
        <ele>110.7217202317</ele>
        <time>2021-03-18T09:41:47Z</time>
      </trkpt>
      <trkpt lat="46.50976" lon="0.59154">
        <ele>110.98401271831</ele>
        <time>2021-03-18T09:41:50Z</time>
      </trkpt>
      <trkpt lat="46.50975" lon="0.59152">
        <ele>110.40733433794</ele>
        <time>2021-03-18T09:42:03Z</time>
      </trkpt>
      <trkpt lat="46.50976" lon="0.59154">
        <ele>110.52741813473</ele>
        <time>2021-03-18T09:42:08Z</time>
      </trkpt>
      <trkpt lat="46.50977" lon="0.59157">
        <ele>110.77593321074</ele>
        <time>2021-03-18T09:42:16Z</time>
      </trkpt>
      <trkpt lat="46.50977" lon="0.5916">
        <ele>110.43556049559</ele>
        <time>2021-03-18T09:42:19Z</time>
      </trkpt>
      <trkpt lat="46.50978" lon="0.59163">
        <ele>110.65571988095</ele>
        <time>2021-03-18T09:42:23Z</time>
      </trkpt>
      <trkpt lat="46.50978" lon="0.59166">
        <ele>110.79825022351</ele>
        <time>2021-03-18T09:42:26Z</time>
      </trkpt>
      <trkpt lat="46.50981" lon="0.59167">
        <ele>110.76935411431</ele>
        <time>2021-03-18T09:42:31Z</time>
      </trkpt>
      <trkpt lat="46.50979" lon="0.59166">
        <ele>110.82713519037</ele>
        <time>2021-03-18T09:42:50Z</time>
      </trkpt>
      <trkpt lat="46.50979" lon="0.59163">
        <ele>110.85484312009</ele>
        <time>2021-03-18T09:42:53Z</time>
      </trkpt>
      <trkpt lat="46.50978" lon="0.5916">
        <ele>111.16704592761</ele>
        <time>2021-03-18T09:42:58Z</time>
      </trkpt>
      <trkpt lat="46.50977" lon="0.59158">
        <ele>111.29380013235</ele>
        <time>2021-03-18T09:43:01Z</time>
      </trkpt>
      <trkpt lat="46.50979" lon="0.59161">
        <ele>111.12628417928</ele>
        <time>2021-03-18T09:43:05Z</time>
      </trkpt>
      <trkpt lat="46.50981" lon="0.59164">
        <ele>111.17203229852</ele>
        <time>2021-03-18T09:43:07Z</time>
      </trkpt>
      <trkpt lat="46.50983" lon="0.59165">
        <ele>111.38103903364</ele>
        <time>2021-03-18T09:43:09Z</time>
      </trkpt>
      <trkpt lat="46.50983" lon="0.59169">
        <ele>111.00826492812</ele>
        <time>2021-03-18T09:43:14Z</time>
      </trkpt>
      <trkpt lat="46.50982" lon="0.59172">
        <ele>111.15820088144</ele>
        <time>2021-03-18T09:43:20Z</time>
      </trkpt>
      <trkpt lat="46.50981" lon="0.59175">
        <ele>111.18038094975</ele>
        <time>2021-03-18T09:43:23Z</time>
      </trkpt>
      <trkpt lat="46.50983" lon="0.59175">
        <ele>111.42551229242</ele>
        <time>2021-03-18T09:43:30Z</time>
      </trkpt>
      <trkpt lat="46.50985" lon="0.59174">
        <ele>111.07710678969</ele>
        <time>2021-03-18T09:43:38Z</time>
      </trkpt>
      <trkpt lat="46.50987" lon="0.59173">
        <ele>111.50022166781</ele>
        <time>2021-03-18T09:43:41Z</time>
      </trkpt>
      <trkpt lat="46.5099" lon="0.59172">
        <ele>111.45842351485</ele>
        <time>2021-03-18T09:43:43Z</time>
      </trkpt>
      <trkpt lat="46.50987" lon="0.59172">
        <ele>111.52111707069</ele>
        <time>2021-03-18T09:43:45Z</time>
      </trkpt>
      <trkpt lat="46.50985" lon="0.59172">
        <ele>111.59060047846</ele>
        <time>2021-03-18T09:43:48Z</time>
      </trkpt>
      <trkpt lat="46.50988" lon="0.59172">
        <ele>111.10605581943</ele>
        <time>2021-03-18T09:43:55Z</time>
      </trkpt>
      <trkpt lat="46.50986" lon="0.59174">
        <ele>111.20280717034</ele>
        <time>2021-03-18T09:44:01Z</time>
      </trkpt>
      <trkpt lat="46.50985" lon="0.59175">
        <ele>111.30133639928</ele>
        <time>2021-03-18T09:44:03Z</time>
      </trkpt>
      <trkpt lat="46.50985" lon="0.59172">
        <ele>111.53488371521</ele>
        <time>2021-03-18T09:44:07Z</time>
      </trkpt>
      <trkpt lat="46.50986" lon="0.59169">
        <ele>111.30147248413</ele>
        <time>2021-03-18T09:44:11Z</time>
      </trkpt>
      <trkpt lat="46.50986" lon="0.59165">
        <ele>111.04507681821</ele>
        <time>2021-03-18T09:44:14Z</time>
      </trkpt>
      <trkpt lat="46.50986" lon="0.59161">
        <ele>110.76812286954</ele>
        <time>2021-03-18T09:44:17Z</time>
      </trkpt>
      <trkpt lat="46.50986" lon="0.59158">
        <ele>111.03196985275</ele>
        <time>2021-03-18T09:44:21Z</time>
      </trkpt>
      <trkpt lat="46.50987" lon="0.59155">
        <ele>110.52505385969</ele>
        <time>2021-03-18T09:44:28Z</time>
      </trkpt>
      <trkpt lat="46.50985" lon="0.59153">
        <ele>110.04422236793</ele>
        <time>2021-03-18T09:44:35Z</time>
      </trkpt>
      <trkpt lat="46.50983" lon="0.59151">
        <ele>110.18067406677</ele>
        <time>2021-03-18T09:44:37Z</time>
      </trkpt>
      <trkpt lat="46.50981" lon="0.59149">
        <ele>110.27393456828</ele>
        <time>2021-03-18T09:44:40Z</time>
      </trkpt>
      <trkpt lat="46.5098" lon="0.59151">
        <ele>109.92369550094</ele>
        <time>2021-03-18T09:44:52Z</time>
      </trkpt>
      <trkpt lat="46.50983" lon="0.59152">
        <ele>110.30123551469</ele>
        <time>2021-03-18T09:44:56Z</time>
      </trkpt>
      <trkpt lat="46.50985" lon="0.59153">
        <ele>110.48665639106</ele>
        <time>2021-03-18T09:44:59Z</time>
      </trkpt>
      <trkpt lat="46.50988" lon="0.59153">
        <ele>110.2571114134</ele>
        <time>2021-03-18T09:45:02Z</time>
      </trkpt>
      <trkpt lat="46.5099" lon="0.59153">
        <ele>110.39326016977</ele>
        <time>2021-03-18T09:45:06Z</time>
      </trkpt>
      <trkpt lat="46.50989" lon="0.59156">
        <ele>110.55052169878</ele>
        <time>2021-03-18T09:45:12Z</time>
      </trkpt>
      <trkpt lat="46.50988" lon="0.59159">
        <ele>110.37972487975</ele>
        <time>2021-03-18T09:45:15Z</time>
      </trkpt>
      <trkpt lat="46.50991" lon="0.59158">
        <ele>110.66505768057</ele>
        <time>2021-03-18T09:45:19Z</time>
      </trkpt>
      <trkpt lat="46.50993" lon="0.59157">
        <ele>110.59405068029</ele>
        <time>2021-03-18T09:45:22Z</time>
      </trkpt>
      <trkpt lat="46.50986" lon="0.59157">
        <ele>110.51262956671</ele>
        <time>2021-03-18T09:45:29Z</time>
      </trkpt>
      <trkpt lat="46.50985" lon="0.59157">
        <ele>110.45471334364</ele>
        <time>2021-03-18T09:45:38Z</time>
      </trkpt>
      <trkpt lat="46.50986" lon="0.59159">
        <ele>110.2214374328</ele>
        <time>2021-03-18T09:45:44Z</time>
      </trkpt>
      <trkpt lat="46.50987" lon="0.59162">
        <ele>110.58307476249</ele>
        <time>2021-03-18T09:45:48Z</time>
      </trkpt>
      <trkpt lat="46.50984" lon="0.59162">
        <ele>110.65415838733</ele>
        <time>2021-03-18T09:45:52Z</time>
      </trkpt>
      <trkpt lat="46.50982" lon="0.59162">
        <ele>110.52553432249</ele>
        <time>2021-03-18T09:45:58Z</time>
      </trkpt>
      <trkpt lat="46.50983" lon="0.59159">
        <ele>110.47340677865</ele>
        <time>2021-03-18T09:46:02Z</time>
      </trkpt>
      <trkpt lat="46.50985" lon="0.59158">
        <ele>110.38390757237</ele>
        <time>2021-03-18T09:46:05Z</time>
      </trkpt>
      <trkpt lat="46.50987" lon="0.59156">
        <ele>110.4765812913</ele>
        <time>2021-03-18T09:46:09Z</time>
      </trkpt>
      <trkpt lat="46.50985" lon="0.59154">
        <ele>110.53950210754</ele>
        <time>2021-03-18T09:46:24Z</time>
      </trkpt>
      <trkpt lat="46.50985" lon="0.59152">
        <ele>110.43963180762</ele>
        <time>2021-03-18T09:46:27Z</time>
      </trkpt>
      <trkpt lat="46.50984" lon="0.59155">
        <ele>110.21139173023</ele>
        <time>2021-03-18T09:46:31Z</time>
      </trkpt>
      <trkpt lat="46.50984" lon="0.59157">
        <ele>110.51762124989</ele>
        <time>2021-03-18T09:46:35Z</time>
      </trkpt>
      <trkpt lat="46.50983" lon="0.59161">
        <ele>110.46912078094</ele>
        <time>2021-03-18T09:46:38Z</time>
      </trkpt>
      <trkpt lat="46.50981" lon="0.59163">
        <ele>110.80876948684</ele>
        <time>2021-03-18T09:46:50Z</time>
      </trkpt>
      <trkpt lat="46.50979" lon="0.59163">
        <ele>111.1104889987</ele>
        <time>2021-03-18T09:46:53Z</time>
      </trkpt>
      <trkpt lat="46.50977" lon="0.59163">
        <ele>111.08003002219</ele>
        <time>2021-03-18T09:46:56Z</time>
      </trkpt>
      <trkpt lat="46.50978" lon="0.59166">
        <ele>110.98446888756</ele>
        <time>2021-03-18T09:47:05Z</time>
      </trkpt>
      <trkpt lat="46.50979" lon="0.59164">
        <ele>111.13527311664</ele>
        <time>2021-03-18T09:47:17Z</time>
      </trkpt>
      <trkpt lat="46.50979" lon="0.59167">
        <ele>111.10022389144</ele>
        <time>2021-03-18T09:47:24Z</time>
      </trkpt>
      <trkpt lat="46.50977" lon="0.59166">
        <ele>111.13485057559</ele>
        <time>2021-03-18T09:47:29Z</time>
      </trkpt>
      <trkpt lat="46.50975" lon="0.59166">
        <ele>111.51558012515</ele>
        <time>2021-03-18T09:47:39Z</time>
      </trkpt>
      <trkpt lat="46.50976" lon="0.59164">
        <ele>111.50998595729</ele>
        <time>2021-03-18T09:47:48Z</time>
      </trkpt>
      <trkpt lat="46.50978" lon="0.59161">
        <ele>110.68104575854</ele>
        <time>2021-03-18T09:47:54Z</time>
      </trkpt>
      <trkpt lat="46.50979" lon="0.59164">
        <ele>110.74603820127</ele>
        <time>2021-03-18T09:48:00Z</time>
      </trkpt>
      <trkpt lat="46.50979" lon="0.59167">
        <ele>110.70918567386</ele>
        <time>2021-03-18T09:48:03Z</time>
      </trkpt>
      <trkpt lat="46.50982" lon="0.59167">
        <ele>110.8004499767</ele>
        <time>2021-03-18T09:48:07Z</time>
      </trkpt>
      <trkpt lat="46.50984" lon="0.59163">
        <ele>110.80746255536</ele>
        <time>2021-03-18T09:48:09Z</time>
      </trkpt>
      <trkpt lat="46.50986" lon="0.59163">
        <ele>110.73189018294</ele>
        <time>2021-03-18T09:48:18Z</time>
      </trkpt>
      <trkpt lat="46.50988" lon="0.59163">
        <ele>110.80579275265</ele>
        <time>2021-03-18T09:48:24Z</time>
      </trkpt>
      <trkpt lat="46.50991" lon="0.59162">
        <ele>110.8363541849</ele>
        <time>2021-03-18T09:48:26Z</time>
      </trkpt>
      <trkpt lat="46.5099" lon="0.59164">
        <ele>110.6966809351</ele>
        <time>2021-03-18T09:48:31Z</time>
      </trkpt>
      <trkpt lat="46.50991" lon="0.59163">
        <ele>110.82120888121</ele>
        <time>2021-03-18T09:48:33Z</time>
      </trkpt>
      <trkpt lat="46.50989" lon="0.59163">
        <ele>110.69558678847</ele>
        <time>2021-03-18T09:48:37Z</time>
      </trkpt>
      <trkpt lat="46.50988" lon="0.59165">
        <ele>110.49845073558</ele>
        <time>2021-03-18T09:48:39Z</time>
      </trkpt>
      <trkpt lat="46.50987" lon="0.59167">
        <ele>110.7069483418</ele>
        <time>2021-03-18T09:48:41Z</time>
      </trkpt>
      <trkpt lat="46.50988" lon="0.59165">
        <ele>110.93273060676</ele>
        <time>2021-03-18T09:48:46Z</time>
      </trkpt>
      <trkpt lat="46.50986" lon="0.59171">
        <ele>110.90107372776</ele>
        <time>2021-03-18T09:48:51Z</time>
      </trkpt>
      <trkpt lat="46.50987" lon="0.59174">
        <ele>111.07076398842</ele>
        <time>2021-03-18T09:48:55Z</time>
      </trkpt>
      <trkpt lat="46.50988" lon="0.59172">
        <ele>111.13266945723</ele>
        <time>2021-03-18T09:48:58Z</time>
      </trkpt>
      <trkpt lat="46.50991" lon="0.59169">
        <ele>110.97062125709</ele>
        <time>2021-03-18T09:49:01Z</time>
      </trkpt>
      <trkpt lat="46.50992" lon="0.59166">
        <ele>111.01127283461</ele>
        <time>2021-03-18T09:49:02Z</time>
      </trkpt>
      <trkpt lat="46.50991" lon="0.59168">
        <ele>110.68432423566</ele>
        <time>2021-03-18T09:49:08Z</time>
      </trkpt>
      <trkpt lat="46.50989" lon="0.5917">
        <ele>110.63598757796</ele>
        <time>2021-03-18T09:49:10Z</time>
      </trkpt>
      <trkpt lat="46.50987" lon="0.59172">
        <ele>110.8652560655</ele>
        <time>2021-03-18T09:49:12Z</time>
      </trkpt>
      <trkpt lat="46.5099" lon="0.59168">
        <ele>110.95457560755</ele>
        <time>2021-03-18T09:49:19Z</time>
      </trkpt>
      <trkpt lat="46.50989" lon="0.59172">
        <ele>110.67284996063</ele>
        <time>2021-03-18T09:49:30Z</time>
      </trkpt>
      <trkpt lat="46.50986" lon="0.59174">
        <ele>111.19301140402</ele>
        <time>2021-03-18T09:49:32Z</time>
      </trkpt>
      <trkpt lat="46.50985" lon="0.59172">
        <ele>111.26637058146</ele>
        <time>2021-03-18T09:49:36Z</time>
      </trkpt>
      <trkpt lat="46.50987" lon="0.59169">
        <ele>110.9028345691</ele>
        <time>2021-03-18T09:49:38Z</time>
      </trkpt>
      <trkpt lat="46.50989" lon="0.59166">
        <ele>110.93308234308</ele>
        <time>2021-03-18T09:49:40Z</time>
      </trkpt>
      <trkpt lat="46.50989" lon="0.59163">
        <ele>110.82972658798</ele>
        <time>2021-03-18T09:49:42Z</time>
      </trkpt>
      <trkpt lat="46.50993" lon="0.5916">
        <ele>110.70091416966</ele>
        <time>2021-03-18T09:49:48Z</time>
      </trkpt>
      <trkpt lat="46.50992" lon="0.59165">
        <ele>110.46645619068</ele>
        <time>2021-03-18T09:49:50Z</time>
      </trkpt>
      <trkpt lat="46.50991" lon="0.59168">
        <ele>110.50419071689</ele>
        <time>2021-03-18T09:49:53Z</time>
      </trkpt>
      <trkpt lat="46.5099" lon="0.5917">
        <ele>110.76727174781</ele>
        <time>2021-03-18T09:49:55Z</time>
      </trkpt>
      <trkpt lat="46.50988" lon="0.59169">
        <ele>110.92415715382</ele>
        <time>2021-03-18T09:50:01Z</time>
      </trkpt>
      <trkpt lat="46.50986" lon="0.59168">
        <ele>110.75244072545</ele>
        <time>2021-03-18T09:50:03Z</time>
      </trkpt>
      <trkpt lat="46.50984" lon="0.59168">
        <ele>110.82571643405</ele>
        <time>2021-03-18T09:50:07Z</time>
      </trkpt>
      <trkpt lat="46.50985" lon="0.59167">
        <ele>110.995801121</ele>
        <time>2021-03-18T09:50:10Z</time>
      </trkpt>
      <trkpt lat="46.50986" lon="0.59164">
        <ele>110.69222449604</ele>
        <time>2021-03-18T09:50:13Z</time>
      </trkpt>
      <trkpt lat="46.50987" lon="0.59161">
        <ele>110.30261855666</ele>
        <time>2021-03-18T09:50:18Z</time>
      </trkpt>
      <trkpt lat="46.50989" lon="0.5916">
        <ele>110.76624283195</ele>
        <time>2021-03-18T09:50:20Z</time>
      </trkpt>
      <trkpt lat="46.50991" lon="0.59157">
        <ele>110.44491316751</ele>
        <time>2021-03-18T09:50:23Z</time>
      </trkpt>
      <trkpt lat="46.50993" lon="0.59155">
        <ele>110.58204123937</ele>
        <time>2021-03-18T09:50:25Z</time>
      </trkpt>
      <trkpt lat="46.50995" lon="0.59152">
        <ele>110.36656626966</ele>
        <time>2021-03-18T09:50:27Z</time>
      </trkpt>
      <trkpt lat="46.50997" lon="0.59148">
        <ele>110.18252976704</ele>
        <time>2021-03-18T09:50:30Z</time>
      </trkpt>
      <trkpt lat="46.50996" lon="0.59145">
        <ele>110.03650790825</ele>
        <time>2021-03-18T09:50:32Z</time>
      </trkpt>
      <trkpt lat="46.50997" lon="0.59142">
        <ele>109.90739014745</ele>
        <time>2021-03-18T09:50:34Z</time>
      </trkpt>
      <trkpt lat="46.50997" lon="0.59139">
        <ele>109.77977749147</ele>
        <time>2021-03-18T09:50:37Z</time>
      </trkpt>
      <trkpt lat="46.50997" lon="0.59136">
        <ele>109.73401606176</ele>
        <time>2021-03-18T09:50:39Z</time>
      </trkpt>
      <trkpt lat="46.50999" lon="0.59133">
        <ele>109.78690973856</ele>
        <time>2021-03-18T09:50:42Z</time>
      </trkpt>
      <trkpt lat="46.51" lon="0.5913">
        <ele>109.89026159886</ele>
        <time>2021-03-18T09:50:44Z</time>
      </trkpt>
      <trkpt lat="46.51" lon="0.59126">
        <ele>109.14930592757</ele>
        <time>2021-03-18T09:50:47Z</time>
      </trkpt>
      <trkpt lat="46.50999" lon="0.59123">
        <ele>109.12983947806</ele>
        <time>2021-03-18T09:50:50Z</time>
      </trkpt>
      <trkpt lat="46.51" lon="0.59118">
        <ele>109.07308863662</ele>
        <time>2021-03-18T09:50:52Z</time>
      </trkpt>
      <trkpt lat="46.51001" lon="0.59115">
        <ele>108.37655061018</ele>
        <time>2021-03-18T09:50:55Z</time>
      </trkpt>
      <trkpt lat="46.51003" lon="0.59113">
        <ele>108.58529624157</ele>
        <time>2021-03-18T09:50:57Z</time>
      </trkpt>
      <trkpt lat="46.51005" lon="0.59109">
        <ele>109.00116361771</ele>
        <time>2021-03-18T09:50:59Z</time>
      </trkpt>
      <trkpt lat="46.51006" lon="0.59106">
        <ele>108.43972027861</ele>
        <time>2021-03-18T09:51:01Z</time>
      </trkpt>
      <trkpt lat="46.51008" lon="0.59105">
        <ele>108.55804586783</ele>
        <time>2021-03-18T09:51:02Z</time>
      </trkpt>
      <trkpt lat="46.5101" lon="0.59102">
        <ele>108.28584588878</ele>
        <time>2021-03-18T09:51:04Z</time>
      </trkpt>
      <trkpt lat="46.51009" lon="0.591">
        <ele>107.76941207238</ele>
        <time>2021-03-18T09:51:06Z</time>
      </trkpt>
      <trkpt lat="46.5101" lon="0.59097">
        <ele>108.04502565879</ele>
        <time>2021-03-18T09:51:07Z</time>
      </trkpt>
      <trkpt lat="46.51011" lon="0.59094">
        <ele>107.94495994318</ele>
        <time>2021-03-18T09:51:08Z</time>
      </trkpt>
      <trkpt lat="46.51012" lon="0.59091">
        <ele>107.58756277524</ele>
        <time>2021-03-18T09:51:10Z</time>
      </trkpt>
      <trkpt lat="46.51013" lon="0.59088">
        <ele>107.1771505326</ele>
        <time>2021-03-18T09:51:12Z</time>
      </trkpt>
      <trkpt lat="46.51013" lon="0.59084">
        <ele>106.92589627858</ele>
        <time>2021-03-18T09:51:15Z</time>
      </trkpt>
      <trkpt lat="46.51014" lon="0.59082">
        <ele>106.58821127284</ele>
        <time>2021-03-18T09:51:17Z</time>
      </trkpt>
      <trkpt lat="46.51014" lon="0.59077">
        <ele>106.0474073384</ele>
        <time>2021-03-18T09:51:19Z</time>
      </trkpt>
      <trkpt lat="46.51015" lon="0.59074">
        <ele>105.78559034038</ele>
        <time>2021-03-18T09:51:21Z</time>
      </trkpt>
      <trkpt lat="46.51016" lon="0.5907">
        <ele>105.84119148646</ele>
        <time>2021-03-18T09:51:23Z</time>
      </trkpt>
      <trkpt lat="46.51016" lon="0.59066">
        <ele>105.65889079962</ele>
        <time>2021-03-18T09:51:25Z</time>
      </trkpt>
      <trkpt lat="46.51015" lon="0.59064">
        <ele>105.37796282582</ele>
        <time>2021-03-18T09:51:27Z</time>
      </trkpt>
      <trkpt lat="46.51015" lon="0.59061">
        <ele>105.11470492743</ele>
        <time>2021-03-18T09:51:30Z</time>
      </trkpt>
      <trkpt lat="46.51013" lon="0.59058">
        <ele>104.96967016999</ele>
        <time>2021-03-18T09:51:33Z</time>
      </trkpt>
      <trkpt lat="46.51012" lon="0.59055">
        <ele>104.82933219522</ele>
        <time>2021-03-18T09:51:36Z</time>
      </trkpt>
      <trkpt lat="46.51009" lon="0.59052">
        <ele>104.75693984888</ele>
        <time>2021-03-18T09:51:38Z</time>
      </trkpt>
      <trkpt lat="46.51007" lon="0.59049">
        <ele>104.49523167312</ele>
        <time>2021-03-18T09:51:40Z</time>
      </trkpt>
      <trkpt lat="46.51006" lon="0.59046">
        <ele>104.53387018014</ele>
        <time>2021-03-18T09:51:42Z</time>
      </trkpt>
      <trkpt lat="46.51004" lon="0.59044">
        <ele>104.41984927561</ele>
        <time>2021-03-18T09:51:44Z</time>
      </trkpt>
      <trkpt lat="46.51003" lon="0.59042">
        <ele>104.02161213756</ele>
        <time>2021-03-18T09:51:45Z</time>
      </trkpt>
      <trkpt lat="46.51" lon="0.5904">
        <ele>103.63799070101</ele>
        <time>2021-03-18T09:51:47Z</time>
      </trkpt>
      <trkpt lat="46.50999" lon="0.59036">
        <ele>103.24120995216</ele>
        <time>2021-03-18T09:51:49Z</time>
      </trkpt>
      <trkpt lat="46.50998" lon="0.59033">
        <ele>103.85713270679</ele>
        <time>2021-03-18T09:51:51Z</time>
      </trkpt>
      <trkpt lat="46.50995" lon="0.5903">
        <ele>103.28171640169</ele>
        <time>2021-03-18T09:51:53Z</time>
      </trkpt>
      <trkpt lat="46.50993" lon="0.59029">
        <ele>103.33549080137</ele>
        <time>2021-03-18T09:51:55Z</time>
      </trkpt>
      <trkpt lat="46.50991" lon="0.59029">
        <ele>103.17485709395</ele>
        <time>2021-03-18T09:51:57Z</time>
      </trkpt>
      <trkpt lat="46.50987" lon="0.59028">
        <ele>103.25581772625</ele>
        <time>2021-03-18T09:51:59Z</time>
      </trkpt>
      <trkpt lat="46.50985" lon="0.59027">
        <ele>103.13391174469</ele>
        <time>2021-03-18T09:52:00Z</time>
      </trkpt>
      <trkpt lat="46.50983" lon="0.59026">
        <ele>103.05149513017</ele>
        <time>2021-03-18T09:52:02Z</time>
      </trkpt>
      <trkpt lat="46.5098" lon="0.59025">
        <ele>103.43219369091</ele>
        <time>2021-03-18T09:52:04Z</time>
      </trkpt>
      <trkpt lat="46.50977" lon="0.59025">
        <ele>103.62716370076</ele>
        <time>2021-03-18T09:52:06Z</time>
      </trkpt>
      <trkpt lat="46.50975" lon="0.59023">
        <ele>103.60098517593</ele>
        <time>2021-03-18T09:52:08Z</time>
      </trkpt>
      <trkpt lat="46.50972" lon="0.5902">
        <ele>104.4151697848</ele>
        <time>2021-03-18T09:52:10Z</time>
      </trkpt>
      <trkpt lat="46.5097" lon="0.59018">
        <ele>103.66981985513</ele>
        <time>2021-03-18T09:52:12Z</time>
      </trkpt>
      <trkpt lat="46.50968" lon="0.59017">
        <ele>103.58701575454</ele>
        <time>2021-03-18T09:52:14Z</time>
      </trkpt>
      <trkpt lat="46.50966" lon="0.59015">
        <ele>103.11739202775</ele>
        <time>2021-03-18T09:52:16Z</time>
      </trkpt>
      <trkpt lat="46.50965" lon="0.59012">
        <ele>103.47602883726</ele>
        <time>2021-03-18T09:52:19Z</time>
      </trkpt>
      <trkpt lat="46.50962" lon="0.59012">
        <ele>103.69343411364</ele>
        <time>2021-03-18T09:52:21Z</time>
      </trkpt>
      <trkpt lat="46.50961" lon="0.5901">
        <ele>103.18904861063</ele>
        <time>2021-03-18T09:52:23Z</time>
      </trkpt>
      <trkpt lat="46.50959" lon="0.59009">
        <ele>103.27606925275</ele>
        <time>2021-03-18T09:52:24Z</time>
      </trkpt>
      <trkpt lat="46.50956" lon="0.59006">
        <ele>103.33890183736</ele>
        <time>2021-03-18T09:52:26Z</time>
      </trkpt>
      <trkpt lat="46.50954" lon="0.59006">
        <ele>103.3041773662</ele>
        <time>2021-03-18T09:52:28Z</time>
      </trkpt>
      <trkpt lat="46.50952" lon="0.59003">
        <ele>103.59941752255</ele>
        <time>2021-03-18T09:52:31Z</time>
      </trkpt>
      <trkpt lat="46.50949" lon="0.59001">
        <ele>103.60053898394</ele>
        <time>2021-03-18T09:52:33Z</time>
      </trkpt>
      <trkpt lat="46.50947" lon="0.58999">
        <ele>103.36911916733</ele>
        <time>2021-03-18T09:52:35Z</time>
      </trkpt>
      <trkpt lat="46.50946" lon="0.58996">
        <ele>103.16749558691</ele>
        <time>2021-03-18T09:52:37Z</time>
      </trkpt>
      <trkpt lat="46.50947" lon="0.58993">
        <ele>103.33905449603</ele>
        <time>2021-03-18T09:52:39Z</time>
      </trkpt>
      <trkpt lat="46.50948" lon="0.5899">
        <ele>103.07280191779</ele>
        <time>2021-03-18T09:52:42Z</time>
      </trkpt>
      <trkpt lat="46.50949" lon="0.58988">
        <ele>102.71714056656</ele>
        <time>2021-03-18T09:52:44Z</time>
      </trkpt>
      <trkpt lat="46.5095" lon="0.58984">
        <ele>102.27992867492</ele>
        <time>2021-03-18T09:52:46Z</time>
      </trkpt>
      <trkpt lat="46.50951" lon="0.58981">
        <ele>101.86712019891</ele>
        <time>2021-03-18T09:52:48Z</time>
      </trkpt>
      <trkpt lat="46.50951" lon="0.58978">
        <ele>101.97389827855</ele>
        <time>2021-03-18T09:52:50Z</time>
      </trkpt>
      <trkpt lat="46.50952" lon="0.58976">
        <ele>101.7398326667</ele>
        <time>2021-03-18T09:52:51Z</time>
      </trkpt>
      <trkpt lat="46.50953" lon="0.58973">
        <ele>101.45807421394</ele>
        <time>2021-03-18T09:52:53Z</time>
      </trkpt>
      <trkpt lat="46.50955" lon="0.5897">
        <ele>101.35843599122</ele>
        <time>2021-03-18T09:52:55Z</time>
      </trkpt>
      <trkpt lat="46.50955" lon="0.58966">
        <ele>100.95684073865</ele>
        <time>2021-03-18T09:52:57Z</time>
      </trkpt>
      <trkpt lat="46.50956" lon="0.58964">
        <ele>100.70422642492</ele>
        <time>2021-03-18T09:53:00Z</time>
      </trkpt>
      <trkpt lat="46.50957" lon="0.58962">
        <ele>100.4561270345</ele>
        <time>2021-03-18T09:53:02Z</time>
      </trkpt>
      <trkpt lat="46.50957" lon="0.58959">
        <ele>99.804595255293</ele>
        <time>2021-03-18T09:53:05Z</time>
      </trkpt>
      <trkpt lat="46.50958" lon="0.58956">
        <ele>99.770121106878</ele>
        <time>2021-03-18T09:53:08Z</time>
      </trkpt>
      <trkpt lat="46.5096" lon="0.58953">
        <ele>99.588590795174</ele>
        <time>2021-03-18T09:53:10Z</time>
      </trkpt>
      <trkpt lat="46.50961" lon="0.58951">
        <ele>99.379870160483</ele>
        <time>2021-03-18T09:53:13Z</time>
      </trkpt>
      <trkpt lat="46.50961" lon="0.58948">
        <ele>99.603759960271</ele>
        <time>2021-03-18T09:53:15Z</time>
      </trkpt>
      <trkpt lat="46.50963" lon="0.58945">
        <ele>98.98723644577</ele>
        <time>2021-03-18T09:53:17Z</time>
      </trkpt>
      <trkpt lat="46.50964" lon="0.58941">
        <ele>99.359628081322</ele>
        <time>2021-03-18T09:53:19Z</time>
      </trkpt>
      <trkpt lat="46.50965" lon="0.58938">
        <ele>99.677692264318</ele>
        <time>2021-03-18T09:53:22Z</time>
      </trkpt>
      <trkpt lat="46.50965" lon="0.58935">
        <ele>99.470866957679</ele>
        <time>2021-03-18T09:53:24Z</time>
      </trkpt>
      <trkpt lat="46.50967" lon="0.58932">
        <ele>99.511804664508</ele>
        <time>2021-03-18T09:53:26Z</time>
      </trkpt>
      <trkpt lat="46.50969" lon="0.5893">
        <ele>99.44609767478</ele>
        <time>2021-03-18T09:53:28Z</time>
      </trkpt>
      <trkpt lat="46.5097" lon="0.58927">
        <ele>99.681227374822</ele>
        <time>2021-03-18T09:53:30Z</time>
      </trkpt>
      <trkpt lat="46.50971" lon="0.58925">
        <ele>99.454519927502</ele>
        <time>2021-03-18T09:53:31Z</time>
      </trkpt>
      <trkpt lat="46.50973" lon="0.58922">
        <ele>99.532301966101</ele>
        <time>2021-03-18T09:53:33Z</time>
      </trkpt>
      <trkpt lat="46.50974" lon="0.58918">
        <ele>99.821695797145</ele>
        <time>2021-03-18T09:53:35Z</time>
      </trkpt>
      <trkpt lat="46.50976" lon="0.58916">
        <ele>99.437535151839</ele>
        <time>2021-03-18T09:53:37Z</time>
      </trkpt>
      <trkpt lat="46.50977" lon="0.58912">
        <ele>100.07074387651</ele>
        <time>2021-03-18T09:53:40Z</time>
      </trkpt>
      <trkpt lat="46.50979" lon="0.58909">
        <ele>99.47383469902</ele>
        <time>2021-03-18T09:53:42Z</time>
      </trkpt>
      <trkpt lat="46.5098" lon="0.58906">
        <ele>100.15792729985</ele>
        <time>2021-03-18T09:53:44Z</time>
      </trkpt>
      <trkpt lat="46.50979" lon="0.58903">
        <ele>100.46386000514</ele>
        <time>2021-03-18T09:53:47Z</time>
      </trkpt>
      <trkpt lat="46.50976" lon="0.589">
        <ele>100.10647095926</ele>
        <time>2021-03-18T09:53:49Z</time>
      </trkpt>
      <trkpt lat="46.50975" lon="0.58897">
        <ele>99.931689886376</ele>
        <time>2021-03-18T09:53:51Z</time>
      </trkpt>
      <trkpt lat="46.50973" lon="0.58896">
        <ele>100.2039783746</ele>
        <time>2021-03-18T09:53:53Z</time>
      </trkpt>
      <trkpt lat="46.50972" lon="0.58895">
        <ele>99.924289923161</ele>
        <time>2021-03-18T09:53:54Z</time>
      </trkpt>
      <trkpt lat="46.50969" lon="0.58894">
        <ele>99.999185169116</ele>
        <time>2021-03-18T09:53:56Z</time>
      </trkpt>
      <trkpt lat="46.50966" lon="0.58894">
        <ele>99.714897181839</ele>
        <time>2021-03-18T09:53:58Z</time>
      </trkpt>
      <trkpt lat="46.50966" lon="0.58891">
        <ele>99.786382248625</ele>
        <time>2021-03-18T09:54:00Z</time>
      </trkpt>
      <trkpt lat="46.50964" lon="0.58888">
        <ele>99.687791918404</ele>
        <time>2021-03-18T09:54:02Z</time>
      </trkpt>
      <trkpt lat="46.50962" lon="0.58885">
        <ele>99.35711406637</ele>
        <time>2021-03-18T09:54:04Z</time>
      </trkpt>
      <trkpt lat="46.50961" lon="0.58883">
        <ele>100.04675596952</ele>
        <time>2021-03-18T09:54:06Z</time>
      </trkpt>
      <trkpt lat="46.50962" lon="0.58878">
        <ele>100.15298155975</ele>
        <time>2021-03-18T09:54:08Z</time>
      </trkpt>
      <trkpt lat="46.50963" lon="0.58875">
        <ele>100.49315164238</ele>
        <time>2021-03-18T09:54:10Z</time>
      </trkpt>
      <trkpt lat="46.50963" lon="0.58872">
        <ele>100.44960226584</ele>
        <time>2021-03-18T09:54:13Z</time>
      </trkpt>
      <trkpt lat="46.50963" lon="0.58868">
        <ele>100.64198138658</ele>
        <time>2021-03-18T09:54:16Z</time>
      </trkpt>
      <trkpt lat="46.50962" lon="0.58865">
        <ele>100.53805522807</ele>
        <time>2021-03-18T09:54:19Z</time>
      </trkpt>
      <trkpt lat="46.50962" lon="0.5886">
        <ele>101.01907383371</ele>
        <time>2021-03-18T09:54:21Z</time>
      </trkpt>
      <trkpt lat="46.50962" lon="0.58856">
        <ele>101.191997285</ele>
        <time>2021-03-18T09:54:24Z</time>
      </trkpt>
      <trkpt lat="46.50962" lon="0.58851">
        <ele>102.08295298088</ele>
        <time>2021-03-18T09:54:26Z</time>
      </trkpt>
      <trkpt lat="46.50962" lon="0.58848">
        <ele>101.5652725203</ele>
        <time>2021-03-18T09:54:28Z</time>
      </trkpt>
      <trkpt lat="46.50963" lon="0.58845">
        <ele>102.65562230442</ele>
        <time>2021-03-18T09:54:29Z</time>
      </trkpt>
      <trkpt lat="46.50963" lon="0.58842">
        <ele>101.92484878842</ele>
        <time>2021-03-18T09:54:31Z</time>
      </trkpt>
      <trkpt lat="46.50965" lon="0.58838">
        <ele>102.33690628037</ele>
        <time>2021-03-18T09:54:34Z</time>
      </trkpt>
      <trkpt lat="46.50965" lon="0.58836">
        <ele>102.73413662892</ele>
        <time>2021-03-18T09:54:36Z</time>
      </trkpt>
      <trkpt lat="46.50966" lon="0.58832">
        <ele>102.75725847296</ele>
        <time>2021-03-18T09:54:38Z</time>
      </trkpt>
      <trkpt lat="46.50968" lon="0.58829">
        <ele>103.21992297098</ele>
        <time>2021-03-18T09:54:40Z</time>
      </trkpt>
      <trkpt lat="46.50968" lon="0.58826">
        <ele>104.3613545578</ele>
        <time>2021-03-18T09:54:42Z</time>
      </trkpt>
      <trkpt lat="46.50969" lon="0.58823">
        <ele>102.97200035397</ele>
        <time>2021-03-18T09:54:44Z</time>
      </trkpt>
      <trkpt lat="46.5097" lon="0.5882">
        <ele>103.99538804684</ele>
        <time>2021-03-18T09:54:47Z</time>
      </trkpt>
      <trkpt lat="46.5097" lon="0.58817">
        <ele>103.54543281626</ele>
        <time>2021-03-18T09:54:49Z</time>
      </trkpt>
      <trkpt lat="46.50969" lon="0.58813">
        <ele>104.01914153248</ele>
        <time>2021-03-18T09:54:52Z</time>
      </trkpt>
      <trkpt lat="46.5097" lon="0.58811">
        <ele>104.58176581003</ele>
        <time>2021-03-18T09:54:54Z</time>
      </trkpt>
      <trkpt lat="46.50971" lon="0.58808">
        <ele>104.27418434434</ele>
        <time>2021-03-18T09:54:57Z</time>
      </trkpt>
      <trkpt lat="46.50973" lon="0.58807">
        <ele>104.934160145</ele>
        <time>2021-03-18T09:54:59Z</time>
      </trkpt>
      <trkpt lat="46.50975" lon="0.58805">
        <ele>104.96895031538</ele>
        <time>2021-03-18T09:55:01Z</time>
      </trkpt>
      <trkpt lat="46.50976" lon="0.58802">
        <ele>104.969952696</ele>
        <time>2021-03-18T09:55:03Z</time>
      </trkpt>
      <trkpt lat="46.50978" lon="0.588">
        <ele>105.39504662994</ele>
        <time>2021-03-18T09:55:05Z</time>
      </trkpt>
      <trkpt lat="46.50979" lon="0.58797">
        <ele>105.45531160664</ele>
        <time>2021-03-18T09:55:07Z</time>
      </trkpt>
      <trkpt lat="46.5098" lon="0.58794">
        <ele>105.01344941184</ele>
        <time>2021-03-18T09:55:09Z</time>
      </trkpt>
      <trkpt lat="46.50981" lon="0.58792">
        <ele>105.10202619713</ele>
        <time>2021-03-18T09:55:11Z</time>
      </trkpt>
      <trkpt lat="46.50982" lon="0.5879">
        <ele>105.43152166903</ele>
        <time>2021-03-18T09:55:13Z</time>
      </trkpt>
      <trkpt lat="46.50984" lon="0.58787">
        <ele>105.56533086207</ele>
        <time>2021-03-18T09:55:15Z</time>
      </trkpt>
      <trkpt lat="46.50985" lon="0.58783">
        <ele>106.1242449712</ele>
        <time>2021-03-18T09:55:18Z</time>
      </trkpt>
      <trkpt lat="46.50987" lon="0.58783">
        <ele>105.42285588197</ele>
        <time>2021-03-18T09:55:20Z</time>
      </trkpt>
      <trkpt lat="46.50989" lon="0.58786">
        <ele>105.28214508388</ele>
        <time>2021-03-18T09:55:24Z</time>
      </trkpt>
      <trkpt lat="46.50992" lon="0.58786">
        <ele>105.3414359102</ele>
        <time>2021-03-18T09:55:26Z</time>
      </trkpt>
      <trkpt lat="46.50994" lon="0.58787">
        <ele>105.3163999375</ele>
        <time>2021-03-18T09:55:28Z</time>
      </trkpt>
      <trkpt lat="46.50996" lon="0.58788">
        <ele>105.50936922804</ele>
        <time>2021-03-18T09:55:31Z</time>
      </trkpt>
      <trkpt lat="46.50998" lon="0.58788">
        <ele>105.20667281281</ele>
        <time>2021-03-18T09:55:33Z</time>
      </trkpt>
      <trkpt lat="46.51001" lon="0.5879">
        <ele>105.01665617153</ele>
        <time>2021-03-18T09:55:35Z</time>
      </trkpt>
      <trkpt lat="46.51003" lon="0.58791">
        <ele>105.43304269295</ele>
        <time>2021-03-18T09:55:37Z</time>
      </trkpt>
      <trkpt lat="46.51005" lon="0.58791">
        <ele>105.42958073225</ele>
        <time>2021-03-18T09:55:38Z</time>
      </trkpt>
      <trkpt lat="46.51007" lon="0.58793">
        <ele>105.16207541339</ele>
        <time>2021-03-18T09:55:39Z</time>
      </trkpt>
      <trkpt lat="46.51008" lon="0.58796">
        <ele>104.61273202207</ele>
        <time>2021-03-18T09:55:41Z</time>
      </trkpt>
      <trkpt lat="46.51009" lon="0.58798">
        <ele>104.80966969766</ele>
        <time>2021-03-18T09:55:43Z</time>
      </trkpt>
      <trkpt lat="46.51012" lon="0.588">
        <ele>104.5994686028</ele>
        <time>2021-03-18T09:55:46Z</time>
      </trkpt>
      <trkpt lat="46.51014" lon="0.58802">
        <ele>104.32495708577</ele>
        <time>2021-03-18T09:55:49Z</time>
      </trkpt>
      <trkpt lat="46.51016" lon="0.58803">
        <ele>103.98787586018</ele>
        <time>2021-03-18T09:55:51Z</time>
      </trkpt>
      <trkpt lat="46.51019" lon="0.58805">
        <ele>104.16642589588</ele>
        <time>2021-03-18T09:55:54Z</time>
      </trkpt>
      <trkpt lat="46.51021" lon="0.58807">
        <ele>104.00114549696</ele>
        <time>2021-03-18T09:55:57Z</time>
      </trkpt>
      <trkpt lat="46.51023" lon="0.58808">
        <ele>103.74996830989</ele>
        <time>2021-03-18T09:55:59Z</time>
      </trkpt>
      <trkpt lat="46.51025" lon="0.58808">
        <ele>103.65521627199</ele>
        <time>2021-03-18T09:56:00Z</time>
      </trkpt>
      <trkpt lat="46.51028" lon="0.58812">
        <ele>103.89818881266</ele>
        <time>2021-03-18T09:56:02Z</time>
      </trkpt>
      <trkpt lat="46.51031" lon="0.58814">
        <ele>103.90197447781</ele>
        <time>2021-03-18T09:56:04Z</time>
      </trkpt>
      <trkpt lat="46.51033" lon="0.58815">
        <ele>103.54002906661</ele>
        <time>2021-03-18T09:56:07Z</time>
      </trkpt>
      <trkpt lat="46.51035" lon="0.58816">
        <ele>102.96025860589</ele>
        <time>2021-03-18T09:56:08Z</time>
      </trkpt>
      <trkpt lat="46.51038" lon="0.58816">
        <ele>103.52354933042</ele>
        <time>2021-03-18T09:56:10Z</time>
      </trkpt>
      <trkpt lat="46.51041" lon="0.58818">
        <ele>102.52353514824</ele>
        <time>2021-03-18T09:56:12Z</time>
      </trkpt>
      <trkpt lat="46.51043" lon="0.58819">
        <ele>103.20678165741</ele>
        <time>2021-03-18T09:56:14Z</time>
      </trkpt>
      <trkpt lat="46.51045" lon="0.5882">
        <ele>102.8106757272</ele>
        <time>2021-03-18T09:56:16Z</time>
      </trkpt>
      <trkpt lat="46.51049" lon="0.58821">
        <ele>103.44646652788</ele>
        <time>2021-03-18T09:56:18Z</time>
      </trkpt>
      <trkpt lat="46.51051" lon="0.58823">
        <ele>103.02897123061</ele>
        <time>2021-03-18T09:56:20Z</time>
      </trkpt>
      <trkpt lat="46.51054" lon="0.58824">
        <ele>102.90524673834</ele>
        <time>2021-03-18T09:56:22Z</time>
      </trkpt>
      <trkpt lat="46.51055" lon="0.58827">
        <ele>102.98698065802</ele>
        <time>2021-03-18T09:56:24Z</time>
      </trkpt>
      <trkpt lat="46.51058" lon="0.5883">
        <ele>103.07188243419</ele>
        <time>2021-03-18T09:56:26Z</time>
      </trkpt>
      <trkpt lat="46.5106" lon="0.58831">
        <ele>102.47517703474</ele>
        <time>2021-03-18T09:56:28Z</time>
      </trkpt>
      <trkpt lat="46.5106" lon="0.58834">
        <ele>102.49232028425</ele>
        <time>2021-03-18T09:56:30Z</time>
      </trkpt>
      <trkpt lat="46.51061" lon="0.58837">
        <ele>102.89893841464</ele>
        <time>2021-03-18T09:56:33Z</time>
      </trkpt>
      <trkpt lat="46.51061" lon="0.58842">
        <ele>102.36743096355</ele>
        <time>2021-03-18T09:56:35Z</time>
      </trkpt>
      <trkpt lat="46.51061" lon="0.58844">
        <ele>102.33607058041</ele>
        <time>2021-03-18T09:56:37Z</time>
      </trkpt>
      <trkpt lat="46.51061" lon="0.58848">
        <ele>102.28208227456</ele>
        <time>2021-03-18T09:56:39Z</time>
      </trkpt>
      <trkpt lat="46.51062" lon="0.58853">
        <ele>102.18532842118</ele>
        <time>2021-03-18T09:56:41Z</time>
      </trkpt>
      <trkpt lat="46.51064" lon="0.58856">
        <ele>102.19821252301</ele>
        <time>2021-03-18T09:56:43Z</time>
      </trkpt>
      <trkpt lat="46.51065" lon="0.5886">
        <ele>101.96830113512</ele>
        <time>2021-03-18T09:56:45Z</time>
      </trkpt>
      <trkpt lat="46.51066" lon="0.58863">
        <ele>101.85166994762</ele>
        <time>2021-03-18T09:56:47Z</time>
      </trkpt>
      <trkpt lat="46.51068" lon="0.58866">
        <ele>101.65987765603</ele>
        <time>2021-03-18T09:56:50Z</time>
      </trkpt>
      <trkpt lat="46.5107" lon="0.58866">
        <ele>101.31719511282</ele>
        <time>2021-03-18T09:56:52Z</time>
      </trkpt>
      <trkpt lat="46.51073" lon="0.58866">
        <ele>101.37819910794</ele>
        <time>2021-03-18T09:56:54Z</time>
      </trkpt>
      <trkpt lat="46.51075" lon="0.58865">
        <ele>101.27499610092</ele>
        <time>2021-03-18T09:56:56Z</time>
      </trkpt>
      <trkpt lat="46.51078" lon="0.58865">
        <ele>101.01434601378</ele>
        <time>2021-03-18T09:56:58Z</time>
      </trkpt>
      <trkpt lat="46.51082" lon="0.58865">
        <ele>100.98565995507</ele>
        <time>2021-03-18T09:57:00Z</time>
      </trkpt>
      <trkpt lat="46.51084" lon="0.58865">
        <ele>101.29352170788</ele>
        <time>2021-03-18T09:57:02Z</time>
      </trkpt>
      <trkpt lat="46.51086" lon="0.58865">
        <ele>101.04008327238</ele>
        <time>2021-03-18T09:57:04Z</time>
      </trkpt>
      <trkpt lat="46.51089" lon="0.58865">
        <ele>100.90284765046</ele>
        <time>2021-03-18T09:57:06Z</time>
      </trkpt>
      <trkpt lat="46.51091" lon="0.58864">
        <ele>100.87013178784</ele>
        <time>2021-03-18T09:57:08Z</time>
      </trkpt>
      <trkpt lat="46.51094" lon="0.58865">
        <ele>100.72972040065</ele>
        <time>2021-03-18T09:57:10Z</time>
      </trkpt>
      <trkpt lat="46.51096" lon="0.58865">
        <ele>101.1323888097</ele>
        <time>2021-03-18T09:57:12Z</time>
      </trkpt>
      <trkpt lat="46.51099" lon="0.58864">
        <ele>100.83604900632</ele>
        <time>2021-03-18T09:57:14Z</time>
      </trkpt>
      <trkpt lat="46.51102" lon="0.58863">
        <ele>100.45020704158</ele>
        <time>2021-03-18T09:57:16Z</time>
      </trkpt>
      <trkpt lat="46.51104" lon="0.58864">
        <ele>100.79556755722</ele>
        <time>2021-03-18T09:57:18Z</time>
      </trkpt>
      <trkpt lat="46.51106" lon="0.58863">
        <ele>100.69453411363</ele>
        <time>2021-03-18T09:57:20Z</time>
      </trkpt>
      <trkpt lat="46.51108" lon="0.58862">
        <ele>100.31906877365</ele>
        <time>2021-03-18T09:57:21Z</time>
      </trkpt>
      <trkpt lat="46.51111" lon="0.58862">
        <ele>100.47848453652</ele>
        <time>2021-03-18T09:57:23Z</time>
      </trkpt>
      <trkpt lat="46.51114" lon="0.5886">
        <ele>100.24226339255</ele>
        <time>2021-03-18T09:57:25Z</time>
      </trkpt>
      <trkpt lat="46.51116" lon="0.58859">
        <ele>100.42946590949</ele>
        <time>2021-03-18T09:57:27Z</time>
      </trkpt>
      <trkpt lat="46.51118" lon="0.58858">
        <ele>100.25944329705</ele>
        <time>2021-03-18T09:57:28Z</time>
      </trkpt>
      <trkpt lat="46.5112" lon="0.58858">
        <ele>100.39558616374</ele>
        <time>2021-03-18T09:57:29Z</time>
      </trkpt>
      <trkpt lat="46.51122" lon="0.58857">
        <ele>100.49189675692</ele>
        <time>2021-03-18T09:57:31Z</time>
      </trkpt>
      <trkpt lat="46.51124" lon="0.58857">
        <ele>100.26391360722</ele>
        <time>2021-03-18T09:57:33Z</time>
      </trkpt>
      <trkpt lat="46.51126" lon="0.58857">
        <ele>100.37511798553</ele>
        <time>2021-03-18T09:57:35Z</time>
      </trkpt>
      <trkpt lat="46.51128" lon="0.58856">
        <ele>100.38641601335</ele>
        <time>2021-03-18T09:57:37Z</time>
      </trkpt>
      <trkpt lat="46.51131" lon="0.58855">
        <ele>100.49431592319</ele>
        <time>2021-03-18T09:57:39Z</time>
      </trkpt>
      <trkpt lat="46.51133" lon="0.58856">
        <ele>100.55802071281</ele>
        <time>2021-03-18T09:57:40Z</time>
      </trkpt>
      <trkpt lat="46.51135" lon="0.58855">
        <ele>100.25244960655</ele>
        <time>2021-03-18T09:57:42Z</time>
      </trkpt>
      <trkpt lat="46.51137" lon="0.58854">
        <ele>100.09137231112</ele>
        <time>2021-03-18T09:57:44Z</time>
      </trkpt>
      <trkpt lat="46.5114" lon="0.58853">
        <ele>100.71098860074</ele>
        <time>2021-03-18T09:57:46Z</time>
      </trkpt>
      <trkpt lat="46.51143" lon="0.58852">
        <ele>100.53611184843</ele>
        <time>2021-03-18T09:57:48Z</time>
      </trkpt>
      <trkpt lat="46.51145" lon="0.58851">
        <ele>100.04148480576</ele>
        <time>2021-03-18T09:57:50Z</time>
      </trkpt>
      <trkpt lat="46.51147" lon="0.58851">
        <ele>100.36629530415</ele>
        <time>2021-03-18T09:57:52Z</time>
      </trkpt>
      <trkpt lat="46.51149" lon="0.5885">
        <ele>100.26388969366</ele>
        <time>2021-03-18T09:57:53Z</time>
      </trkpt>
      <trkpt lat="46.51152" lon="0.5885">
        <ele>100.76602538209</ele>
        <time>2021-03-18T09:57:56Z</time>
      </trkpt>
      <trkpt lat="46.51154" lon="0.58849">
        <ele>100.28085974604</ele>
        <time>2021-03-18T09:57:57Z</time>
      </trkpt>
      <trkpt lat="46.51156" lon="0.58849">
        <ele>101.28788707033</ele>
        <time>2021-03-18T09:57:59Z</time>
      </trkpt>
      <trkpt lat="46.51158" lon="0.58849">
        <ele>100.99791032262</ele>
        <time>2021-03-18T09:58:02Z</time>
      </trkpt>
      <trkpt lat="46.5116" lon="0.58849">
        <ele>101.08997043315</ele>
        <time>2021-03-18T09:58:04Z</time>
      </trkpt>
      <trkpt lat="46.51164" lon="0.58848">
        <ele>101.25024337601</ele>
        <time>2021-03-18T09:58:06Z</time>
      </trkpt>
      <trkpt lat="46.51166" lon="0.58848">
        <ele>101.39987731446</ele>
        <time>2021-03-18T09:58:08Z</time>
      </trkpt>
      <trkpt lat="46.51168" lon="0.58847">
        <ele>101.05501077138</ele>
        <time>2021-03-18T09:58:10Z</time>
      </trkpt>
      <trkpt lat="46.5117" lon="0.58848">
        <ele>101.77238852251</ele>
        <time>2021-03-18T09:58:13Z</time>
      </trkpt>
      <trkpt lat="46.51174" lon="0.58847">
        <ele>101.25054156408</ele>
        <time>2021-03-18T09:58:17Z</time>
      </trkpt>
      <trkpt lat="46.51176" lon="0.58845">
        <ele>101.55447724368</ele>
        <time>2021-03-18T09:58:20Z</time>
      </trkpt>
      <trkpt lat="46.51179" lon="0.58844">
        <ele>101.45875842404</ele>
        <time>2021-03-18T09:58:22Z</time>
      </trkpt>
      <trkpt lat="46.51181" lon="0.58844">
        <ele>102.13470004778</ele>
        <time>2021-03-18T09:58:24Z</time>
      </trkpt>
      <trkpt lat="46.51183" lon="0.58843">
        <ele>101.94109878968</ele>
        <time>2021-03-18T09:58:26Z</time>
      </trkpt>
      <trkpt lat="46.51186" lon="0.58843">
        <ele>102.95984478388</ele>
        <time>2021-03-18T09:58:28Z</time>
      </trkpt>
      <trkpt lat="46.51189" lon="0.58843">
        <ele>102.32543343864</ele>
        <time>2021-03-18T09:58:30Z</time>
      </trkpt>
      <trkpt lat="46.51192" lon="0.58842">
        <ele>102.84400353115</ele>
        <time>2021-03-18T09:58:32Z</time>
      </trkpt>
      <trkpt lat="46.51194" lon="0.58842">
        <ele>103.07565657794</ele>
        <time>2021-03-18T09:58:34Z</time>
      </trkpt>
      <trkpt lat="46.51197" lon="0.58841">
        <ele>103.26364797167</ele>
        <time>2021-03-18T09:58:37Z</time>
      </trkpt>
      <trkpt lat="46.512" lon="0.58841">
        <ele>103.63189976849</ele>
        <time>2021-03-18T09:58:40Z</time>
      </trkpt>
      <trkpt lat="46.51202" lon="0.58841">
        <ele>103.18332445063</ele>
        <time>2021-03-18T09:58:42Z</time>
      </trkpt>
      <trkpt lat="46.51204" lon="0.5884">
        <ele>104.24006353319</ele>
        <time>2021-03-18T09:58:44Z</time>
      </trkpt>
      <trkpt lat="46.51207" lon="0.5884">
        <ele>103.81383410934</ele>
        <time>2021-03-18T09:58:46Z</time>
      </trkpt>
      <trkpt lat="46.51209" lon="0.58839">
        <ele>104.16580972541</ele>
        <time>2021-03-18T09:58:48Z</time>
      </trkpt>
      <trkpt lat="46.51212" lon="0.58839">
        <ele>104.49725360051</ele>
        <time>2021-03-18T09:58:50Z</time>
      </trkpt>
      <trkpt lat="46.51214" lon="0.58837">
        <ele>104.66646707989</ele>
        <time>2021-03-18T09:58:52Z</time>
      </trkpt>
      <trkpt lat="46.51216" lon="0.58836">
        <ele>104.83628470544</ele>
        <time>2021-03-18T09:58:54Z</time>
      </trkpt>
      <trkpt lat="46.51218" lon="0.58835">
        <ele>104.73371857498</ele>
        <time>2021-03-18T09:58:56Z</time>
      </trkpt>
      <trkpt lat="46.5122" lon="0.58833">
        <ele>104.92868512776</ele>
        <time>2021-03-18T09:58:58Z</time>
      </trkpt>
      <trkpt lat="46.51222" lon="0.58831">
        <ele>105.02821382135</ele>
        <time>2021-03-18T09:58:59Z</time>
      </trkpt>
      <trkpt lat="46.51224" lon="0.58829">
        <ele>104.48598102946</ele>
        <time>2021-03-18T09:59:01Z</time>
      </trkpt>
      <trkpt lat="46.51226" lon="0.58825">
        <ele>105.60646294057</ele>
        <time>2021-03-18T09:59:03Z</time>
      </trkpt>
      <trkpt lat="46.51228" lon="0.58821">
        <ele>105.67566401977</ele>
        <time>2021-03-18T09:59:05Z</time>
      </trkpt>
      <trkpt lat="46.51229" lon="0.58819">
        <ele>106.04811434727</ele>
        <time>2021-03-18T09:59:07Z</time>
      </trkpt>
      <trkpt lat="46.5123" lon="0.58814">
        <ele>106.3710730942</ele>
        <time>2021-03-18T09:59:11Z</time>
      </trkpt>
      <trkpt lat="46.5123" lon="0.58811">
        <ele>106.57682318334</ele>
        <time>2021-03-18T09:59:14Z</time>
      </trkpt>
      <trkpt lat="46.5123" lon="0.58807">
        <ele>107.40165828355</ele>
        <time>2021-03-18T09:59:16Z</time>
      </trkpt>
      <trkpt lat="46.5123" lon="0.58803">
        <ele>106.6317353081</ele>
        <time>2021-03-18T09:59:18Z</time>
      </trkpt>
      <trkpt lat="46.51231" lon="0.58801">
        <ele>106.63349029794</ele>
        <time>2021-03-18T09:59:20Z</time>
      </trkpt>
      <trkpt lat="46.5123" lon="0.58798">
        <ele>106.98594899662</ele>
        <time>2021-03-18T09:59:22Z</time>
      </trkpt>
      <trkpt lat="46.51231" lon="0.58794">
        <ele>106.830532589</ele>
        <time>2021-03-18T09:59:24Z</time>
      </trkpt>
      <trkpt lat="46.5123" lon="0.58791">
        <ele>107.08204527013</ele>
        <time>2021-03-18T09:59:26Z</time>
      </trkpt>
      <trkpt lat="46.5123" lon="0.58788">
        <ele>107.39752490725</ele>
        <time>2021-03-18T09:59:27Z</time>
      </trkpt>
      <trkpt lat="46.5123" lon="0.58786">
        <ele>106.70694353338</ele>
        <time>2021-03-18T09:59:28Z</time>
      </trkpt>
      <trkpt lat="46.5123" lon="0.58781">
        <ele>107.00060819089</ele>
        <time>2021-03-18T09:59:30Z</time>
      </trkpt>
      <trkpt lat="46.51229" lon="0.58778">
        <ele>106.98992634658</ele>
        <time>2021-03-18T09:59:32Z</time>
      </trkpt>
      <trkpt lat="46.5123" lon="0.58774">
        <ele>107.04460196383</ele>
        <time>2021-03-18T09:59:34Z</time>
      </trkpt>
      <trkpt lat="46.5123" lon="0.5877">
        <ele>106.25257231109</ele>
        <time>2021-03-18T09:59:36Z</time>
      </trkpt>
      <trkpt lat="46.51231" lon="0.58766">
        <ele>107.0199780846</ele>
        <time>2021-03-18T09:59:38Z</time>
      </trkpt>
      <trkpt lat="46.51231" lon="0.58763">
        <ele>107.34867939539</ele>
        <time>2021-03-18T09:59:40Z</time>
      </trkpt>
      <trkpt lat="46.51231" lon="0.58758">
        <ele>107.16925821546</ele>
        <time>2021-03-18T09:59:42Z</time>
      </trkpt>
      <trkpt lat="46.5123" lon="0.58756">
        <ele>107.17170382664</ele>
        <time>2021-03-18T09:59:44Z</time>
      </trkpt>
      <trkpt lat="46.51231" lon="0.58752">
        <ele>106.98734903242</ele>
        <time>2021-03-18T09:59:46Z</time>
      </trkpt>
      <trkpt lat="46.51233" lon="0.58748">
        <ele>106.96379734389</ele>
        <time>2021-03-18T09:59:48Z</time>
      </trkpt>
      <trkpt lat="46.51234" lon="0.58743">
        <ele>106.6895841565</ele>
        <time>2021-03-18T09:59:50Z</time>
      </trkpt>
      <trkpt lat="46.51235" lon="0.5874">
        <ele>107.33549436927</ele>
        <time>2021-03-18T09:59:52Z</time>
      </trkpt>
      <trkpt lat="46.51236" lon="0.58736">
        <ele>107.73036377132</ele>
        <time>2021-03-18T09:59:54Z</time>
      </trkpt>
      <trkpt lat="46.51237" lon="0.58732">
        <ele>107.5223708218</ele>
        <time>2021-03-18T09:59:56Z</time>
      </trkpt>
      <trkpt lat="46.51237" lon="0.58729">
        <ele>107.56854692008</ele>
        <time>2021-03-18T09:59:58Z</time>
      </trkpt>
      <trkpt lat="46.51237" lon="0.58726">
        <ele>108.11882662866</ele>
        <time>2021-03-18T10:00:00Z</time>
      </trkpt>
      <trkpt lat="46.51238" lon="0.58722">
        <ele>108.07050743978</ele>
        <time>2021-03-18T10:00:02Z</time>
      </trkpt>
      <trkpt lat="46.51238" lon="0.58718">
        <ele>107.47121876292</ele>
        <time>2021-03-18T10:00:04Z</time>
      </trkpt>
      <trkpt lat="46.51239" lon="0.58714">
        <ele>108.01359752379</ele>
        <time>2021-03-18T10:00:06Z</time>
      </trkpt>
      <trkpt lat="46.51239" lon="0.58711">
        <ele>107.67468665075</ele>
        <time>2021-03-18T10:00:08Z</time>
      </trkpt>
      <trkpt lat="46.51238" lon="0.58706">
        <ele>107.75514248945</ele>
        <time>2021-03-18T10:00:10Z</time>
      </trkpt>
      <trkpt lat="46.51238" lon="0.58701">
        <ele>108.38305192906</ele>
        <time>2021-03-18T10:00:12Z</time>
      </trkpt>
      <trkpt lat="46.51239" lon="0.58698">
        <ele>107.84100085031</ele>
        <time>2021-03-18T10:00:14Z</time>
      </trkpt>
      <trkpt lat="46.51238" lon="0.58694">
        <ele>107.79206055123</ele>
        <time>2021-03-18T10:00:16Z</time>
      </trkpt>
      <trkpt lat="46.51238" lon="0.58691">
        <ele>108.385767431</ele>
        <time>2021-03-18T10:00:19Z</time>
      </trkpt>
      <trkpt lat="46.51238" lon="0.58687">
        <ele>108.37748006918</ele>
        <time>2021-03-18T10:00:21Z</time>
      </trkpt>
      <trkpt lat="46.51238" lon="0.58683">
        <ele>108.2571001593</ele>
        <time>2021-03-18T10:00:23Z</time>
      </trkpt>
      <trkpt lat="46.51238" lon="0.58679">
        <ele>108.40064224135</ele>
        <time>2021-03-18T10:00:26Z</time>
      </trkpt>
      <trkpt lat="46.51238" lon="0.58676">
        <ele>107.96992064361</ele>
        <time>2021-03-18T10:00:28Z</time>
      </trkpt>
      <trkpt lat="46.51238" lon="0.58673">
        <ele>108.11949403863</ele>
        <time>2021-03-18T10:00:30Z</time>
      </trkpt>
      <trkpt lat="46.51238" lon="0.5867">
        <ele>107.66578137968</ele>
        <time>2021-03-18T10:00:32Z</time>
      </trkpt>
      <trkpt lat="46.51237" lon="0.58667">
        <ele>107.76458628662</ele>
        <time>2021-03-18T10:00:34Z</time>
      </trkpt>
      <trkpt lat="46.51237" lon="0.58663">
        <ele>107.87918243092</ele>
        <time>2021-03-18T10:00:36Z</time>
      </trkpt>
      <trkpt lat="46.51237" lon="0.5866">
        <ele>107.29920712486</ele>
        <time>2021-03-18T10:00:38Z</time>
      </trkpt>
      <trkpt lat="46.51237" lon="0.58656">
        <ele>108.25577896554</ele>
        <time>2021-03-18T10:00:40Z</time>
      </trkpt>
      <trkpt lat="46.51237" lon="0.58652">
        <ele>108.10999966506</ele>
        <time>2021-03-18T10:00:42Z</time>
      </trkpt>
      <trkpt lat="46.51237" lon="0.58649">
        <ele>107.36408064514</ele>
        <time>2021-03-18T10:00:44Z</time>
      </trkpt>
      <trkpt lat="46.51237" lon="0.58646">
        <ele>107.85772743262</ele>
        <time>2021-03-18T10:00:46Z</time>
      </trkpt>
      <trkpt lat="46.51238" lon="0.58643">
        <ele>108.24462717026</ele>
        <time>2021-03-18T10:00:47Z</time>
      </trkpt>
      <trkpt lat="46.51239" lon="0.58639">
        <ele>108.03409001324</ele>
        <time>2021-03-18T10:00:49Z</time>
      </trkpt>
      <trkpt lat="46.5124" lon="0.58636">
        <ele>107.85200388543</ele>
        <time>2021-03-18T10:00:51Z</time>
      </trkpt>
      <trkpt lat="46.51241" lon="0.58634">
        <ele>108.85056588985</ele>
        <time>2021-03-18T10:00:53Z</time>
      </trkpt>
      <trkpt lat="46.51242" lon="0.5863">
        <ele>109.22813178506</ele>
        <time>2021-03-18T10:00:55Z</time>
      </trkpt>
      <trkpt lat="46.51244" lon="0.58628">
        <ele>108.98028958123</ele>
        <time>2021-03-18T10:00:57Z</time>
      </trkpt>
      <trkpt lat="46.51246" lon="0.58626">
        <ele>109.89507647324</ele>
        <time>2021-03-18T10:00:59Z</time>
      </trkpt>
      <trkpt lat="46.51248" lon="0.58624">
        <ele>109.2381548509</ele>
        <time>2021-03-18T10:01:01Z</time>
      </trkpt>
      <trkpt lat="46.51249" lon="0.58621">
        <ele>109.99559825286</ele>
        <time>2021-03-18T10:01:03Z</time>
      </trkpt>
      <trkpt lat="46.5125" lon="0.58619">
        <ele>110.19852385111</ele>
        <time>2021-03-18T10:01:04Z</time>
      </trkpt>
      <trkpt lat="46.51251" lon="0.58615">
        <ele>110.05477644503</ele>
        <time>2021-03-18T10:01:06Z</time>
      </trkpt>
      <trkpt lat="46.51253" lon="0.58612">
        <ele>109.91895968467</ele>
        <time>2021-03-18T10:01:08Z</time>
      </trkpt>
      <trkpt lat="46.51254" lon="0.58609">
        <ele>110.27564623766</ele>
        <time>2021-03-18T10:01:10Z</time>
      </trkpt>
      <trkpt lat="46.51255" lon="0.58606">
        <ele>111.17356577981</ele>
        <time>2021-03-18T10:01:12Z</time>
      </trkpt>
      <trkpt lat="46.51257" lon="0.58604">
        <ele>110.04232033901</ele>
        <time>2021-03-18T10:01:14Z</time>
      </trkpt>
      <trkpt lat="46.51257" lon="0.58602">
        <ele>111.39364552218</ele>
        <time>2021-03-18T10:01:15Z</time>
      </trkpt>
      <trkpt lat="46.5126" lon="0.58599">
        <ele>110.19971330743</ele>
        <time>2021-03-18T10:01:17Z</time>
      </trkpt>
      <trkpt lat="46.51261" lon="0.58595">
        <ele>111.0929176379</ele>
        <time>2021-03-18T10:01:19Z</time>
      </trkpt>
      <trkpt lat="46.51262" lon="0.58593">
        <ele>109.95036369562</ele>
        <time>2021-03-18T10:01:21Z</time>
      </trkpt>
      <trkpt lat="46.51263" lon="0.5859">
        <ele>110.80002135877</ele>
        <time>2021-03-18T10:01:23Z</time>
      </trkpt>
      <trkpt lat="46.51265" lon="0.58588">
        <ele>110.50637503434</ele>
        <time>2021-03-18T10:01:24Z</time>
      </trkpt>
      <trkpt lat="46.51266" lon="0.58585">
        <ele>110.9166063536</ele>
        <time>2021-03-18T10:01:26Z</time>
      </trkpt>
      <trkpt lat="46.51267" lon="0.58583">
        <ele>111.4889636077</ele>
        <time>2021-03-18T10:01:28Z</time>
      </trkpt>
      <trkpt lat="46.51268" lon="0.58579">
        <ele>110.98261788674</ele>
        <time>2021-03-18T10:01:30Z</time>
      </trkpt>
      <trkpt lat="46.51269" lon="0.58574">
        <ele>110.36904605944</ele>
        <time>2021-03-18T10:01:32Z</time>
      </trkpt>
      <trkpt lat="46.51271" lon="0.58571">
        <ele>111.01516668405</ele>
        <time>2021-03-18T10:01:34Z</time>
      </trkpt>
      <trkpt lat="46.51271" lon="0.58569">
        <ele>111.54436449334</ele>
        <time>2021-03-18T10:01:36Z</time>
      </trkpt>
      <trkpt lat="46.51272" lon="0.58566">
        <ele>110.95203735121</ele>
        <time>2021-03-18T10:01:38Z</time>
      </trkpt>
      <trkpt lat="46.51274" lon="0.58561">
        <ele>111.73050173931</ele>
        <time>2021-03-18T10:01:40Z</time>
      </trkpt>
      <trkpt lat="46.51275" lon="0.58559">
        <ele>111.60848668031</ele>
        <time>2021-03-18T10:01:42Z</time>
      </trkpt>
      <trkpt lat="46.51277" lon="0.58556">
        <ele>111.4779421268</ele>
        <time>2021-03-18T10:01:44Z</time>
      </trkpt>
      <trkpt lat="46.51278" lon="0.58553">
        <ele>111.74015395436</ele>
        <time>2021-03-18T10:01:46Z</time>
      </trkpt>
      <trkpt lat="46.51279" lon="0.5855">
        <ele>111.67329949141</ele>
        <time>2021-03-18T10:01:48Z</time>
      </trkpt>
      <trkpt lat="46.51281" lon="0.58547">
        <ele>111.98897032533</ele>
        <time>2021-03-18T10:01:50Z</time>
      </trkpt>
      <trkpt lat="46.51283" lon="0.58544">
        <ele>111.78786567878</ele>
        <time>2021-03-18T10:01:52Z</time>
      </trkpt>
      <trkpt lat="46.51284" lon="0.58541">
        <ele>111.50684195291</ele>
        <time>2021-03-18T10:01:54Z</time>
      </trkpt>
      <trkpt lat="46.51286" lon="0.58538">
        <ele>111.72686196491</ele>
        <time>2021-03-18T10:01:56Z</time>
      </trkpt>
      <trkpt lat="46.51288" lon="0.58536">
        <ele>111.93455937412</ele>
        <time>2021-03-18T10:01:58Z</time>
      </trkpt>
      <trkpt lat="46.5129" lon="0.58534">
        <ele>111.77061155997</ele>
        <time>2021-03-18T10:02:00Z</time>
      </trkpt>
      <trkpt lat="46.51291" lon="0.58531">
        <ele>112.04109621607</ele>
        <time>2021-03-18T10:02:02Z</time>
      </trkpt>
      <trkpt lat="46.51294" lon="0.58529">
        <ele>112.23644521646</ele>
        <time>2021-03-18T10:02:04Z</time>
      </trkpt>
      <trkpt lat="46.51296" lon="0.58529">
        <ele>111.94087486621</ele>
        <time>2021-03-18T10:02:06Z</time>
      </trkpt>
      <trkpt lat="46.513" lon="0.58527">
        <ele>112.40439634211</ele>
        <time>2021-03-18T10:02:08Z</time>
      </trkpt>
      <trkpt lat="46.51302" lon="0.58527">
        <ele>112.03536366951</ele>
        <time>2021-03-18T10:02:10Z</time>
      </trkpt>
      <trkpt lat="46.51303" lon="0.58529">
        <ele>112.44263521582</ele>
        <time>2021-03-18T10:02:13Z</time>
      </trkpt>
      <trkpt lat="46.51305" lon="0.58531">
        <ele>113.58466358669</ele>
        <time>2021-03-18T10:02:15Z</time>
      </trkpt>
      <trkpt lat="46.51308" lon="0.58533">
        <ele>112.87611411978</ele>
        <time>2021-03-18T10:02:17Z</time>
      </trkpt>
      <trkpt lat="46.51309" lon="0.58535">
        <ele>112.14420944359</ele>
        <time>2021-03-18T10:02:19Z</time>
      </trkpt>
      <trkpt lat="46.51312" lon="0.58537">
        <ele>112.55060082208</ele>
        <time>2021-03-18T10:02:21Z</time>
      </trkpt>
      <trkpt lat="46.51313" lon="0.58538">
        <ele>112.41872251593</ele>
        <time>2021-03-18T10:02:22Z</time>
      </trkpt>
      <trkpt lat="46.51316" lon="0.5854">
        <ele>113.43087026756</ele>
        <time>2021-03-18T10:02:25Z</time>
      </trkpt>
      <trkpt lat="46.51318" lon="0.58543">
        <ele>112.60269403271</ele>
        <time>2021-03-18T10:02:27Z</time>
      </trkpt>
      <trkpt lat="46.5132" lon="0.58544">
        <ele>112.85285362229</ele>
        <time>2021-03-18T10:02:29Z</time>
      </trkpt>
      <trkpt lat="46.51323" lon="0.58546">
        <ele>113.4246397987</ele>
        <time>2021-03-18T10:02:31Z</time>
      </trkpt>
      <trkpt lat="46.51324" lon="0.58548">
        <ele>113.48907450866</ele>
        <time>2021-03-18T10:02:33Z</time>
      </trkpt>
      <trkpt lat="46.51326" lon="0.58549">
        <ele>113.46772726811</ele>
        <time>2021-03-18T10:02:35Z</time>
      </trkpt>
      <trkpt lat="46.51329" lon="0.58551">
        <ele>114.85682273563</ele>
        <time>2021-03-18T10:02:37Z</time>
      </trkpt>
      <trkpt lat="46.5133" lon="0.58553">
        <ele>113.98846195638</ele>
        <time>2021-03-18T10:02:39Z</time>
      </trkpt>
      <trkpt lat="46.51332" lon="0.58554">
        <ele>114.24311635643</ele>
        <time>2021-03-18T10:02:41Z</time>
      </trkpt>
      <trkpt lat="46.51334" lon="0.58557">
        <ele>113.81519786268</ele>
        <time>2021-03-18T10:02:43Z</time>
      </trkpt>
      <trkpt lat="46.51337" lon="0.58558">
        <ele>114.6903593149</ele>
        <time>2021-03-18T10:02:45Z</time>
      </trkpt>
      <trkpt lat="46.51339" lon="0.5856">
        <ele>113.88185859658</ele>
        <time>2021-03-18T10:02:47Z</time>
      </trkpt>
      <trkpt lat="46.51341" lon="0.58562">
        <ele>114.84284277167</ele>
        <time>2021-03-18T10:02:49Z</time>
      </trkpt>
      <trkpt lat="46.51343" lon="0.58564">
        <ele>114.38106999267</ele>
        <time>2021-03-18T10:02:51Z</time>
      </trkpt>
      <trkpt lat="46.51346" lon="0.58566">
        <ele>114.99896528572</ele>
        <time>2021-03-18T10:02:53Z</time>
      </trkpt>
      <trkpt lat="46.51348" lon="0.58569">
        <ele>114.33410530537</ele>
        <time>2021-03-18T10:02:55Z</time>
      </trkpt>
      <trkpt lat="46.51349" lon="0.5857">
        <ele>114.64161848556</ele>
        <time>2021-03-18T10:02:56Z</time>
      </trkpt>
      <trkpt lat="46.51351" lon="0.58573">
        <ele>115.66687279567</ele>
        <time>2021-03-18T10:02:58Z</time>
      </trkpt>
      <trkpt lat="46.51353" lon="0.58574">
        <ele>115.01108991727</ele>
        <time>2021-03-18T10:03:00Z</time>
      </trkpt>
      <trkpt lat="46.51355" lon="0.58575">
        <ele>114.73759490438</ele>
        <time>2021-03-18T10:03:02Z</time>
      </trkpt>
      <trkpt lat="46.51356" lon="0.58578">
        <ele>114.36433834024</ele>
        <time>2021-03-18T10:03:04Z</time>
      </trkpt>
      <trkpt lat="46.51358" lon="0.5858">
        <ele>114.88349216897</ele>
        <time>2021-03-18T10:03:06Z</time>
      </trkpt>
      <trkpt lat="46.5136" lon="0.58582">
        <ele>114.42045103945</ele>
        <time>2021-03-18T10:03:08Z</time>
      </trkpt>
      <trkpt lat="46.51363" lon="0.58585">
        <ele>114.77535529062</ele>
        <time>2021-03-18T10:03:10Z</time>
      </trkpt>
      <trkpt lat="46.51366" lon="0.58587">
        <ele>114.6304536052</ele>
        <time>2021-03-18T10:03:12Z</time>
      </trkpt>
      <trkpt lat="46.51369" lon="0.58588">
        <ele>115.26833650097</ele>
        <time>2021-03-18T10:03:14Z</time>
      </trkpt>
      <trkpt lat="46.5137" lon="0.5859">
        <ele>115.1151763536</ele>
        <time>2021-03-18T10:03:15Z</time>
      </trkpt>
      <trkpt lat="46.51372" lon="0.58592">
        <ele>114.48191645928</ele>
        <time>2021-03-18T10:03:17Z</time>
      </trkpt>
      <trkpt lat="46.51375" lon="0.58594">
        <ele>114.66176293511</ele>
        <time>2021-03-18T10:03:19Z</time>
      </trkpt>
      <trkpt lat="46.51377" lon="0.58596">
        <ele>115.06089755334</ele>
        <time>2021-03-18T10:03:21Z</time>
      </trkpt>
      <trkpt lat="46.51379" lon="0.58598">
        <ele>114.8272004053</ele>
        <time>2021-03-18T10:03:23Z</time>
      </trkpt>
      <trkpt lat="46.51382" lon="0.586">
        <ele>114.58834961802</ele>
        <time>2021-03-18T10:03:25Z</time>
      </trkpt>
      <trkpt lat="46.51385" lon="0.58603">
        <ele>115.25445417687</ele>
        <time>2021-03-18T10:03:27Z</time>
      </trkpt>
      <trkpt lat="46.51387" lon="0.58604">
        <ele>116.5154533647</ele>
        <time>2021-03-18T10:03:29Z</time>
      </trkpt>
      <trkpt lat="46.51388" lon="0.58606">
        <ele>116.44825840089</ele>
        <time>2021-03-18T10:03:30Z</time>
      </trkpt>
      <trkpt lat="46.51391" lon="0.58608">
        <ele>114.99932232779</ele>
        <time>2021-03-18T10:03:32Z</time>
      </trkpt>
      <trkpt lat="46.51393" lon="0.5861">
        <ele>115.57726496644</ele>
        <time>2021-03-18T10:03:34Z</time>
      </trkpt>
      <trkpt lat="46.51395" lon="0.58612">
        <ele>114.89302720781</ele>
        <time>2021-03-18T10:03:36Z</time>
      </trkpt>
      <trkpt lat="46.51398" lon="0.58614">
        <ele>115.7622958133</ele>
        <time>2021-03-18T10:03:38Z</time>
      </trkpt>
      <trkpt lat="46.514" lon="0.58617">
        <ele>115.7545181606</ele>
        <time>2021-03-18T10:03:40Z</time>
      </trkpt>
      <trkpt lat="46.51403" lon="0.58618">
        <ele>115.57292063534</ele>
        <time>2021-03-18T10:03:42Z</time>
      </trkpt>
      <trkpt lat="46.51405" lon="0.58621">
        <ele>115.20999170374</ele>
        <time>2021-03-18T10:03:44Z</time>
      </trkpt>
      <trkpt lat="46.51407" lon="0.58621">
        <ele>115.66921234597</ele>
        <time>2021-03-18T10:03:46Z</time>
      </trkpt>
      <trkpt lat="46.51409" lon="0.58624">
        <ele>115.27806320786</ele>
        <time>2021-03-18T10:03:48Z</time>
      </trkpt>
      <trkpt lat="46.51411" lon="0.58625">
        <ele>115.77224316541</ele>
        <time>2021-03-18T10:03:50Z</time>
      </trkpt>
      <trkpt lat="46.51414" lon="0.58626">
        <ele>115.43156151287</ele>
        <time>2021-03-18T10:03:53Z</time>
      </trkpt>
      <trkpt lat="46.51417" lon="0.58628">
        <ele>115.87048705854</ele>
        <time>2021-03-18T10:03:56Z</time>
      </trkpt>
      <trkpt lat="46.51419" lon="0.58629">
        <ele>116.16383988038</ele>
        <time>2021-03-18T10:03:58Z</time>
      </trkpt>
      <trkpt lat="46.51421" lon="0.58631">
        <ele>115.45798495039</ele>
        <time>2021-03-18T10:04:00Z</time>
      </trkpt>
      <trkpt lat="46.51424" lon="0.58632">
        <ele>115.83578554541</ele>
        <time>2021-03-18T10:04:02Z</time>
      </trkpt>
      <trkpt lat="46.51426" lon="0.58633">
        <ele>115.81394632813</ele>
        <time>2021-03-18T10:04:04Z</time>
      </trkpt>
      <trkpt lat="46.51428" lon="0.58635">
        <ele>115.93503234442</ele>
        <time>2021-03-18T10:04:06Z</time>
      </trkpt>
      <trkpt lat="46.51431" lon="0.58635">
        <ele>116.11983291991</ele>
        <time>2021-03-18T10:04:07Z</time>
      </trkpt>
      <trkpt lat="46.51432" lon="0.58637">
        <ele>116.33679330908</ele>
        <time>2021-03-18T10:04:09Z</time>
      </trkpt>
      <trkpt lat="46.51434" lon="0.58639">
        <ele>115.90632158611</ele>
        <time>2021-03-18T10:04:11Z</time>
      </trkpt>
      <trkpt lat="46.51437" lon="0.58641">
        <ele>116.19544255361</ele>
        <time>2021-03-18T10:04:14Z</time>
      </trkpt>
      <trkpt lat="46.5144" lon="0.58643">
        <ele>116.20758552011</ele>
        <time>2021-03-18T10:04:16Z</time>
      </trkpt>
      <trkpt lat="46.51443" lon="0.58644">
        <ele>116.35979856085</ele>
        <time>2021-03-18T10:04:19Z</time>
      </trkpt>
      <trkpt lat="46.51444" lon="0.58644">
        <ele>116.66086895391</ele>
        <time>2021-03-18T10:04:22Z</time>
      </trkpt>
      <trkpt lat="46.51447" lon="0.58644">
        <ele>116.54857440107</ele>
        <time>2021-03-18T10:04:23Z</time>
      </trkpt>
      <trkpt lat="46.51449" lon="0.58644">
        <ele>116.74302422814</ele>
        <time>2021-03-18T10:04:25Z</time>
      </trkpt>
      <trkpt lat="46.51451" lon="0.58646">
        <ele>116.37279271893</ele>
        <time>2021-03-18T10:04:28Z</time>
      </trkpt>
      <trkpt lat="46.51452" lon="0.58648">
        <ele>116.69541423116</ele>
        <time>2021-03-18T10:04:30Z</time>
      </trkpt>
      <trkpt lat="46.51454" lon="0.5865">
        <ele>116.71219629794</ele>
        <time>2021-03-18T10:04:32Z</time>
      </trkpt>
      <trkpt lat="46.51456" lon="0.58652">
        <ele>116.71556317899</ele>
        <time>2021-03-18T10:04:34Z</time>
      </trkpt>
      <trkpt lat="46.51458" lon="0.58654">
        <ele>116.75123459473</ele>
        <time>2021-03-18T10:04:36Z</time>
      </trkpt>
      <trkpt lat="46.5146" lon="0.58655">
        <ele>115.90839455277</ele>
        <time>2021-03-18T10:04:38Z</time>
      </trkpt>
      <trkpt lat="46.51464" lon="0.58658">
        <ele>116.86060661077</ele>
        <time>2021-03-18T10:04:40Z</time>
      </trkpt>
      <trkpt lat="46.51467" lon="0.58659">
        <ele>115.89966862928</ele>
        <time>2021-03-18T10:04:43Z</time>
      </trkpt>
      <trkpt lat="46.5147" lon="0.58662">
        <ele>117.99676441308</ele>
        <time>2021-03-18T10:04:45Z</time>
      </trkpt>
      <trkpt lat="46.51471" lon="0.58664">
        <ele>116.67646644544</ele>
        <time>2021-03-18T10:04:47Z</time>
      </trkpt>
      <trkpt lat="46.51474" lon="0.58666">
        <ele>116.58891932759</ele>
        <time>2021-03-18T10:04:49Z</time>
      </trkpt>
      <trkpt lat="46.51476" lon="0.58667">
        <ele>116.18172161095</ele>
        <time>2021-03-18T10:04:51Z</time>
      </trkpt>
      <trkpt lat="46.51478" lon="0.58669">
        <ele>116.70069896989</ele>
        <time>2021-03-18T10:04:53Z</time>
      </trkpt>
      <trkpt lat="46.5148" lon="0.5867">
        <ele>116.5503393542</ele>
        <time>2021-03-18T10:04:55Z</time>
      </trkpt>
      <trkpt lat="46.51482" lon="0.58671">
        <ele>116.82903769705</ele>
        <time>2021-03-18T10:04:57Z</time>
      </trkpt>
      <trkpt lat="46.51485" lon="0.58674">
        <ele>117.05840814859</ele>
        <time>2021-03-18T10:04:59Z</time>
      </trkpt>
      <trkpt lat="46.51488" lon="0.58676">
        <ele>116.59231828153</ele>
        <time>2021-03-18T10:05:02Z</time>
      </trkpt>
      <trkpt lat="46.5149" lon="0.58678">
        <ele>116.73618111201</ele>
        <time>2021-03-18T10:05:04Z</time>
      </trkpt>
      <trkpt lat="46.51493" lon="0.58678">
        <ele>116.96913970076</ele>
        <time>2021-03-18T10:05:06Z</time>
      </trkpt>
      <trkpt lat="46.51495" lon="0.5868">
        <ele>117.3274224475</ele>
        <time>2021-03-18T10:05:08Z</time>
      </trkpt>
      <trkpt lat="46.51497" lon="0.58682">
        <ele>116.77839632146</ele>
        <time>2021-03-18T10:05:10Z</time>
      </trkpt>
      <trkpt lat="46.51499" lon="0.58683">
        <ele>117.13042186946</ele>
        <time>2021-03-18T10:05:12Z</time>
      </trkpt>
      <trkpt lat="46.51501" lon="0.58685">
        <ele>117.24053570442</ele>
        <time>2021-03-18T10:05:14Z</time>
      </trkpt>
      <trkpt lat="46.51503" lon="0.58687">
        <ele>117.22415008117</ele>
        <time>2021-03-18T10:05:16Z</time>
      </trkpt>
      <trkpt lat="46.51506" lon="0.58689">
        <ele>117.39863347542</ele>
        <time>2021-03-18T10:05:18Z</time>
      </trkpt>
      <trkpt lat="46.51508" lon="0.5869">
        <ele>117.29356161784</ele>
        <time>2021-03-18T10:05:20Z</time>
      </trkpt>
      <trkpt lat="46.51511" lon="0.58691">
        <ele>117.7405601982</ele>
        <time>2021-03-18T10:05:22Z</time>
      </trkpt>
      <trkpt lat="46.51512" lon="0.58692">
        <ele>116.47220417112</ele>
        <time>2021-03-18T10:05:24Z</time>
      </trkpt>
      <trkpt lat="46.51514" lon="0.58694">
        <ele>117.37704164721</ele>
        <time>2021-03-18T10:05:26Z</time>
      </trkpt>
      <trkpt lat="46.51517" lon="0.58695">
        <ele>116.80582205672</ele>
        <time>2021-03-18T10:05:28Z</time>
      </trkpt>
      <trkpt lat="46.51519" lon="0.58695">
        <ele>116.9804614326</ele>
        <time>2021-03-18T10:05:30Z</time>
      </trkpt>
      <trkpt lat="46.51522" lon="0.58697">
        <ele>116.91949203052</ele>
        <time>2021-03-18T10:05:33Z</time>
      </trkpt>
      <trkpt lat="46.51523" lon="0.58699">
        <ele>116.76874843612</ele>
        <time>2021-03-18T10:05:35Z</time>
      </trkpt>
      <trkpt lat="46.51526" lon="0.587">
        <ele>117.15923290793</ele>
        <time>2021-03-18T10:05:37Z</time>
      </trkpt>
      <trkpt lat="46.51527" lon="0.58701">
        <ele>117.2592411479</ele>
        <time>2021-03-18T10:05:39Z</time>
      </trkpt>
      <trkpt lat="46.5153" lon="0.58702">
        <ele>116.53993262723</ele>
        <time>2021-03-18T10:05:41Z</time>
      </trkpt>
      <trkpt lat="46.51532" lon="0.58702">
        <ele>116.80577323586</ele>
        <time>2021-03-18T10:05:43Z</time>
      </trkpt>
      <trkpt lat="46.51536" lon="0.58703">
        <ele>116.20172686316</ele>
        <time>2021-03-18T10:05:46Z</time>
      </trkpt>
      <trkpt lat="46.51538" lon="0.58704">
        <ele>116.73721367959</ele>
        <time>2021-03-18T10:05:48Z</time>
      </trkpt>
      <trkpt lat="46.5154" lon="0.58705">
        <ele>116.9664534945</ele>
        <time>2021-03-18T10:05:50Z</time>
      </trkpt>
      <trkpt lat="46.51543" lon="0.58707">
        <ele>116.88034963049</ele>
        <time>2021-03-18T10:05:53Z</time>
      </trkpt>
      <trkpt lat="46.51546" lon="0.58708">
        <ele>116.61959909927</ele>
        <time>2021-03-18T10:05:55Z</time>
      </trkpt>
      <trkpt lat="46.51549" lon="0.58709">
        <ele>116.91779972333</ele>
        <time>2021-03-18T10:05:57Z</time>
      </trkpt>
      <trkpt lat="46.5155" lon="0.58711">
        <ele>116.88758617826</ele>
        <time>2021-03-18T10:05:59Z</time>
      </trkpt>
      <trkpt lat="46.51554" lon="0.58713">
        <ele>116.47785738856</ele>
        <time>2021-03-18T10:06:01Z</time>
      </trkpt>
      <trkpt lat="46.51556" lon="0.58714">
        <ele>116.62333765905</ele>
        <time>2021-03-18T10:06:03Z</time>
      </trkpt>
      <trkpt lat="46.51559" lon="0.58715">
        <ele>116.95300985035</ele>
        <time>2021-03-18T10:06:05Z</time>
      </trkpt>
      <trkpt lat="46.51561" lon="0.58717">
        <ele>116.82214556355</ele>
        <time>2021-03-18T10:06:07Z</time>
      </trkpt>
      <trkpt lat="46.51564" lon="0.58718">
        <ele>116.54998687934</ele>
        <time>2021-03-18T10:06:09Z</time>
      </trkpt>
      <trkpt lat="46.51566" lon="0.5872">
        <ele>116.39474893641</ele>
        <time>2021-03-18T10:06:11Z</time>
      </trkpt>
      <trkpt lat="46.51569" lon="0.58721">
        <ele>115.77211355977</ele>
        <time>2021-03-18T10:06:13Z</time>
      </trkpt>
      <trkpt lat="46.51571" lon="0.58722">
        <ele>116.70659532212</ele>
        <time>2021-03-18T10:06:15Z</time>
      </trkpt>
      <trkpt lat="46.51574" lon="0.58723">
        <ele>116.43814298883</ele>
        <time>2021-03-18T10:06:17Z</time>
      </trkpt>
      <trkpt lat="46.51576" lon="0.58724">
        <ele>116.5018542856</ele>
        <time>2021-03-18T10:06:19Z</time>
      </trkpt>
      <trkpt lat="46.51579" lon="0.58725">
        <ele>116.47635987401</ele>
        <time>2021-03-18T10:06:21Z</time>
      </trkpt>
      <trkpt lat="46.51581" lon="0.58726">
        <ele>116.91476741061</ele>
        <time>2021-03-18T10:06:23Z</time>
      </trkpt>
      <trkpt lat="46.51584" lon="0.58728">
        <ele>116.22425180487</ele>
        <time>2021-03-18T10:06:25Z</time>
      </trkpt>
      <trkpt lat="46.51586" lon="0.5873">
        <ele>116.00381034613</ele>
        <time>2021-03-18T10:06:27Z</time>
      </trkpt>
      <trkpt lat="46.51589" lon="0.58731">
        <ele>117.25148795452</ele>
        <time>2021-03-18T10:06:29Z</time>
      </trkpt>
      <trkpt lat="46.51592" lon="0.58732">
        <ele>116.17299176473</ele>
        <time>2021-03-18T10:06:31Z</time>
      </trkpt>
      <trkpt lat="46.51594" lon="0.58734">
        <ele>116.20499268081</ele>
        <time>2021-03-18T10:06:33Z</time>
      </trkpt>
      <trkpt lat="46.51596" lon="0.58735">
        <ele>116.21063013747</ele>
        <time>2021-03-18T10:06:35Z</time>
      </trkpt>
      <trkpt lat="46.51599" lon="0.58737">
        <ele>116.39100162778</ele>
        <time>2021-03-18T10:06:37Z</time>
      </trkpt>
      <trkpt lat="46.516" lon="0.58738">
        <ele>116.26854680758</ele>
        <time>2021-03-18T10:06:38Z</time>
      </trkpt>
      <trkpt lat="46.51603" lon="0.58738">
        <ele>115.93582592625</ele>
        <time>2021-03-18T10:06:40Z</time>
      </trkpt>
      <trkpt lat="46.51605" lon="0.58738">
        <ele>116.42409805022</ele>
        <time>2021-03-18T10:06:42Z</time>
      </trkpt>
      <trkpt lat="46.51607" lon="0.58738">
        <ele>116.71034751087</ele>
        <time>2021-03-18T10:06:44Z</time>
      </trkpt>
      <trkpt lat="46.5161" lon="0.58739">
        <ele>116.96471600141</ele>
        <time>2021-03-18T10:06:46Z</time>
      </trkpt>
      <trkpt lat="46.5161" lon="0.58742">
        <ele>116.20037489478</ele>
        <time>2021-03-18T10:06:50Z</time>
      </trkpt>
      <trkpt lat="46.51611" lon="0.58745">
        <ele>115.88132325653</ele>
        <time>2021-03-18T10:06:52Z</time>
      </trkpt>
      <trkpt lat="46.51613" lon="0.58748">
        <ele>116.24641450774</ele>
        <time>2021-03-18T10:06:54Z</time>
      </trkpt>
      <trkpt lat="46.51614" lon="0.5875">
        <ele>116.74802772235</ele>
        <time>2021-03-18T10:06:56Z</time>
      </trkpt>
      <trkpt lat="46.51615" lon="0.58753">
        <ele>116.30681879353</ele>
        <time>2021-03-18T10:06:59Z</time>
      </trkpt>
      <trkpt lat="46.51617" lon="0.58754">
        <ele>116.32241795491</ele>
        <time>2021-03-18T10:07:02Z</time>
      </trkpt>
      <trkpt lat="46.51619" lon="0.58757">
        <ele>115.8805397125</ele>
        <time>2021-03-18T10:07:04Z</time>
      </trkpt>
      <trkpt lat="46.51621" lon="0.58758">
        <ele>116.00920351036</ele>
        <time>2021-03-18T10:07:05Z</time>
      </trkpt>
      <trkpt lat="46.51623" lon="0.5876">
        <ele>116.33097816166</ele>
        <time>2021-03-18T10:07:07Z</time>
      </trkpt>
      <trkpt lat="46.51625" lon="0.58762">
        <ele>115.56358479429</ele>
        <time>2021-03-18T10:07:09Z</time>
      </trkpt>
      <trkpt lat="46.51627" lon="0.58763">
        <ele>115.50333755184</ele>
        <time>2021-03-18T10:07:11Z</time>
      </trkpt>
      <trkpt lat="46.5163" lon="0.58765">
        <ele>116.17298718169</ele>
        <time>2021-03-18T10:07:13Z</time>
      </trkpt>
      <trkpt lat="46.51631" lon="0.58767">
        <ele>115.21204981208</ele>
        <time>2021-03-18T10:07:15Z</time>
      </trkpt>
      <trkpt lat="46.51633" lon="0.58768">
        <ele>115.24142629374</ele>
        <time>2021-03-18T10:07:16Z</time>
      </trkpt>
      <trkpt lat="46.51635" lon="0.5877">
        <ele>115.66464977898</ele>
        <time>2021-03-18T10:07:18Z</time>
      </trkpt>
      <trkpt lat="46.51637" lon="0.58772">
        <ele>116.33623652998</ele>
        <time>2021-03-18T10:07:20Z</time>
      </trkpt>
      <trkpt lat="46.51639" lon="0.58773">
        <ele>115.65935792401</ele>
        <time>2021-03-18T10:07:22Z</time>
      </trkpt>
      <trkpt lat="46.51641" lon="0.58775">
        <ele>115.55080265179</ele>
        <time>2021-03-18T10:07:24Z</time>
      </trkpt>
      <trkpt lat="46.51644" lon="0.58777">
        <ele>115.49603030179</ele>
        <time>2021-03-18T10:07:26Z</time>
      </trkpt>
      <trkpt lat="46.51646" lon="0.58779">
        <ele>115.40599946026</ele>
        <time>2021-03-18T10:07:28Z</time>
      </trkpt>
      <trkpt lat="46.51648" lon="0.58781">
        <ele>115.51368734986</ele>
        <time>2021-03-18T10:07:30Z</time>
      </trkpt>
      <trkpt lat="46.51651" lon="0.58783">
        <ele>115.3656158112</ele>
        <time>2021-03-18T10:07:32Z</time>
      </trkpt>
      <trkpt lat="46.51653" lon="0.58785">
        <ele>115.68294489663</ele>
        <time>2021-03-18T10:07:34Z</time>
      </trkpt>
      <trkpt lat="46.51656" lon="0.58787">
        <ele>114.97434694041</ele>
        <time>2021-03-18T10:07:36Z</time>
      </trkpt>
      <trkpt lat="46.51659" lon="0.58789">
        <ele>114.81286061462</ele>
        <time>2021-03-18T10:07:38Z</time>
      </trkpt>
      <trkpt lat="46.51661" lon="0.5879">
        <ele>114.95570977218</ele>
        <time>2021-03-18T10:07:40Z</time>
      </trkpt>
      <trkpt lat="46.51663" lon="0.58792">
        <ele>114.86523693055</ele>
        <time>2021-03-18T10:07:42Z</time>
      </trkpt>
      <trkpt lat="46.51665" lon="0.58794">
        <ele>114.53621264454</ele>
        <time>2021-03-18T10:07:44Z</time>
      </trkpt>
      <trkpt lat="46.51668" lon="0.58795">
        <ele>115.04127421882</ele>
        <time>2021-03-18T10:07:46Z</time>
      </trkpt>
      <trkpt lat="46.51671" lon="0.58797">
        <ele>115.48459112179</ele>
        <time>2021-03-18T10:07:48Z</time>
      </trkpt>
      <trkpt lat="46.51674" lon="0.58799">
        <ele>115.19597443193</ele>
        <time>2021-03-18T10:07:50Z</time>
      </trkpt>
      <trkpt lat="46.51676" lon="0.58801">
        <ele>114.63951299153</ele>
        <time>2021-03-18T10:07:52Z</time>
      </trkpt>
      <trkpt lat="46.51679" lon="0.58803">
        <ele>114.56100143027</ele>
        <time>2021-03-18T10:07:54Z</time>
      </trkpt>
      <trkpt lat="46.51681" lon="0.58805">
        <ele>114.69940388482</ele>
        <time>2021-03-18T10:07:56Z</time>
      </trkpt>
      <trkpt lat="46.51684" lon="0.58807">
        <ele>115.02580761909</ele>
        <time>2021-03-18T10:07:58Z</time>
      </trkpt>
      <trkpt lat="46.51687" lon="0.58808">
        <ele>114.97746675648</ele>
        <time>2021-03-18T10:08:00Z</time>
      </trkpt>
      <trkpt lat="46.5169" lon="0.58809">
        <ele>114.8913130993</ele>
        <time>2021-03-18T10:08:02Z</time>
      </trkpt>
      <trkpt lat="46.51692" lon="0.58811">
        <ele>114.55380041525</ele>
        <time>2021-03-18T10:08:04Z</time>
      </trkpt>
      <trkpt lat="46.51694" lon="0.58812">
        <ele>115.05058756471</ele>
        <time>2021-03-18T10:08:06Z</time>
      </trkpt>
      <trkpt lat="46.51696" lon="0.58813">
        <ele>114.57785137091</ele>
        <time>2021-03-18T10:08:08Z</time>
      </trkpt>
      <trkpt lat="46.51699" lon="0.58815">
        <ele>114.75953125674</ele>
        <time>2021-03-18T10:08:10Z</time>
      </trkpt>
      <trkpt lat="46.51702" lon="0.58816">
        <ele>114.65851755533</ele>
        <time>2021-03-18T10:08:12Z</time>
      </trkpt>
      <trkpt lat="46.51704" lon="0.58817">
        <ele>114.97318934742</ele>
        <time>2021-03-18T10:08:13Z</time>
      </trkpt>
      <trkpt lat="46.51706" lon="0.58817">
        <ele>114.85302858707</ele>
        <time>2021-03-18T10:08:15Z</time>
      </trkpt>
      <trkpt lat="46.51709" lon="0.58819">
        <ele>114.97704469506</ele>
        <time>2021-03-18T10:08:17Z</time>
      </trkpt>
      <trkpt lat="46.51711" lon="0.5882">
        <ele>114.9293465605</ele>
        <time>2021-03-18T10:08:20Z</time>
      </trkpt>
      <trkpt lat="46.51713" lon="0.58822">
        <ele>114.73863239773</ele>
        <time>2021-03-18T10:08:22Z</time>
      </trkpt>
      <trkpt lat="46.51716" lon="0.58822">
        <ele>115.01252891961</ele>
        <time>2021-03-18T10:08:24Z</time>
      </trkpt>
      <trkpt lat="46.51718" lon="0.58823">
        <ele>114.99312380236</ele>
        <time>2021-03-18T10:08:25Z</time>
      </trkpt>
      <trkpt lat="46.5172" lon="0.58825">
        <ele>114.70616926253</ele>
        <time>2021-03-18T10:08:27Z</time>
      </trkpt>
      <trkpt lat="46.51723" lon="0.58827">
        <ele>114.67987736873</ele>
        <time>2021-03-18T10:08:29Z</time>
      </trkpt>
      <trkpt lat="46.51725" lon="0.58829">
        <ele>114.75221609976</ele>
        <time>2021-03-18T10:08:31Z</time>
      </trkpt>
      <trkpt lat="46.51727" lon="0.58829">
        <ele>115.05855500232</ele>
        <time>2021-03-18T10:08:32Z</time>
      </trkpt>
      <trkpt lat="46.51729" lon="0.5883">
        <ele>114.99053245224</ele>
        <time>2021-03-18T10:08:34Z</time>
      </trkpt>
      <trkpt lat="46.5173" lon="0.58832">
        <ele>115.15842432156</ele>
        <time>2021-03-18T10:08:36Z</time>
      </trkpt>
      <trkpt lat="46.51732" lon="0.58833">
        <ele>114.77069382649</ele>
        <time>2021-03-18T10:08:39Z</time>
      </trkpt>
      <trkpt lat="46.51735" lon="0.58833">
        <ele>114.70726084057</ele>
        <time>2021-03-18T10:08:41Z</time>
      </trkpt>
      <trkpt lat="46.51738" lon="0.58834">
        <ele>114.89675066248</ele>
        <time>2021-03-18T10:08:43Z</time>
      </trkpt>
      <trkpt lat="46.51741" lon="0.58835">
        <ele>115.30765173584</ele>
        <time>2021-03-18T10:08:45Z</time>
      </trkpt>
      <trkpt lat="46.51744" lon="0.58836">
        <ele>115.26172661781</ele>
        <time>2021-03-18T10:08:47Z</time>
      </trkpt>
      <trkpt lat="46.51747" lon="0.58836">
        <ele>115.08665822633</ele>
        <time>2021-03-18T10:08:49Z</time>
      </trkpt>
      <trkpt lat="46.5175" lon="0.58836">
        <ele>115.24852555618</ele>
        <time>2021-03-18T10:08:52Z</time>
      </trkpt>
      <trkpt lat="46.51752" lon="0.58835">
        <ele>115.58599486668</ele>
        <time>2021-03-18T10:08:53Z</time>
      </trkpt>
      <trkpt lat="46.51754" lon="0.58835">
        <ele>115.48280770518</ele>
        <time>2021-03-18T10:08:55Z</time>
      </trkpt>
      <trkpt lat="46.51757" lon="0.58834">
        <ele>115.75225271657</ele>
        <time>2021-03-18T10:08:57Z</time>
      </trkpt>
      <trkpt lat="46.51759" lon="0.58831">
        <ele>115.87643867824</ele>
        <time>2021-03-18T10:08:59Z</time>
      </trkpt>
      <trkpt lat="46.51761" lon="0.58828">
        <ele>116.22226366401</ele>
        <time>2021-03-18T10:09:01Z</time>
      </trkpt>
      <trkpt lat="46.51762" lon="0.58825">
        <ele>116.04737775493</ele>
        <time>2021-03-18T10:09:04Z</time>
      </trkpt>
      <trkpt lat="46.51763" lon="0.58821">
        <ele>116.00287576485</ele>
        <time>2021-03-18T10:09:07Z</time>
      </trkpt>
      <trkpt lat="46.51763" lon="0.58818">
        <ele>116.28073038533</ele>
        <time>2021-03-18T10:09:09Z</time>
      </trkpt>
      <trkpt lat="46.51764" lon="0.58815">
        <ele>116.34624023549</ele>
        <time>2021-03-18T10:09:11Z</time>
      </trkpt>
      <trkpt lat="46.51764" lon="0.58811">
        <ele>116.52009142376</ele>
        <time>2021-03-18T10:09:13Z</time>
      </trkpt>
      <trkpt lat="46.51764" lon="0.58808">
        <ele>116.46561690234</ele>
        <time>2021-03-18T10:09:15Z</time>
      </trkpt>
      <trkpt lat="46.51764" lon="0.58805">
        <ele>116.81616907008</ele>
        <time>2021-03-18T10:09:17Z</time>
      </trkpt>
      <trkpt lat="46.51765" lon="0.58801">
        <ele>116.74431024399</ele>
        <time>2021-03-18T10:09:19Z</time>
      </trkpt>
      <trkpt lat="46.51765" lon="0.58797">
        <ele>116.55403623264</ele>
        <time>2021-03-18T10:09:21Z</time>
      </trkpt>
      <trkpt lat="46.51765" lon="0.58794">
        <ele>117.21281970758</ele>
        <time>2021-03-18T10:09:23Z</time>
      </trkpt>
      <trkpt lat="46.51766" lon="0.58791">
        <ele>116.71295828465</ele>
        <time>2021-03-18T10:09:25Z</time>
      </trkpt>
      <trkpt lat="46.51766" lon="0.58788">
        <ele>117.30551199242</ele>
        <time>2021-03-18T10:09:27Z</time>
      </trkpt>
      <trkpt lat="46.51767" lon="0.58784">
        <ele>117.4820453003</ele>
        <time>2021-03-18T10:09:29Z</time>
      </trkpt>
      <trkpt lat="46.51769" lon="0.58781">
        <ele>117.25389721058</ele>
        <time>2021-03-18T10:09:31Z</time>
      </trkpt>
      <trkpt lat="46.51769" lon="0.58777">
        <ele>117.85673430562</ele>
        <time>2021-03-18T10:09:33Z</time>
      </trkpt>
      <trkpt lat="46.51771" lon="0.58774">
        <ele>117.94441145658</ele>
        <time>2021-03-18T10:09:36Z</time>
      </trkpt>
      <trkpt lat="46.51772" lon="0.58771">
        <ele>117.75882907584</ele>
        <time>2021-03-18T10:09:38Z</time>
      </trkpt>
      <trkpt lat="46.51773" lon="0.58767">
        <ele>118.26550114434</ele>
        <time>2021-03-18T10:09:40Z</time>
      </trkpt>
      <trkpt lat="46.51773" lon="0.58764">
        <ele>117.68671410624</ele>
        <time>2021-03-18T10:09:42Z</time>
      </trkpt>
      <trkpt lat="46.51774" lon="0.58762">
        <ele>118.9749933593</ele>
        <time>2021-03-18T10:09:44Z</time>
      </trkpt>
      <trkpt lat="46.51775" lon="0.58758">
        <ele>117.86951026693</ele>
        <time>2021-03-18T10:09:46Z</time>
      </trkpt>
      <trkpt lat="46.51776" lon="0.58755">
        <ele>118.31506252568</ele>
        <time>2021-03-18T10:09:48Z</time>
      </trkpt>
      <trkpt lat="46.51777" lon="0.58752">
        <ele>118.76903847232</ele>
        <time>2021-03-18T10:09:50Z</time>
      </trkpt>
      <trkpt lat="46.51779" lon="0.58748">
        <ele>118.7951482255</ele>
        <time>2021-03-18T10:09:52Z</time>
      </trkpt>
      <trkpt lat="46.5178" lon="0.58745">
        <ele>118.97717690375</ele>
        <time>2021-03-18T10:09:54Z</time>
      </trkpt>
      <trkpt lat="46.5178" lon="0.58742">
        <ele>119.14440823346</ele>
        <time>2021-03-18T10:09:56Z</time>
      </trkpt>
      <trkpt lat="46.51781" lon="0.58739">
        <ele>119.17263842002</ele>
        <time>2021-03-18T10:09:58Z</time>
      </trkpt>
      <trkpt lat="46.51782" lon="0.58735">
        <ele>119.41732213367</ele>
        <time>2021-03-18T10:10:00Z</time>
      </trkpt>
      <trkpt lat="46.51783" lon="0.58732">
        <ele>119.51679318491</ele>
        <time>2021-03-18T10:10:02Z</time>
      </trkpt>
      <trkpt lat="46.51785" lon="0.58729">
        <ele>119.67608998157</ele>
        <time>2021-03-18T10:10:04Z</time>
      </trkpt>
      <trkpt lat="46.51785" lon="0.58726">
        <ele>120.32985850144</ele>
        <time>2021-03-18T10:10:06Z</time>
      </trkpt>
      <trkpt lat="46.51786" lon="0.58724">
        <ele>120.44940930419</ele>
        <time>2021-03-18T10:10:08Z</time>
      </trkpt>
      <trkpt lat="46.51787" lon="0.5872">
        <ele>120.32447649818</ele>
        <time>2021-03-18T10:10:10Z</time>
      </trkpt>
      <trkpt lat="46.51789" lon="0.58718">
        <ele>120.3689539507</ele>
        <time>2021-03-18T10:10:12Z</time>
      </trkpt>
      <trkpt lat="46.5179" lon="0.58715">
        <ele>120.63463567104</ele>
        <time>2021-03-18T10:10:14Z</time>
      </trkpt>
      <trkpt lat="46.51791" lon="0.58712">
        <ele>120.66921277158</ele>
        <time>2021-03-18T10:10:16Z</time>
      </trkpt>
      <trkpt lat="46.51792" lon="0.58709">
        <ele>120.65943286009</ele>
        <time>2021-03-18T10:10:18Z</time>
      </trkpt>
      <trkpt lat="46.51793" lon="0.58705">
        <ele>120.56520864461</ele>
        <time>2021-03-18T10:10:20Z</time>
      </trkpt>
      <trkpt lat="46.51794" lon="0.58703">
        <ele>120.87144165859</ele>
        <time>2021-03-18T10:10:22Z</time>
      </trkpt>
      <trkpt lat="46.51795" lon="0.587">
        <ele>121.80186810158</ele>
        <time>2021-03-18T10:10:24Z</time>
      </trkpt>
      <trkpt lat="46.51795" lon="0.58696">
        <ele>120.83071405999</ele>
        <time>2021-03-18T10:10:29Z</time>
      </trkpt>
      <trkpt lat="46.51796" lon="0.58693">
        <ele>121.1704049306</ele>
        <time>2021-03-18T10:10:32Z</time>
      </trkpt>
      <trkpt lat="46.51796" lon="0.5869">
        <ele>121.7614039341</ele>
        <time>2021-03-18T10:10:34Z</time>
      </trkpt>
      <trkpt lat="46.51797" lon="0.58687">
        <ele>120.91358954273</ele>
        <time>2021-03-18T10:10:35Z</time>
      </trkpt>
      <trkpt lat="46.51798" lon="0.58684">
        <ele>121.47957440745</ele>
        <time>2021-03-18T10:10:37Z</time>
      </trkpt>
      <trkpt lat="46.51799" lon="0.58681">
        <ele>121.38768563047</ele>
        <time>2021-03-18T10:10:39Z</time>
      </trkpt>
      <trkpt lat="46.51801" lon="0.58677">
        <ele>122.0724234106</ele>
        <time>2021-03-18T10:10:42Z</time>
      </trkpt>
      <trkpt lat="46.51801" lon="0.58674">
        <ele>121.90339696221</ele>
        <time>2021-03-18T10:10:44Z</time>
      </trkpt>
      <trkpt lat="46.51802" lon="0.5867">
        <ele>122.1454761764</ele>
        <time>2021-03-18T10:10:46Z</time>
      </trkpt>
      <trkpt lat="46.51803" lon="0.58666">
        <ele>122.12367830798</ele>
        <time>2021-03-18T10:10:48Z</time>
      </trkpt>
      <trkpt lat="46.51804" lon="0.58663">
        <ele>122.43500645552</ele>
        <time>2021-03-18T10:10:50Z</time>
      </trkpt>
      <trkpt lat="46.51805" lon="0.58659">
        <ele>122.40865345951</ele>
        <time>2021-03-18T10:10:52Z</time>
      </trkpt>
      <trkpt lat="46.51806" lon="0.58655">
        <ele>122.71894957218</ele>
        <time>2021-03-18T10:10:54Z</time>
      </trkpt>
      <trkpt lat="46.51806" lon="0.58651">
        <ele>122.59148177411</ele>
        <time>2021-03-18T10:10:56Z</time>
      </trkpt>
      <trkpt lat="46.51808" lon="0.58647">
        <ele>122.21896021161</ele>
        <time>2021-03-18T10:10:58Z</time>
      </trkpt>
      <trkpt lat="46.51808" lon="0.58643">
        <ele>122.9907141747</ele>
        <time>2021-03-18T10:11:01Z</time>
      </trkpt>
      <trkpt lat="46.51809" lon="0.58639">
        <ele>122.0534278024</ele>
        <time>2021-03-18T10:11:03Z</time>
      </trkpt>
      <trkpt lat="46.5181" lon="0.58636">
        <ele>122.62980375811</ele>
        <time>2021-03-18T10:11:04Z</time>
      </trkpt>
      <trkpt lat="46.5181" lon="0.58631">
        <ele>122.53287307452</ele>
        <time>2021-03-18T10:11:07Z</time>
      </trkpt>
      <trkpt lat="46.51811" lon="0.58628">
        <ele>122.72634461895</ele>
        <time>2021-03-18T10:11:09Z</time>
      </trkpt>
      <trkpt lat="46.51811" lon="0.58625">
        <ele>123.28826770559</ele>
        <time>2021-03-18T10:11:11Z</time>
      </trkpt>
      <trkpt lat="46.51812" lon="0.58621">
        <ele>123.15414770506</ele>
        <time>2021-03-18T10:11:13Z</time>
      </trkpt>
      <trkpt lat="46.51812" lon="0.58617">
        <ele>122.6140160067</ele>
        <time>2021-03-18T10:11:15Z</time>
      </trkpt>
      <trkpt lat="46.51813" lon="0.58613">
        <ele>123.17171076033</ele>
        <time>2021-03-18T10:11:17Z</time>
      </trkpt>
      <trkpt lat="46.51813" lon="0.5861">
        <ele>123.74748470169</ele>
        <time>2021-03-18T10:11:19Z</time>
      </trkpt>
      <trkpt lat="46.51814" lon="0.58606">
        <ele>123.17177080642</ele>
        <time>2021-03-18T10:11:21Z</time>
      </trkpt>
      <trkpt lat="46.51814" lon="0.58602">
        <ele>123.21102685947</ele>
        <time>2021-03-18T10:11:23Z</time>
      </trkpt>
      <trkpt lat="46.51814" lon="0.58598">
        <ele>122.7568988353</ele>
        <time>2021-03-18T10:11:25Z</time>
      </trkpt>
      <trkpt lat="46.51815" lon="0.58594">
        <ele>123.19645220693</ele>
        <time>2021-03-18T10:11:27Z</time>
      </trkpt>
      <trkpt lat="46.51815" lon="0.5859">
        <ele>122.89458562899</ele>
        <time>2021-03-18T10:11:29Z</time>
      </trkpt>
      <trkpt lat="46.51815" lon="0.58585">
        <ele>123.38715052232</ele>
        <time>2021-03-18T10:11:31Z</time>
      </trkpt>
      <trkpt lat="46.51815" lon="0.58582">
        <ele>123.64346914552</ele>
        <time>2021-03-18T10:11:33Z</time>
      </trkpt>
      <trkpt lat="46.51815" lon="0.58579">
        <ele>123.68235388771</ele>
        <time>2021-03-18T10:11:35Z</time>
      </trkpt>
      <trkpt lat="46.51815" lon="0.58577">
        <ele>123.52424140088</ele>
        <time>2021-03-18T10:11:36Z</time>
      </trkpt>
      <trkpt lat="46.51815" lon="0.58573">
        <ele>123.2667310955</ele>
        <time>2021-03-18T10:11:38Z</time>
      </trkpt>
      <trkpt lat="46.51815" lon="0.58569">
        <ele>122.9128993582</ele>
        <time>2021-03-18T10:11:40Z</time>
      </trkpt>
      <trkpt lat="46.51814" lon="0.58566">
        <ele>122.93974936567</ele>
        <time>2021-03-18T10:11:42Z</time>
      </trkpt>
      <trkpt lat="46.51815" lon="0.58562">
        <ele>122.59954333119</ele>
        <time>2021-03-18T10:11:44Z</time>
      </trkpt>
      <trkpt lat="46.51815" lon="0.58558">
        <ele>122.9138689246</ele>
        <time>2021-03-18T10:11:46Z</time>
      </trkpt>
      <trkpt lat="46.51814" lon="0.58554">
        <ele>122.41159649193</ele>
        <time>2021-03-18T10:11:48Z</time>
      </trkpt>
      <trkpt lat="46.51814" lon="0.5855">
        <ele>122.60106455535</ele>
        <time>2021-03-18T10:11:50Z</time>
      </trkpt>
      <trkpt lat="46.51814" lon="0.58547">
        <ele>122.14489812497</ele>
        <time>2021-03-18T10:11:52Z</time>
      </trkpt>
      <trkpt lat="46.51814" lon="0.58544">
        <ele>122.67369845137</ele>
        <time>2021-03-18T10:11:54Z</time>
      </trkpt>
      <trkpt lat="46.51813" lon="0.5854">
        <ele>122.62708576489</ele>
        <time>2021-03-18T10:11:56Z</time>
      </trkpt>
      <trkpt lat="46.51813" lon="0.58536">
        <ele>122.50973757077</ele>
        <time>2021-03-18T10:11:58Z</time>
      </trkpt>
      <trkpt lat="46.51812" lon="0.58533">
        <ele>122.4311081972</ele>
        <time>2021-03-18T10:12:00Z</time>
      </trkpt>
      <trkpt lat="46.51811" lon="0.5853">
        <ele>122.30229444243</ele>
        <time>2021-03-18T10:12:02Z</time>
      </trkpt>
      <trkpt lat="46.5181" lon="0.58526">
        <ele>122.50209462736</ele>
        <time>2021-03-18T10:12:04Z</time>
      </trkpt>
      <trkpt lat="46.5181" lon="0.58523">
        <ele>122.0648079263</ele>
        <time>2021-03-18T10:12:06Z</time>
      </trkpt>
      <trkpt lat="46.5181" lon="0.5852">
        <ele>121.60772998352</ele>
        <time>2021-03-18T10:12:08Z</time>
      </trkpt>
      <trkpt lat="46.51809" lon="0.58517">
        <ele>122.60776899382</ele>
        <time>2021-03-18T10:12:10Z</time>
      </trkpt>
      <trkpt lat="46.51809" lon="0.58515">
        <ele>122.18331448454</ele>
        <time>2021-03-18T10:12:12Z</time>
      </trkpt>
      <trkpt lat="46.51808" lon="0.58512">
        <ele>122.03557886649</ele>
        <time>2021-03-18T10:12:14Z</time>
      </trkpt>
      <trkpt lat="46.51808" lon="0.58509">
        <ele>122.21867012884</ele>
        <time>2021-03-18T10:12:16Z</time>
      </trkpt>
      <trkpt lat="46.51807" lon="0.58506">
        <ele>121.49390139431</ele>
        <time>2021-03-18T10:12:19Z</time>
      </trkpt>
      <trkpt lat="46.51807" lon="0.58503">
        <ele>121.76396631915</ele>
        <time>2021-03-18T10:12:22Z</time>
      </trkpt>
      <trkpt lat="46.51806" lon="0.585">
        <ele>121.7701755818</ele>
        <time>2021-03-18T10:12:24Z</time>
      </trkpt>
      <trkpt lat="46.51806" lon="0.58498">
        <ele>121.97352853045</ele>
        <time>2021-03-18T10:12:26Z</time>
      </trkpt>
      <trkpt lat="46.51804" lon="0.58494">
        <ele>122.1773721613</ele>
        <time>2021-03-18T10:12:29Z</time>
      </trkpt>
      <trkpt lat="46.51804" lon="0.58492">
        <ele>121.70152894314</ele>
        <time>2021-03-18T10:12:31Z</time>
      </trkpt>
      <trkpt lat="46.51804" lon="0.58488">
        <ele>121.29042018019</ele>
        <time>2021-03-18T10:12:33Z</time>
      </trkpt>
      <trkpt lat="46.51803" lon="0.58486">
        <ele>121.22018385585</ele>
        <time>2021-03-18T10:12:35Z</time>
      </trkpt>
      <trkpt lat="46.51803" lon="0.58482">
        <ele>121.55219940748</ele>
        <time>2021-03-18T10:12:38Z</time>
      </trkpt>
      <trkpt lat="46.51802" lon="0.58478">
        <ele>121.53490402829</ele>
        <time>2021-03-18T10:12:41Z</time>
      </trkpt>
      <trkpt lat="46.51801" lon="0.58475">
        <ele>121.4481008919</ele>
        <time>2021-03-18T10:12:44Z</time>
      </trkpt>
      <trkpt lat="46.51801" lon="0.58471">
        <ele>121.87039005384</ele>
        <time>2021-03-18T10:12:47Z</time>
      </trkpt>
      <trkpt lat="46.51801" lon="0.58469">
        <ele>121.48346456792</ele>
        <time>2021-03-18T10:12:49Z</time>
      </trkpt>
      <trkpt lat="46.518" lon="0.58466">
        <ele>121.32564353757</ele>
        <time>2021-03-18T10:12:51Z</time>
      </trkpt>
      <trkpt lat="46.51799" lon="0.58462">
        <ele>121.27289579157</ele>
        <time>2021-03-18T10:12:53Z</time>
      </trkpt>
      <trkpt lat="46.51799" lon="0.58459">
        <ele>121.08134501334</ele>
        <time>2021-03-18T10:12:55Z</time>
      </trkpt>
      <trkpt lat="46.51798" lon="0.58456">
        <ele>120.77165789995</ele>
        <time>2021-03-18T10:12:57Z</time>
      </trkpt>
      <trkpt lat="46.51797" lon="0.58452">
        <ele>121.1328721894</ele>
        <time>2021-03-18T10:12:59Z</time>
      </trkpt>
      <trkpt lat="46.51796" lon="0.58449">
        <ele>121.10096182209</ele>
        <time>2021-03-18T10:13:01Z</time>
      </trkpt>
      <trkpt lat="46.51796" lon="0.58445">
        <ele>121.23845162708</ele>
        <time>2021-03-18T10:13:03Z</time>
      </trkpt>
      <trkpt lat="46.51795" lon="0.58441">
        <ele>121.0771159213</ele>
        <time>2021-03-18T10:13:05Z</time>
      </trkpt>
      <trkpt lat="46.51794" lon="0.58438">
        <ele>121.10335540678</ele>
        <time>2021-03-18T10:13:07Z</time>
      </trkpt>
      <trkpt lat="46.51792" lon="0.58437">
        <ele>121.43438459188</ele>
        <time>2021-03-18T10:13:09Z</time>
      </trkpt>
      <trkpt lat="46.5179" lon="0.58437">
        <ele>121.46074167639</ele>
        <time>2021-03-18T10:13:11Z</time>
      </trkpt>
      <trkpt lat="46.51789" lon="0.58435">
        <ele>120.95882654842</ele>
        <time>2021-03-18T10:13:13Z</time>
      </trkpt>
      <trkpt lat="46.51786" lon="0.58433">
        <ele>120.30441921204</ele>
        <time>2021-03-18T10:13:16Z</time>
      </trkpt>
      <trkpt lat="46.51784" lon="0.58432">
        <ele>120.99442531355</ele>
        <time>2021-03-18T10:13:18Z</time>
      </trkpt>
      <trkpt lat="46.51782" lon="0.58431">
        <ele>121.11191384494</ele>
        <time>2021-03-18T10:13:20Z</time>
      </trkpt>
      <trkpt lat="46.51779" lon="0.58429">
        <ele>120.71814238094</ele>
        <time>2021-03-18T10:13:22Z</time>
      </trkpt>
      <trkpt lat="46.51777" lon="0.58426">
        <ele>121.13374724798</ele>
        <time>2021-03-18T10:13:24Z</time>
      </trkpt>
      <trkpt lat="46.51775" lon="0.58425">
        <ele>120.9334279187</ele>
        <time>2021-03-18T10:13:26Z</time>
      </trkpt>
      <trkpt lat="46.51773" lon="0.58423">
        <ele>120.61938244384</ele>
        <time>2021-03-18T10:13:27Z</time>
      </trkpt>
      <trkpt lat="46.51771" lon="0.58421">
        <ele>120.70275128819</ele>
        <time>2021-03-18T10:13:29Z</time>
      </trkpt>
      <trkpt lat="46.51768" lon="0.58419">
        <ele>120.09327438287</ele>
        <time>2021-03-18T10:13:31Z</time>
      </trkpt>
      <trkpt lat="46.51766" lon="0.58416">
        <ele>120.19666417688</ele>
        <time>2021-03-18T10:13:33Z</time>
      </trkpt>
      <trkpt lat="46.51766" lon="0.58413">
        <ele>120.25282748695</ele>
        <time>2021-03-18T10:13:35Z</time>
      </trkpt>
      <trkpt lat="46.51766" lon="0.5841">
        <ele>120.46223606076</ele>
        <time>2021-03-18T10:13:45Z</time>
      </trkpt>
      <trkpt lat="46.51767" lon="0.58408">
        <ele>121.22020692565</ele>
        <time>2021-03-18T10:13:57Z</time>
      </trkpt>
      <trkpt lat="46.51766" lon="0.58409">
        <ele>120.40120753646</ele>
        <time>2021-03-18T10:14:08Z</time>
      </trkpt>
      <trkpt lat="46.51763" lon="0.58412">
        <ele>120.43406915292</ele>
        <time>2021-03-18T10:14:11Z</time>
      </trkpt>
      <trkpt lat="46.51764" lon="0.58414">
        <ele>119.46479479223</ele>
        <time>2021-03-18T10:14:14Z</time>
      </trkpt>
      <trkpt lat="46.51766" lon="0.58416">
        <ele>120.32221626397</ele>
        <time>2021-03-18T10:14:16Z</time>
      </trkpt>
      <trkpt lat="46.51768" lon="0.58418">
        <ele>120.34974271711</ele>
        <time>2021-03-18T10:14:18Z</time>
      </trkpt>
      <trkpt lat="46.51769" lon="0.58419">
        <ele>120.16783956438</ele>
        <time>2021-03-18T10:14:20Z</time>
      </trkpt>
      <trkpt lat="46.51772" lon="0.5842">
        <ele>120.41854993254</ele>
        <time>2021-03-18T10:14:22Z</time>
      </trkpt>
      <trkpt lat="46.51773" lon="0.58422">
        <ele>120.45294149499</ele>
        <time>2021-03-18T10:14:24Z</time>
      </trkpt>
      <trkpt lat="46.51776" lon="0.58425">
        <ele>121.05226020794</ele>
        <time>2021-03-18T10:14:26Z</time>
      </trkpt>
      <trkpt lat="46.51778" lon="0.58427">
        <ele>120.79838980921</ele>
        <time>2021-03-18T10:14:28Z</time>
      </trkpt>
      <trkpt lat="46.5178" lon="0.58428">
        <ele>120.91445725411</ele>
        <time>2021-03-18T10:14:29Z</time>
      </trkpt>
      <trkpt lat="46.51781" lon="0.5843">
        <ele>120.42556968238</ele>
        <time>2021-03-18T10:14:31Z</time>
      </trkpt>
      <trkpt lat="46.51783" lon="0.58433">
        <ele>120.74954493809</ele>
        <time>2021-03-18T10:14:33Z</time>
      </trkpt>
      <trkpt lat="46.51786" lon="0.58435">
        <ele>119.91489244904</ele>
        <time>2021-03-18T10:14:35Z</time>
      </trkpt>
      <trkpt lat="46.51788" lon="0.58434">
        <ele>120.74601465557</ele>
        <time>2021-03-18T10:14:37Z</time>
      </trkpt>
      <trkpt lat="46.51789" lon="0.58431">
        <ele>120.63358956575</ele>
        <time>2021-03-18T10:14:39Z</time>
      </trkpt>
      <trkpt lat="46.51789" lon="0.58428">
        <ele>120.83550826926</ele>
        <time>2021-03-18T10:14:41Z</time>
      </trkpt>
      <trkpt lat="46.51789" lon="0.58425">
        <ele>120.80173798837</ele>
        <time>2021-03-18T10:14:43Z</time>
      </trkpt>
      <trkpt lat="46.51788" lon="0.58422">
        <ele>119.92624804936</ele>
        <time>2021-03-18T10:14:46Z</time>
      </trkpt>
      <trkpt lat="46.51787" lon="0.58419">
        <ele>120.65527018718</ele>
        <time>2021-03-18T10:14:48Z</time>
      </trkpt>
      <trkpt lat="46.51786" lon="0.58415">
        <ele>120.75791308656</ele>
        <time>2021-03-18T10:14:50Z</time>
      </trkpt>
      <trkpt lat="46.51786" lon="0.58411">
        <ele>120.49117923155</ele>
        <time>2021-03-18T10:14:52Z</time>
      </trkpt>
      <trkpt lat="46.51786" lon="0.58408">
        <ele>119.88466697279</ele>
        <time>2021-03-18T10:14:54Z</time>
      </trkpt>
      <trkpt lat="46.51785" lon="0.58403">
        <ele>120.44586215634</ele>
        <time>2021-03-18T10:14:56Z</time>
      </trkpt>
      <trkpt lat="46.51784" lon="0.584">
        <ele>120.48480148148</ele>
        <time>2021-03-18T10:14:58Z</time>
      </trkpt>
      <trkpt lat="46.51783" lon="0.58396">
        <ele>120.54381548893</ele>
        <time>2021-03-18T10:15:00Z</time>
      </trkpt>
      <trkpt lat="46.51783" lon="0.58393">
        <ele>120.84090298414</ele>
        <time>2021-03-18T10:15:02Z</time>
      </trkpt>
      <trkpt lat="46.51782" lon="0.58389">
        <ele>120.08255343698</ele>
        <time>2021-03-18T10:15:04Z</time>
      </trkpt>
      <trkpt lat="46.51781" lon="0.58386">
        <ele>120.50179223344</ele>
        <time>2021-03-18T10:15:05Z</time>
      </trkpt>
      <trkpt lat="46.51781" lon="0.58383">
        <ele>120.30909065716</ele>
        <time>2021-03-18T10:15:07Z</time>
      </trkpt>
      <trkpt lat="46.5178" lon="0.58379">
        <ele>120.60743711237</ele>
        <time>2021-03-18T10:15:09Z</time>
      </trkpt>
      <trkpt lat="46.51779" lon="0.58376">
        <ele>120.50817621034</ele>
        <time>2021-03-18T10:15:11Z</time>
      </trkpt>
      <trkpt lat="46.51779" lon="0.58373">
        <ele>120.7510140501</ele>
        <time>2021-03-18T10:15:13Z</time>
      </trkpt>
      <trkpt lat="46.51779" lon="0.5837">
        <ele>120.71014967747</ele>
        <time>2021-03-18T10:15:15Z</time>
      </trkpt>
      <trkpt lat="46.5178" lon="0.58366">
        <ele>120.24699673336</ele>
        <time>2021-03-18T10:15:17Z</time>
      </trkpt>
      <trkpt lat="46.5178" lon="0.58362">
        <ele>120.24708940741</ele>
        <time>2021-03-18T10:15:19Z</time>
      </trkpt>
      <trkpt lat="46.51781" lon="0.58359">
        <ele>119.62376832217</ele>
        <time>2021-03-18T10:15:21Z</time>
      </trkpt>
      <trkpt lat="46.51781" lon="0.58355">
        <ele>120.59569954872</ele>
        <time>2021-03-18T10:15:23Z</time>
      </trkpt>
      <trkpt lat="46.51781" lon="0.58352">
        <ele>120.18868566211</ele>
        <time>2021-03-18T10:15:25Z</time>
      </trkpt>
      <trkpt lat="46.51782" lon="0.58349">
        <ele>120.15279669873</ele>
        <time>2021-03-18T10:15:27Z</time>
      </trkpt>
      <trkpt lat="46.51781" lon="0.58345">
        <ele>120.51596809551</ele>
        <time>2021-03-18T10:15:29Z</time>
      </trkpt>
      <trkpt lat="46.51781" lon="0.58341">
        <ele>120.4349732222</ele>
        <time>2021-03-18T10:15:31Z</time>
      </trkpt>
      <trkpt lat="46.51781" lon="0.58337">
        <ele>120.17123339977</ele>
        <time>2021-03-18T10:15:33Z</time>
      </trkpt>
      <trkpt lat="46.51782" lon="0.58333">
        <ele>120.16761355754</ele>
        <time>2021-03-18T10:15:35Z</time>
      </trkpt>
      <trkpt lat="46.51782" lon="0.58329">
        <ele>120.16857006587</ele>
        <time>2021-03-18T10:15:37Z</time>
      </trkpt>
      <trkpt lat="46.51781" lon="0.58325">
        <ele>119.73944898788</ele>
        <time>2021-03-18T10:15:39Z</time>
      </trkpt>
      <trkpt lat="46.51782" lon="0.58321">
        <ele>119.79897506163</ele>
        <time>2021-03-18T10:15:41Z</time>
      </trkpt>
      <trkpt lat="46.51782" lon="0.58316">
        <ele>119.84275334049</ele>
        <time>2021-03-18T10:15:43Z</time>
      </trkpt>
      <trkpt lat="46.51782" lon="0.58313">
        <ele>119.93528371863</ele>
        <time>2021-03-18T10:15:45Z</time>
      </trkpt>
      <trkpt lat="46.51782" lon="0.58309">
        <ele>119.65436739009</ele>
        <time>2021-03-18T10:15:47Z</time>
      </trkpt>
      <trkpt lat="46.51782" lon="0.58305">
        <ele>119.70303727407</ele>
        <time>2021-03-18T10:15:49Z</time>
      </trkpt>
      <trkpt lat="46.51782" lon="0.583">
        <ele>119.66554866545</ele>
        <time>2021-03-18T10:15:51Z</time>
      </trkpt>
      <trkpt lat="46.51783" lon="0.58297">
        <ele>119.6294115074</ele>
        <time>2021-03-18T10:15:52Z</time>
      </trkpt>
      <trkpt lat="46.51783" lon="0.58294">
        <ele>119.19624420069</ele>
        <time>2021-03-18T10:15:54Z</time>
      </trkpt>
      <trkpt lat="46.51782" lon="0.58291">
        <ele>118.97303760704</ele>
        <time>2021-03-18T10:15:56Z</time>
      </trkpt>
      <trkpt lat="46.51782" lon="0.58287">
        <ele>119.07653217763</ele>
        <time>2021-03-18T10:15:58Z</time>
      </trkpt>
      <trkpt lat="46.51782" lon="0.58283">
        <ele>119.47000020556</ele>
        <time>2021-03-18T10:16:00Z</time>
      </trkpt>
      <trkpt lat="46.51783" lon="0.5828">
        <ele>119.55650792364</ele>
        <time>2021-03-18T10:16:02Z</time>
      </trkpt>
      <trkpt lat="46.51783" lon="0.58276">
        <ele>119.09705822263</ele>
        <time>2021-03-18T10:16:04Z</time>
      </trkpt>
      <trkpt lat="46.51783" lon="0.58273">
        <ele>118.71594066638</ele>
        <time>2021-03-18T10:16:05Z</time>
      </trkpt>
      <trkpt lat="46.51782" lon="0.5827">
        <ele>118.98082566075</ele>
        <time>2021-03-18T10:16:07Z</time>
      </trkpt>
      <trkpt lat="46.51783" lon="0.58266">
        <ele>118.66054369137</ele>
        <time>2021-03-18T10:16:09Z</time>
      </trkpt>
      <trkpt lat="46.51783" lon="0.58263">
        <ele>119.23165003769</ele>
        <time>2021-03-18T10:16:11Z</time>
      </trkpt>
      <trkpt lat="46.51783" lon="0.58259">
        <ele>118.41443070304</ele>
        <time>2021-03-18T10:16:14Z</time>
      </trkpt>
      <trkpt lat="46.51783" lon="0.58255">
        <ele>118.75948174484</ele>
        <time>2021-03-18T10:16:16Z</time>
      </trkpt>
      <trkpt lat="46.51784" lon="0.58251">
        <ele>118.6117725512</ele>
        <time>2021-03-18T10:16:18Z</time>
      </trkpt>
      <trkpt lat="46.51783" lon="0.58247">
        <ele>118.70440464001</ele>
        <time>2021-03-18T10:16:20Z</time>
      </trkpt>
      <trkpt lat="46.51782" lon="0.58244">
        <ele>118.80537705962</ele>
        <time>2021-03-18T10:16:22Z</time>
      </trkpt>
      <trkpt lat="46.51782" lon="0.58239">
        <ele>118.84885767195</ele>
        <time>2021-03-18T10:16:24Z</time>
      </trkpt>
      <trkpt lat="46.51782" lon="0.58236">
        <ele>118.93839666992</ele>
        <time>2021-03-18T10:16:25Z</time>
      </trkpt>
      <trkpt lat="46.51781" lon="0.58232">
        <ele>118.77313661575</ele>
        <time>2021-03-18T10:16:27Z</time>
      </trkpt>
      <trkpt lat="46.5178" lon="0.58228">
        <ele>118.36378909834</ele>
        <time>2021-03-18T10:16:29Z</time>
      </trkpt>
      <trkpt lat="46.5178" lon="0.58224">
        <ele>118.32975359634</ele>
        <time>2021-03-18T10:16:31Z</time>
      </trkpt>
      <trkpt lat="46.51779" lon="0.58221">
        <ele>118.12930453476</ele>
        <time>2021-03-18T10:16:33Z</time>
      </trkpt>
      <trkpt lat="46.51779" lon="0.58217">
        <ele>117.82247348875</ele>
        <time>2021-03-18T10:16:35Z</time>
      </trkpt>
      <trkpt lat="46.51778" lon="0.58214">
        <ele>118.2182524493</ele>
        <time>2021-03-18T10:16:37Z</time>
      </trkpt>
      <trkpt lat="46.51777" lon="0.5821">
        <ele>118.15349642839</ele>
        <time>2021-03-18T10:16:39Z</time>
      </trkpt>
      <trkpt lat="46.51775" lon="0.58208">
        <ele>118.27256966941</ele>
        <time>2021-03-18T10:16:41Z</time>
      </trkpt>
      <trkpt lat="46.51774" lon="0.58204">
        <ele>118.68805926573</ele>
        <time>2021-03-18T10:16:43Z</time>
      </trkpt>
      <trkpt lat="46.51773" lon="0.58202">
        <ele>118.20011305995</ele>
        <time>2021-03-18T10:16:45Z</time>
      </trkpt>
      <trkpt lat="46.51771" lon="0.58199">
        <ele>118.20737744495</ele>
        <time>2021-03-18T10:16:47Z</time>
      </trkpt>
      <trkpt lat="46.5177" lon="0.58196">
        <ele>118.3397537414</ele>
        <time>2021-03-18T10:16:49Z</time>
      </trkpt>
      <trkpt lat="46.51768" lon="0.58194">
        <ele>118.10735501535</ele>
        <time>2021-03-18T10:16:51Z</time>
      </trkpt>
      <trkpt lat="46.51767" lon="0.58191">
        <ele>117.88550999016</ele>
        <time>2021-03-18T10:16:53Z</time>
      </trkpt>
      <trkpt lat="46.51765" lon="0.58188">
        <ele>118.04266896378</ele>
        <time>2021-03-18T10:16:55Z</time>
      </trkpt>
      <trkpt lat="46.51763" lon="0.58185">
        <ele>117.46176056657</ele>
        <time>2021-03-18T10:16:57Z</time>
      </trkpt>
      <trkpt lat="46.51761" lon="0.58182">
        <ele>117.63426768128</ele>
        <time>2021-03-18T10:16:59Z</time>
      </trkpt>
      <trkpt lat="46.5176" lon="0.5818">
        <ele>117.46094095428</ele>
        <time>2021-03-18T10:17:00Z</time>
      </trkpt>
      <trkpt lat="46.51758" lon="0.58177">
        <ele>117.477223319</ele>
        <time>2021-03-18T10:17:02Z</time>
      </trkpt>
      <trkpt lat="46.51757" lon="0.58175">
        <ele>117.81518673804</ele>
        <time>2021-03-18T10:17:03Z</time>
      </trkpt>
      <trkpt lat="46.51755" lon="0.58172">
        <ele>117.28332976159</ele>
        <time>2021-03-18T10:17:05Z</time>
      </trkpt>
      <trkpt lat="46.51753" lon="0.58168">
        <ele>117.59920530021</ele>
        <time>2021-03-18T10:17:07Z</time>
      </trkpt>
      <trkpt lat="46.5175" lon="0.58165">
        <ele>117.77347612381</ele>
        <time>2021-03-18T10:17:09Z</time>
      </trkpt>
      <trkpt lat="46.51748" lon="0.58162">
        <ele>117.91653963551</ele>
        <time>2021-03-18T10:17:11Z</time>
      </trkpt>
      <trkpt lat="46.51746" lon="0.5816">
        <ele>117.80005829409</ele>
        <time>2021-03-18T10:17:13Z</time>
      </trkpt>
      <trkpt lat="46.51744" lon="0.58158">
        <ele>117.70381327625</ele>
        <time>2021-03-18T10:17:14Z</time>
      </trkpt>
      <trkpt lat="46.51743" lon="0.58156">
        <ele>117.62655414362</ele>
        <time>2021-03-18T10:17:16Z</time>
      </trkpt>
      <trkpt lat="46.5174" lon="0.58153">
        <ele>117.58359619696</ele>
        <time>2021-03-18T10:17:18Z</time>
      </trkpt>
      <trkpt lat="46.51738" lon="0.58152">
        <ele>117.78204436228</ele>
        <time>2021-03-18T10:17:19Z</time>
      </trkpt>
      <trkpt lat="46.51736" lon="0.58148">
        <ele>118.21966220904</ele>
        <time>2021-03-18T10:17:21Z</time>
      </trkpt>
      <trkpt lat="46.51734" lon="0.58145">
        <ele>117.49088101462</ele>
        <time>2021-03-18T10:17:23Z</time>
      </trkpt>
      <trkpt lat="46.51732" lon="0.58142">
        <ele>117.68319392949</ele>
        <time>2021-03-18T10:17:25Z</time>
      </trkpt>
      <trkpt lat="46.51729" lon="0.58139">
        <ele>118.05821829475</ele>
        <time>2021-03-18T10:17:27Z</time>
      </trkpt>
      <trkpt lat="46.51728" lon="0.58137">
        <ele>117.87342541572</ele>
        <time>2021-03-18T10:17:29Z</time>
      </trkpt>
      <trkpt lat="46.51726" lon="0.58135">
        <ele>118.29421730153</ele>
        <time>2021-03-18T10:17:31Z</time>
      </trkpt>
      <trkpt lat="46.51724" lon="0.58133">
        <ele>118.64817706868</ele>
        <time>2021-03-18T10:17:33Z</time>
      </trkpt>
      <trkpt lat="46.51722" lon="0.5813">
        <ele>118.4532725513</ele>
        <time>2021-03-18T10:17:35Z</time>
      </trkpt>
      <trkpt lat="46.51721" lon="0.58128">
        <ele>118.06936164945</ele>
        <time>2021-03-18T10:17:37Z</time>
      </trkpt>
      <trkpt lat="46.51719" lon="0.58126">
        <ele>118.09589362424</ele>
        <time>2021-03-18T10:17:39Z</time>
      </trkpt>
      <trkpt lat="46.51718" lon="0.58124">
        <ele>118.36298047192</ele>
        <time>2021-03-18T10:17:41Z</time>
      </trkpt>
      <trkpt lat="46.51716" lon="0.58121">
        <ele>118.20914246421</ele>
        <time>2021-03-18T10:17:43Z</time>
      </trkpt>
      <trkpt lat="46.51714" lon="0.58118">
        <ele>118.09726000577</ele>
        <time>2021-03-18T10:17:45Z</time>
      </trkpt>
      <trkpt lat="46.51712" lon="0.58116">
        <ele>118.18294433504</ele>
        <time>2021-03-18T10:17:47Z</time>
      </trkpt>
      <trkpt lat="46.51711" lon="0.58114">
        <ele>118.0443096729</ele>
        <time>2021-03-18T10:17:49Z</time>
      </trkpt>
      <trkpt lat="46.51708" lon="0.58112">
        <ele>117.9681210788</ele>
        <time>2021-03-18T10:17:51Z</time>
      </trkpt>
      <trkpt lat="46.51707" lon="0.5811">
        <ele>118.37464623339</ele>
        <time>2021-03-18T10:17:53Z</time>
      </trkpt>
      <trkpt lat="46.51705" lon="0.58107">
        <ele>118.15367155615</ele>
        <time>2021-03-18T10:17:55Z</time>
      </trkpt>
      <trkpt lat="46.51703" lon="0.58104">
        <ele>118.41886733659</ele>
        <time>2021-03-18T10:17:58Z</time>
      </trkpt>
      <trkpt lat="46.51701" lon="0.58101">
        <ele>118.72040513065</ele>
        <time>2021-03-18T10:18:00Z</time>
      </trkpt>
      <trkpt lat="46.51699" lon="0.58099">
        <ele>118.41961318441</ele>
        <time>2021-03-18T10:18:02Z</time>
      </trkpt>
      <trkpt lat="46.51697" lon="0.58097">
        <ele>118.37283330038</ele>
        <time>2021-03-18T10:18:04Z</time>
      </trkpt>
      <trkpt lat="46.51695" lon="0.58095">
        <ele>117.95255300961</ele>
        <time>2021-03-18T10:18:06Z</time>
      </trkpt>
      <trkpt lat="46.51693" lon="0.58092">
        <ele>118.0672803754</ele>
        <time>2021-03-18T10:18:08Z</time>
      </trkpt>
      <trkpt lat="46.51691" lon="0.58089">
        <ele>118.32873211522</ele>
        <time>2021-03-18T10:18:10Z</time>
      </trkpt>
      <trkpt lat="46.51689" lon="0.58087">
        <ele>118.53205071669</ele>
        <time>2021-03-18T10:18:12Z</time>
      </trkpt>
      <trkpt lat="46.51687" lon="0.58084">
        <ele>118.71510645654</ele>
        <time>2021-03-18T10:18:14Z</time>
      </trkpt>
      <trkpt lat="46.51685" lon="0.58081">
        <ele>118.80717979558</ele>
        <time>2021-03-18T10:18:17Z</time>
      </trkpt>
      <trkpt lat="46.51683" lon="0.58078">
        <ele>118.27208179981</ele>
        <time>2021-03-18T10:18:19Z</time>
      </trkpt>
      <trkpt lat="46.51681" lon="0.58076">
        <ele>118.52589940373</ele>
        <time>2021-03-18T10:18:21Z</time>
      </trkpt>
      <trkpt lat="46.51679" lon="0.58074">
        <ele>118.48308568448</ele>
        <time>2021-03-18T10:18:23Z</time>
      </trkpt>
      <trkpt lat="46.51677" lon="0.58071">
        <ele>118.67781647202</ele>
        <time>2021-03-18T10:18:25Z</time>
      </trkpt>
      <trkpt lat="46.51676" lon="0.58069">
        <ele>118.96143217478</ele>
        <time>2021-03-18T10:18:27Z</time>
      </trkpt>
      <trkpt lat="46.51673" lon="0.58067">
        <ele>118.98188444041</ele>
        <time>2021-03-18T10:18:29Z</time>
      </trkpt>
      <trkpt lat="46.51672" lon="0.58065">
        <ele>118.42308495287</ele>
        <time>2021-03-18T10:18:31Z</time>
      </trkpt>
      <trkpt lat="46.5167" lon="0.58063">
        <ele>118.47252372652</ele>
        <time>2021-03-18T10:18:33Z</time>
      </trkpt>
      <trkpt lat="46.51668" lon="0.58061">
        <ele>118.52318469901</ele>
        <time>2021-03-18T10:18:36Z</time>
      </trkpt>
      <trkpt lat="46.51666" lon="0.58059">
        <ele>118.72951684892</ele>
        <time>2021-03-18T10:18:38Z</time>
      </trkpt>
      <trkpt lat="46.51665" lon="0.58056">
        <ele>118.39523383416</ele>
        <time>2021-03-18T10:18:39Z</time>
      </trkpt>
      <trkpt lat="46.51663" lon="0.58054">
        <ele>118.26985645946</ele>
        <time>2021-03-18T10:18:41Z</time>
      </trkpt>
      <trkpt lat="46.51662" lon="0.58052">
        <ele>118.1209498886</ele>
        <time>2021-03-18T10:18:42Z</time>
      </trkpt>
      <trkpt lat="46.5166" lon="0.58049">
        <ele>118.32044519857</ele>
        <time>2021-03-18T10:18:44Z</time>
      </trkpt>
      <trkpt lat="46.51658" lon="0.58046">
        <ele>118.25982451253</ele>
        <time>2021-03-18T10:18:46Z</time>
      </trkpt>
      <trkpt lat="46.51655" lon="0.58043">
        <ele>118.4410819998</ele>
        <time>2021-03-18T10:18:48Z</time>
      </trkpt>
      <trkpt lat="46.51653" lon="0.5804">
        <ele>118.45970822126</ele>
        <time>2021-03-18T10:18:50Z</time>
      </trkpt>
      <trkpt lat="46.51651" lon="0.58038">
        <ele>118.89024493936</ele>
        <time>2021-03-18T10:18:52Z</time>
      </trkpt>
      <trkpt lat="46.51649" lon="0.58035">
        <ele>118.1693363674</ele>
        <time>2021-03-18T10:18:54Z</time>
      </trkpt>
      <trkpt lat="46.51647" lon="0.58033">
        <ele>118.28859372996</ele>
        <time>2021-03-18T10:18:56Z</time>
      </trkpt>
      <trkpt lat="46.51646" lon="0.58031">
        <ele>118.64571474399</ele>
        <time>2021-03-18T10:18:58Z</time>
      </trkpt>
      <trkpt lat="46.51643" lon="0.58028">
        <ele>118.05225853622</ele>
        <time>2021-03-18T10:19:00Z</time>
      </trkpt>
      <trkpt lat="46.51642" lon="0.58026">
        <ele>118.76637102198</ele>
        <time>2021-03-18T10:19:02Z</time>
      </trkpt>
      <trkpt lat="46.51639" lon="0.58023">
        <ele>118.59119806904</ele>
        <time>2021-03-18T10:19:04Z</time>
      </trkpt>
      <trkpt lat="46.51638" lon="0.58021">
        <ele>118.41774985101</ele>
        <time>2021-03-18T10:19:06Z</time>
      </trkpt>
      <trkpt lat="46.51636" lon="0.58017">
        <ele>118.37070568651</ele>
        <time>2021-03-18T10:19:08Z</time>
      </trkpt>
      <trkpt lat="46.51633" lon="0.58015">
        <ele>118.1996686114</ele>
        <time>2021-03-18T10:19:10Z</time>
      </trkpt>
      <trkpt lat="46.51632" lon="0.58013">
        <ele>118.35297882929</ele>
        <time>2021-03-18T10:19:11Z</time>
      </trkpt>
      <trkpt lat="46.51629" lon="0.5801">
        <ele>118.23264355771</ele>
        <time>2021-03-18T10:19:13Z</time>
      </trkpt>
      <trkpt lat="46.51627" lon="0.58007">
        <ele>118.22296237573</ele>
        <time>2021-03-18T10:19:15Z</time>
      </trkpt>
      <trkpt lat="46.51624" lon="0.58004">
        <ele>118.19409999158</ele>
        <time>2021-03-18T10:19:17Z</time>
      </trkpt>
      <trkpt lat="46.51623" lon="0.58001">
        <ele>118.26404363476</ele>
        <time>2021-03-18T10:19:19Z</time>
      </trkpt>
      <trkpt lat="46.51623" lon="0.57996">
        <ele>118.75413009897</ele>
        <time>2021-03-18T10:19:21Z</time>
      </trkpt>
      <trkpt lat="46.51624" lon="0.57993">
        <ele>118.1165738767</ele>
        <time>2021-03-18T10:19:23Z</time>
      </trkpt>
      <trkpt lat="46.51626" lon="0.57991">
        <ele>118.20979471132</ele>
        <time>2021-03-18T10:19:25Z</time>
      </trkpt>
      <trkpt lat="46.51628" lon="0.57988">
        <ele>118.19554770831</ele>
        <time>2021-03-18T10:19:27Z</time>
      </trkpt>
      <trkpt lat="46.5163" lon="0.57985">
        <ele>118.24246435333</ele>
        <time>2021-03-18T10:19:29Z</time>
      </trkpt>
      <trkpt lat="46.51632" lon="0.57982">
        <ele>118.21792459581</ele>
        <time>2021-03-18T10:19:31Z</time>
      </trkpt>
      <trkpt lat="46.51633" lon="0.57979">
        <ele>118.36165051535</ele>
        <time>2021-03-18T10:19:33Z</time>
      </trkpt>
      <trkpt lat="46.51635" lon="0.57976">
        <ele>118.20897997729</ele>
        <time>2021-03-18T10:19:35Z</time>
      </trkpt>
      <trkpt lat="46.51636" lon="0.57974">
        <ele>118.47576955706</ele>
        <time>2021-03-18T10:19:36Z</time>
      </trkpt>
      <trkpt lat="46.51637" lon="0.57971">
        <ele>118.53920065332</ele>
        <time>2021-03-18T10:19:37Z</time>
      </trkpt>
      <trkpt lat="46.51639" lon="0.57968">
        <ele>117.71547941305</ele>
        <time>2021-03-18T10:19:40Z</time>
      </trkpt>
      <trkpt lat="46.51642" lon="0.57966">
        <ele>117.91873131134</ele>
        <time>2021-03-18T10:19:42Z</time>
      </trkpt>
      <trkpt lat="46.51643" lon="0.57962">
        <ele>117.63680420723</ele>
        <time>2021-03-18T10:19:44Z</time>
      </trkpt>
      <trkpt lat="46.51645" lon="0.57961">
        <ele>117.82788951602</ele>
        <time>2021-03-18T10:19:46Z</time>
      </trkpt>
      <trkpt lat="46.51647" lon="0.57959">
        <ele>117.17809900269</ele>
        <time>2021-03-18T10:19:48Z</time>
      </trkpt>
      <trkpt lat="46.5165" lon="0.57957">
        <ele>117.10614402778</ele>
        <time>2021-03-18T10:19:50Z</time>
      </trkpt>
      <trkpt lat="46.51652" lon="0.57954">
        <ele>117.24878255092</ele>
        <time>2021-03-18T10:19:52Z</time>
      </trkpt>
      <trkpt lat="46.51653" lon="0.57952">
        <ele>117.03124678042</ele>
        <time>2021-03-18T10:19:54Z</time>
      </trkpt>
      <trkpt lat="46.51655" lon="0.5795">
        <ele>117.10948024318</ele>
        <time>2021-03-18T10:19:56Z</time>
      </trkpt>
      <trkpt lat="46.51657" lon="0.57947">
        <ele>117.91385730542</ele>
        <time>2021-03-18T10:19:59Z</time>
      </trkpt>
      <trkpt lat="46.51659" lon="0.57944">
        <ele>117.46457031649</ele>
        <time>2021-03-18T10:20:01Z</time>
      </trkpt>
      <trkpt lat="46.51661" lon="0.57942">
        <ele>117.21436806861</ele>
        <time>2021-03-18T10:20:04Z</time>
      </trkpt>
      <trkpt lat="46.51663" lon="0.5794">
        <ele>116.85688401759</ele>
        <time>2021-03-18T10:20:06Z</time>
      </trkpt>
      <trkpt lat="46.51665" lon="0.57938">
        <ele>117.34096743632</ele>
        <time>2021-03-18T10:20:08Z</time>
      </trkpt>
      <trkpt lat="46.51667" lon="0.57937">
        <ele>117.40016489476</ele>
        <time>2021-03-18T10:20:10Z</time>
      </trkpt>
      <trkpt lat="46.51669" lon="0.57935">
        <ele>117.37934317254</ele>
        <time>2021-03-18T10:20:12Z</time>
      </trkpt>
      <trkpt lat="46.5167" lon="0.57933">
        <ele>117.10150501505</ele>
        <time>2021-03-18T10:20:14Z</time>
      </trkpt>
      <trkpt lat="46.51672" lon="0.57932">
        <ele>117.28086004127</ele>
        <time>2021-03-18T10:20:15Z</time>
      </trkpt>
      <trkpt lat="46.51675" lon="0.5793">
        <ele>117.06376781594</ele>
        <time>2021-03-18T10:20:17Z</time>
      </trkpt>
      <trkpt lat="46.51677" lon="0.57928">
        <ele>117.22094484605</ele>
        <time>2021-03-18T10:20:19Z</time>
      </trkpt>
      <trkpt lat="46.51679" lon="0.57927">
        <ele>117.12876979634</ele>
        <time>2021-03-18T10:20:21Z</time>
      </trkpt>
      <trkpt lat="46.51681" lon="0.57925">
        <ele>116.9780233549</ele>
        <time>2021-03-18T10:20:22Z</time>
      </trkpt>
      <trkpt lat="46.51684" lon="0.57924">
        <ele>117.25861478131</ele>
        <time>2021-03-18T10:20:24Z</time>
      </trkpt>
      <trkpt lat="46.51685" lon="0.57923">
        <ele>116.59738573153</ele>
        <time>2021-03-18T10:20:25Z</time>
      </trkpt>
      <trkpt lat="46.51688" lon="0.57922">
        <ele>116.17234673258</ele>
        <time>2021-03-18T10:20:27Z</time>
      </trkpt>
      <trkpt lat="46.51689" lon="0.57921">
        <ele>116.58046938945</ele>
        <time>2021-03-18T10:20:28Z</time>
      </trkpt>
      <trkpt lat="46.51693" lon="0.57919">
        <ele>116.34741825983</ele>
        <time>2021-03-18T10:20:30Z</time>
      </trkpt>
      <trkpt lat="46.51695" lon="0.57917">
        <ele>116.63510626461</ele>
        <time>2021-03-18T10:20:32Z</time>
      </trkpt>
      <trkpt lat="46.51698" lon="0.57916">
        <ele>116.18884695508</ele>
        <time>2021-03-18T10:20:34Z</time>
      </trkpt>
      <trkpt lat="46.51701" lon="0.57912">
        <ele>116.34922314715</ele>
        <time>2021-03-18T10:20:36Z</time>
      </trkpt>
      <trkpt lat="46.51702" lon="0.5791">
        <ele>116.68173596729</ele>
        <time>2021-03-18T10:20:37Z</time>
      </trkpt>
      <trkpt lat="46.51705" lon="0.57908">
        <ele>116.24133947119</ele>
        <time>2021-03-18T10:20:39Z</time>
      </trkpt>
      <trkpt lat="46.51708" lon="0.57905">
        <ele>115.99673965294</ele>
        <time>2021-03-18T10:20:41Z</time>
      </trkpt>
      <trkpt lat="46.5171" lon="0.57903">
        <ele>116.24673133157</ele>
        <time>2021-03-18T10:20:43Z</time>
      </trkpt>
      <trkpt lat="46.51712" lon="0.57901">
        <ele>115.94615500234</ele>
        <time>2021-03-18T10:20:45Z</time>
      </trkpt>
      <trkpt lat="46.51714" lon="0.57899">
        <ele>115.58917636424</ele>
        <time>2021-03-18T10:20:47Z</time>
      </trkpt>
      <trkpt lat="46.51716" lon="0.57897">
        <ele>115.33196031116</ele>
        <time>2021-03-18T10:20:49Z</time>
      </trkpt>
      <trkpt lat="46.51719" lon="0.57894">
        <ele>115.71890245285</ele>
        <time>2021-03-18T10:20:51Z</time>
      </trkpt>
      <trkpt lat="46.51721" lon="0.57893">
        <ele>115.16837956291</ele>
        <time>2021-03-18T10:20:53Z</time>
      </trkpt>
      <trkpt lat="46.51722" lon="0.57891">
        <ele>114.69897359982</ele>
        <time>2021-03-18T10:20:55Z</time>
      </trkpt>
      <trkpt lat="46.51724" lon="0.57889">
        <ele>114.56514762901</ele>
        <time>2021-03-18T10:20:57Z</time>
      </trkpt>
      <trkpt lat="46.51726" lon="0.57886">
        <ele>114.49218493048</ele>
        <time>2021-03-18T10:20:59Z</time>
      </trkpt>
      <trkpt lat="46.51728" lon="0.57883">
        <ele>114.76458040252</ele>
        <time>2021-03-18T10:21:01Z</time>
      </trkpt>
      <trkpt lat="46.5173" lon="0.5788">
        <ele>114.08867407497</ele>
        <time>2021-03-18T10:21:03Z</time>
      </trkpt>
      <trkpt lat="46.51731" lon="0.57878">
        <ele>114.13987854216</ele>
        <time>2021-03-18T10:21:05Z</time>
      </trkpt>
      <trkpt lat="46.51732" lon="0.57876">
        <ele>113.86879402958</ele>
        <time>2021-03-18T10:21:07Z</time>
      </trkpt>
      <trkpt lat="46.51734" lon="0.57872">
        <ele>113.87608770095</ele>
        <time>2021-03-18T10:21:09Z</time>
      </trkpt>
      <trkpt lat="46.51735" lon="0.57869">
        <ele>113.76777890977</ele>
        <time>2021-03-18T10:21:11Z</time>
      </trkpt>
      <trkpt lat="46.51736" lon="0.57865">
        <ele>113.73175692745</ele>
        <time>2021-03-18T10:21:13Z</time>
      </trkpt>
      <trkpt lat="46.51737" lon="0.5786">
        <ele>113.92856060341</ele>
        <time>2021-03-18T10:21:15Z</time>
      </trkpt>
      <trkpt lat="46.51738" lon="0.57856">
        <ele>114.20974799711</ele>
        <time>2021-03-18T10:21:17Z</time>
      </trkpt>
      <trkpt lat="46.51739" lon="0.57853">
        <ele>113.7416861672</ele>
        <time>2021-03-18T10:21:18Z</time>
      </trkpt>
      <trkpt lat="46.51739" lon="0.5785">
        <ele>113.79276104085</ele>
        <time>2021-03-18T10:21:20Z</time>
      </trkpt>
      <trkpt lat="46.5174" lon="0.57846">
        <ele>113.71369669586</ele>
        <time>2021-03-18T10:21:22Z</time>
      </trkpt>
      <trkpt lat="46.51741" lon="0.57841">
        <ele>113.83352109231</ele>
        <time>2021-03-18T10:21:24Z</time>
      </trkpt>
      <trkpt lat="46.51742" lon="0.57838">
        <ele>113.69726253953</ele>
        <time>2021-03-18T10:21:26Z</time>
      </trkpt>
      <trkpt lat="46.51743" lon="0.57833">
        <ele>113.95859663747</ele>
        <time>2021-03-18T10:21:28Z</time>
      </trkpt>
      <trkpt lat="46.51744" lon="0.57829">
        <ele>113.7195288986</ele>
        <time>2021-03-18T10:21:30Z</time>
      </trkpt>
      <trkpt lat="46.51744" lon="0.57826">
        <ele>113.71498666611</ele>
        <time>2021-03-18T10:21:32Z</time>
      </trkpt>
      <trkpt lat="46.51745" lon="0.57822">
        <ele>113.55323336832</ele>
        <time>2021-03-18T10:21:34Z</time>
      </trkpt>
      <trkpt lat="46.51746" lon="0.57818">
        <ele>113.43805357907</ele>
        <time>2021-03-18T10:21:36Z</time>
      </trkpt>
      <trkpt lat="46.51747" lon="0.57815">
        <ele>113.57546188589</ele>
        <time>2021-03-18T10:21:38Z</time>
      </trkpt>
      <trkpt lat="46.51748" lon="0.57811">
        <ele>113.29047536291</ele>
        <time>2021-03-18T10:21:40Z</time>
      </trkpt>
      <trkpt lat="46.5175" lon="0.57808">
        <ele>113.10575590376</ele>
        <time>2021-03-18T10:21:42Z</time>
      </trkpt>
      <trkpt lat="46.5175" lon="0.57804">
        <ele>113.04090420622</ele>
        <time>2021-03-18T10:21:44Z</time>
      </trkpt>
      <trkpt lat="46.51751" lon="0.57802">
        <ele>113.06781315524</ele>
        <time>2021-03-18T10:21:45Z</time>
      </trkpt>
      <trkpt lat="46.51752" lon="0.57799">
        <ele>112.91239917371</ele>
        <time>2021-03-18T10:21:46Z</time>
      </trkpt>
      <trkpt lat="46.51752" lon="0.57797">
        <ele>112.7208194118</ele>
        <time>2021-03-18T10:21:48Z</time>
      </trkpt>
      <trkpt lat="46.51753" lon="0.57793">
        <ele>112.28619528934</ele>
        <time>2021-03-18T10:21:50Z</time>
      </trkpt>
      <trkpt lat="46.51754" lon="0.5779">
        <ele>112.42127489019</ele>
        <time>2021-03-18T10:21:52Z</time>
      </trkpt>
      <trkpt lat="46.51755" lon="0.57786">
        <ele>112.21172332019</ele>
        <time>2021-03-18T10:21:54Z</time>
      </trkpt>
      <trkpt lat="46.51756" lon="0.57782">
        <ele>112.60978259612</ele>
        <time>2021-03-18T10:21:56Z</time>
      </trkpt>
      <trkpt lat="46.51757" lon="0.57779">
        <ele>112.89913380798</ele>
        <time>2021-03-18T10:21:58Z</time>
      </trkpt>
      <trkpt lat="46.51758" lon="0.57776">
        <ele>112.45385136735</ele>
        <time>2021-03-18T10:22:00Z</time>
      </trkpt>
      <trkpt lat="46.51759" lon="0.57772">
        <ele>112.5939158462</ele>
        <time>2021-03-18T10:22:02Z</time>
      </trkpt>
      <trkpt lat="46.5176" lon="0.57768">
        <ele>112.66487044189</ele>
        <time>2021-03-18T10:22:04Z</time>
      </trkpt>
      <trkpt lat="46.51761" lon="0.57764">
        <ele>112.2605842026</ele>
        <time>2021-03-18T10:22:06Z</time>
      </trkpt>
      <trkpt lat="46.51762" lon="0.5776">
        <ele>112.18344098981</ele>
        <time>2021-03-18T10:22:08Z</time>
      </trkpt>
      <trkpt lat="46.51763" lon="0.57757">
        <ele>112.28832501359</ele>
        <time>2021-03-18T10:22:10Z</time>
      </trkpt>
      <trkpt lat="46.51764" lon="0.57753">
        <ele>112.3983594384</ele>
        <time>2021-03-18T10:22:12Z</time>
      </trkpt>
      <trkpt lat="46.51765" lon="0.5775">
        <ele>112.32926745247</ele>
        <time>2021-03-18T10:22:14Z</time>
      </trkpt>
      <trkpt lat="46.51766" lon="0.57747">
        <ele>112.534178962</ele>
        <time>2021-03-18T10:22:16Z</time>
      </trkpt>
      <trkpt lat="46.51767" lon="0.57743">
        <ele>112.40840817895</ele>
        <time>2021-03-18T10:22:18Z</time>
      </trkpt>
      <trkpt lat="46.51768" lon="0.5774">
        <ele>112.35630137753</ele>
        <time>2021-03-18T10:22:20Z</time>
      </trkpt>
      <trkpt lat="46.51769" lon="0.57736">
        <ele>112.63521141373</ele>
        <time>2021-03-18T10:22:22Z</time>
      </trkpt>
      <trkpt lat="46.5177" lon="0.57732">
        <ele>112.55983325653</ele>
        <time>2021-03-18T10:22:24Z</time>
      </trkpt>
      <trkpt lat="46.51771" lon="0.57729">
        <ele>112.87867722381</ele>
        <time>2021-03-18T10:22:26Z</time>
      </trkpt>
      <trkpt lat="46.51772" lon="0.57726">
        <ele>113.17885104287</ele>
        <time>2021-03-18T10:22:28Z</time>
      </trkpt>
      <trkpt lat="46.51772" lon="0.57722">
        <ele>112.89197582658</ele>
        <time>2021-03-18T10:22:30Z</time>
      </trkpt>
      <trkpt lat="46.51774" lon="0.57718">
        <ele>112.98784267809</ele>
        <time>2021-03-18T10:22:32Z</time>
      </trkpt>
      <trkpt lat="46.51774" lon="0.57714">
        <ele>112.31577144377</ele>
        <time>2021-03-18T10:22:34Z</time>
      </trkpt>
      <trkpt lat="46.51775" lon="0.57711">
        <ele>112.83402625099</ele>
        <time>2021-03-18T10:22:36Z</time>
      </trkpt>
      <trkpt lat="46.51777" lon="0.57706">
        <ele>112.87939169165</ele>
        <time>2021-03-18T10:22:38Z</time>
      </trkpt>
      <trkpt lat="46.51777" lon="0.57703">
        <ele>112.7396846097</ele>
        <time>2021-03-18T10:22:40Z</time>
      </trkpt>
      <trkpt lat="46.51778" lon="0.577">
        <ele>112.8186249556</ele>
        <time>2021-03-18T10:22:42Z</time>
      </trkpt>
      <trkpt lat="46.51779" lon="0.57696">
        <ele>112.7413309142</ele>
        <time>2021-03-18T10:22:44Z</time>
      </trkpt>
      <trkpt lat="46.5178" lon="0.57693">
        <ele>112.7862114897</ele>
        <time>2021-03-18T10:22:46Z</time>
      </trkpt>
      <trkpt lat="46.51781" lon="0.57689">
        <ele>113.33943130728</ele>
        <time>2021-03-18T10:22:48Z</time>
      </trkpt>
      <trkpt lat="46.51782" lon="0.57686">
        <ele>112.86000108626</ele>
        <time>2021-03-18T10:22:50Z</time>
      </trkpt>
      <trkpt lat="46.51783" lon="0.57683">
        <ele>112.64379377663</ele>
        <time>2021-03-18T10:22:52Z</time>
      </trkpt>
      <trkpt lat="46.51784" lon="0.57679">
        <ele>113.03010199219</ele>
        <time>2021-03-18T10:22:54Z</time>
      </trkpt>
      <trkpt lat="46.51784" lon="0.57676">
        <ele>112.33575210348</ele>
        <time>2021-03-18T10:22:56Z</time>
      </trkpt>
      <trkpt lat="46.51785" lon="0.57673">
        <ele>112.81987625826</ele>
        <time>2021-03-18T10:22:58Z</time>
      </trkpt>
      <trkpt lat="46.51786" lon="0.57669">
        <ele>112.73517337814</ele>
        <time>2021-03-18T10:23:00Z</time>
      </trkpt>
      <trkpt lat="46.51787" lon="0.57666">
        <ele>112.84063584637</ele>
        <time>2021-03-18T10:23:02Z</time>
      </trkpt>
      <trkpt lat="46.51788" lon="0.57663">
        <ele>113.53349575773</ele>
        <time>2021-03-18T10:23:04Z</time>
      </trkpt>
      <trkpt lat="46.51789" lon="0.57659">
        <ele>113.48844177276</ele>
        <time>2021-03-18T10:23:06Z</time>
      </trkpt>
      <trkpt lat="46.51789" lon="0.57657">
        <ele>113.08459181897</ele>
        <time>2021-03-18T10:23:08Z</time>
      </trkpt>
      <trkpt lat="46.5179" lon="0.57654">
        <ele>113.22949146852</ele>
        <time>2021-03-18T10:23:09Z</time>
      </trkpt>
      <trkpt lat="46.51791" lon="0.5765">
        <ele>113.05467201676</ele>
        <time>2021-03-18T10:23:11Z</time>
      </trkpt>
      <trkpt lat="46.51792" lon="0.57647">
        <ele>113.68530123029</ele>
        <time>2021-03-18T10:23:13Z</time>
      </trkpt>
      <trkpt lat="46.51792" lon="0.57644">
        <ele>112.86226242594</ele>
        <time>2021-03-18T10:23:15Z</time>
      </trkpt>
      <trkpt lat="46.51793" lon="0.5764">
        <ele>112.62610811833</ele>
        <time>2021-03-18T10:23:17Z</time>
      </trkpt>
      <trkpt lat="46.51794" lon="0.57636">
        <ele>113.70657074172</ele>
        <time>2021-03-18T10:23:19Z</time>
      </trkpt>
      <trkpt lat="46.51795" lon="0.57632">
        <ele>112.59442548547</ele>
        <time>2021-03-18T10:23:21Z</time>
      </trkpt>
      <trkpt lat="46.51796" lon="0.57628">
        <ele>112.4372815853</ele>
        <time>2021-03-18T10:23:24Z</time>
      </trkpt>
      <trkpt lat="46.51797" lon="0.57624">
        <ele>112.65346398298</ele>
        <time>2021-03-18T10:23:26Z</time>
      </trkpt>
      <trkpt lat="46.51798" lon="0.57621">
        <ele>112.78645980824</ele>
        <time>2021-03-18T10:23:28Z</time>
      </trkpt>
      <trkpt lat="46.51799" lon="0.57617">
        <ele>112.37567343097</ele>
        <time>2021-03-18T10:23:30Z</time>
      </trkpt>
      <trkpt lat="46.51799" lon="0.57615">
        <ele>112.75947229564</ele>
        <time>2021-03-18T10:23:31Z</time>
      </trkpt>
      <trkpt lat="46.51799" lon="0.57612">
        <ele>112.82862491533</ele>
        <time>2021-03-18T10:23:33Z</time>
      </trkpt>
      <trkpt lat="46.518" lon="0.57608">
        <ele>112.18309849873</ele>
        <time>2021-03-18T10:23:35Z</time>
      </trkpt>
      <trkpt lat="46.51801" lon="0.57604">
        <ele>112.79933642223</ele>
        <time>2021-03-18T10:23:37Z</time>
      </trkpt>
      <trkpt lat="46.51801" lon="0.576">
        <ele>112.7170305606</ele>
        <time>2021-03-18T10:23:39Z</time>
      </trkpt>
      <trkpt lat="46.51801" lon="0.57597">
        <ele>112.9035963146</ele>
        <time>2021-03-18T10:23:41Z</time>
      </trkpt>
      <trkpt lat="46.51802" lon="0.57593">
        <ele>112.63486029208</ele>
        <time>2021-03-18T10:23:43Z</time>
      </trkpt>
      <trkpt lat="46.51802" lon="0.57589">
        <ele>112.67270656582</ele>
        <time>2021-03-18T10:23:45Z</time>
      </trkpt>
      <trkpt lat="46.51802" lon="0.57584">
        <ele>112.21995619591</ele>
        <time>2021-03-18T10:23:47Z</time>
      </trkpt>
      <trkpt lat="46.51803" lon="0.57582">
        <ele>112.09823450632</ele>
        <time>2021-03-18T10:23:49Z</time>
      </trkpt>
      <trkpt lat="46.51803" lon="0.57577">
        <ele>112.51391656417</ele>
        <time>2021-03-18T10:23:51Z</time>
      </trkpt>
      <trkpt lat="46.51803" lon="0.57573">
        <ele>113.12358175963</ele>
        <time>2021-03-18T10:23:53Z</time>
      </trkpt>
      <trkpt lat="46.51803" lon="0.57569">
        <ele>112.0763140535</ele>
        <time>2021-03-18T10:23:55Z</time>
      </trkpt>
      <trkpt lat="46.51803" lon="0.57565">
        <ele>111.74438059982</ele>
        <time>2021-03-18T10:23:57Z</time>
      </trkpt>
      <trkpt lat="46.51803" lon="0.57562">
        <ele>111.69696074352</ele>
        <time>2021-03-18T10:23:59Z</time>
      </trkpt>
      <trkpt lat="46.51803" lon="0.57558">
        <ele>112.14781688154</ele>
        <time>2021-03-18T10:24:01Z</time>
      </trkpt>
      <trkpt lat="46.51803" lon="0.57555">
        <ele>111.75217139721</ele>
        <time>2021-03-18T10:24:03Z</time>
      </trkpt>
      <trkpt lat="46.51803" lon="0.57552">
        <ele>111.80950225983</ele>
        <time>2021-03-18T10:24:05Z</time>
      </trkpt>
      <trkpt lat="46.51804" lon="0.57547">
        <ele>111.66668947414</ele>
        <time>2021-03-18T10:24:07Z</time>
      </trkpt>
      <trkpt lat="46.51803" lon="0.57544">
        <ele>111.55238287244</ele>
        <time>2021-03-18T10:24:09Z</time>
      </trkpt>
      <trkpt lat="46.51803" lon="0.5754">
        <ele>111.55325104762</ele>
        <time>2021-03-18T10:24:11Z</time>
      </trkpt>
      <trkpt lat="46.51804" lon="0.57536">
        <ele>111.68186768703</ele>
        <time>2021-03-18T10:24:13Z</time>
      </trkpt>
      <trkpt lat="46.51804" lon="0.57532">
        <ele>111.49824995175</ele>
        <time>2021-03-18T10:24:15Z</time>
      </trkpt>
      <trkpt lat="46.51804" lon="0.57527">
        <ele>111.45940827485</ele>
        <time>2021-03-18T10:24:17Z</time>
      </trkpt>
      <trkpt lat="46.51804" lon="0.57524">
        <ele>111.53032155707</ele>
        <time>2021-03-18T10:24:19Z</time>
      </trkpt>
      <trkpt lat="46.51806" lon="0.5752">
        <ele>111.58638066705</ele>
        <time>2021-03-18T10:24:21Z</time>
      </trkpt>
      <trkpt lat="46.51806" lon="0.57516">
        <ele>111.67725319508</ele>
        <time>2021-03-18T10:24:23Z</time>
      </trkpt>
      <trkpt lat="46.51806" lon="0.57512">
        <ele>111.33609786071</ele>
        <time>2021-03-18T10:24:25Z</time>
      </trkpt>
      <trkpt lat="46.51808" lon="0.57509">
        <ele>111.05664621294</ele>
        <time>2021-03-18T10:24:27Z</time>
      </trkpt>
      <trkpt lat="46.51809" lon="0.57506">
        <ele>110.58935167547</ele>
        <time>2021-03-18T10:24:29Z</time>
      </trkpt>
      <trkpt lat="46.5181" lon="0.57501">
        <ele>110.85488471389</ele>
        <time>2021-03-18T10:24:31Z</time>
      </trkpt>
      <trkpt lat="46.51811" lon="0.57498">
        <ele>110.97880293243</ele>
        <time>2021-03-18T10:24:34Z</time>
      </trkpt>
      <trkpt lat="46.51812" lon="0.57494">
        <ele>110.8643520074</ele>
        <time>2021-03-18T10:24:36Z</time>
      </trkpt>
      <trkpt lat="46.51814" lon="0.5749">
        <ele>110.75033515319</ele>
        <time>2021-03-18T10:24:38Z</time>
      </trkpt>
      <trkpt lat="46.51815" lon="0.57487">
        <ele>110.52699014265</ele>
        <time>2021-03-18T10:24:40Z</time>
      </trkpt>
      <trkpt lat="46.51816" lon="0.57484">
        <ele>110.43507582508</ele>
        <time>2021-03-18T10:24:42Z</time>
      </trkpt>
      <trkpt lat="46.51818" lon="0.5748">
        <ele>110.68790059816</ele>
        <time>2021-03-18T10:24:44Z</time>
      </trkpt>
      <trkpt lat="46.51819" lon="0.57478">
        <ele>110.53322139382</ele>
        <time>2021-03-18T10:24:46Z</time>
      </trkpt>
      <trkpt lat="46.51821" lon="0.57475">
        <ele>111.24157948792</ele>
        <time>2021-03-18T10:24:48Z</time>
      </trkpt>
      <trkpt lat="46.51823" lon="0.57472">
        <ele>111.21113121696</ele>
        <time>2021-03-18T10:24:50Z</time>
      </trkpt>
      <trkpt lat="46.51824" lon="0.57469">
        <ele>110.82105295919</ele>
        <time>2021-03-18T10:24:52Z</time>
      </trkpt>
      <trkpt lat="46.51825" lon="0.57466">
        <ele>111.02468056418</ele>
        <time>2021-03-18T10:24:53Z</time>
      </trkpt>
      <trkpt lat="46.51826" lon="0.57462">
        <ele>109.99254318513</ele>
        <time>2021-03-18T10:24:56Z</time>
      </trkpt>
      <trkpt lat="46.51827" lon="0.57459">
        <ele>110.7993658185</ele>
        <time>2021-03-18T10:24:58Z</time>
      </trkpt>
      <trkpt lat="46.51828" lon="0.57456">
        <ele>110.20949288644</ele>
        <time>2021-03-18T10:25:00Z</time>
      </trkpt>
      <trkpt lat="46.51829" lon="0.57452">
        <ele>110.56471438799</ele>
        <time>2021-03-18T10:25:02Z</time>
      </trkpt>
      <trkpt lat="46.5183" lon="0.57449">
        <ele>110.78688710835</ele>
        <time>2021-03-18T10:25:04Z</time>
      </trkpt>
      <trkpt lat="46.51831" lon="0.57445">
        <ele>110.43367304746</ele>
        <time>2021-03-18T10:25:06Z</time>
      </trkpt>
      <trkpt lat="46.51832" lon="0.57442">
        <ele>110.57273821812</ele>
        <time>2021-03-18T10:25:08Z</time>
      </trkpt>
      <trkpt lat="46.51833" lon="0.57438">
        <ele>110.9440030288</ele>
        <time>2021-03-18T10:25:10Z</time>
      </trkpt>
      <trkpt lat="46.51833" lon="0.57435">
        <ele>110.81243018806</ele>
        <time>2021-03-18T10:25:12Z</time>
      </trkpt>
      <trkpt lat="46.51834" lon="0.57431">
        <ele>110.83368632849</ele>
        <time>2021-03-18T10:25:14Z</time>
      </trkpt>
      <trkpt lat="46.51835" lon="0.57427">
        <ele>110.58073538914</ele>
        <time>2021-03-18T10:25:16Z</time>
      </trkpt>
      <trkpt lat="46.51836" lon="0.57424">
        <ele>110.67493584938</ele>
        <time>2021-03-18T10:25:18Z</time>
      </trkpt>
      <trkpt lat="46.51836" lon="0.57419">
        <ele>110.60451663658</ele>
        <time>2021-03-18T10:25:20Z</time>
      </trkpt>
      <trkpt lat="46.51837" lon="0.57416">
        <ele>110.71644960064</ele>
        <time>2021-03-18T10:25:23Z</time>
      </trkpt>
      <trkpt lat="46.51837" lon="0.57412">
        <ele>110.83651593048</ele>
        <time>2021-03-18T10:25:25Z</time>
      </trkpt>
      <trkpt lat="46.51837" lon="0.57407">
        <ele>110.63816028461</ele>
        <time>2021-03-18T10:25:27Z</time>
      </trkpt>
      <trkpt lat="46.51837" lon="0.57404">
        <ele>111.06554448511</ele>
        <time>2021-03-18T10:25:29Z</time>
      </trkpt>
      <trkpt lat="46.51837" lon="0.574">
        <ele>111.57740035187</ele>
        <time>2021-03-18T10:25:31Z</time>
      </trkpt>
      <trkpt lat="46.51838" lon="0.57396">
        <ele>111.68240133021</ele>
        <time>2021-03-18T10:25:33Z</time>
      </trkpt>
      <trkpt lat="46.51838" lon="0.57392">
        <ele>111.80075975973</ele>
        <time>2021-03-18T10:25:35Z</time>
      </trkpt>
      <trkpt lat="46.51838" lon="0.57388">
        <ele>111.51533010323</ele>
        <time>2021-03-18T10:25:37Z</time>
      </trkpt>
      <trkpt lat="46.51839" lon="0.57385">
        <ele>111.58621861693</ele>
        <time>2021-03-18T10:25:39Z</time>
      </trkpt>
      <trkpt lat="46.51839" lon="0.5738">
        <ele>111.70992457867</ele>
        <time>2021-03-18T10:25:41Z</time>
      </trkpt>
      <trkpt lat="46.51839" lon="0.57377">
        <ele>111.29932152946</ele>
        <time>2021-03-18T10:25:43Z</time>
      </trkpt>
      <trkpt lat="46.51839" lon="0.57373">
        <ele>112.3352775462</ele>
        <time>2021-03-18T10:25:45Z</time>
      </trkpt>
      <trkpt lat="46.51839" lon="0.57369">
        <ele>112.18210605253</ele>
        <time>2021-03-18T10:25:47Z</time>
      </trkpt>
      <trkpt lat="46.51839" lon="0.57366">
        <ele>111.99260748737</ele>
        <time>2021-03-18T10:25:49Z</time>
      </trkpt>
      <trkpt lat="46.51839" lon="0.57362">
        <ele>112.29840749782</ele>
        <time>2021-03-18T10:25:51Z</time>
      </trkpt>
      <trkpt lat="46.5184" lon="0.57359">
        <ele>112.09411524702</ele>
        <time>2021-03-18T10:25:53Z</time>
      </trkpt>
      <trkpt lat="46.5184" lon="0.57354">
        <ele>112.23480413668</ele>
        <time>2021-03-18T10:25:55Z</time>
      </trkpt>
      <trkpt lat="46.5184" lon="0.5735">
        <ele>112.44703681022</ele>
        <time>2021-03-18T10:25:57Z</time>
      </trkpt>
      <trkpt lat="46.5184" lon="0.57347">
        <ele>112.2762867203</ele>
        <time>2021-03-18T10:25:59Z</time>
      </trkpt>
      <trkpt lat="46.5184" lon="0.57343">
        <ele>112.51507787034</ele>
        <time>2021-03-18T10:26:01Z</time>
      </trkpt>
      <trkpt lat="46.5184" lon="0.57339">
        <ele>111.90344068967</ele>
        <time>2021-03-18T10:26:03Z</time>
      </trkpt>
      <trkpt lat="46.5184" lon="0.57336">
        <ele>112.52274338063</ele>
        <time>2021-03-18T10:26:05Z</time>
      </trkpt>
      <trkpt lat="46.5184" lon="0.57333">
        <ele>112.11396684032</ele>
        <time>2021-03-18T10:26:07Z</time>
      </trkpt>
      <trkpt lat="46.5184" lon="0.57329">
        <ele>112.51085988712</ele>
        <time>2021-03-18T10:26:09Z</time>
      </trkpt>
      <trkpt lat="46.5184" lon="0.57325">
        <ele>112.62326485291</ele>
        <time>2021-03-18T10:26:11Z</time>
      </trkpt>
      <trkpt lat="46.51841" lon="0.57322">
        <ele>113.05834349617</ele>
        <time>2021-03-18T10:26:13Z</time>
      </trkpt>
      <trkpt lat="46.51841" lon="0.57317">
        <ele>113.05914238468</ele>
        <time>2021-03-18T10:26:15Z</time>
      </trkpt>
      <trkpt lat="46.51842" lon="0.57314">
        <ele>113.24165754672</ele>
        <time>2021-03-18T10:26:17Z</time>
      </trkpt>
      <trkpt lat="46.51841" lon="0.57311">
        <ele>113.65218639281</ele>
        <time>2021-03-18T10:26:19Z</time>
      </trkpt>
      <trkpt lat="46.51841" lon="0.57307">
        <ele>113.92732793838</ele>
        <time>2021-03-18T10:26:21Z</time>
      </trkpt>
      <trkpt lat="46.51841" lon="0.57304">
        <ele>113.68018218502</ele>
        <time>2021-03-18T10:26:23Z</time>
      </trkpt>
      <trkpt lat="46.51841" lon="0.57301">
        <ele>115.0143619217</ele>
        <time>2021-03-18T10:26:25Z</time>
      </trkpt>
      <trkpt lat="46.51842" lon="0.57297">
        <ele>113.61269219592</ele>
        <time>2021-03-18T10:26:27Z</time>
      </trkpt>
      <trkpt lat="46.51842" lon="0.57294">
        <ele>114.32441439573</ele>
        <time>2021-03-18T10:26:29Z</time>
      </trkpt>
      <trkpt lat="46.51842" lon="0.5729">
        <ele>114.14025291242</ele>
        <time>2021-03-18T10:26:31Z</time>
      </trkpt>
      <trkpt lat="46.51842" lon="0.57286">
        <ele>114.56786934938</ele>
        <time>2021-03-18T10:26:33Z</time>
      </trkpt>
      <trkpt lat="46.51842" lon="0.57283">
        <ele>114.8893182911</ele>
        <time>2021-03-18T10:26:35Z</time>
      </trkpt>
      <trkpt lat="46.51842" lon="0.5728">
        <ele>115.08743650187</ele>
        <time>2021-03-18T10:26:37Z</time>
      </trkpt>
      <trkpt lat="46.51842" lon="0.57277">
        <ele>115.15585001372</ele>
        <time>2021-03-18T10:26:39Z</time>
      </trkpt>
      <trkpt lat="46.51843" lon="0.57273">
        <ele>114.88142200839</ele>
        <time>2021-03-18T10:26:41Z</time>
      </trkpt>
      <trkpt lat="46.51842" lon="0.5727">
        <ele>114.38029291015</ele>
        <time>2021-03-18T10:26:43Z</time>
      </trkpt>
      <trkpt lat="46.51842" lon="0.57266">
        <ele>115.33909981605</ele>
        <time>2021-03-18T10:26:45Z</time>
      </trkpt>
      <trkpt lat="46.51842" lon="0.57262">
        <ele>116.03782257158</ele>
        <time>2021-03-18T10:26:47Z</time>
      </trkpt>
      <trkpt lat="46.51842" lon="0.57258">
        <ele>115.79673815612</ele>
        <time>2021-03-18T10:26:49Z</time>
      </trkpt>
      <trkpt lat="46.51843" lon="0.57255">
        <ele>115.85469819885</ele>
        <time>2021-03-18T10:26:51Z</time>
      </trkpt>
      <trkpt lat="46.51843" lon="0.57251">
        <ele>115.49994098954</ele>
        <time>2021-03-18T10:26:53Z</time>
      </trkpt>
      <trkpt lat="46.51843" lon="0.57248">
        <ele>115.32328324765</ele>
        <time>2021-03-18T10:26:55Z</time>
      </trkpt>
      <trkpt lat="46.51843" lon="0.57246">
        <ele>115.73243672401</ele>
        <time>2021-03-18T10:26:57Z</time>
      </trkpt>
      <trkpt lat="46.51844" lon="0.57241">
        <ele>116.06623168476</ele>
        <time>2021-03-18T10:26:59Z</time>
      </trkpt>
      <trkpt lat="46.51844" lon="0.57238">
        <ele>115.96711458638</ele>
        <time>2021-03-18T10:27:01Z</time>
      </trkpt>
      <trkpt lat="46.51844" lon="0.57235">
        <ele>115.95668370929</ele>
        <time>2021-03-18T10:27:03Z</time>
      </trkpt>
      <trkpt lat="46.51844" lon="0.57231">
        <ele>116.05921733566</ele>
        <time>2021-03-18T10:27:05Z</time>
      </trkpt>
      <trkpt lat="46.51844" lon="0.57227">
        <ele>116.14322198462</ele>
        <time>2021-03-18T10:27:07Z</time>
      </trkpt>
      <trkpt lat="46.51844" lon="0.57223">
        <ele>116.28825663216</ele>
        <time>2021-03-18T10:27:09Z</time>
      </trkpt>
      <trkpt lat="46.51844" lon="0.57218">
        <ele>116.57587236818</ele>
        <time>2021-03-18T10:27:11Z</time>
      </trkpt>
      <trkpt lat="46.51844" lon="0.57216">
        <ele>116.88332075905</ele>
        <time>2021-03-18T10:27:13Z</time>
      </trkpt>
      <trkpt lat="46.51845" lon="0.57212">
        <ele>116.8242346542</ele>
        <time>2021-03-18T10:27:15Z</time>
      </trkpt>
      <trkpt lat="46.51845" lon="0.57209">
        <ele>117.20570344012</ele>
        <time>2021-03-18T10:27:17Z</time>
      </trkpt>
      <trkpt lat="46.51845" lon="0.57206">
        <ele>117.13018773962</ele>
        <time>2021-03-18T10:27:19Z</time>
      </trkpt>
      <trkpt lat="46.51846" lon="0.57202">
        <ele>117.66010915022</ele>
        <time>2021-03-18T10:27:21Z</time>
      </trkpt>
      <trkpt lat="46.51845" lon="0.57198">
        <ele>117.7594479043</ele>
        <time>2021-03-18T10:27:23Z</time>
      </trkpt>
      <trkpt lat="46.51846" lon="0.57195">
        <ele>117.5966591211</ele>
        <time>2021-03-18T10:27:25Z</time>
      </trkpt>
      <trkpt lat="46.51846" lon="0.57191">
        <ele>117.87522832118</ele>
        <time>2021-03-18T10:27:27Z</time>
      </trkpt>
      <trkpt lat="46.51846" lon="0.57188">
        <ele>118.00566173065</ele>
        <time>2021-03-18T10:27:29Z</time>
      </trkpt>
      <trkpt lat="46.51846" lon="0.57185">
        <ele>117.67957297061</ele>
        <time>2021-03-18T10:27:31Z</time>
      </trkpt>
      <trkpt lat="46.51846" lon="0.57181">
        <ele>117.73555636313</ele>
        <time>2021-03-18T10:27:33Z</time>
      </trkpt>
      <trkpt lat="46.51846" lon="0.57177">
        <ele>118.1336845858</ele>
        <time>2021-03-18T10:27:35Z</time>
      </trkpt>
      <trkpt lat="46.51847" lon="0.57173">
        <ele>118.51924777217</ele>
        <time>2021-03-18T10:27:37Z</time>
      </trkpt>
      <trkpt lat="46.51847" lon="0.5717">
        <ele>118.24267111439</ele>
        <time>2021-03-18T10:27:39Z</time>
      </trkpt>
      <trkpt lat="46.51847" lon="0.57167">
        <ele>118.48102971539</ele>
        <time>2021-03-18T10:27:41Z</time>
      </trkpt>
      <trkpt lat="46.51847" lon="0.57164">
        <ele>118.56072897464</ele>
        <time>2021-03-18T10:27:43Z</time>
      </trkpt>
      <trkpt lat="46.51848" lon="0.5716">
        <ele>119.15334611107</ele>
        <time>2021-03-18T10:27:45Z</time>
      </trkpt>
      <trkpt lat="46.51848" lon="0.57156">
        <ele>119.14939342998</ele>
        <time>2021-03-18T10:27:48Z</time>
      </trkpt>
      <trkpt lat="46.51848" lon="0.57152">
        <ele>118.97212065849</ele>
        <time>2021-03-18T10:27:50Z</time>
      </trkpt>
      <trkpt lat="46.51848" lon="0.57149">
        <ele>119.47165082395</ele>
        <time>2021-03-18T10:27:52Z</time>
      </trkpt>
      <trkpt lat="46.51848" lon="0.57145">
        <ele>118.85424636118</ele>
        <time>2021-03-18T10:27:54Z</time>
      </trkpt>
      <trkpt lat="46.51848" lon="0.57142">
        <ele>119.11053012498</ele>
        <time>2021-03-18T10:27:56Z</time>
      </trkpt>
      <trkpt lat="46.51848" lon="0.57139">
        <ele>119.55813644268</ele>
        <time>2021-03-18T10:27:58Z</time>
      </trkpt>
      <trkpt lat="46.51848" lon="0.57134">
        <ele>119.91180093307</ele>
        <time>2021-03-18T10:28:00Z</time>
      </trkpt>
      <trkpt lat="46.51848" lon="0.57132">
        <ele>119.74444388691</ele>
        <time>2021-03-18T10:28:02Z</time>
      </trkpt>
      <trkpt lat="46.51848" lon="0.57129">
        <ele>119.3544055298</ele>
        <time>2021-03-18T10:28:04Z</time>
      </trkpt>
      <trkpt lat="46.51849" lon="0.57125">
        <ele>119.63454649318</ele>
        <time>2021-03-18T10:28:06Z</time>
      </trkpt>
      <trkpt lat="46.51849" lon="0.57121">
        <ele>119.80737889931</ele>
        <time>2021-03-18T10:28:08Z</time>
      </trkpt>
      <trkpt lat="46.51849" lon="0.57117">
        <ele>119.37913490739</ele>
        <time>2021-03-18T10:28:10Z</time>
      </trkpt>
      <trkpt lat="46.51849" lon="0.57113">
        <ele>119.60597958136</ele>
        <time>2021-03-18T10:28:12Z</time>
      </trkpt>
      <trkpt lat="46.51849" lon="0.57109">
        <ele>119.77063555084</ele>
        <time>2021-03-18T10:28:14Z</time>
      </trkpt>
      <trkpt lat="46.5185" lon="0.57106">
        <ele>120.62746102735</ele>
        <time>2021-03-18T10:28:16Z</time>
      </trkpt>
      <trkpt lat="46.5185" lon="0.57102">
        <ele>120.37082550023</ele>
        <time>2021-03-18T10:28:18Z</time>
      </trkpt>
      <trkpt lat="46.51851" lon="0.57098">
        <ele>120.79644546378</ele>
        <time>2021-03-18T10:28:20Z</time>
      </trkpt>
      <trkpt lat="46.51851" lon="0.57095">
        <ele>120.36286007706</ele>
        <time>2021-03-18T10:28:22Z</time>
      </trkpt>
      <trkpt lat="46.51851" lon="0.57091">
        <ele>120.44133544154</ele>
        <time>2021-03-18T10:28:24Z</time>
      </trkpt>
      <trkpt lat="46.51851" lon="0.57087">
        <ele>120.76153683756</ele>
        <time>2021-03-18T10:28:26Z</time>
      </trkpt>
      <trkpt lat="46.51852" lon="0.57084">
        <ele>121.12689454854</ele>
        <time>2021-03-18T10:28:28Z</time>
      </trkpt>
      <trkpt lat="46.51852" lon="0.57079">
        <ele>121.11295336671</ele>
        <time>2021-03-18T10:28:31Z</time>
      </trkpt>
      <trkpt lat="46.51851" lon="0.57075">
        <ele>121.11717448477</ele>
        <time>2021-03-18T10:28:33Z</time>
      </trkpt>
      <trkpt lat="46.51852" lon="0.57072">
        <ele>121.11295813788</ele>
        <time>2021-03-18T10:28:35Z</time>
      </trkpt>
      <trkpt lat="46.51852" lon="0.57069">
        <ele>121.37319467403</ele>
        <time>2021-03-18T10:28:37Z</time>
      </trkpt>
      <trkpt lat="46.51852" lon="0.57065">
        <ele>121.62216517422</ele>
        <time>2021-03-18T10:28:39Z</time>
      </trkpt>
      <trkpt lat="46.51852" lon="0.57063">
        <ele>122.02264610212</ele>
        <time>2021-03-18T10:28:41Z</time>
      </trkpt>
      <trkpt lat="46.51852" lon="0.57059">
        <ele>121.94108163659</ele>
        <time>2021-03-18T10:28:43Z</time>
      </trkpt>
      <trkpt lat="46.51852" lon="0.57054">
        <ele>121.95173936617</ele>
        <time>2021-03-18T10:28:45Z</time>
      </trkpt>
      <trkpt lat="46.51853" lon="0.57052">
        <ele>121.50569206104</ele>
        <time>2021-03-18T10:28:47Z</time>
      </trkpt>
      <trkpt lat="46.51853" lon="0.57047">
        <ele>121.88228155673</ele>
        <time>2021-03-18T10:28:49Z</time>
      </trkpt>
      <trkpt lat="46.51853" lon="0.57044">
        <ele>121.40834202338</ele>
        <time>2021-03-18T10:28:51Z</time>
      </trkpt>
      <trkpt lat="46.51853" lon="0.5704">
        <ele>121.5876236707</ele>
        <time>2021-03-18T10:28:53Z</time>
      </trkpt>
      <trkpt lat="46.51853" lon="0.57037">
        <ele>122.23306242656</ele>
        <time>2021-03-18T10:28:55Z</time>
      </trkpt>
      <trkpt lat="46.51853" lon="0.57033">
        <ele>121.49847574905</ele>
        <time>2021-03-18T10:28:57Z</time>
      </trkpt>
      <trkpt lat="46.51853" lon="0.57029">
        <ele>121.91329845879</ele>
        <time>2021-03-18T10:28:59Z</time>
      </trkpt>
      <trkpt lat="46.51854" lon="0.57026">
        <ele>121.67734561954</ele>
        <time>2021-03-18T10:29:01Z</time>
      </trkpt>
      <trkpt lat="46.51854" lon="0.57022">
        <ele>122.59818773437</ele>
        <time>2021-03-18T10:29:03Z</time>
      </trkpt>
      <trkpt lat="46.51854" lon="0.57018">
        <ele>122.46478115115</ele>
        <time>2021-03-18T10:29:05Z</time>
      </trkpt>
      <trkpt lat="46.51854" lon="0.57014">
        <ele>122.00775667001</ele>
        <time>2021-03-18T10:29:07Z</time>
      </trkpt>
      <trkpt lat="46.51854" lon="0.5701">
        <ele>121.75382442214</ele>
        <time>2021-03-18T10:29:09Z</time>
      </trkpt>
      <trkpt lat="46.51854" lon="0.57007">
        <ele>122.25427624211</ele>
        <time>2021-03-18T10:29:11Z</time>
      </trkpt>
      <trkpt lat="46.51855" lon="0.57004">
        <ele>122.26139779575</ele>
        <time>2021-03-18T10:29:13Z</time>
      </trkpt>
      <trkpt lat="46.51855" lon="0.56999">
        <ele>122.4297806574</ele>
        <time>2021-03-18T10:29:15Z</time>
      </trkpt>
      <trkpt lat="46.51855" lon="0.56996">
        <ele>122.38928332366</ele>
        <time>2021-03-18T10:29:17Z</time>
      </trkpt>
      <trkpt lat="46.51855" lon="0.56993">
        <ele>122.57528893463</ele>
        <time>2021-03-18T10:29:19Z</time>
      </trkpt>
      <trkpt lat="46.51855" lon="0.56989">
        <ele>123.0545917144</ele>
        <time>2021-03-18T10:29:21Z</time>
      </trkpt>
      <trkpt lat="46.51855" lon="0.56986">
        <ele>122.63455695752</ele>
        <time>2021-03-18T10:29:23Z</time>
      </trkpt>
      <trkpt lat="46.51856" lon="0.56982">
        <ele>122.25173760112</ele>
        <time>2021-03-18T10:29:25Z</time>
      </trkpt>
      <trkpt lat="46.51856" lon="0.56978">
        <ele>123.06885452475</ele>
        <time>2021-03-18T10:29:27Z</time>
      </trkpt>
      <trkpt lat="46.51856" lon="0.56975">
        <ele>122.78478783183</ele>
        <time>2021-03-18T10:29:29Z</time>
      </trkpt>
      <trkpt lat="46.51856" lon="0.56972">
        <ele>122.30054164678</ele>
        <time>2021-03-18T10:29:31Z</time>
      </trkpt>
      <trkpt lat="46.51856" lon="0.56968">
        <ele>122.51394616999</ele>
        <time>2021-03-18T10:29:33Z</time>
      </trkpt>
      <trkpt lat="46.51856" lon="0.56965">
        <ele>122.70696470235</ele>
        <time>2021-03-18T10:29:35Z</time>
      </trkpt>
      <trkpt lat="46.51855" lon="0.5696">
        <ele>122.51257404499</ele>
        <time>2021-03-18T10:29:37Z</time>
      </trkpt>
      <trkpt lat="46.51855" lon="0.56958">
        <ele>123.35712281335</ele>
        <time>2021-03-18T10:29:39Z</time>
      </trkpt>
      <trkpt lat="46.51856" lon="0.56953">
        <ele>123.2254871605</ele>
        <time>2021-03-18T10:29:41Z</time>
      </trkpt>
      <trkpt lat="46.51856" lon="0.56949">
        <ele>123.39083694108</ele>
        <time>2021-03-18T10:29:43Z</time>
      </trkpt>
      <trkpt lat="46.51857" lon="0.56945">
        <ele>123.85713807028</ele>
        <time>2021-03-18T10:29:45Z</time>
      </trkpt>
      <trkpt lat="46.51857" lon="0.5694">
        <ele>123.83083893545</ele>
        <time>2021-03-18T10:29:47Z</time>
      </trkpt>
      <trkpt lat="46.51857" lon="0.56937">
        <ele>123.70599754062</ele>
        <time>2021-03-18T10:29:49Z</time>
      </trkpt>
      <trkpt lat="46.51857" lon="0.56934">
        <ele>123.43083409127</ele>
        <time>2021-03-18T10:29:51Z</time>
      </trkpt>
      <trkpt lat="46.51857" lon="0.56929">
        <ele>123.48718366679</ele>
        <time>2021-03-18T10:29:53Z</time>
      </trkpt>
      <trkpt lat="46.51857" lon="0.56925">
        <ele>123.8579345867</ele>
        <time>2021-03-18T10:29:55Z</time>
      </trkpt>
      <trkpt lat="46.51857" lon="0.56921">
        <ele>124.01270853076</ele>
        <time>2021-03-18T10:29:57Z</time>
      </trkpt>
      <trkpt lat="46.51858" lon="0.56917">
        <ele>123.90942852851</ele>
        <time>2021-03-18T10:29:59Z</time>
      </trkpt>
      <trkpt lat="46.51858" lon="0.56913">
        <ele>124.26077381615</ele>
        <time>2021-03-18T10:30:01Z</time>
      </trkpt>
      <trkpt lat="46.51859" lon="0.56909">
        <ele>124.0318236053</ele>
        <time>2021-03-18T10:30:03Z</time>
      </trkpt>
      <trkpt lat="46.51858" lon="0.56905">
        <ele>124.29960126337</ele>
        <time>2021-03-18T10:30:05Z</time>
      </trkpt>
      <trkpt lat="46.51858" lon="0.56902">
        <ele>124.2536939811</ele>
        <time>2021-03-18T10:30:07Z</time>
      </trkpt>
      <trkpt lat="46.51859" lon="0.56899">
        <ele>123.91590729356</ele>
        <time>2021-03-18T10:30:09Z</time>
      </trkpt>
      <trkpt lat="46.51859" lon="0.56895">
        <ele>124.43223866541</ele>
        <time>2021-03-18T10:30:11Z</time>
      </trkpt>
      <trkpt lat="46.51859" lon="0.56891">
        <ele>124.41919627693</ele>
        <time>2021-03-18T10:30:13Z</time>
      </trkpt>
      <trkpt lat="46.51858" lon="0.56887">
        <ele>124.46386935748</ele>
        <time>2021-03-18T10:30:15Z</time>
      </trkpt>
      <trkpt lat="46.51859" lon="0.56884">
        <ele>124.75094809756</ele>
        <time>2021-03-18T10:30:17Z</time>
      </trkpt>
      <trkpt lat="46.51859" lon="0.56881">
        <ele>124.87698772177</ele>
        <time>2021-03-18T10:30:19Z</time>
      </trkpt>
      <trkpt lat="46.51859" lon="0.56876">
        <ele>124.75196343102</ele>
        <time>2021-03-18T10:30:21Z</time>
      </trkpt>
      <trkpt lat="46.51859" lon="0.56873">
        <ele>124.86772906873</ele>
        <time>2021-03-18T10:30:23Z</time>
      </trkpt>
      <trkpt lat="46.51859" lon="0.56868">
        <ele>124.77892637346</ele>
        <time>2021-03-18T10:30:25Z</time>
      </trkpt>
      <trkpt lat="46.5186" lon="0.56864">
        <ele>125.129743848</ele>
        <time>2021-03-18T10:30:27Z</time>
      </trkpt>
      <trkpt lat="46.5186" lon="0.5686">
        <ele>125.01955407578</ele>
        <time>2021-03-18T10:30:29Z</time>
      </trkpt>
      <trkpt lat="46.5186" lon="0.56857">
        <ele>124.87248890847</ele>
        <time>2021-03-18T10:30:31Z</time>
      </trkpt>
      <trkpt lat="46.51861" lon="0.56853">
        <ele>124.77934694197</ele>
        <time>2021-03-18T10:30:33Z</time>
      </trkpt>
      <trkpt lat="46.51861" lon="0.5685">
        <ele>125.25365985651</ele>
        <time>2021-03-18T10:30:35Z</time>
      </trkpt>
      <trkpt lat="46.51861" lon="0.56846">
        <ele>124.86608674098</ele>
        <time>2021-03-18T10:30:37Z</time>
      </trkpt>
      <trkpt lat="46.51861" lon="0.56842">
        <ele>124.86815850902</ele>
        <time>2021-03-18T10:30:39Z</time>
      </trkpt>
      <trkpt lat="46.51861" lon="0.56838">
        <ele>125.20187046286</ele>
        <time>2021-03-18T10:30:41Z</time>
      </trkpt>
      <trkpt lat="46.51861" lon="0.56834">
        <ele>125.18630646076</ele>
        <time>2021-03-18T10:30:43Z</time>
      </trkpt>
      <trkpt lat="46.51861" lon="0.56831">
        <ele>125.76692879666</ele>
        <time>2021-03-18T10:30:45Z</time>
      </trkpt>
      <trkpt lat="46.51861" lon="0.56827">
        <ele>125.37244067341</ele>
        <time>2021-03-18T10:30:47Z</time>
      </trkpt>
      <trkpt lat="46.51861" lon="0.56823">
        <ele>125.65122925583</ele>
        <time>2021-03-18T10:30:49Z</time>
      </trkpt>
      <trkpt lat="46.51861" lon="0.5682">
        <ele>125.92809565086</ele>
        <time>2021-03-18T10:30:51Z</time>
      </trkpt>
      <trkpt lat="46.51861" lon="0.56816">
        <ele>125.6377123585</ele>
        <time>2021-03-18T10:30:53Z</time>
      </trkpt>
      <trkpt lat="46.51861" lon="0.56812">
        <ele>125.85930443276</ele>
        <time>2021-03-18T10:30:55Z</time>
      </trkpt>
      <trkpt lat="46.51861" lon="0.56809">
        <ele>125.85961189214</ele>
        <time>2021-03-18T10:30:57Z</time>
      </trkpt>
      <trkpt lat="46.51861" lon="0.56806">
        <ele>126.01607643999</ele>
        <time>2021-03-18T10:30:59Z</time>
      </trkpt>
      <trkpt lat="46.51861" lon="0.56803">
        <ele>125.77540055476</ele>
        <time>2021-03-18T10:31:01Z</time>
      </trkpt>
      <trkpt lat="46.51861" lon="0.56799">
        <ele>125.93278575409</ele>
        <time>2021-03-18T10:31:03Z</time>
      </trkpt>
      <trkpt lat="46.51861" lon="0.56796">
        <ele>126.07038979884</ele>
        <time>2021-03-18T10:31:06Z</time>
      </trkpt>
      <trkpt lat="46.51862" lon="0.56792">
        <ele>125.86520304997</ele>
        <time>2021-03-18T10:31:09Z</time>
      </trkpt>
      <trkpt lat="46.51862" lon="0.5679">
        <ele>126.25096174981</ele>
        <time>2021-03-18T10:31:13Z</time>
      </trkpt>
      <trkpt lat="46.51864" lon="0.56792">
        <ele>126.01962691918</ele>
        <time>2021-03-18T10:32:55Z</time>
      </trkpt>
      <trkpt lat="46.51862" lon="0.56792">
        <ele>126.25540854037</ele>
        <time>2021-03-18T10:33:10Z</time>
      </trkpt>
      <trkpt lat="46.51863" lon="0.56791">
        <ele>126.15917018801</ele>
        <time>2021-03-18T10:33:26Z</time>
      </trkpt>
      <trkpt lat="46.51864" lon="0.56788">
        <ele>126.03598067071</ele>
        <time>2021-03-18T10:33:41Z</time>
      </trkpt>
      <trkpt lat="46.51863" lon="0.56786">
        <ele>126.00610264856</ele>
        <time>2021-03-18T10:34:18Z</time>
      </trkpt>
      <trkpt lat="46.51862" lon="0.56783">
        <ele>126.22220882308</ele>
        <time>2021-03-18T10:34:26Z</time>
      </trkpt>
      <trkpt lat="46.51861" lon="0.56781">
        <ele>126.09732232988</ele>
        <time>2021-03-18T10:34:29Z</time>
      </trkpt>
      <trkpt lat="46.51858" lon="0.56779">
        <ele>125.61336880177</ele>
        <time>2021-03-18T10:34:32Z</time>
      </trkpt>
      <trkpt lat="46.51856" lon="0.56779">
        <ele>125.41369371302</ele>
        <time>2021-03-18T10:34:34Z</time>
      </trkpt>
      <trkpt lat="46.51854" lon="0.56779">
        <ele>126.62917284295</ele>
        <time>2021-03-18T10:34:36Z</time>
      </trkpt>
      <trkpt lat="46.51851" lon="0.56778">
        <ele>126.30734855402</ele>
        <time>2021-03-18T10:34:39Z</time>
      </trkpt>
      <trkpt lat="46.51849" lon="0.56779">
        <ele>126.15120137017</ele>
        <time>2021-03-18T10:34:41Z</time>
      </trkpt>
      <trkpt lat="46.51847" lon="0.56778">
        <ele>127.06312878616</ele>
        <time>2021-03-18T10:34:43Z</time>
      </trkpt>
      <trkpt lat="46.51844" lon="0.56778">
        <ele>126.34217454493</ele>
        <time>2021-03-18T10:34:45Z</time>
      </trkpt>
      <trkpt lat="46.51842" lon="0.56778">
        <ele>126.69647802133</ele>
        <time>2021-03-18T10:34:47Z</time>
      </trkpt>
      <trkpt lat="46.51839" lon="0.56778">
        <ele>126.86774743348</ele>
        <time>2021-03-18T10:34:49Z</time>
      </trkpt>
      <trkpt lat="46.51836" lon="0.56777">
        <ele>125.98581463937</ele>
        <time>2021-03-18T10:34:51Z</time>
      </trkpt>
      <trkpt lat="46.51834" lon="0.56776">
        <ele>126.72833537869</ele>
        <time>2021-03-18T10:34:53Z</time>
      </trkpt>
      <trkpt lat="46.51831" lon="0.56776">
        <ele>126.48747400381</ele>
        <time>2021-03-18T10:34:55Z</time>
      </trkpt>
      <trkpt lat="46.51828" lon="0.56775">
        <ele>127.21329267323</ele>
        <time>2021-03-18T10:34:57Z</time>
      </trkpt>
      <trkpt lat="46.51825" lon="0.56774">
        <ele>126.57570358645</ele>
        <time>2021-03-18T10:34:59Z</time>
      </trkpt>
      <trkpt lat="46.51823" lon="0.56774">
        <ele>126.6369519392</ele>
        <time>2021-03-18T10:35:01Z</time>
      </trkpt>
      <trkpt lat="46.5182" lon="0.56774">
        <ele>127.23609770928</ele>
        <time>2021-03-18T10:35:03Z</time>
      </trkpt>
      <trkpt lat="46.51817" lon="0.56774">
        <ele>126.93412118591</ele>
        <time>2021-03-18T10:35:05Z</time>
      </trkpt>
      <trkpt lat="46.51814" lon="0.56773">
        <ele>126.86980823614</ele>
        <time>2021-03-18T10:35:07Z</time>
      </trkpt>
      <trkpt lat="46.51812" lon="0.56772">
        <ele>126.51968419552</ele>
        <time>2021-03-18T10:35:09Z</time>
      </trkpt>
      <trkpt lat="46.5181" lon="0.56771">
        <ele>126.61200073734</ele>
        <time>2021-03-18T10:35:11Z</time>
      </trkpt>
      <trkpt lat="46.51807" lon="0.5677">
        <ele>127.30149813462</ele>
        <time>2021-03-18T10:35:13Z</time>
      </trkpt>
      <trkpt lat="46.51805" lon="0.56769">
        <ele>127.86495718546</ele>
        <time>2021-03-18T10:35:15Z</time>
      </trkpt>
      <trkpt lat="46.51803" lon="0.56768">
        <ele>126.83316476922</ele>
        <time>2021-03-18T10:35:17Z</time>
      </trkpt>
      <trkpt lat="46.51801" lon="0.56766">
        <ele>126.97022238094</ele>
        <time>2021-03-18T10:35:19Z</time>
      </trkpt>
      <trkpt lat="46.51799" lon="0.56765">
        <ele>126.65173938405</ele>
        <time>2021-03-18T10:35:21Z</time>
      </trkpt>
      <trkpt lat="46.51797" lon="0.56763">
        <ele>127.39299446158</ele>
        <time>2021-03-18T10:35:23Z</time>
      </trkpt>
      <trkpt lat="46.51793" lon="0.56763">
        <ele>126.66246892698</ele>
        <time>2021-03-18T10:35:26Z</time>
      </trkpt>
      <trkpt lat="46.51791" lon="0.56763">
        <ele>127.09327202477</ele>
        <time>2021-03-18T10:35:28Z</time>
      </trkpt>
      <trkpt lat="46.51789" lon="0.56762">
        <ele>127.51483930834</ele>
        <time>2021-03-18T10:35:30Z</time>
      </trkpt>
      <trkpt lat="46.51786" lon="0.56762">
        <ele>127.1387543045</ele>
        <time>2021-03-18T10:35:32Z</time>
      </trkpt>
      <trkpt lat="46.51784" lon="0.56761">
        <ele>126.95497839898</ele>
        <time>2021-03-18T10:35:34Z</time>
      </trkpt>
      <trkpt lat="46.51781" lon="0.5676">
        <ele>127.61389933527</ele>
        <time>2021-03-18T10:35:36Z</time>
      </trkpt>
      <trkpt lat="46.51779" lon="0.5676">
        <ele>127.85792448744</ele>
        <time>2021-03-18T10:35:38Z</time>
      </trkpt>
      <trkpt lat="46.51777" lon="0.56759">
        <ele>127.53875699919</ele>
        <time>2021-03-18T10:35:40Z</time>
      </trkpt>
      <trkpt lat="46.51774" lon="0.56759">
        <ele>127.75964088272</ele>
        <time>2021-03-18T10:35:42Z</time>
      </trkpt>
      <trkpt lat="46.51772" lon="0.56758">
        <ele>127.64448012505</ele>
        <time>2021-03-18T10:35:44Z</time>
      </trkpt>
      <trkpt lat="46.51769" lon="0.56757">
        <ele>127.42267262936</ele>
        <time>2021-03-18T10:35:46Z</time>
      </trkpt>
      <trkpt lat="46.51767" lon="0.56757">
        <ele>127.2230404662</ele>
        <time>2021-03-18T10:35:48Z</time>
      </trkpt>
      <trkpt lat="46.51765" lon="0.56756">
        <ele>126.94005319662</ele>
        <time>2021-03-18T10:35:50Z</time>
      </trkpt>
      <trkpt lat="46.51762" lon="0.56756">
        <ele>127.04145743977</ele>
        <time>2021-03-18T10:35:52Z</time>
      </trkpt>
      <trkpt lat="46.5176" lon="0.56756">
        <ele>127.53487926815</ele>
        <time>2021-03-18T10:35:54Z</time>
      </trkpt>
      <trkpt lat="46.51757" lon="0.56756">
        <ele>127.65700982139</ele>
        <time>2021-03-18T10:35:57Z</time>
      </trkpt>
      <trkpt lat="46.51755" lon="0.56758">
        <ele>127.77548905741</ele>
        <time>2021-03-18T10:35:59Z</time>
      </trkpt>
      <trkpt lat="46.51753" lon="0.56761">
        <ele>127.29627691861</ele>
        <time>2021-03-18T10:36:01Z</time>
      </trkpt>
      <trkpt lat="46.51753" lon="0.56765">
        <ele>127.24811101984</ele>
        <time>2021-03-18T10:36:03Z</time>
      </trkpt>
      <trkpt lat="46.51753" lon="0.56768">
        <ele>127.38440269232</ele>
        <time>2021-03-18T10:36:05Z</time>
      </trkpt>
      <trkpt lat="46.51752" lon="0.56772">
        <ele>127.84366027918</ele>
        <time>2021-03-18T10:36:07Z</time>
      </trkpt>
      <trkpt lat="46.51752" lon="0.56776">
        <ele>127.74702749215</ele>
        <time>2021-03-18T10:36:09Z</time>
      </trkpt>
      <trkpt lat="46.51751" lon="0.5678">
        <ele>127.47573369835</ele>
        <time>2021-03-18T10:36:11Z</time>
      </trkpt>
      <trkpt lat="46.51751" lon="0.56783">
        <ele>127.75559990108</ele>
        <time>2021-03-18T10:36:13Z</time>
      </trkpt>
      <trkpt lat="46.51751" lon="0.56786">
        <ele>126.8540078504</ele>
        <time>2021-03-18T10:36:15Z</time>
      </trkpt>
      <trkpt lat="46.5175" lon="0.5679">
        <ele>127.10664686654</ele>
        <time>2021-03-18T10:36:17Z</time>
      </trkpt>
      <trkpt lat="46.5175" lon="0.56793">
        <ele>127.15813079569</ele>
        <time>2021-03-18T10:36:19Z</time>
      </trkpt>
      <trkpt lat="46.5175" lon="0.56797">
        <ele>126.8676059749</ele>
        <time>2021-03-18T10:36:21Z</time>
      </trkpt>
      <trkpt lat="46.5175" lon="0.568">
        <ele>126.87012310605</ele>
        <time>2021-03-18T10:36:23Z</time>
      </trkpt>
      <trkpt lat="46.5175" lon="0.56803">
        <ele>126.50944618788</ele>
        <time>2021-03-18T10:36:25Z</time>
      </trkpt>
      <trkpt lat="46.51749" lon="0.56807">
        <ele>127.06053057499</ele>
        <time>2021-03-18T10:36:27Z</time>
      </trkpt>
      <trkpt lat="46.51749" lon="0.5681">
        <ele>126.31058976799</ele>
        <time>2021-03-18T10:36:29Z</time>
      </trkpt>
      <trkpt lat="46.51749" lon="0.56814">
        <ele>126.34829963278</ele>
        <time>2021-03-18T10:36:31Z</time>
      </trkpt>
      <trkpt lat="46.51748" lon="0.56816">
        <ele>127.25837263837</ele>
        <time>2021-03-18T10:36:33Z</time>
      </trkpt>
      <trkpt lat="46.51747" lon="0.56819">
        <ele>126.52933466993</ele>
        <time>2021-03-18T10:36:35Z</time>
      </trkpt>
      <trkpt lat="46.51745" lon="0.56821">
        <ele>126.85112710297</ele>
        <time>2021-03-18T10:36:37Z</time>
      </trkpt>
      <trkpt lat="46.51742" lon="0.56823">
        <ele>126.18600246776</ele>
        <time>2021-03-18T10:36:39Z</time>
      </trkpt>
      <trkpt lat="46.5174" lon="0.56824">
        <ele>125.80196138471</ele>
        <time>2021-03-18T10:36:41Z</time>
      </trkpt>
      <trkpt lat="46.51738" lon="0.56823">
        <ele>126.72030689195</ele>
        <time>2021-03-18T10:36:43Z</time>
      </trkpt>
      <trkpt lat="46.51736" lon="0.56823">
        <ele>126.64978997037</ele>
        <time>2021-03-18T10:36:45Z</time>
      </trkpt>
      <trkpt lat="46.51734" lon="0.56822">
        <ele>126.51571595855</ele>
        <time>2021-03-18T10:36:47Z</time>
      </trkpt>
      <trkpt lat="46.51732" lon="0.56821">
        <ele>126.44993894082</ele>
        <time>2021-03-18T10:36:49Z</time>
      </trkpt>
      <trkpt lat="46.51729" lon="0.56821">
        <ele>126.46478354093</ele>
        <time>2021-03-18T10:36:51Z</time>
      </trkpt>
      <trkpt lat="46.51727" lon="0.56821">
        <ele>126.387211903</ele>
        <time>2021-03-18T10:36:53Z</time>
      </trkpt>
      <trkpt lat="46.51725" lon="0.5682">
        <ele>126.19643366523</ele>
        <time>2021-03-18T10:36:55Z</time>
      </trkpt>
      <trkpt lat="46.51722" lon="0.5682">
        <ele>126.23878713325</ele>
        <time>2021-03-18T10:36:57Z</time>
      </trkpt>
      <trkpt lat="46.51721" lon="0.56819">
        <ele>126.25890849996</ele>
        <time>2021-03-18T10:36:59Z</time>
      </trkpt>
      <trkpt lat="46.51718" lon="0.56818">
        <ele>126.30866990704</ele>
        <time>2021-03-18T10:37:01Z</time>
      </trkpt>
      <trkpt lat="46.51716" lon="0.56817">
        <ele>126.15034083184</ele>
        <time>2021-03-18T10:37:03Z</time>
      </trkpt>
      <trkpt lat="46.51714" lon="0.56816">
        <ele>125.99165615626</ele>
        <time>2021-03-18T10:37:05Z</time>
      </trkpt>
      <trkpt lat="46.51712" lon="0.56815">
        <ele>126.45437235292</ele>
        <time>2021-03-18T10:37:08Z</time>
      </trkpt>
      <trkpt lat="46.5171" lon="0.56814">
        <ele>126.71383367945</ele>
        <time>2021-03-18T10:37:10Z</time>
      </trkpt>
      <trkpt lat="46.51708" lon="0.56812">
        <ele>126.17268417124</ele>
        <time>2021-03-18T10:37:13Z</time>
      </trkpt>
      <trkpt lat="46.51706" lon="0.56811">
        <ele>126.59358814824</ele>
        <time>2021-03-18T10:37:15Z</time>
      </trkpt>
      <trkpt lat="46.51704" lon="0.5681">
        <ele>126.21526814345</ele>
        <time>2021-03-18T10:37:17Z</time>
      </trkpt>
      <trkpt lat="46.51702" lon="0.5681">
        <ele>126.38446506578</ele>
        <time>2021-03-18T10:37:20Z</time>
      </trkpt>
      <trkpt lat="46.51701" lon="0.56807">
        <ele>126.61989391688</ele>
        <time>2021-03-18T10:37:23Z</time>
      </trkpt>
      <trkpt lat="46.51699" lon="0.56804">
        <ele>126.57942526042</ele>
        <time>2021-03-18T10:37:26Z</time>
      </trkpt>
      <trkpt lat="46.51699" lon="0.568">
        <ele>126.67930966988</ele>
        <time>2021-03-18T10:37:28Z</time>
      </trkpt>
      <trkpt lat="46.51698" lon="0.56797">
        <ele>126.32709812652</ele>
        <time>2021-03-18T10:37:30Z</time>
      </trkpt>
      <trkpt lat="46.51698" lon="0.56794">
        <ele>126.37494428828</ele>
        <time>2021-03-18T10:37:32Z</time>
      </trkpt>
      <trkpt lat="46.51698" lon="0.56791">
        <ele>126.26217936259</ele>
        <time>2021-03-18T10:37:34Z</time>
      </trkpt>
      <trkpt lat="46.51698" lon="0.56786">
        <ele>126.2965631634</ele>
        <time>2021-03-18T10:37:37Z</time>
      </trkpt>
      <trkpt lat="46.51698" lon="0.56783">
        <ele>126.42889316753</ele>
        <time>2021-03-18T10:37:39Z</time>
      </trkpt>
      <trkpt lat="46.51698" lon="0.56779">
        <ele>126.31359705981</ele>
        <time>2021-03-18T10:37:42Z</time>
      </trkpt>
      <trkpt lat="46.51699" lon="0.56775">
        <ele>126.64048500918</ele>
        <time>2021-03-18T10:37:44Z</time>
      </trkpt>
      <trkpt lat="46.51699" lon="0.56771">
        <ele>127.33240764495</ele>
        <time>2021-03-18T10:37:47Z</time>
      </trkpt>
      <trkpt lat="46.51698" lon="0.56767">
        <ele>126.65247269627</ele>
        <time>2021-03-18T10:37:49Z</time>
      </trkpt>
      <trkpt lat="46.51698" lon="0.56763">
        <ele>126.6402029125</ele>
        <time>2021-03-18T10:37:51Z</time>
      </trkpt>
      <trkpt lat="46.51697" lon="0.5676">
        <ele>126.05340171698</ele>
        <time>2021-03-18T10:37:53Z</time>
      </trkpt>
      <trkpt lat="46.51697" lon="0.56757">
        <ele>126.43725468218</ele>
        <time>2021-03-18T10:37:56Z</time>
      </trkpt>
      <trkpt lat="46.51697" lon="0.56753">
        <ele>126.42799349036</ele>
        <time>2021-03-18T10:37:59Z</time>
      </trkpt>
      <trkpt lat="46.51698" lon="0.5675">
        <ele>126.37464291602</ele>
        <time>2021-03-18T10:38:01Z</time>
      </trkpt>
      <trkpt lat="46.51699" lon="0.56747">
        <ele>126.39514457993</ele>
        <time>2021-03-18T10:38:03Z</time>
      </trkpt>
      <trkpt lat="46.517" lon="0.56744">
        <ele>126.89789195266</ele>
        <time>2021-03-18T10:38:05Z</time>
      </trkpt>
      <trkpt lat="46.51701" lon="0.5674">
        <ele>127.00493983086</ele>
        <time>2021-03-18T10:38:07Z</time>
      </trkpt>
      <trkpt lat="46.51702" lon="0.56737">
        <ele>126.75419595186</ele>
        <time>2021-03-18T10:38:09Z</time>
      </trkpt>
      <trkpt lat="46.51703" lon="0.56735">
        <ele>126.89113672357</ele>
        <time>2021-03-18T10:38:11Z</time>
      </trkpt>
      <trkpt lat="46.51703" lon="0.56732">
        <ele>126.93296132609</ele>
        <time>2021-03-18T10:38:13Z</time>
      </trkpt>
      <trkpt lat="46.51705" lon="0.5673">
        <ele>127.41068740562</ele>
        <time>2021-03-18T10:38:15Z</time>
      </trkpt>
      <trkpt lat="46.51705" lon="0.56726">
        <ele>127.40483708214</ele>
        <time>2021-03-18T10:38:17Z</time>
      </trkpt>
      <trkpt lat="46.51705" lon="0.56723">
        <ele>127.20584355853</ele>
        <time>2021-03-18T10:38:20Z</time>
      </trkpt>
      <trkpt lat="46.51704" lon="0.56721">
        <ele>127.72781071253</ele>
        <time>2021-03-18T10:38:30Z</time>
      </trkpt>
      <trkpt lat="46.51702" lon="0.56719">
        <ele>127.52667668927</ele>
        <time>2021-03-18T10:39:05Z</time>
      </trkpt>
      <trkpt lat="46.517" lon="0.56721">
        <ele>127.31175675243</ele>
        <time>2021-03-18T10:39:42Z</time>
      </trkpt>
      <trkpt lat="46.51702" lon="0.56724">
        <ele>127.67397924513</ele>
        <time>2021-03-18T10:40:15Z</time>
      </trkpt>
      <trkpt lat="46.517" lon="0.56721">
        <ele>127.88339472283</ele>
        <time>2021-03-18T10:40:22Z</time>
      </trkpt>
      <trkpt lat="46.51702" lon="0.5672">
        <ele>127.8036246188</ele>
        <time>2021-03-18T10:40:50Z</time>
      </trkpt>
      <trkpt lat="46.51703" lon="0.56719">
        <ele>128.3611066509</ele>
        <time>2021-03-18T10:41:02Z</time>
      </trkpt>
      <trkpt lat="46.51705" lon="0.56718">
        <ele>127.45108169969</ele>
        <time>2021-03-18T10:42:48Z</time>
      </trkpt>
      <trkpt lat="46.51704" lon="0.5672">
        <ele>127.71629748773</ele>
        <time>2021-03-18T10:43:00Z</time>
      </trkpt>
      <trkpt lat="46.51705" lon="0.56725">
        <ele>127.80683347117</ele>
        <time>2021-03-18T10:43:03Z</time>
      </trkpt>
      <trkpt lat="46.51704" lon="0.56729">
        <ele>128.23866641708</ele>
        <time>2021-03-18T10:43:04Z</time>
      </trkpt>
      <trkpt lat="46.51702" lon="0.56732">
        <ele>127.7382869143</ele>
        <time>2021-03-18T10:43:05Z</time>
      </trkpt>
      <trkpt lat="46.517" lon="0.56737">
        <ele>127.17913763691</ele>
        <time>2021-03-18T10:43:06Z</time>
      </trkpt>
      <trkpt lat="46.51699" lon="0.56741">
        <ele>127.07226489577</ele>
        <time>2021-03-18T10:43:07Z</time>
      </trkpt>
      <trkpt lat="46.51698" lon="0.56744">
        <ele>126.78398986347</ele>
        <time>2021-03-18T10:43:08Z</time>
      </trkpt>
      <trkpt lat="46.51698" lon="0.56747">
        <ele>126.81291528139</ele>
        <time>2021-03-18T10:43:09Z</time>
      </trkpt>
      <trkpt lat="46.51696" lon="0.5675">
        <ele>126.59825143218</ele>
        <time>2021-03-18T10:43:10Z</time>
      </trkpt>
      <trkpt lat="46.51697" lon="0.56753">
        <ele>125.81432572566</ele>
        <time>2021-03-18T10:43:11Z</time>
      </trkpt>
      <trkpt lat="46.51699" lon="0.56756">
        <ele>126.28481149953</ele>
        <time>2021-03-18T10:43:13Z</time>
      </trkpt>
      <trkpt lat="46.51701" lon="0.56758">
        <ele>126.7231294699</ele>
        <time>2021-03-18T10:43:15Z</time>
      </trkpt>
      <trkpt lat="46.51703" lon="0.56757">
        <ele>126.72958371323</ele>
        <time>2021-03-18T10:43:17Z</time>
      </trkpt>
      <trkpt lat="46.51705" lon="0.56756">
        <ele>126.58165462036</ele>
        <time>2021-03-18T10:43:18Z</time>
      </trkpt>
      <trkpt lat="46.51708" lon="0.56747">
        <ele>126.83176300116</ele>
        <time>2021-03-18T10:43:20Z</time>
      </trkpt>
      <trkpt lat="46.5171" lon="0.56739">
        <ele>127.35373456404</ele>
        <time>2021-03-18T10:43:21Z</time>
      </trkpt>
      <trkpt lat="46.51712" lon="0.56731">
        <ele>127.33000493515</ele>
        <time>2021-03-18T10:43:22Z</time>
      </trkpt>
      <trkpt lat="46.51714" lon="0.56725">
        <ele>127.11901401822</ele>
        <time>2021-03-18T10:43:23Z</time>
      </trkpt>
      <trkpt lat="46.51715" lon="0.56718">
        <ele>127.15637132153</ele>
        <time>2021-03-18T10:43:24Z</time>
      </trkpt>
      <trkpt lat="46.51717" lon="0.5671">
        <ele>127.21940083336</ele>
        <time>2021-03-18T10:43:25Z</time>
      </trkpt>
      <trkpt lat="46.51719" lon="0.56702">
        <ele>127.37653508969</ele>
        <time>2021-03-18T10:43:26Z</time>
      </trkpt>
      <trkpt lat="46.51721" lon="0.56692">
        <ele>127.52720590308</ele>
        <time>2021-03-18T10:43:27Z</time>
      </trkpt>
      <trkpt lat="46.51723" lon="0.56683">
        <ele>127.26414549258</ele>
        <time>2021-03-18T10:43:28Z</time>
      </trkpt>
      <trkpt lat="46.51725" lon="0.56675">
        <ele>127.57639412489</ele>
        <time>2021-03-18T10:43:29Z</time>
      </trkpt>
      <trkpt lat="46.51727" lon="0.56667">
        <ele>127.45277320221</ele>
        <time>2021-03-18T10:43:30Z</time>
      </trkpt>
      <trkpt lat="46.51728" lon="0.56659">
        <ele>127.18153839558</ele>
        <time>2021-03-18T10:43:31Z</time>
      </trkpt>
      <trkpt lat="46.51729" lon="0.56651">
        <ele>127.17794726603</ele>
        <time>2021-03-18T10:43:32Z</time>
      </trkpt>
      <trkpt lat="46.5173" lon="0.56643">
        <ele>127.1457962729</ele>
        <time>2021-03-18T10:43:33Z</time>
      </trkpt>
    </trkseg>
  </trk>
</gpx>